<?xml version="1.0" encoding="UTF-8" standalone="no" ?>
<gpx xmlns="http://www.topografix.com/GPX/1/1" xmlns:xsi="http://www.w3.org/2001/XMLSchema-instance" xsi:schemaLocation="http://www.topografix.com/GPX/1/1 http://www.topografix.com/GPX/1/1/gpx.xsd" version="1.1" creator="VisuGPX - https://www.visugpx.com">
  <metadata>
    <name>Ski de rando au Charmant Som</name>
    <desc><![CDATA[Export from GpsPrune]]></desc>
  </metadata>
  <trk>
    <name><![CDATA[GpsPruneTrack]]></name>
    <trkseg>
      <trkpt lat="45.30962" lon="5.76924">
        <ele>1106.61</ele>
        <time>2000-03-06T09:07:12.000+01:00</time>
      </trkpt>
      <trkpt lat="45.30962" lon="5.76924">
        <ele>1106.61</ele>
        <time>2000-03-06T09:07:18.000+01:00</time>
      </trkpt>
      <trkpt lat="45.30962" lon="5.76924">
        <ele>1106.61</ele>
        <time>2000-03-06T09:07:24.000+01:00</time>
      </trkpt>
      <trkpt lat="45.30962" lon="5.76924">
        <ele>1106.61</ele>
        <time>2000-03-06T09:07:30.000+01:00</time>
      </trkpt>
      <trkpt lat="45.30962" lon="5.76924">
        <ele>1106.61</ele>
        <time>2000-03-06T09:07:36.000+01:00</time>
      </trkpt>
      <trkpt lat="45.30962" lon="5.76924">
        <ele>1106.61</ele>
        <time>2000-03-06T09:07:42.000+01:00</time>
      </trkpt>
      <trkpt lat="45.30962" lon="5.76924">
        <ele>1106.61</ele>
        <time>2000-03-06T09:07:48.000+01:00</time>
      </trkpt>
      <trkpt lat="45.30962" lon="5.76924">
        <ele>1106.61</ele>
        <time>2000-03-06T09:07:54.000+01:00</time>
      </trkpt>
      <trkpt lat="45.30962" lon="5.76924">
        <ele>1106.61</ele>
        <time>2000-03-06T09:08:00.000+01:00</time>
      </trkpt>
      <trkpt lat="45.30962" lon="5.76924">
        <ele>1106.61</ele>
        <time>2000-03-06T09:08:06.000+01:00</time>
      </trkpt>
      <trkpt lat="45.30962" lon="5.76924">
        <ele>1106.61</ele>
        <time>2000-03-06T09:08:12.000+01:00</time>
      </trkpt>
      <trkpt lat="45.30962" lon="5.76924">
        <ele>1106.61</ele>
        <time>2000-03-06T09:08:18.000+01:00</time>
      </trkpt>
      <trkpt lat="45.30962" lon="5.76924">
        <ele>1106.61</ele>
        <time>2000-03-06T09:08:24.000+01:00</time>
      </trkpt>
      <trkpt lat="45.30962" lon="5.76924">
        <ele>1106.61</ele>
        <time>2000-03-06T09:08:30.000+01:00</time>
      </trkpt>
      <trkpt lat="45.30962" lon="5.76924">
        <ele>1106.61</ele>
        <time>2000-03-06T09:08:36.000+01:00</time>
      </trkpt>
      <trkpt lat="45.30962" lon="5.76924">
        <ele>1106.61</ele>
        <time>2000-03-06T09:08:42.000+01:00</time>
      </trkpt>
      <trkpt lat="45.30962" lon="5.76924">
        <ele>1106.61</ele>
        <time>2000-03-06T09:08:48.000+01:00</time>
      </trkpt>
      <trkpt lat="45.30962" lon="5.76924">
        <ele>1106.61</ele>
        <time>2000-03-06T09:08:54.000+01:00</time>
      </trkpt>
      <trkpt lat="45.30962" lon="5.76924">
        <ele>1106.61</ele>
        <time>2000-03-06T09:09:00.000+01:00</time>
      </trkpt>
      <trkpt lat="45.30962" lon="5.76924">
        <ele>1106.61</ele>
        <time>2000-03-06T09:09:06.000+01:00</time>
      </trkpt>
      <trkpt lat="45.30962" lon="5.76924">
        <ele>1106.61</ele>
        <time>2000-03-06T09:09:12.000+01:00</time>
      </trkpt>
      <trkpt lat="45.30962" lon="5.76924">
        <ele>1106.61</ele>
        <time>2000-03-06T09:09:18.000+01:00</time>
      </trkpt>
      <trkpt lat="45.30952" lon="5.76879">
        <ele>1128.77</ele>
        <time>2000-03-06T09:09:24.000+01:00</time>
      </trkpt>
      <trkpt lat="45.30949" lon="5.76872">
        <ele>1126.86</ele>
        <time>2000-03-06T09:09:30.000+01:00</time>
      </trkpt>
      <trkpt lat="45.30948" lon="5.76861">
        <ele>1126.68</ele>
        <time>2000-03-06T09:09:36.001+01:00</time>
      </trkpt>
      <trkpt lat="45.30948" lon="5.76861">
        <ele>1126.68</ele>
        <time>2000-03-06T09:09:42.001+01:00</time>
      </trkpt>
      <trkpt lat="45.30948" lon="5.76861">
        <ele>1126.68</ele>
        <time>2000-03-06T09:09:48.001+01:00</time>
      </trkpt>
      <trkpt lat="45.30941" lon="5.76842">
        <ele>1129.18</ele>
        <time>2000-03-06T09:09:54.001+01:00</time>
      </trkpt>
      <trkpt lat="45.3094" lon="5.76838">
        <ele>1131.91</ele>
        <time>2000-03-06T09:10:00.000+01:00</time>
      </trkpt>
      <trkpt lat="45.3094" lon="5.76838">
        <ele>1131.91</ele>
        <time>2000-03-06T09:10:06.001+01:00</time>
      </trkpt>
      <trkpt lat="45.3094" lon="5.76838">
        <ele>1131.91</ele>
        <time>2000-03-06T09:10:12.000+01:00</time>
      </trkpt>
      <trkpt lat="45.3094" lon="5.76838">
        <ele>1131.91</ele>
        <time>2000-03-06T09:10:18.000+01:00</time>
      </trkpt>
      <trkpt lat="45.3094" lon="5.76838">
        <ele>1131.91</ele>
        <time>2000-03-06T09:10:24.000+01:00</time>
      </trkpt>
      <trkpt lat="45.3094" lon="5.76838">
        <ele>1131.91</ele>
        <time>2000-03-06T09:10:30.000+01:00</time>
      </trkpt>
      <trkpt lat="45.3094" lon="5.76838">
        <ele>1131.91</ele>
        <time>2000-03-06T09:10:36.000+01:00</time>
      </trkpt>
      <trkpt lat="45.3094" lon="5.76838">
        <ele>1131.91</ele>
        <time>2000-03-06T09:10:42.000+01:00</time>
      </trkpt>
      <trkpt lat="45.3094" lon="5.76838">
        <ele>1131.91</ele>
        <time>2000-03-06T09:10:48.000+01:00</time>
      </trkpt>
      <trkpt lat="45.3094" lon="5.76838">
        <ele>1131.91</ele>
        <time>2000-03-06T09:10:54.001+01:00</time>
      </trkpt>
      <trkpt lat="45.3094" lon="5.76838">
        <ele>1131.91</ele>
        <time>2000-03-06T09:11:00.000+01:00</time>
      </trkpt>
      <trkpt lat="45.3094" lon="5.76838">
        <ele>1131.91</ele>
        <time>2000-03-06T09:11:06.000+01:00</time>
      </trkpt>
      <trkpt lat="45.3094" lon="5.76838">
        <ele>1131.91</ele>
        <time>2000-03-06T09:11:12.000+01:00</time>
      </trkpt>
      <trkpt lat="45.3094" lon="5.76838">
        <ele>1131.91</ele>
        <time>2000-03-06T09:11:18.000+01:00</time>
      </trkpt>
      <trkpt lat="45.3094" lon="5.76838">
        <ele>1131.91</ele>
        <time>2000-03-06T09:11:24.000+01:00</time>
      </trkpt>
      <trkpt lat="45.3094" lon="5.76838">
        <ele>1131.91</ele>
        <time>2000-03-06T09:11:30.000+01:00</time>
      </trkpt>
      <trkpt lat="45.3094" lon="5.76838">
        <ele>1131.91</ele>
        <time>2000-03-06T09:11:36.000+01:00</time>
      </trkpt>
      <trkpt lat="45.3094" lon="5.76838">
        <ele>1131.91</ele>
        <time>2000-03-06T09:11:42.000+01:00</time>
      </trkpt>
      <trkpt lat="45.3094" lon="5.76838">
        <ele>1131.91</ele>
        <time>2000-03-06T09:11:48.000+01:00</time>
      </trkpt>
      <trkpt lat="45.3094" lon="5.76838">
        <ele>1131.91</ele>
        <time>2000-03-06T09:11:54.000+01:00</time>
      </trkpt>
      <trkpt lat="45.3094" lon="5.76838">
        <ele>1131.91</ele>
        <time>2000-03-06T09:12:00.000+01:00</time>
      </trkpt>
      <trkpt lat="45.3094" lon="5.76838">
        <ele>1131.91</ele>
        <time>2000-03-06T09:12:06.000+01:00</time>
      </trkpt>
      <trkpt lat="45.3094" lon="5.76838">
        <ele>1131.91</ele>
        <time>2000-03-06T09:12:12.000+01:00</time>
      </trkpt>
      <trkpt lat="45.3094" lon="5.76838">
        <ele>1131.91</ele>
        <time>2000-03-06T09:12:18.000+01:00</time>
      </trkpt>
      <trkpt lat="45.3094" lon="5.76838">
        <ele>1131.91</ele>
        <time>2000-03-06T09:12:24.001+01:00</time>
      </trkpt>
      <trkpt lat="45.3089" lon="5.76777">
        <ele>1159.13</ele>
        <time>2000-03-06T09:12:29.999+01:00</time>
      </trkpt>
      <trkpt lat="45.30889" lon="5.76775">
        <ele>1159.68</ele>
        <time>2000-03-06T09:12:36.000+01:00</time>
      </trkpt>
      <trkpt lat="45.30889" lon="5.76775">
        <ele>1159.68</ele>
        <time>2000-03-06T09:12:42.000+01:00</time>
      </trkpt>
      <trkpt lat="45.30889" lon="5.76775">
        <ele>1159.68</ele>
        <time>2000-03-06T09:12:48.000+01:00</time>
      </trkpt>
      <trkpt lat="45.30889" lon="5.76775">
        <ele>1159.68</ele>
        <time>2000-03-06T09:12:54.000+01:00</time>
      </trkpt>
      <trkpt lat="45.30889" lon="5.76775">
        <ele>1159.68</ele>
        <time>2000-03-06T09:13:00.000+01:00</time>
      </trkpt>
      <trkpt lat="45.30889" lon="5.76775">
        <ele>1159.68</ele>
        <time>2000-03-06T09:13:06.000+01:00</time>
      </trkpt>
      <trkpt lat="45.30889" lon="5.76775">
        <ele>1159.68</ele>
        <time>2000-03-06T09:13:12.000+01:00</time>
      </trkpt>
      <trkpt lat="45.30889" lon="5.76775">
        <ele>1159.68</ele>
        <time>2000-03-06T09:13:18.000+01:00</time>
      </trkpt>
      <trkpt lat="45.30865" lon="5.76758">
        <ele>1165.74</ele>
        <time>2000-03-06T09:13:24.000+01:00</time>
      </trkpt>
      <trkpt lat="45.30865" lon="5.76756">
        <ele>1165.42</ele>
        <time>2000-03-06T09:13:30.000+01:00</time>
      </trkpt>
      <trkpt lat="45.30865" lon="5.76756">
        <ele>1165.42</ele>
        <time>2000-03-06T09:13:36.000+01:00</time>
      </trkpt>
      <trkpt lat="45.30865" lon="5.76756">
        <ele>1165.42</ele>
        <time>2000-03-06T09:13:42.000+01:00</time>
      </trkpt>
      <trkpt lat="45.30865" lon="5.76756">
        <ele>1165.42</ele>
        <time>2000-03-06T09:13:48.000+01:00</time>
      </trkpt>
      <trkpt lat="45.30865" lon="5.76756">
        <ele>1165.42</ele>
        <time>2000-03-06T09:13:54.000+01:00</time>
      </trkpt>
      <trkpt lat="45.30865" lon="5.76756">
        <ele>1165.42</ele>
        <time>2000-03-06T09:14:00.000+01:00</time>
      </trkpt>
      <trkpt lat="45.30865" lon="5.76756">
        <ele>1165.42</ele>
        <time>2000-03-06T09:14:06.000+01:00</time>
      </trkpt>
      <trkpt lat="45.30865" lon="5.76756">
        <ele>1165.42</ele>
        <time>2000-03-06T09:14:12.000+01:00</time>
      </trkpt>
      <trkpt lat="45.30865" lon="5.76756">
        <ele>1165.42</ele>
        <time>2000-03-06T09:14:18.000+01:00</time>
      </trkpt>
      <trkpt lat="45.30833" lon="5.76717">
        <ele>1168.62</ele>
        <time>2000-03-06T09:14:24.000+01:00</time>
      </trkpt>
      <trkpt lat="45.30826" lon="5.76713">
        <ele>1169.53</ele>
        <time>2000-03-06T09:14:30.000+01:00</time>
      </trkpt>
      <trkpt lat="45.30823" lon="5.76711">
        <ele>1171.15</ele>
        <time>2000-03-06T09:14:36.000+01:00</time>
      </trkpt>
      <trkpt lat="45.30815" lon="5.76706">
        <ele>1172.34</ele>
        <time>2000-03-06T09:14:42.001+01:00</time>
      </trkpt>
      <trkpt lat="45.30813" lon="5.76701">
        <ele>1172.28</ele>
        <time>2000-03-06T09:14:48.000+01:00</time>
      </trkpt>
      <trkpt lat="45.30813" lon="5.76699">
        <ele>1173.26</ele>
        <time>2000-03-06T09:14:54.001+01:00</time>
      </trkpt>
      <trkpt lat="45.30813" lon="5.76699">
        <ele>1173.26</ele>
        <time>2000-03-06T09:15:00.000+01:00</time>
      </trkpt>
      <trkpt lat="45.30813" lon="5.76699">
        <ele>1173.26</ele>
        <time>2000-03-06T09:15:06.000+01:00</time>
      </trkpt>
      <trkpt lat="45.30813" lon="5.76699">
        <ele>1173.26</ele>
        <time>2000-03-06T09:15:12.000+01:00</time>
      </trkpt>
      <trkpt lat="45.30813" lon="5.76699">
        <ele>1173.26</ele>
        <time>2000-03-06T09:15:18.000+01:00</time>
      </trkpt>
      <trkpt lat="45.30813" lon="5.76699">
        <ele>1173.26</ele>
        <time>2000-03-06T09:15:24.000+01:00</time>
      </trkpt>
      <trkpt lat="45.30813" lon="5.76699">
        <ele>1173.26</ele>
        <time>2000-03-06T09:15:30.000+01:00</time>
      </trkpt>
      <trkpt lat="45.30813" lon="5.76699">
        <ele>1173.26</ele>
        <time>2000-03-06T09:15:36.000+01:00</time>
      </trkpt>
      <trkpt lat="45.30813" lon="5.76699">
        <ele>1173.26</ele>
        <time>2000-03-06T09:15:42.001+01:00</time>
      </trkpt>
      <trkpt lat="45.30813" lon="5.76699">
        <ele>1173.26</ele>
        <time>2000-03-06T09:15:48.000+01:00</time>
      </trkpt>
      <trkpt lat="45.30813" lon="5.76699">
        <ele>1173.26</ele>
        <time>2000-03-06T09:15:54.000+01:00</time>
      </trkpt>
      <trkpt lat="45.30813" lon="5.76699">
        <ele>1173.26</ele>
        <time>2000-03-06T09:16:00.000+01:00</time>
      </trkpt>
      <trkpt lat="45.30813" lon="5.76699">
        <ele>1173.26</ele>
        <time>2000-03-06T09:16:06.000+01:00</time>
      </trkpt>
      <trkpt lat="45.30813" lon="5.76699">
        <ele>1173.26</ele>
        <time>2000-03-06T09:16:12.002+01:00</time>
      </trkpt>
      <trkpt lat="45.30813" lon="5.76699">
        <ele>1173.26</ele>
        <time>2000-03-06T09:16:18.000+01:00</time>
      </trkpt>
      <trkpt lat="45.30813" lon="5.76699">
        <ele>1173.26</ele>
        <time>2000-03-06T09:16:24.000+01:00</time>
      </trkpt>
      <trkpt lat="45.30813" lon="5.76699">
        <ele>1173.26</ele>
        <time>2000-03-06T09:16:30.000+01:00</time>
      </trkpt>
      <trkpt lat="45.30813" lon="5.76699">
        <ele>1173.26</ele>
        <time>2000-03-06T09:16:36.000+01:00</time>
      </trkpt>
      <trkpt lat="45.30813" lon="5.76699">
        <ele>1173.26</ele>
        <time>2000-03-06T09:16:42.000+01:00</time>
      </trkpt>
      <trkpt lat="45.30813" lon="5.76699">
        <ele>1173.26</ele>
        <time>2000-03-06T09:16:48.000+01:00</time>
      </trkpt>
      <trkpt lat="45.30813" lon="5.76699">
        <ele>1173.26</ele>
        <time>2000-03-06T09:16:54.000+01:00</time>
      </trkpt>
      <trkpt lat="45.30813" lon="5.76699">
        <ele>1173.26</ele>
        <time>2000-03-06T09:17:00.000+01:00</time>
      </trkpt>
      <trkpt lat="45.30813" lon="5.76699">
        <ele>1173.26</ele>
        <time>2000-03-06T09:17:06.000+01:00</time>
      </trkpt>
      <trkpt lat="45.30813" lon="5.76699">
        <ele>1173.26</ele>
        <time>2000-03-06T09:17:12.000+01:00</time>
      </trkpt>
      <trkpt lat="45.30813" lon="5.76699">
        <ele>1173.26</ele>
        <time>2000-03-06T09:17:18.000+01:00</time>
      </trkpt>
      <trkpt lat="45.30813" lon="5.76699">
        <ele>1173.26</ele>
        <time>2000-03-06T09:17:24.000+01:00</time>
      </trkpt>
      <trkpt lat="45.30813" lon="5.76699">
        <ele>1173.26</ele>
        <time>2000-03-06T09:17:30.000+01:00</time>
      </trkpt>
      <trkpt lat="45.30813" lon="5.76699">
        <ele>1173.26</ele>
        <time>2000-03-06T09:17:36.000+01:00</time>
      </trkpt>
      <trkpt lat="45.30813" lon="5.76699">
        <ele>1173.26</ele>
        <time>2000-03-06T09:17:42.000+01:00</time>
      </trkpt>
      <trkpt lat="45.30813" lon="5.76699">
        <ele>1173.26</ele>
        <time>2000-03-06T09:17:48.001+01:00</time>
      </trkpt>
      <trkpt lat="45.30813" lon="5.76699">
        <ele>1173.26</ele>
        <time>2000-03-06T09:17:54.000+01:00</time>
      </trkpt>
      <trkpt lat="45.30813" lon="5.76699">
        <ele>1173.26</ele>
        <time>2000-03-06T09:18:00.000+01:00</time>
      </trkpt>
      <trkpt lat="45.30813" lon="5.76699">
        <ele>1173.26</ele>
        <time>2000-03-06T09:18:06.000+01:00</time>
      </trkpt>
      <trkpt lat="45.30813" lon="5.76699">
        <ele>1173.26</ele>
        <time>2000-03-06T09:18:12.000+01:00</time>
      </trkpt>
      <trkpt lat="45.30813" lon="5.76699">
        <ele>1173.26</ele>
        <time>2000-03-06T09:18:18.000+01:00</time>
      </trkpt>
      <trkpt lat="45.30813" lon="5.76699">
        <ele>1173.26</ele>
        <time>2000-03-06T09:18:24.000+01:00</time>
      </trkpt>
      <trkpt lat="45.30813" lon="5.76699">
        <ele>1173.26</ele>
        <time>2000-03-06T09:18:30.000+01:00</time>
      </trkpt>
      <trkpt lat="45.30813" lon="5.76699">
        <ele>1173.26</ele>
        <time>2000-03-06T09:18:36.000+01:00</time>
      </trkpt>
      <trkpt lat="45.30813" lon="5.76699">
        <ele>1173.26</ele>
        <time>2000-03-06T09:18:42.000+01:00</time>
      </trkpt>
      <trkpt lat="45.30813" lon="5.76699">
        <ele>1173.26</ele>
        <time>2000-03-06T09:18:48.000+01:00</time>
      </trkpt>
      <trkpt lat="45.30813" lon="5.76699">
        <ele>1173.26</ele>
        <time>2000-03-06T09:18:54.000+01:00</time>
      </trkpt>
      <trkpt lat="45.30813" lon="5.76699">
        <ele>1173.26</ele>
        <time>2000-03-06T09:19:00.000+01:00</time>
      </trkpt>
      <trkpt lat="45.30807" lon="5.76642">
        <ele>1169.51</ele>
        <time>2000-03-06T09:19:06.000+01:00</time>
      </trkpt>
      <trkpt lat="45.30807" lon="5.7664">
        <ele>1168.63</ele>
        <time>2000-03-06T09:19:12.002+01:00</time>
      </trkpt>
      <trkpt lat="45.30807" lon="5.7664">
        <ele>1168.63</ele>
        <time>2000-03-06T09:19:18.000+01:00</time>
      </trkpt>
      <trkpt lat="45.30807" lon="5.7664">
        <ele>1168.63</ele>
        <time>2000-03-06T09:19:24.000+01:00</time>
      </trkpt>
      <trkpt lat="45.30807" lon="5.7664">
        <ele>1168.63</ele>
        <time>2000-03-06T09:19:30.000+01:00</time>
      </trkpt>
      <trkpt lat="45.30807" lon="5.7664">
        <ele>1168.63</ele>
        <time>2000-03-06T09:19:36.000+01:00</time>
      </trkpt>
      <trkpt lat="45.30807" lon="5.7664">
        <ele>1168.63</ele>
        <time>2000-03-06T09:19:42.000+01:00</time>
      </trkpt>
      <trkpt lat="45.3081" lon="5.76603">
        <ele>1173.33</ele>
        <time>2000-03-06T09:19:48.000+01:00</time>
      </trkpt>
      <trkpt lat="45.30811" lon="5.76602">
        <ele>1172.25</ele>
        <time>2000-03-06T09:19:54.000+01:00</time>
      </trkpt>
      <trkpt lat="45.30811" lon="5.76602">
        <ele>1172.25</ele>
        <time>2000-03-06T09:20:00.000+01:00</time>
      </trkpt>
      <trkpt lat="45.30811" lon="5.76602">
        <ele>1172.25</ele>
        <time>2000-03-06T09:20:06.000+01:00</time>
      </trkpt>
      <trkpt lat="45.30812" lon="5.76579">
        <ele>1167.22</ele>
        <time>2000-03-06T09:20:12.000+01:00</time>
      </trkpt>
      <trkpt lat="45.30812" lon="5.76579">
        <ele>1167.22</ele>
        <time>2000-03-06T09:20:18.000+01:00</time>
      </trkpt>
      <trkpt lat="45.30812" lon="5.76564">
        <ele>1164.86</ele>
        <time>2000-03-06T09:20:24.000+01:00</time>
      </trkpt>
      <trkpt lat="45.30812" lon="5.76561">
        <ele>1163.83</ele>
        <time>2000-03-06T09:20:30.000+01:00</time>
      </trkpt>
      <trkpt lat="45.30812" lon="5.76561">
        <ele>1163.83</ele>
        <time>2000-03-06T09:20:36.000+01:00</time>
      </trkpt>
      <trkpt lat="45.30812" lon="5.76561">
        <ele>1163.83</ele>
        <time>2000-03-06T09:20:42.000+01:00</time>
      </trkpt>
      <trkpt lat="45.30812" lon="5.76561">
        <ele>1163.83</ele>
        <time>2000-03-06T09:20:48.000+01:00</time>
      </trkpt>
      <trkpt lat="45.30812" lon="5.76561">
        <ele>1163.83</ele>
        <time>2000-03-06T09:20:54.001+01:00</time>
      </trkpt>
      <trkpt lat="45.30808" lon="5.7654">
        <ele>1173.77</ele>
        <time>2000-03-06T09:21:00.000+01:00</time>
      </trkpt>
      <trkpt lat="45.30808" lon="5.7654">
        <ele>1173.77</ele>
        <time>2000-03-06T09:21:06.000+01:00</time>
      </trkpt>
      <trkpt lat="45.30809" lon="5.7654">
        <ele>1184.99</ele>
        <time>2000-03-06T09:21:12.000+01:00</time>
      </trkpt>
      <trkpt lat="45.30809" lon="5.7654">
        <ele>1184.99</ele>
        <time>2000-03-06T09:21:18.000+01:00</time>
      </trkpt>
      <trkpt lat="45.30809" lon="5.7654">
        <ele>1184.99</ele>
        <time>2000-03-06T09:21:24.000+01:00</time>
      </trkpt>
      <trkpt lat="45.30809" lon="5.7654">
        <ele>1184.99</ele>
        <time>2000-03-06T09:21:30.000+01:00</time>
      </trkpt>
      <trkpt lat="45.30809" lon="5.7654">
        <ele>1184.99</ele>
        <time>2000-03-06T09:21:36.000+01:00</time>
      </trkpt>
      <trkpt lat="45.30809" lon="5.7654">
        <ele>1184.99</ele>
        <time>2000-03-06T09:21:42.000+01:00</time>
      </trkpt>
      <trkpt lat="45.30809" lon="5.7654">
        <ele>1184.99</ele>
        <time>2000-03-06T09:21:48.000+01:00</time>
      </trkpt>
      <trkpt lat="45.30809" lon="5.7654">
        <ele>1184.99</ele>
        <time>2000-03-06T09:21:54.000+01:00</time>
      </trkpt>
      <trkpt lat="45.30809" lon="5.7654">
        <ele>1184.99</ele>
        <time>2000-03-06T09:22:00.000+01:00</time>
      </trkpt>
      <trkpt lat="45.30809" lon="5.7654">
        <ele>1184.99</ele>
        <time>2000-03-06T09:22:06.000+01:00</time>
      </trkpt>
      <trkpt lat="45.30809" lon="5.7654">
        <ele>1184.99</ele>
        <time>2000-03-06T09:22:11.998+01:00</time>
      </trkpt>
      <trkpt lat="45.30809" lon="5.7654">
        <ele>1184.99</ele>
        <time>2000-03-06T09:22:18.000+01:00</time>
      </trkpt>
      <trkpt lat="45.30841" lon="5.76481">
        <ele>1230.23</ele>
        <time>2000-03-06T09:22:24.000+01:00</time>
      </trkpt>
      <trkpt lat="45.30844" lon="5.76472">
        <ele>1227.88</ele>
        <time>2000-03-06T09:22:30.000+01:00</time>
      </trkpt>
      <trkpt lat="45.30846" lon="5.76464">
        <ele>1224.29</ele>
        <time>2000-03-06T09:22:36.000+01:00</time>
      </trkpt>
      <trkpt lat="45.30847" lon="5.76453">
        <ele>1220.64</ele>
        <time>2000-03-06T09:22:42.000+01:00</time>
      </trkpt>
      <trkpt lat="45.30845" lon="5.76445">
        <ele>1221.48</ele>
        <time>2000-03-06T09:22:48.000+01:00</time>
      </trkpt>
      <trkpt lat="45.30845" lon="5.76441">
        <ele>1221.83</ele>
        <time>2000-03-06T09:22:54.000+01:00</time>
      </trkpt>
      <trkpt lat="45.30842" lon="5.76432">
        <ele>1222.48</ele>
        <time>2000-03-06T09:23:00.000+01:00</time>
      </trkpt>
      <trkpt lat="45.30842" lon="5.76432">
        <ele>1222.48</ele>
        <time>2000-03-06T09:23:06.000+01:00</time>
      </trkpt>
      <trkpt lat="45.30842" lon="5.76432">
        <ele>1222.48</ele>
        <time>2000-03-06T09:23:12.000+01:00</time>
      </trkpt>
      <trkpt lat="45.30842" lon="5.76409">
        <ele>1223.96</ele>
        <time>2000-03-06T09:23:18.001+01:00</time>
      </trkpt>
      <trkpt lat="45.3084" lon="5.76404">
        <ele>1224.22</ele>
        <time>2000-03-06T09:23:24.000+01:00</time>
      </trkpt>
      <trkpt lat="45.3084" lon="5.76404">
        <ele>1224.22</ele>
        <time>2000-03-06T09:23:30.000+01:00</time>
      </trkpt>
      <trkpt lat="45.3084" lon="5.76404">
        <ele>1224.22</ele>
        <time>2000-03-06T09:23:35.800+01:00</time>
      </trkpt>
      <trkpt lat="45.3084" lon="5.76404">
        <ele>1224.22</ele>
        <time>2000-03-06T09:23:42.000+01:00</time>
      </trkpt>
      <trkpt lat="45.3084" lon="5.76404">
        <ele>1224.22</ele>
        <time>2000-03-06T09:23:48.000+01:00</time>
      </trkpt>
      <trkpt lat="45.3084" lon="5.76404">
        <ele>1224.22</ele>
        <time>2000-03-06T09:23:54.000+01:00</time>
      </trkpt>
      <trkpt lat="45.3084" lon="5.76404">
        <ele>1224.22</ele>
        <time>2000-03-06T09:24:00.001+01:00</time>
      </trkpt>
      <trkpt lat="45.3084" lon="5.76404">
        <ele>1224.22</ele>
        <time>2000-03-06T09:24:06.000+01:00</time>
      </trkpt>
      <trkpt lat="45.3084" lon="5.76404">
        <ele>1224.22</ele>
        <time>2000-03-06T09:24:12.000+01:00</time>
      </trkpt>
      <trkpt lat="45.3084" lon="5.76404">
        <ele>1224.22</ele>
        <time>2000-03-06T09:24:18.000+01:00</time>
      </trkpt>
      <trkpt lat="45.3084" lon="5.76404">
        <ele>1224.22</ele>
        <time>2000-03-06T09:24:24.000+01:00</time>
      </trkpt>
      <trkpt lat="45.30818" lon="5.76346">
        <ele>1234</ele>
        <time>2000-03-06T09:24:30.000+01:00</time>
      </trkpt>
      <trkpt lat="45.30817" lon="5.76345">
        <ele>1234.75</ele>
        <time>2000-03-06T09:24:36.000+01:00</time>
      </trkpt>
      <trkpt lat="45.30817" lon="5.76345">
        <ele>1234.75</ele>
        <time>2000-03-06T09:24:41.800+01:00</time>
      </trkpt>
      <trkpt lat="45.30817" lon="5.76345">
        <ele>1234.75</ele>
        <time>2000-03-06T09:24:47.000+01:00</time>
      </trkpt>
      <trkpt lat="45.30817" lon="5.76345">
        <ele>1234.75</ele>
        <time>2000-03-06T09:24:53.000+01:00</time>
      </trkpt>
      <trkpt lat="45.30817" lon="5.76345">
        <ele>1234.75</ele>
        <time>2000-03-06T09:24:59.000+01:00</time>
      </trkpt>
      <trkpt lat="45.30817" lon="5.76345">
        <ele>1234.75</ele>
        <time>2000-03-06T09:25:05.000+01:00</time>
      </trkpt>
      <trkpt lat="45.30817" lon="5.76345">
        <ele>1234.75</ele>
        <time>2000-03-06T09:25:11.000+01:00</time>
      </trkpt>
      <trkpt lat="45.30817" lon="5.76345">
        <ele>1234.75</ele>
        <time>2000-03-06T09:25:17.000+01:00</time>
      </trkpt>
      <trkpt lat="45.30811" lon="5.76299">
        <ele>1238.58</ele>
        <time>2000-03-06T09:25:23.000+01:00</time>
      </trkpt>
      <trkpt lat="45.3081" lon="5.76297">
        <ele>1239.48</ele>
        <time>2000-03-06T09:25:29.000+01:00</time>
      </trkpt>
      <trkpt lat="45.3081" lon="5.76297">
        <ele>1239.48</ele>
        <time>2000-03-06T09:25:35.000+01:00</time>
      </trkpt>
      <trkpt lat="45.30803" lon="5.7629">
        <ele>1241.95</ele>
        <time>2000-03-06T09:25:41.000+01:00</time>
      </trkpt>
      <trkpt lat="45.308" lon="5.76287">
        <ele>1241.63</ele>
        <time>2000-03-06T09:25:47.000+01:00</time>
      </trkpt>
      <trkpt lat="45.30797" lon="5.76281">
        <ele>1241.17</ele>
        <time>2000-03-06T09:25:53.000+01:00</time>
      </trkpt>
      <trkpt lat="45.30797" lon="5.76275">
        <ele>1239.83</ele>
        <time>2000-03-06T09:25:59.000+01:00</time>
      </trkpt>
      <trkpt lat="45.30796" lon="5.76268">
        <ele>1238.62</ele>
        <time>2000-03-06T09:26:05.000+01:00</time>
      </trkpt>
      <trkpt lat="45.30791" lon="5.76265">
        <ele>1238.37</ele>
        <time>2000-03-06T09:26:11.000+01:00</time>
      </trkpt>
      <trkpt lat="45.3079" lon="5.76263">
        <ele>1238.26</ele>
        <time>2000-03-06T09:26:17.000+01:00</time>
      </trkpt>
      <trkpt lat="45.3079" lon="5.76263">
        <ele>1238.26</ele>
        <time>2000-03-06T09:26:23.000+01:00</time>
      </trkpt>
      <trkpt lat="45.30782" lon="5.76252">
        <ele>1242.04</ele>
        <time>2000-03-06T09:26:29.000+01:00</time>
      </trkpt>
      <trkpt lat="45.30782" lon="5.76252">
        <ele>1242.04</ele>
        <time>2000-03-06T09:26:35.000+01:00</time>
      </trkpt>
      <trkpt lat="45.3078" lon="5.76243">
        <ele>1245.47</ele>
        <time>2000-03-06T09:26:41.000+01:00</time>
      </trkpt>
      <trkpt lat="45.30777" lon="5.76243">
        <ele>1246.75</ele>
        <time>2000-03-06T09:26:47.000+01:00</time>
      </trkpt>
      <trkpt lat="45.30777" lon="5.76243">
        <ele>1246.75</ele>
        <time>2000-03-06T09:26:53.001+01:00</time>
      </trkpt>
      <trkpt lat="45.30777" lon="5.76243">
        <ele>1246.75</ele>
        <time>2000-03-06T09:26:59.000+01:00</time>
      </trkpt>
      <trkpt lat="45.30777" lon="5.76243">
        <ele>1246.75</ele>
        <time>2000-03-06T09:27:05.001+01:00</time>
      </trkpt>
      <trkpt lat="45.30777" lon="5.76243">
        <ele>1246.75</ele>
        <time>2000-03-06T09:27:11.000+01:00</time>
      </trkpt>
      <trkpt lat="45.30777" lon="5.76243">
        <ele>1246.75</ele>
        <time>2000-03-06T09:27:17.001+01:00</time>
      </trkpt>
      <trkpt lat="45.30777" lon="5.76243">
        <ele>1246.75</ele>
        <time>2000-03-06T09:27:23.001+01:00</time>
      </trkpt>
      <trkpt lat="45.30767" lon="5.76209">
        <ele>1260.52</ele>
        <time>2000-03-06T09:27:29.000+01:00</time>
      </trkpt>
      <trkpt lat="45.30761" lon="5.76209">
        <ele>1261.68</ele>
        <time>2000-03-06T09:27:35.001+01:00</time>
      </trkpt>
      <trkpt lat="45.30759" lon="5.76203">
        <ele>1261.32</ele>
        <time>2000-03-06T09:27:41.000+01:00</time>
      </trkpt>
      <trkpt lat="45.30763" lon="5.76196">
        <ele>1261.89</ele>
        <time>2000-03-06T09:27:47.000+01:00</time>
      </trkpt>
      <trkpt lat="45.30763" lon="5.76196">
        <ele>1261.89</ele>
        <time>2000-03-06T09:27:53.000+01:00</time>
      </trkpt>
      <trkpt lat="45.30763" lon="5.76196">
        <ele>1261.89</ele>
        <time>2000-03-06T09:27:59.000+01:00</time>
      </trkpt>
      <trkpt lat="45.30755" lon="5.76185">
        <ele>1264.19</ele>
        <time>2000-03-06T09:28:05.001+01:00</time>
      </trkpt>
      <trkpt lat="45.30748" lon="5.76182">
        <ele>1263.59</ele>
        <time>2000-03-06T09:28:11.001+01:00</time>
      </trkpt>
      <trkpt lat="45.30743" lon="5.76178">
        <ele>1264.32</ele>
        <time>2000-03-06T09:28:17.000+01:00</time>
      </trkpt>
      <trkpt lat="45.3074" lon="5.76173">
        <ele>1265.86</ele>
        <time>2000-03-06T09:28:23.000+01:00</time>
      </trkpt>
      <trkpt lat="45.30738" lon="5.76166">
        <ele>1267.72</ele>
        <time>2000-03-06T09:28:29.000+01:00</time>
      </trkpt>
      <trkpt lat="45.30734" lon="5.76161">
        <ele>1268.77</ele>
        <time>2000-03-06T09:28:35.001+01:00</time>
      </trkpt>
      <trkpt lat="45.30728" lon="5.76159">
        <ele>1269.26</ele>
        <time>2000-03-06T09:28:41.000+01:00</time>
      </trkpt>
      <trkpt lat="45.30723" lon="5.76155">
        <ele>1268.7</ele>
        <time>2000-03-06T09:28:47.000+01:00</time>
      </trkpt>
      <trkpt lat="45.30723" lon="5.76147">
        <ele>1271.06</ele>
        <time>2000-03-06T09:28:53.001+01:00</time>
      </trkpt>
      <trkpt lat="45.30723" lon="5.76139">
        <ele>1272.38</ele>
        <time>2000-03-06T09:28:59.001+01:00</time>
      </trkpt>
      <trkpt lat="45.30717" lon="5.76138">
        <ele>1273.99</ele>
        <time>2000-03-06T09:29:05.001+01:00</time>
      </trkpt>
      <trkpt lat="45.30717" lon="5.7613">
        <ele>1276.82</ele>
        <time>2000-03-06T09:29:11.001+01:00</time>
      </trkpt>
      <trkpt lat="45.30713" lon="5.76127">
        <ele>1277.85</ele>
        <time>2000-03-06T09:29:17.001+01:00</time>
      </trkpt>
      <trkpt lat="45.30711" lon="5.76127">
        <ele>1277.8</ele>
        <time>2000-03-06T09:29:22.999+01:00</time>
      </trkpt>
      <trkpt lat="45.30702" lon="5.76117">
        <ele>1277.43</ele>
        <time>2000-03-06T09:29:29.000+01:00</time>
      </trkpt>
      <trkpt lat="45.30695" lon="5.76111">
        <ele>1277.91</ele>
        <time>2000-03-06T09:29:35.001+01:00</time>
      </trkpt>
      <trkpt lat="45.30693" lon="5.7611">
        <ele>1277.93</ele>
        <time>2000-03-06T09:29:41.001+01:00</time>
      </trkpt>
      <trkpt lat="45.30689" lon="5.76103">
        <ele>1279.75</ele>
        <time>2000-03-06T09:29:47.001+01:00</time>
      </trkpt>
      <trkpt lat="45.30688" lon="5.76098">
        <ele>1280.56</ele>
        <time>2000-03-06T09:29:53.000+01:00</time>
      </trkpt>
      <trkpt lat="45.30687" lon="5.76096">
        <ele>1281.36</ele>
        <time>2000-03-06T09:29:59.001+01:00</time>
      </trkpt>
      <trkpt lat="45.30687" lon="5.76096">
        <ele>1281.36</ele>
        <time>2000-03-06T09:30:05.000+01:00</time>
      </trkpt>
      <trkpt lat="45.30687" lon="5.76096">
        <ele>1281.36</ele>
        <time>2000-03-06T09:30:11.000+01:00</time>
      </trkpt>
      <trkpt lat="45.30674" lon="5.76084">
        <ele>1281.47</ele>
        <time>2000-03-06T09:30:17.000+01:00</time>
      </trkpt>
      <trkpt lat="45.30674" lon="5.76082">
        <ele>1282.93</ele>
        <time>2000-03-06T09:30:23.001+01:00</time>
      </trkpt>
      <trkpt lat="45.30666" lon="5.76082">
        <ele>1289.15</ele>
        <time>2000-03-06T09:30:29.000+01:00</time>
      </trkpt>
      <trkpt lat="45.30667" lon="5.7608">
        <ele>1289.98</ele>
        <time>2000-03-06T09:30:35.000+01:00</time>
      </trkpt>
      <trkpt lat="45.30667" lon="5.7608">
        <ele>1289.98</ele>
        <time>2000-03-06T09:30:41.000+01:00</time>
      </trkpt>
      <trkpt lat="45.30654" lon="5.76079">
        <ele>1290.11</ele>
        <time>2000-03-06T09:30:47.000+01:00</time>
      </trkpt>
      <trkpt lat="45.30649" lon="5.76082">
        <ele>1292.57</ele>
        <time>2000-03-06T09:30:53.000+01:00</time>
      </trkpt>
      <trkpt lat="45.30648" lon="5.76081">
        <ele>1293.58</ele>
        <time>2000-03-06T09:30:59.000+01:00</time>
      </trkpt>
      <trkpt lat="45.30646" lon="5.76071">
        <ele>1293.38</ele>
        <time>2000-03-06T09:31:05.000+01:00</time>
      </trkpt>
      <trkpt lat="45.30647" lon="5.76065">
        <ele>1295.31</ele>
        <time>2000-03-06T09:31:11.000+01:00</time>
      </trkpt>
      <trkpt lat="45.30647" lon="5.76065">
        <ele>1295.31</ele>
        <time>2000-03-06T09:31:17.000+01:00</time>
      </trkpt>
      <trkpt lat="45.30651" lon="5.7606">
        <ele>1294.27</ele>
        <time>2000-03-06T09:31:23.001+01:00</time>
      </trkpt>
      <trkpt lat="45.3065" lon="5.76061">
        <ele>1294.53</ele>
        <time>2000-03-06T09:31:29.000+01:00</time>
      </trkpt>
      <trkpt lat="45.30641" lon="5.7607">
        <ele>1293.27</ele>
        <time>2000-03-06T09:31:35.000+01:00</time>
      </trkpt>
      <trkpt lat="45.30638" lon="5.76074">
        <ele>1292.74</ele>
        <time>2000-03-06T09:31:41.000+01:00</time>
      </trkpt>
      <trkpt lat="45.30638" lon="5.76074">
        <ele>1292.74</ele>
        <time>2000-03-06T09:31:47.000+01:00</time>
      </trkpt>
      <trkpt lat="45.30638" lon="5.76074">
        <ele>1292.74</ele>
        <time>2000-03-06T09:31:53.000+01:00</time>
      </trkpt>
      <trkpt lat="45.30638" lon="5.76074">
        <ele>1292.74</ele>
        <time>2000-03-06T09:31:59.000+01:00</time>
      </trkpt>
      <trkpt lat="45.3063" lon="5.76082">
        <ele>1294.46</ele>
        <time>2000-03-06T09:32:05.000+01:00</time>
      </trkpt>
      <trkpt lat="45.3063" lon="5.76082">
        <ele>1294.58</ele>
        <time>2000-03-06T09:32:11.000+01:00</time>
      </trkpt>
      <trkpt lat="45.3063" lon="5.76082">
        <ele>1294.58</ele>
        <time>2000-03-06T09:32:17.000+01:00</time>
      </trkpt>
      <trkpt lat="45.3063" lon="5.76082">
        <ele>1294.58</ele>
        <time>2000-03-06T09:32:23.000+01:00</time>
      </trkpt>
      <trkpt lat="45.3063" lon="5.76082">
        <ele>1294.58</ele>
        <time>2000-03-06T09:32:29.000+01:00</time>
      </trkpt>
      <trkpt lat="45.3063" lon="5.76082">
        <ele>1294.58</ele>
        <time>2000-03-06T09:32:35.000+01:00</time>
      </trkpt>
      <trkpt lat="45.3063" lon="5.76066">
        <ele>1297.99</ele>
        <time>2000-03-06T09:32:41.000+01:00</time>
      </trkpt>
      <trkpt lat="45.30626" lon="5.76063">
        <ele>1299.65</ele>
        <time>2000-03-06T09:32:47.000+01:00</time>
      </trkpt>
      <trkpt lat="45.30626" lon="5.76063">
        <ele>1299.89</ele>
        <time>2000-03-06T09:32:53.000+01:00</time>
      </trkpt>
      <trkpt lat="45.30626" lon="5.76063">
        <ele>1299.89</ele>
        <time>2000-03-06T09:32:59.000+01:00</time>
      </trkpt>
      <trkpt lat="45.30626" lon="5.76063">
        <ele>1299.89</ele>
        <time>2000-03-06T09:33:05.000+01:00</time>
      </trkpt>
      <trkpt lat="45.30627" lon="5.76045">
        <ele>1302.93</ele>
        <time>2000-03-06T09:33:11.000+01:00</time>
      </trkpt>
      <trkpt lat="45.30623" lon="5.76041">
        <ele>1305.4</ele>
        <time>2000-03-06T09:33:17.000+01:00</time>
      </trkpt>
      <trkpt lat="45.30617" lon="5.76037">
        <ele>1307.32</ele>
        <time>2000-03-06T09:33:23.002+01:00</time>
      </trkpt>
      <trkpt lat="45.30616" lon="5.76036">
        <ele>1307.82</ele>
        <time>2000-03-06T09:33:29.000+01:00</time>
      </trkpt>
      <trkpt lat="45.30616" lon="5.76036">
        <ele>1307.82</ele>
        <time>2000-03-06T09:33:35.000+01:00</time>
      </trkpt>
      <trkpt lat="45.30616" lon="5.76036">
        <ele>1307.82</ele>
        <time>2000-03-06T09:33:41.000+01:00</time>
      </trkpt>
      <trkpt lat="45.30616" lon="5.76036">
        <ele>1307.82</ele>
        <time>2000-03-06T09:33:47.000+01:00</time>
      </trkpt>
      <trkpt lat="45.30616" lon="5.76036">
        <ele>1307.82</ele>
        <time>2000-03-06T09:33:53.000+01:00</time>
      </trkpt>
      <trkpt lat="45.30616" lon="5.76036">
        <ele>1307.82</ele>
        <time>2000-03-06T09:33:59.000+01:00</time>
      </trkpt>
      <trkpt lat="45.30616" lon="5.76036">
        <ele>1307.82</ele>
        <time>2000-03-06T09:34:05.000+01:00</time>
      </trkpt>
      <trkpt lat="45.30616" lon="5.76036">
        <ele>1307.82</ele>
        <time>2000-03-06T09:34:11.001+01:00</time>
      </trkpt>
      <trkpt lat="45.30616" lon="5.76036">
        <ele>1307.82</ele>
        <time>2000-03-06T09:34:17.000+01:00</time>
      </trkpt>
      <trkpt lat="45.30616" lon="5.76036">
        <ele>1307.82</ele>
        <time>2000-03-06T09:34:23.000+01:00</time>
      </trkpt>
      <trkpt lat="45.30616" lon="5.76036">
        <ele>1307.82</ele>
        <time>2000-03-06T09:34:29.000+01:00</time>
      </trkpt>
      <trkpt lat="45.30616" lon="5.76036">
        <ele>1307.82</ele>
        <time>2000-03-06T09:34:35.000+01:00</time>
      </trkpt>
      <trkpt lat="45.30625" lon="5.75995">
        <ele>1308.75</ele>
        <time>2000-03-06T09:34:41.000+01:00</time>
      </trkpt>
      <trkpt lat="45.30625" lon="5.75995">
        <ele>1308.75</ele>
        <time>2000-03-06T09:34:47.000+01:00</time>
      </trkpt>
      <trkpt lat="45.30625" lon="5.75995">
        <ele>1308.75</ele>
        <time>2000-03-06T09:34:53.001+01:00</time>
      </trkpt>
      <trkpt lat="45.30625" lon="5.75995">
        <ele>1308.75</ele>
        <time>2000-03-06T09:34:59.000+01:00</time>
      </trkpt>
      <trkpt lat="45.30625" lon="5.75995">
        <ele>1308.75</ele>
        <time>2000-03-06T09:35:05.001+01:00</time>
      </trkpt>
      <trkpt lat="45.30625" lon="5.75995">
        <ele>1308.75</ele>
        <time>2000-03-06T09:35:11.000+01:00</time>
      </trkpt>
      <trkpt lat="45.3061" lon="5.75978">
        <ele>1302.7</ele>
        <time>2000-03-06T09:35:17.000+01:00</time>
      </trkpt>
      <trkpt lat="45.30607" lon="5.75978">
        <ele>1302.46</ele>
        <time>2000-03-06T09:35:23.000+01:00</time>
      </trkpt>
      <trkpt lat="45.30607" lon="5.75978">
        <ele>1302.46</ele>
        <time>2000-03-06T09:35:29.001+01:00</time>
      </trkpt>
      <trkpt lat="45.30607" lon="5.75978">
        <ele>1302.46</ele>
        <time>2000-03-06T09:35:35.000+01:00</time>
      </trkpt>
      <trkpt lat="45.30607" lon="5.75978">
        <ele>1302.46</ele>
        <time>2000-03-06T09:35:41.000+01:00</time>
      </trkpt>
      <trkpt lat="45.30607" lon="5.75978">
        <ele>1302.46</ele>
        <time>2000-03-06T09:35:47.000+01:00</time>
      </trkpt>
      <trkpt lat="45.30607" lon="5.75978">
        <ele>1302.46</ele>
        <time>2000-03-06T09:35:53.000+01:00</time>
      </trkpt>
      <trkpt lat="45.30607" lon="5.75978">
        <ele>1302.46</ele>
        <time>2000-03-06T09:35:59.000+01:00</time>
      </trkpt>
      <trkpt lat="45.30608" lon="5.75966">
        <ele>1304.46</ele>
        <time>2000-03-06T09:36:05.000+01:00</time>
      </trkpt>
      <trkpt lat="45.30609" lon="5.75964">
        <ele>1305.58</ele>
        <time>2000-03-06T09:36:11.000+01:00</time>
      </trkpt>
      <trkpt lat="45.30609" lon="5.75964">
        <ele>1305.58</ele>
        <time>2000-03-06T09:36:17.001+01:00</time>
      </trkpt>
      <trkpt lat="45.30609" lon="5.75964">
        <ele>1305.58</ele>
        <time>2000-03-06T09:36:23.000+01:00</time>
      </trkpt>
      <trkpt lat="45.30609" lon="5.75964">
        <ele>1305.58</ele>
        <time>2000-03-06T09:36:29.002+01:00</time>
      </trkpt>
      <trkpt lat="45.30609" lon="5.75964">
        <ele>1305.58</ele>
        <time>2000-03-06T09:36:35.000+01:00</time>
      </trkpt>
      <trkpt lat="45.30609" lon="5.75964">
        <ele>1305.58</ele>
        <time>2000-03-06T09:36:40.999+01:00</time>
      </trkpt>
      <trkpt lat="45.30609" lon="5.75964">
        <ele>1305.58</ele>
        <time>2000-03-06T09:36:46.999+01:00</time>
      </trkpt>
      <trkpt lat="45.30609" lon="5.75964">
        <ele>1305.58</ele>
        <time>2000-03-06T09:36:52.999+01:00</time>
      </trkpt>
      <trkpt lat="45.30609" lon="5.75964">
        <ele>1305.58</ele>
        <time>2000-03-06T09:36:58.999+01:00</time>
      </trkpt>
      <trkpt lat="45.30609" lon="5.75964">
        <ele>1305.58</ele>
        <time>2000-03-06T09:37:04.999+01:00</time>
      </trkpt>
      <trkpt lat="45.30609" lon="5.75964">
        <ele>1305.58</ele>
        <time>2000-03-06T09:37:10.999+01:00</time>
      </trkpt>
      <trkpt lat="45.30606" lon="5.75955">
        <ele>1313.6</ele>
        <time>2000-03-06T09:37:16.999+01:00</time>
      </trkpt>
      <trkpt lat="45.30606" lon="5.75955">
        <ele>1313.6</ele>
        <time>2000-03-06T09:37:22.999+01:00</time>
      </trkpt>
      <trkpt lat="45.30606" lon="5.75955">
        <ele>1313.6</ele>
        <time>2000-03-06T09:37:28.999+01:00</time>
      </trkpt>
      <trkpt lat="45.30606" lon="5.75955">
        <ele>1313.6</ele>
        <time>2000-03-06T09:37:35.001+01:00</time>
      </trkpt>
      <trkpt lat="45.30606" lon="5.75955">
        <ele>1313.6</ele>
        <time>2000-03-06T09:37:41.001+01:00</time>
      </trkpt>
      <trkpt lat="45.30606" lon="5.75955">
        <ele>1313.6</ele>
        <time>2000-03-06T09:37:47.001+01:00</time>
      </trkpt>
      <trkpt lat="45.30606" lon="5.75955">
        <ele>1313.6</ele>
        <time>2000-03-06T09:37:53.001+01:00</time>
      </trkpt>
      <trkpt lat="45.30593" lon="5.75945">
        <ele>1313.29</ele>
        <time>2000-03-06T09:37:59.000+01:00</time>
      </trkpt>
      <trkpt lat="45.30595" lon="5.7594">
        <ele>1314.65</ele>
        <time>2000-03-06T09:38:05.000+01:00</time>
      </trkpt>
      <trkpt lat="45.30598" lon="5.75936">
        <ele>1316.92</ele>
        <time>2000-03-06T09:38:11.001+01:00</time>
      </trkpt>
      <trkpt lat="45.30598" lon="5.75936">
        <ele>1316.92</ele>
        <time>2000-03-06T09:38:17.001+01:00</time>
      </trkpt>
      <trkpt lat="45.30598" lon="5.75936">
        <ele>1316.92</ele>
        <time>2000-03-06T09:38:23.001+01:00</time>
      </trkpt>
      <trkpt lat="45.30604" lon="5.75926">
        <ele>1321.85</ele>
        <time>2000-03-06T09:38:29.001+01:00</time>
      </trkpt>
      <trkpt lat="45.30605" lon="5.75925">
        <ele>1322.6</ele>
        <time>2000-03-06T09:38:35.001+01:00</time>
      </trkpt>
      <trkpt lat="45.30605" lon="5.75925">
        <ele>1322.6</ele>
        <time>2000-03-06T09:38:41.001+01:00</time>
      </trkpt>
      <trkpt lat="45.30608" lon="5.75918">
        <ele>1321.58</ele>
        <time>2000-03-06T09:38:47.001+01:00</time>
      </trkpt>
      <trkpt lat="45.30603" lon="5.75915">
        <ele>1321.51</ele>
        <time>2000-03-06T09:38:53.001+01:00</time>
      </trkpt>
      <trkpt lat="45.306" lon="5.75913">
        <ele>1323.79</ele>
        <time>2000-03-06T09:38:59.001+01:00</time>
      </trkpt>
      <trkpt lat="45.306" lon="5.75913">
        <ele>1323.79</ele>
        <time>2000-03-06T09:39:05.001+01:00</time>
      </trkpt>
      <trkpt lat="45.30592" lon="5.75911">
        <ele>1326.19</ele>
        <time>2000-03-06T09:39:11.001+01:00</time>
      </trkpt>
      <trkpt lat="45.30587" lon="5.75911">
        <ele>1325.85</ele>
        <time>2000-03-06T09:39:17.001+01:00</time>
      </trkpt>
      <trkpt lat="45.30586" lon="5.75907">
        <ele>1325.01</ele>
        <time>2000-03-06T09:39:23.001+01:00</time>
      </trkpt>
      <trkpt lat="45.30587" lon="5.75904">
        <ele>1324.26</ele>
        <time>2000-03-06T09:39:29.001+01:00</time>
      </trkpt>
      <trkpt lat="45.30587" lon="5.75904">
        <ele>1324.26</ele>
        <time>2000-03-06T09:39:35.002+01:00</time>
      </trkpt>
      <trkpt lat="45.30587" lon="5.75904">
        <ele>1324.26</ele>
        <time>2000-03-06T09:39:41.001+01:00</time>
      </trkpt>
      <trkpt lat="45.30587" lon="5.75904">
        <ele>1324.26</ele>
        <time>2000-03-06T09:39:47.001+01:00</time>
      </trkpt>
      <trkpt lat="45.30588" lon="5.7588">
        <ele>1323.85</ele>
        <time>2000-03-06T09:39:53.001+01:00</time>
      </trkpt>
      <trkpt lat="45.30586" lon="5.75872">
        <ele>1326.15</ele>
        <time>2000-03-06T09:39:59.001+01:00</time>
      </trkpt>
      <trkpt lat="45.30586" lon="5.75872">
        <ele>1326.55</ele>
        <time>2000-03-06T09:40:05.001+01:00</time>
      </trkpt>
      <trkpt lat="45.30586" lon="5.75872">
        <ele>1326.55</ele>
        <time>2000-03-06T09:40:11.001+01:00</time>
      </trkpt>
      <trkpt lat="45.30586" lon="5.75872">
        <ele>1326.55</ele>
        <time>2000-03-06T09:40:17.001+01:00</time>
      </trkpt>
      <trkpt lat="45.30586" lon="5.75872">
        <ele>1326.55</ele>
        <time>2000-03-06T09:40:23.001+01:00</time>
      </trkpt>
      <trkpt lat="45.30586" lon="5.75872">
        <ele>1326.55</ele>
        <time>2000-03-06T09:40:29.001+01:00</time>
      </trkpt>
      <trkpt lat="45.30586" lon="5.75872">
        <ele>1326.55</ele>
        <time>2000-03-06T09:40:35.000+01:00</time>
      </trkpt>
      <trkpt lat="45.30586" lon="5.75872">
        <ele>1326.55</ele>
        <time>2000-03-06T09:40:41.000+01:00</time>
      </trkpt>
      <trkpt lat="45.30586" lon="5.75872">
        <ele>1326.55</ele>
        <time>2000-03-06T09:40:47.001+01:00</time>
      </trkpt>
      <trkpt lat="45.30586" lon="5.75872">
        <ele>1326.55</ele>
        <time>2000-03-06T09:40:53.001+01:00</time>
      </trkpt>
      <trkpt lat="45.30586" lon="5.75872">
        <ele>1326.55</ele>
        <time>2000-03-06T09:40:59.001+01:00</time>
      </trkpt>
      <trkpt lat="45.30564" lon="5.75836">
        <ele>1337.72</ele>
        <time>2000-03-06T09:41:05.001+01:00</time>
      </trkpt>
      <trkpt lat="45.30564" lon="5.75835">
        <ele>1337.85</ele>
        <time>2000-03-06T09:41:11.000+01:00</time>
      </trkpt>
      <trkpt lat="45.30564" lon="5.75835">
        <ele>1337.85</ele>
        <time>2000-03-06T09:41:17.000+01:00</time>
      </trkpt>
      <trkpt lat="45.30566" lon="5.75819">
        <ele>1355.7</ele>
        <time>2000-03-06T09:41:23.001+01:00</time>
      </trkpt>
      <trkpt lat="45.30564" lon="5.75818">
        <ele>1356.36</ele>
        <time>2000-03-06T09:41:29.001+01:00</time>
      </trkpt>
      <trkpt lat="45.30564" lon="5.75818">
        <ele>1356.36</ele>
        <time>2000-03-06T09:41:35.001+01:00</time>
      </trkpt>
      <trkpt lat="45.30564" lon="5.75818">
        <ele>1356.36</ele>
        <time>2000-03-06T09:41:41.001+01:00</time>
      </trkpt>
      <trkpt lat="45.30564" lon="5.75818">
        <ele>1356.36</ele>
        <time>2000-03-06T09:41:46.999+01:00</time>
      </trkpt>
      <trkpt lat="45.30564" lon="5.75818">
        <ele>1356.36</ele>
        <time>2000-03-06T09:41:53.001+01:00</time>
      </trkpt>
      <trkpt lat="45.30565" lon="5.75802">
        <ele>1360.12</ele>
        <time>2000-03-06T09:41:59.000+01:00</time>
      </trkpt>
      <trkpt lat="45.30565" lon="5.75802">
        <ele>1360.12</ele>
        <time>2000-03-06T09:42:05.001+01:00</time>
      </trkpt>
      <trkpt lat="45.30565" lon="5.75802">
        <ele>1360.12</ele>
        <time>2000-03-06T09:42:11.001+01:00</time>
      </trkpt>
      <trkpt lat="45.30569" lon="5.75788">
        <ele>1362.65</ele>
        <time>2000-03-06T09:42:17.001+01:00</time>
      </trkpt>
      <trkpt lat="45.30569" lon="5.75788">
        <ele>1362.65</ele>
        <time>2000-03-06T09:42:23.001+01:00</time>
      </trkpt>
      <trkpt lat="45.30561" lon="5.75782">
        <ele>1364.74</ele>
        <time>2000-03-06T09:42:29.001+01:00</time>
      </trkpt>
      <trkpt lat="45.3056" lon="5.7578">
        <ele>1365.18</ele>
        <time>2000-03-06T09:42:35.001+01:00</time>
      </trkpt>
      <trkpt lat="45.3056" lon="5.7578">
        <ele>1365.18</ele>
        <time>2000-03-06T09:42:41.001+01:00</time>
      </trkpt>
      <trkpt lat="45.3056" lon="5.7578">
        <ele>1365.18</ele>
        <time>2000-03-06T09:42:47.001+01:00</time>
      </trkpt>
      <trkpt lat="45.3056" lon="5.7578">
        <ele>1365.18</ele>
        <time>2000-03-06T09:42:53.000+01:00</time>
      </trkpt>
      <trkpt lat="45.3056" lon="5.7578">
        <ele>1365.18</ele>
        <time>2000-03-06T09:42:59.000+01:00</time>
      </trkpt>
      <trkpt lat="45.3056" lon="5.7578">
        <ele>1365.18</ele>
        <time>2000-03-06T09:43:05.000+01:00</time>
      </trkpt>
      <trkpt lat="45.3056" lon="5.7578">
        <ele>1365.18</ele>
        <time>2000-03-06T09:43:11.000+01:00</time>
      </trkpt>
      <trkpt lat="45.3056" lon="5.7578">
        <ele>1365.18</ele>
        <time>2000-03-06T09:43:17.000+01:00</time>
      </trkpt>
      <trkpt lat="45.3056" lon="5.7578">
        <ele>1365.18</ele>
        <time>2000-03-06T09:43:23.000+01:00</time>
      </trkpt>
      <trkpt lat="45.3056" lon="5.7578">
        <ele>1365.18</ele>
        <time>2000-03-06T09:43:29.000+01:00</time>
      </trkpt>
      <trkpt lat="45.3056" lon="5.7578">
        <ele>1365.18</ele>
        <time>2000-03-06T09:43:35.000+01:00</time>
      </trkpt>
      <trkpt lat="45.3056" lon="5.7578">
        <ele>1365.18</ele>
        <time>2000-03-06T09:43:40.999+01:00</time>
      </trkpt>
      <trkpt lat="45.30545" lon="5.75759">
        <ele>1392.3</ele>
        <time>2000-03-06T09:43:47.000+01:00</time>
      </trkpt>
      <trkpt lat="45.30545" lon="5.75759">
        <ele>1392.3</ele>
        <time>2000-03-06T09:43:52.999+01:00</time>
      </trkpt>
      <trkpt lat="45.30545" lon="5.75759">
        <ele>1392.3</ele>
        <time>2000-03-06T09:43:59.001+01:00</time>
      </trkpt>
      <trkpt lat="45.30545" lon="5.75759">
        <ele>1392.3</ele>
        <time>2000-03-06T09:44:05.001+01:00</time>
      </trkpt>
      <trkpt lat="45.30545" lon="5.75759">
        <ele>1392.3</ele>
        <time>2000-03-06T09:44:11.001+01:00</time>
      </trkpt>
      <trkpt lat="45.30545" lon="5.75759">
        <ele>1392.3</ele>
        <time>2000-03-06T09:44:17.001+01:00</time>
      </trkpt>
      <trkpt lat="45.30545" lon="5.75759">
        <ele>1392.3</ele>
        <time>2000-03-06T09:44:23.001+01:00</time>
      </trkpt>
      <trkpt lat="45.30545" lon="5.75759">
        <ele>1392.3</ele>
        <time>2000-03-06T09:44:29.001+01:00</time>
      </trkpt>
      <trkpt lat="45.30546" lon="5.75718">
        <ele>1392.04</ele>
        <time>2000-03-06T09:44:35.001+01:00</time>
      </trkpt>
      <trkpt lat="45.30546" lon="5.75711">
        <ele>1391.2</ele>
        <time>2000-03-06T09:44:41.001+01:00</time>
      </trkpt>
      <trkpt lat="45.30547" lon="5.75707">
        <ele>1391.48</ele>
        <time>2000-03-06T09:44:47.001+01:00</time>
      </trkpt>
      <trkpt lat="45.30547" lon="5.75707">
        <ele>1391.48</ele>
        <time>2000-03-06T09:44:53.001+01:00</time>
      </trkpt>
      <trkpt lat="45.30547" lon="5.75707">
        <ele>1391.48</ele>
        <time>2000-03-06T09:44:59.001+01:00</time>
      </trkpt>
      <trkpt lat="45.30547" lon="5.75707">
        <ele>1391.48</ele>
        <time>2000-03-06T09:45:05.000+01:00</time>
      </trkpt>
      <trkpt lat="45.30547" lon="5.75707">
        <ele>1391.48</ele>
        <time>2000-03-06T09:45:11.000+01:00</time>
      </trkpt>
      <trkpt lat="45.30547" lon="5.75707">
        <ele>1391.48</ele>
        <time>2000-03-06T09:45:17.000+01:00</time>
      </trkpt>
      <trkpt lat="45.30547" lon="5.75707">
        <ele>1391.48</ele>
        <time>2000-03-06T09:45:23.000+01:00</time>
      </trkpt>
      <trkpt lat="45.30547" lon="5.75707">
        <ele>1391.48</ele>
        <time>2000-03-06T09:45:29.000+01:00</time>
      </trkpt>
      <trkpt lat="45.30547" lon="5.75707">
        <ele>1391.48</ele>
        <time>2000-03-06T09:45:35.000+01:00</time>
      </trkpt>
      <trkpt lat="45.30547" lon="5.75707">
        <ele>1391.48</ele>
        <time>2000-03-06T09:45:41.000+01:00</time>
      </trkpt>
      <trkpt lat="45.30547" lon="5.75707">
        <ele>1391.48</ele>
        <time>2000-03-06T09:45:47.000+01:00</time>
      </trkpt>
      <trkpt lat="45.30541" lon="5.75663">
        <ele>1403.65</ele>
        <time>2000-03-06T09:45:53.000+01:00</time>
      </trkpt>
      <trkpt lat="45.30541" lon="5.75663">
        <ele>1403.65</ele>
        <time>2000-03-06T09:45:59.001+01:00</time>
      </trkpt>
      <trkpt lat="45.30541" lon="5.75663">
        <ele>1403.65</ele>
        <time>2000-03-06T09:46:05.000+01:00</time>
      </trkpt>
      <trkpt lat="45.30541" lon="5.75663">
        <ele>1403.65</ele>
        <time>2000-03-06T09:46:11.000+01:00</time>
      </trkpt>
      <trkpt lat="45.30541" lon="5.75663">
        <ele>1403.65</ele>
        <time>2000-03-06T09:46:17.000+01:00</time>
      </trkpt>
      <trkpt lat="45.30541" lon="5.75663">
        <ele>1403.65</ele>
        <time>2000-03-06T09:46:23.000+01:00</time>
      </trkpt>
      <trkpt lat="45.30541" lon="5.75663">
        <ele>1403.65</ele>
        <time>2000-03-06T09:46:29.000+01:00</time>
      </trkpt>
      <trkpt lat="45.30541" lon="5.75663">
        <ele>1403.65</ele>
        <time>2000-03-06T09:46:35.000+01:00</time>
      </trkpt>
      <trkpt lat="45.30541" lon="5.75663">
        <ele>1403.65</ele>
        <time>2000-03-06T09:46:41.000+01:00</time>
      </trkpt>
      <trkpt lat="45.30541" lon="5.75663">
        <ele>1403.65</ele>
        <time>2000-03-06T09:46:47.000+01:00</time>
      </trkpt>
      <trkpt lat="45.30541" lon="5.75663">
        <ele>1403.65</ele>
        <time>2000-03-06T09:46:53.000+01:00</time>
      </trkpt>
      <trkpt lat="45.30541" lon="5.75663">
        <ele>1403.65</ele>
        <time>2000-03-06T09:46:58.999+01:00</time>
      </trkpt>
      <trkpt lat="45.30512" lon="5.75623">
        <ele>1418.8</ele>
        <time>2000-03-06T09:47:05.000+01:00</time>
      </trkpt>
      <trkpt lat="45.30512" lon="5.75623">
        <ele>1418.8</ele>
        <time>2000-03-06T09:47:11.001+01:00</time>
      </trkpt>
      <trkpt lat="45.30512" lon="5.75623">
        <ele>1418.8</ele>
        <time>2000-03-06T09:47:17.000+01:00</time>
      </trkpt>
      <trkpt lat="45.30512" lon="5.75623">
        <ele>1418.8</ele>
        <time>2000-03-06T09:47:23.000+01:00</time>
      </trkpt>
      <trkpt lat="45.30512" lon="5.75623">
        <ele>1418.8</ele>
        <time>2000-03-06T09:47:29.000+01:00</time>
      </trkpt>
      <trkpt lat="45.30512" lon="5.75623">
        <ele>1418.8</ele>
        <time>2000-03-06T09:47:35.000+01:00</time>
      </trkpt>
      <trkpt lat="45.30512" lon="5.75623">
        <ele>1418.8</ele>
        <time>2000-03-06T09:47:41.000+01:00</time>
      </trkpt>
      <trkpt lat="45.30512" lon="5.75623">
        <ele>1418.8</ele>
        <time>2000-03-06T09:47:47.000+01:00</time>
      </trkpt>
      <trkpt lat="45.30512" lon="5.75623">
        <ele>1418.8</ele>
        <time>2000-03-06T09:47:53.000+01:00</time>
      </trkpt>
      <trkpt lat="45.30512" lon="5.75623">
        <ele>1418.8</ele>
        <time>2000-03-06T09:47:59.000+01:00</time>
      </trkpt>
      <trkpt lat="45.30478" lon="5.75596">
        <ele>1425.38</ele>
        <time>2000-03-06T09:48:05.000+01:00</time>
      </trkpt>
      <trkpt lat="45.30478" lon="5.75596">
        <ele>1425.38</ele>
        <time>2000-03-06T09:48:11.001+01:00</time>
      </trkpt>
      <trkpt lat="45.30478" lon="5.75596">
        <ele>1425.38</ele>
        <time>2000-03-06T09:48:17.001+01:00</time>
      </trkpt>
      <trkpt lat="45.30478" lon="5.75596">
        <ele>1425.38</ele>
        <time>2000-03-06T09:48:22.999+01:00</time>
      </trkpt>
      <trkpt lat="45.3047" lon="5.75579">
        <ele>1435.71</ele>
        <time>2000-03-06T09:48:28.999+01:00</time>
      </trkpt>
      <trkpt lat="45.30469" lon="5.75579">
        <ele>1436.2</ele>
        <time>2000-03-06T09:48:35.000+01:00</time>
      </trkpt>
      <trkpt lat="45.30462" lon="5.75575">
        <ele>1438.37</ele>
        <time>2000-03-06T09:48:41.000+01:00</time>
      </trkpt>
      <trkpt lat="45.30462" lon="5.75575">
        <ele>1438.37</ele>
        <time>2000-03-06T09:48:46.999+01:00</time>
      </trkpt>
      <trkpt lat="45.30462" lon="5.75575">
        <ele>1438.37</ele>
        <time>2000-03-06T09:48:52.999+01:00</time>
      </trkpt>
      <trkpt lat="45.30462" lon="5.75575">
        <ele>1438.37</ele>
        <time>2000-03-06T09:48:59.000+01:00</time>
      </trkpt>
      <trkpt lat="45.30462" lon="5.75575">
        <ele>1438.37</ele>
        <time>2000-03-06T09:49:05.001+01:00</time>
      </trkpt>
      <trkpt lat="45.30462" lon="5.75575">
        <ele>1438.37</ele>
        <time>2000-03-06T09:49:11.001+01:00</time>
      </trkpt>
      <trkpt lat="45.30462" lon="5.75575">
        <ele>1438.37</ele>
        <time>2000-03-06T09:49:17.000+01:00</time>
      </trkpt>
      <trkpt lat="45.30462" lon="5.75575">
        <ele>1438.37</ele>
        <time>2000-03-06T09:49:22.999+01:00</time>
      </trkpt>
      <trkpt lat="45.30459" lon="5.75565">
        <ele>1450.5</ele>
        <time>2000-03-06T09:49:29.000+01:00</time>
      </trkpt>
      <trkpt lat="45.30461" lon="5.75556">
        <ele>1450.31</ele>
        <time>2000-03-06T09:49:35.000+01:00</time>
      </trkpt>
      <trkpt lat="45.30463" lon="5.75547">
        <ele>1452.08</ele>
        <time>2000-03-06T09:49:41.000+01:00</time>
      </trkpt>
      <trkpt lat="45.30463" lon="5.75545">
        <ele>1452.81</ele>
        <time>2000-03-06T09:49:47.000+01:00</time>
      </trkpt>
      <trkpt lat="45.30463" lon="5.75545">
        <ele>1452.81</ele>
        <time>2000-03-06T09:49:53.000+01:00</time>
      </trkpt>
      <trkpt lat="45.30463" lon="5.75545">
        <ele>1452.81</ele>
        <time>2000-03-06T09:49:59.001+01:00</time>
      </trkpt>
      <trkpt lat="45.30457" lon="5.75526">
        <ele>1455.88</ele>
        <time>2000-03-06T09:50:05.001+01:00</time>
      </trkpt>
      <trkpt lat="45.30459" lon="5.75517">
        <ele>1453.73</ele>
        <time>2000-03-06T09:50:11.000+01:00</time>
      </trkpt>
      <trkpt lat="45.3046" lon="5.75511">
        <ele>1453.42</ele>
        <time>2000-03-06T09:50:17.000+01:00</time>
      </trkpt>
      <trkpt lat="45.30458" lon="5.75507">
        <ele>1451.39</ele>
        <time>2000-03-06T09:50:23.000+01:00</time>
      </trkpt>
      <trkpt lat="45.30458" lon="5.75507">
        <ele>1451.39</ele>
        <time>2000-03-06T09:50:29.000+01:00</time>
      </trkpt>
      <trkpt lat="45.30458" lon="5.75507">
        <ele>1451.39</ele>
        <time>2000-03-06T09:50:35.000+01:00</time>
      </trkpt>
      <trkpt lat="45.30449" lon="5.7549">
        <ele>1454.07</ele>
        <time>2000-03-06T09:50:41.000+01:00</time>
      </trkpt>
      <trkpt lat="45.30449" lon="5.75488">
        <ele>1454.88</ele>
        <time>2000-03-06T09:50:47.000+01:00</time>
      </trkpt>
      <trkpt lat="45.30449" lon="5.75488">
        <ele>1454.88</ele>
        <time>2000-03-06T09:50:53.000+01:00</time>
      </trkpt>
      <trkpt lat="45.30449" lon="5.75488">
        <ele>1454.88</ele>
        <time>2000-03-06T09:50:59.001+01:00</time>
      </trkpt>
      <trkpt lat="45.30449" lon="5.75488">
        <ele>1454.88</ele>
        <time>2000-03-06T09:51:05.000+01:00</time>
      </trkpt>
      <trkpt lat="45.30449" lon="5.75488">
        <ele>1454.88</ele>
        <time>2000-03-06T09:51:11.000+01:00</time>
      </trkpt>
      <trkpt lat="45.30449" lon="5.75488">
        <ele>1454.88</ele>
        <time>2000-03-06T09:51:17.000+01:00</time>
      </trkpt>
      <trkpt lat="45.30449" lon="5.75488">
        <ele>1454.88</ele>
        <time>2000-03-06T09:51:23.000+01:00</time>
      </trkpt>
      <trkpt lat="45.30449" lon="5.75488">
        <ele>1454.88</ele>
        <time>2000-03-06T09:51:29.000+01:00</time>
      </trkpt>
      <trkpt lat="45.30449" lon="5.75488">
        <ele>1454.88</ele>
        <time>2000-03-06T09:51:35.000+01:00</time>
      </trkpt>
      <trkpt lat="45.30449" lon="5.75488">
        <ele>1454.88</ele>
        <time>2000-03-06T09:51:41.000+01:00</time>
      </trkpt>
      <trkpt lat="45.30449" lon="5.75488">
        <ele>1454.88</ele>
        <time>2000-03-06T09:51:47.000+01:00</time>
      </trkpt>
      <trkpt lat="45.30449" lon="5.75488">
        <ele>1454.88</ele>
        <time>2000-03-06T09:51:53.000+01:00</time>
      </trkpt>
      <trkpt lat="45.30449" lon="5.75488">
        <ele>1454.88</ele>
        <time>2000-03-06T09:51:59.000+01:00</time>
      </trkpt>
      <trkpt lat="45.30449" lon="5.75488">
        <ele>1454.88</ele>
        <time>2000-03-06T09:52:05.000+01:00</time>
      </trkpt>
      <trkpt lat="45.30449" lon="5.75488">
        <ele>1454.88</ele>
        <time>2000-03-06T09:52:11.001+01:00</time>
      </trkpt>
      <trkpt lat="45.30449" lon="5.75488">
        <ele>1454.88</ele>
        <time>2000-03-06T09:52:17.001+01:00</time>
      </trkpt>
      <trkpt lat="45.30449" lon="5.75488">
        <ele>1454.88</ele>
        <time>2000-03-06T09:52:23.001+01:00</time>
      </trkpt>
      <trkpt lat="45.30449" lon="5.75488">
        <ele>1454.88</ele>
        <time>2000-03-06T09:52:29.000+01:00</time>
      </trkpt>
      <trkpt lat="45.30449" lon="5.75488">
        <ele>1454.88</ele>
        <time>2000-03-06T09:52:35.000+01:00</time>
      </trkpt>
      <trkpt lat="45.30468" lon="5.75406">
        <ele>1473.01</ele>
        <time>2000-03-06T09:52:41.000+01:00</time>
      </trkpt>
      <trkpt lat="45.30467" lon="5.75406">
        <ele>1472.72</ele>
        <time>2000-03-06T09:52:47.000+01:00</time>
      </trkpt>
      <trkpt lat="45.30467" lon="5.75406">
        <ele>1472.72</ele>
        <time>2000-03-06T09:52:53.000+01:00</time>
      </trkpt>
      <trkpt lat="45.30467" lon="5.75406">
        <ele>1472.72</ele>
        <time>2000-03-06T09:52:59.000+01:00</time>
      </trkpt>
      <trkpt lat="45.30467" lon="5.75406">
        <ele>1472.72</ele>
        <time>2000-03-06T09:53:05.000+01:00</time>
      </trkpt>
      <trkpt lat="45.30467" lon="5.75406">
        <ele>1472.72</ele>
        <time>2000-03-06T09:53:11.000+01:00</time>
      </trkpt>
      <trkpt lat="45.30467" lon="5.75406">
        <ele>1472.72</ele>
        <time>2000-03-06T09:53:17.000+01:00</time>
      </trkpt>
      <trkpt lat="45.30462" lon="5.75397">
        <ele>1470.5</ele>
        <time>2000-03-06T09:53:23.000+01:00</time>
      </trkpt>
      <trkpt lat="45.30462" lon="5.75397">
        <ele>1470.5</ele>
        <time>2000-03-06T09:53:29.000+01:00</time>
      </trkpt>
      <trkpt lat="45.30462" lon="5.75397">
        <ele>1470.5</ele>
        <time>2000-03-06T09:53:35.000+01:00</time>
      </trkpt>
      <trkpt lat="45.30462" lon="5.75397">
        <ele>1470.5</ele>
        <time>2000-03-06T09:53:41.000+01:00</time>
      </trkpt>
      <trkpt lat="45.30462" lon="5.75397">
        <ele>1470.5</ele>
        <time>2000-03-06T09:53:47.000+01:00</time>
      </trkpt>
      <trkpt lat="45.30462" lon="5.75397">
        <ele>1470.5</ele>
        <time>2000-03-06T09:53:53.001+01:00</time>
      </trkpt>
      <trkpt lat="45.30462" lon="5.75397">
        <ele>1470.5</ele>
        <time>2000-03-06T09:53:59.001+01:00</time>
      </trkpt>
      <trkpt lat="45.30462" lon="5.75397">
        <ele>1470.5</ele>
        <time>2000-03-06T09:54:05.001+01:00</time>
      </trkpt>
      <trkpt lat="45.30462" lon="5.75397">
        <ele>1470.5</ele>
        <time>2000-03-06T09:54:11.001+01:00</time>
      </trkpt>
      <trkpt lat="45.30462" lon="5.75397">
        <ele>1470.5</ele>
        <time>2000-03-06T09:54:17.001+01:00</time>
      </trkpt>
      <trkpt lat="45.30462" lon="5.75397">
        <ele>1470.5</ele>
        <time>2000-03-06T09:54:23.001+01:00</time>
      </trkpt>
      <trkpt lat="45.30462" lon="5.75397">
        <ele>1470.5</ele>
        <time>2000-03-06T09:54:29.001+01:00</time>
      </trkpt>
      <trkpt lat="45.30462" lon="5.75397">
        <ele>1470.5</ele>
        <time>2000-03-06T09:54:35.001+01:00</time>
      </trkpt>
      <trkpt lat="45.30462" lon="5.75397">
        <ele>1470.5</ele>
        <time>2000-03-06T09:54:41.001+01:00</time>
      </trkpt>
      <trkpt lat="45.30462" lon="5.75397">
        <ele>1470.5</ele>
        <time>2000-03-06T09:54:47.001+01:00</time>
      </trkpt>
      <trkpt lat="45.30462" lon="5.75397">
        <ele>1470.5</ele>
        <time>2000-03-06T09:54:53.001+01:00</time>
      </trkpt>
      <trkpt lat="45.30462" lon="5.75397">
        <ele>1470.5</ele>
        <time>2000-03-06T09:54:59.000+01:00</time>
      </trkpt>
      <trkpt lat="45.30466" lon="5.75409">
        <ele>1487.6</ele>
        <time>2000-03-06T09:55:05.000+01:00</time>
      </trkpt>
      <trkpt lat="45.30465" lon="5.75408">
        <ele>1487.68</ele>
        <time>2000-03-06T09:55:11.000+01:00</time>
      </trkpt>
      <trkpt lat="45.30473" lon="5.75396">
        <ele>1480.72</ele>
        <time>2000-03-06T09:55:17.000+01:00</time>
      </trkpt>
      <trkpt lat="45.30473" lon="5.75396">
        <ele>1480.72</ele>
        <time>2000-03-06T09:55:23.000+01:00</time>
      </trkpt>
      <trkpt lat="45.30469" lon="5.75379">
        <ele>1476.95</ele>
        <time>2000-03-06T09:55:29.000+01:00</time>
      </trkpt>
      <trkpt lat="45.30469" lon="5.75374">
        <ele>1475.44</ele>
        <time>2000-03-06T09:55:35.000+01:00</time>
      </trkpt>
      <trkpt lat="45.30463" lon="5.75368">
        <ele>1477.22</ele>
        <time>2000-03-06T09:55:41.000+01:00</time>
      </trkpt>
      <trkpt lat="45.30459" lon="5.75366">
        <ele>1479.4</ele>
        <time>2000-03-06T09:55:47.000+01:00</time>
      </trkpt>
      <trkpt lat="45.30459" lon="5.75366">
        <ele>1479.4</ele>
        <time>2000-03-06T09:55:53.001+01:00</time>
      </trkpt>
      <trkpt lat="45.30459" lon="5.75366">
        <ele>1479.4</ele>
        <time>2000-03-06T09:55:59.000+01:00</time>
      </trkpt>
      <trkpt lat="45.30459" lon="5.75366">
        <ele>1479.4</ele>
        <time>2000-03-06T09:56:05.000+01:00</time>
      </trkpt>
      <trkpt lat="45.30449" lon="5.75347">
        <ele>1486.57</ele>
        <time>2000-03-06T09:56:11.000+01:00</time>
      </trkpt>
      <trkpt lat="45.30448" lon="5.75339">
        <ele>1488.05</ele>
        <time>2000-03-06T09:56:17.000+01:00</time>
      </trkpt>
      <trkpt lat="45.30447" lon="5.7533">
        <ele>1488.96</ele>
        <time>2000-03-06T09:56:23.000+01:00</time>
      </trkpt>
      <trkpt lat="45.30447" lon="5.7533">
        <ele>1488.6</ele>
        <time>2000-03-06T09:56:29.000+01:00</time>
      </trkpt>
      <trkpt lat="45.30447" lon="5.7532">
        <ele>1486.15</ele>
        <time>2000-03-06T09:56:35.000+01:00</time>
      </trkpt>
      <trkpt lat="45.30447" lon="5.75318">
        <ele>1486.23</ele>
        <time>2000-03-06T09:56:41.000+01:00</time>
      </trkpt>
      <trkpt lat="45.30447" lon="5.75318">
        <ele>1486.23</ele>
        <time>2000-03-06T09:56:47.001+01:00</time>
      </trkpt>
      <trkpt lat="45.30447" lon="5.75318">
        <ele>1486.23</ele>
        <time>2000-03-06T09:56:53.000+01:00</time>
      </trkpt>
      <trkpt lat="45.30447" lon="5.75318">
        <ele>1486.23</ele>
        <time>2000-03-06T09:56:59.000+01:00</time>
      </trkpt>
      <trkpt lat="45.30447" lon="5.75318">
        <ele>1486.23</ele>
        <time>2000-03-06T09:57:05.000+01:00</time>
      </trkpt>
      <trkpt lat="45.30447" lon="5.75318">
        <ele>1486.23</ele>
        <time>2000-03-06T09:57:11.000+01:00</time>
      </trkpt>
      <trkpt lat="45.30447" lon="5.75318">
        <ele>1486.23</ele>
        <time>2000-03-06T09:57:17.000+01:00</time>
      </trkpt>
      <trkpt lat="45.30441" lon="5.75293">
        <ele>1496.34</ele>
        <time>2000-03-06T09:57:23.000+01:00</time>
      </trkpt>
      <trkpt lat="45.30442" lon="5.7529">
        <ele>1496.18</ele>
        <time>2000-03-06T09:57:29.000+01:00</time>
      </trkpt>
      <trkpt lat="45.30443" lon="5.75283">
        <ele>1496.22</ele>
        <time>2000-03-06T09:57:35.000+01:00</time>
      </trkpt>
      <trkpt lat="45.30443" lon="5.75283">
        <ele>1496.22</ele>
        <time>2000-03-06T09:57:41.001+01:00</time>
      </trkpt>
      <trkpt lat="45.30443" lon="5.75283">
        <ele>1496.22</ele>
        <time>2000-03-06T09:57:47.000+01:00</time>
      </trkpt>
      <trkpt lat="45.30443" lon="5.75262">
        <ele>1502.27</ele>
        <time>2000-03-06T09:57:53.000+01:00</time>
      </trkpt>
      <trkpt lat="45.30442" lon="5.7526">
        <ele>1503.45</ele>
        <time>2000-03-06T09:57:59.000+01:00</time>
      </trkpt>
      <trkpt lat="45.30438" lon="5.75249">
        <ele>1499.45</ele>
        <time>2000-03-06T09:58:05.000+01:00</time>
      </trkpt>
      <trkpt lat="45.30437" lon="5.75237">
        <ele>1496.09</ele>
        <time>2000-03-06T09:58:11.000+01:00</time>
      </trkpt>
      <trkpt lat="45.30438" lon="5.7523">
        <ele>1500.87</ele>
        <time>2000-03-06T09:58:17.000+01:00</time>
      </trkpt>
      <trkpt lat="45.3044" lon="5.75221">
        <ele>1507.07</ele>
        <time>2000-03-06T09:58:23.000+01:00</time>
      </trkpt>
      <trkpt lat="45.3044" lon="5.75221">
        <ele>1507.07</ele>
        <time>2000-03-06T09:58:29.000+01:00</time>
      </trkpt>
      <trkpt lat="45.30441" lon="5.75201">
        <ele>1509.09</ele>
        <time>2000-03-06T09:58:35.000+01:00</time>
      </trkpt>
      <trkpt lat="45.30444" lon="5.75189">
        <ele>1507.91</ele>
        <time>2000-03-06T09:58:41.000+01:00</time>
      </trkpt>
      <trkpt lat="45.30443" lon="5.75184">
        <ele>1508.91</ele>
        <time>2000-03-06T09:58:47.000+01:00</time>
      </trkpt>
      <trkpt lat="45.30441" lon="5.75177">
        <ele>1509.6</ele>
        <time>2000-03-06T09:58:53.000+01:00</time>
      </trkpt>
      <trkpt lat="45.30439" lon="5.75172">
        <ele>1510.7</ele>
        <time>2000-03-06T09:58:59.000+01:00</time>
      </trkpt>
      <trkpt lat="45.30437" lon="5.75164">
        <ele>1510.02</ele>
        <time>2000-03-06T09:59:05.000+01:00</time>
      </trkpt>
      <trkpt lat="45.30436" lon="5.75165">
        <ele>1510.86</ele>
        <time>2000-03-06T09:59:11.000+01:00</time>
      </trkpt>
      <trkpt lat="45.30434" lon="5.75156">
        <ele>1512.29</ele>
        <time>2000-03-06T09:59:17.000+01:00</time>
      </trkpt>
      <trkpt lat="45.30434" lon="5.75149">
        <ele>1514.9</ele>
        <time>2000-03-06T09:59:23.000+01:00</time>
      </trkpt>
      <trkpt lat="45.30434" lon="5.75147">
        <ele>1525.31</ele>
        <time>2000-03-06T09:59:29.000+01:00</time>
      </trkpt>
      <trkpt lat="45.30434" lon="5.75147">
        <ele>1525.31</ele>
        <time>2000-03-06T09:59:35.000+01:00</time>
      </trkpt>
      <trkpt lat="45.30434" lon="5.75147">
        <ele>1525.31</ele>
        <time>2000-03-06T09:59:41.000+01:00</time>
      </trkpt>
      <trkpt lat="45.30436" lon="5.75128">
        <ele>1528.39</ele>
        <time>2000-03-06T09:59:47.000+01:00</time>
      </trkpt>
      <trkpt lat="45.30436" lon="5.75128">
        <ele>1528.39</ele>
        <time>2000-03-06T09:59:52.800+01:00</time>
      </trkpt>
      <trkpt lat="45.30436" lon="5.75128">
        <ele>1528.39</ele>
        <time>2000-03-06T09:59:58.000+01:00</time>
      </trkpt>
      <trkpt lat="45.30436" lon="5.75128">
        <ele>1528.39</ele>
        <time>2000-03-06T10:00:04.000+01:00</time>
      </trkpt>
      <trkpt lat="45.30436" lon="5.75128">
        <ele>1528.39</ele>
        <time>2000-03-06T10:00:10.000+01:00</time>
      </trkpt>
      <trkpt lat="45.30436" lon="5.75128">
        <ele>1528.39</ele>
        <time>2000-03-06T10:00:16.000+01:00</time>
      </trkpt>
      <trkpt lat="45.30431" lon="5.75107">
        <ele>1537.92</ele>
        <time>2000-03-06T10:00:22.000+01:00</time>
      </trkpt>
      <trkpt lat="45.30431" lon="5.75105">
        <ele>1537.5</ele>
        <time>2000-03-06T10:00:28.000+01:00</time>
      </trkpt>
      <trkpt lat="45.3043" lon="5.75095">
        <ele>1537.15</ele>
        <time>2000-03-06T10:00:34.001+01:00</time>
      </trkpt>
      <trkpt lat="45.30428" lon="5.7509">
        <ele>1540.47</ele>
        <time>2000-03-06T10:00:39.800+01:00</time>
      </trkpt>
      <trkpt lat="45.30428" lon="5.7509">
        <ele>1540.47</ele>
        <time>2000-03-06T10:00:45.000+01:00</time>
      </trkpt>
      <trkpt lat="45.30428" lon="5.7509">
        <ele>1540.47</ele>
        <time>2000-03-06T10:00:51.000+01:00</time>
      </trkpt>
      <trkpt lat="45.30428" lon="5.7509">
        <ele>1540.47</ele>
        <time>2000-03-06T10:00:56.800+01:00</time>
      </trkpt>
      <trkpt lat="45.30409" lon="5.75084">
        <ele>1542.62</ele>
        <time>2000-03-06T10:01:02.000+01:00</time>
      </trkpt>
      <trkpt lat="45.30409" lon="5.75084">
        <ele>1542.62</ele>
        <time>2000-03-06T10:01:08.000+01:00</time>
      </trkpt>
      <trkpt lat="45.30406" lon="5.75069">
        <ele>1541.59</ele>
        <time>2000-03-06T10:01:14.000+01:00</time>
      </trkpt>
      <trkpt lat="45.30406" lon="5.75069">
        <ele>1541.59</ele>
        <time>2000-03-06T10:01:20.000+01:00</time>
      </trkpt>
      <trkpt lat="45.30405" lon="5.75056">
        <ele>1539.4</ele>
        <time>2000-03-06T10:01:26.001+01:00</time>
      </trkpt>
      <trkpt lat="45.30405" lon="5.75051">
        <ele>1538.91</ele>
        <time>2000-03-06T10:01:32.002+01:00</time>
      </trkpt>
      <trkpt lat="45.30405" lon="5.75051">
        <ele>1538.91</ele>
        <time>2000-03-06T10:01:38.000+01:00</time>
      </trkpt>
      <trkpt lat="45.30405" lon="5.75051">
        <ele>1538.91</ele>
        <time>2000-03-06T10:01:43.999+01:00</time>
      </trkpt>
      <trkpt lat="45.30397" lon="5.75038">
        <ele>1533.63</ele>
        <time>2000-03-06T10:01:49.999+01:00</time>
      </trkpt>
      <trkpt lat="45.30397" lon="5.75038">
        <ele>1533.63</ele>
        <time>2000-03-06T10:01:56.001+01:00</time>
      </trkpt>
      <trkpt lat="45.30391" lon="5.75035">
        <ele>1532.75</ele>
        <time>2000-03-06T10:02:02.001+01:00</time>
      </trkpt>
      <trkpt lat="45.3039" lon="5.75032">
        <ele>1532.35</ele>
        <time>2000-03-06T10:02:08.000+01:00</time>
      </trkpt>
      <trkpt lat="45.3039" lon="5.75032">
        <ele>1532.35</ele>
        <time>2000-03-06T10:02:14.001+01:00</time>
      </trkpt>
      <trkpt lat="45.3039" lon="5.75032">
        <ele>1532.35</ele>
        <time>2000-03-06T10:02:20.001+01:00</time>
      </trkpt>
      <trkpt lat="45.3039" lon="5.75032">
        <ele>1532.35</ele>
        <time>2000-03-06T10:02:26.000+01:00</time>
      </trkpt>
      <trkpt lat="45.3039" lon="5.75032">
        <ele>1532.35</ele>
        <time>2000-03-06T10:02:32.000+01:00</time>
      </trkpt>
      <trkpt lat="45.3039" lon="5.75032">
        <ele>1532.35</ele>
        <time>2000-03-06T10:02:38.001+01:00</time>
      </trkpt>
      <trkpt lat="45.3039" lon="5.75032">
        <ele>1532.35</ele>
        <time>2000-03-06T10:02:44.001+01:00</time>
      </trkpt>
      <trkpt lat="45.3039" lon="5.75032">
        <ele>1532.35</ele>
        <time>2000-03-06T10:02:50.000+01:00</time>
      </trkpt>
      <trkpt lat="45.30397" lon="5.75015">
        <ele>1538.37</ele>
        <time>2000-03-06T10:02:56.000+01:00</time>
      </trkpt>
      <trkpt lat="45.30397" lon="5.75015">
        <ele>1538.37</ele>
        <time>2000-03-06T10:03:02.000+01:00</time>
      </trkpt>
      <trkpt lat="45.30397" lon="5.75015">
        <ele>1538.37</ele>
        <time>2000-03-06T10:03:08.000+01:00</time>
      </trkpt>
      <trkpt lat="45.30397" lon="5.75015">
        <ele>1538.37</ele>
        <time>2000-03-06T10:03:14.000+01:00</time>
      </trkpt>
      <trkpt lat="45.30397" lon="5.75015">
        <ele>1538.37</ele>
        <time>2000-03-06T10:03:20.000+01:00</time>
      </trkpt>
      <trkpt lat="45.30402" lon="5.74998">
        <ele>1538.5</ele>
        <time>2000-03-06T10:03:26.001+01:00</time>
      </trkpt>
      <trkpt lat="45.30402" lon="5.74997">
        <ele>1539.02</ele>
        <time>2000-03-06T10:03:32.000+01:00</time>
      </trkpt>
      <trkpt lat="45.30402" lon="5.74997">
        <ele>1539.02</ele>
        <time>2000-03-06T10:03:38.000+01:00</time>
      </trkpt>
      <trkpt lat="45.30402" lon="5.74997">
        <ele>1539.02</ele>
        <time>2000-03-06T10:03:44.000+01:00</time>
      </trkpt>
      <trkpt lat="45.30402" lon="5.74997">
        <ele>1539.02</ele>
        <time>2000-03-06T10:03:49.800+01:00</time>
      </trkpt>
      <trkpt lat="45.30402" lon="5.74997">
        <ele>1539.02</ele>
        <time>2000-03-06T10:03:55.000+01:00</time>
      </trkpt>
      <trkpt lat="45.30402" lon="5.74997">
        <ele>1539.02</ele>
        <time>2000-03-06T10:04:01.000+01:00</time>
      </trkpt>
      <trkpt lat="45.30421" lon="5.7497">
        <ele>1560.03</ele>
        <time>2000-03-06T10:04:07.000+01:00</time>
      </trkpt>
      <trkpt lat="45.30423" lon="5.74964">
        <ele>1558.69</ele>
        <time>2000-03-06T10:04:13.000+01:00</time>
      </trkpt>
      <trkpt lat="45.30423" lon="5.74964">
        <ele>1558.69</ele>
        <time>2000-03-06T10:04:19.000+01:00</time>
      </trkpt>
      <trkpt lat="45.30423" lon="5.74964">
        <ele>1558.69</ele>
        <time>2000-03-06T10:04:25.000+01:00</time>
      </trkpt>
      <trkpt lat="45.3043" lon="5.74955">
        <ele>1554.87</ele>
        <time>2000-03-06T10:04:31.000+01:00</time>
      </trkpt>
      <trkpt lat="45.30432" lon="5.7495">
        <ele>1554.86</ele>
        <time>2000-03-06T10:04:37.000+01:00</time>
      </trkpt>
      <trkpt lat="45.30432" lon="5.7495">
        <ele>1554.86</ele>
        <time>2000-03-06T10:04:43.000+01:00</time>
      </trkpt>
      <trkpt lat="45.30434" lon="5.74945">
        <ele>1556.62</ele>
        <time>2000-03-06T10:04:49.000+01:00</time>
      </trkpt>
      <trkpt lat="45.30438" lon="5.74939">
        <ele>1557.15</ele>
        <time>2000-03-06T10:04:55.000+01:00</time>
      </trkpt>
      <trkpt lat="45.30438" lon="5.74939">
        <ele>1557.15</ele>
        <time>2000-03-06T10:05:01.000+01:00</time>
      </trkpt>
      <trkpt lat="45.30438" lon="5.74939">
        <ele>1557.15</ele>
        <time>2000-03-06T10:05:07.000+01:00</time>
      </trkpt>
      <trkpt lat="45.30443" lon="5.74926">
        <ele>1570.49</ele>
        <time>2000-03-06T10:05:13.000+01:00</time>
      </trkpt>
      <trkpt lat="45.30446" lon="5.74923">
        <ele>1573.04</ele>
        <time>2000-03-06T10:05:19.000+01:00</time>
      </trkpt>
      <trkpt lat="45.30446" lon="5.74923">
        <ele>1573.04</ele>
        <time>2000-03-06T10:05:25.000+01:00</time>
      </trkpt>
      <trkpt lat="45.30446" lon="5.74923">
        <ele>1573.04</ele>
        <time>2000-03-06T10:05:31.000+01:00</time>
      </trkpt>
      <trkpt lat="45.30446" lon="5.74923">
        <ele>1573.04</ele>
        <time>2000-03-06T10:05:37.000+01:00</time>
      </trkpt>
      <trkpt lat="45.30446" lon="5.74923">
        <ele>1573.04</ele>
        <time>2000-03-06T10:05:43.000+01:00</time>
      </trkpt>
      <trkpt lat="45.30446" lon="5.74923">
        <ele>1573.04</ele>
        <time>2000-03-06T10:05:49.000+01:00</time>
      </trkpt>
      <trkpt lat="45.30446" lon="5.74923">
        <ele>1573.04</ele>
        <time>2000-03-06T10:05:55.000+01:00</time>
      </trkpt>
      <trkpt lat="45.30446" lon="5.74923">
        <ele>1573.04</ele>
        <time>2000-03-06T10:06:01.000+01:00</time>
      </trkpt>
      <trkpt lat="45.30446" lon="5.74923">
        <ele>1573.04</ele>
        <time>2000-03-06T10:06:07.000+01:00</time>
      </trkpt>
      <trkpt lat="45.30446" lon="5.74923">
        <ele>1573.04</ele>
        <time>2000-03-06T10:06:13.000+01:00</time>
      </trkpt>
      <trkpt lat="45.30438" lon="5.74904">
        <ele>1583.35</ele>
        <time>2000-03-06T10:06:19.001+01:00</time>
      </trkpt>
      <trkpt lat="45.30438" lon="5.74904">
        <ele>1583.16</ele>
        <time>2000-03-06T10:06:25.001+01:00</time>
      </trkpt>
      <trkpt lat="45.30438" lon="5.74904">
        <ele>1583.16</ele>
        <time>2000-03-06T10:06:31.000+01:00</time>
      </trkpt>
      <trkpt lat="45.30438" lon="5.74904">
        <ele>1583.16</ele>
        <time>2000-03-06T10:06:37.000+01:00</time>
      </trkpt>
      <trkpt lat="45.30438" lon="5.74904">
        <ele>1583.16</ele>
        <time>2000-03-06T10:06:43.000+01:00</time>
      </trkpt>
      <trkpt lat="45.30438" lon="5.74904">
        <ele>1583.16</ele>
        <time>2000-03-06T10:06:49.000+01:00</time>
      </trkpt>
      <trkpt lat="45.30438" lon="5.74904">
        <ele>1583.16</ele>
        <time>2000-03-06T10:06:55.000+01:00</time>
      </trkpt>
      <trkpt lat="45.30438" lon="5.74904">
        <ele>1583.16</ele>
        <time>2000-03-06T10:07:01.000+01:00</time>
      </trkpt>
      <trkpt lat="45.30438" lon="5.74904">
        <ele>1583.16</ele>
        <time>2000-03-06T10:07:07.000+01:00</time>
      </trkpt>
      <trkpt lat="45.30438" lon="5.74904">
        <ele>1583.16</ele>
        <time>2000-03-06T10:07:13.000+01:00</time>
      </trkpt>
      <trkpt lat="45.30438" lon="5.74904">
        <ele>1583.16</ele>
        <time>2000-03-06T10:07:19.000+01:00</time>
      </trkpt>
      <trkpt lat="45.30438" lon="5.74904">
        <ele>1583.16</ele>
        <time>2000-03-06T10:07:25.000+01:00</time>
      </trkpt>
      <trkpt lat="45.30438" lon="5.74904">
        <ele>1583.16</ele>
        <time>2000-03-06T10:07:31.000+01:00</time>
      </trkpt>
      <trkpt lat="45.30438" lon="5.74904">
        <ele>1583.16</ele>
        <time>2000-03-06T10:07:37.000+01:00</time>
      </trkpt>
      <trkpt lat="45.30438" lon="5.74904">
        <ele>1583.16</ele>
        <time>2000-03-06T10:07:43.001+01:00</time>
      </trkpt>
      <trkpt lat="45.30444" lon="5.74862">
        <ele>1595.16</ele>
        <time>2000-03-06T10:07:49.000+01:00</time>
      </trkpt>
      <trkpt lat="45.30444" lon="5.74862">
        <ele>1595.51</ele>
        <time>2000-03-06T10:07:55.000+01:00</time>
      </trkpt>
      <trkpt lat="45.30438" lon="5.74861">
        <ele>1593.98</ele>
        <time>2000-03-06T10:08:01.000+01:00</time>
      </trkpt>
      <trkpt lat="45.30438" lon="5.74859">
        <ele>1595.2</ele>
        <time>2000-03-06T10:08:07.001+01:00</time>
      </trkpt>
      <trkpt lat="45.30438" lon="5.74859">
        <ele>1595.2</ele>
        <time>2000-03-06T10:08:13.001+01:00</time>
      </trkpt>
      <trkpt lat="45.30438" lon="5.74859">
        <ele>1595.2</ele>
        <time>2000-03-06T10:08:19.000+01:00</time>
      </trkpt>
      <trkpt lat="45.30438" lon="5.74859">
        <ele>1595.2</ele>
        <time>2000-03-06T10:08:25.000+01:00</time>
      </trkpt>
      <trkpt lat="45.30438" lon="5.74859">
        <ele>1595.2</ele>
        <time>2000-03-06T10:08:31.001+01:00</time>
      </trkpt>
      <trkpt lat="45.30438" lon="5.74859">
        <ele>1595.2</ele>
        <time>2000-03-06T10:08:37.000+01:00</time>
      </trkpt>
      <trkpt lat="45.30438" lon="5.74859">
        <ele>1595.2</ele>
        <time>2000-03-06T10:08:43.000+01:00</time>
      </trkpt>
      <trkpt lat="45.30438" lon="5.74859">
        <ele>1595.2</ele>
        <time>2000-03-06T10:08:49.000+01:00</time>
      </trkpt>
      <trkpt lat="45.30438" lon="5.74859">
        <ele>1595.2</ele>
        <time>2000-03-06T10:08:55.000+01:00</time>
      </trkpt>
      <trkpt lat="45.30438" lon="5.74859">
        <ele>1595.2</ele>
        <time>2000-03-06T10:09:01.000+01:00</time>
      </trkpt>
      <trkpt lat="45.30438" lon="5.74859">
        <ele>1595.2</ele>
        <time>2000-03-06T10:09:06.999+01:00</time>
      </trkpt>
      <trkpt lat="45.30438" lon="5.74859">
        <ele>1595.2</ele>
        <time>2000-03-06T10:09:13.000+01:00</time>
      </trkpt>
      <trkpt lat="45.30428" lon="5.74838">
        <ele>1591.22</ele>
        <time>2000-03-06T10:09:19.000+01:00</time>
      </trkpt>
      <trkpt lat="45.30429" lon="5.74835">
        <ele>1592.36</ele>
        <time>2000-03-06T10:09:24.999+01:00</time>
      </trkpt>
      <trkpt lat="45.30433" lon="5.74833">
        <ele>1592.79</ele>
        <time>2000-03-06T10:09:31.000+01:00</time>
      </trkpt>
      <trkpt lat="45.30434" lon="5.74831">
        <ele>1594.15</ele>
        <time>2000-03-06T10:09:36.999+01:00</time>
      </trkpt>
      <trkpt lat="45.30434" lon="5.74831">
        <ele>1594.15</ele>
        <time>2000-03-06T10:09:43.000+01:00</time>
      </trkpt>
      <trkpt lat="45.30434" lon="5.74831">
        <ele>1594.15</ele>
        <time>2000-03-06T10:09:49.001+01:00</time>
      </trkpt>
      <trkpt lat="45.30434" lon="5.74831">
        <ele>1594.15</ele>
        <time>2000-03-06T10:09:55.000+01:00</time>
      </trkpt>
      <trkpt lat="45.30434" lon="5.74831">
        <ele>1594.15</ele>
        <time>2000-03-06T10:10:01.000+01:00</time>
      </trkpt>
      <trkpt lat="45.30434" lon="5.74831">
        <ele>1594.15</ele>
        <time>2000-03-06T10:10:07.000+01:00</time>
      </trkpt>
      <trkpt lat="45.30434" lon="5.74831">
        <ele>1594.15</ele>
        <time>2000-03-06T10:10:13.000+01:00</time>
      </trkpt>
      <trkpt lat="45.30422" lon="5.74806">
        <ele>1599.79</ele>
        <time>2000-03-06T10:10:19.000+01:00</time>
      </trkpt>
      <trkpt lat="45.30422" lon="5.74806">
        <ele>1599.79</ele>
        <time>2000-03-06T10:10:25.000+01:00</time>
      </trkpt>
      <trkpt lat="45.30422" lon="5.74806">
        <ele>1599.79</ele>
        <time>2000-03-06T10:10:31.001+01:00</time>
      </trkpt>
      <trkpt lat="45.30422" lon="5.74806">
        <ele>1599.79</ele>
        <time>2000-03-06T10:10:37.000+01:00</time>
      </trkpt>
      <trkpt lat="45.30422" lon="5.74806">
        <ele>1599.79</ele>
        <time>2000-03-06T10:10:43.000+01:00</time>
      </trkpt>
      <trkpt lat="45.30422" lon="5.74806">
        <ele>1599.79</ele>
        <time>2000-03-06T10:10:49.000+01:00</time>
      </trkpt>
      <trkpt lat="45.30416" lon="5.74792">
        <ele>1611.45</ele>
        <time>2000-03-06T10:10:55.001+01:00</time>
      </trkpt>
      <trkpt lat="45.30416" lon="5.74793">
        <ele>1611.86</ele>
        <time>2000-03-06T10:11:01.000+01:00</time>
      </trkpt>
      <trkpt lat="45.3042" lon="5.74787">
        <ele>1612.17</ele>
        <time>2000-03-06T10:11:07.001+01:00</time>
      </trkpt>
      <trkpt lat="45.30427" lon="5.7477">
        <ele>1614.23</ele>
        <time>2000-03-06T10:11:13.000+01:00</time>
      </trkpt>
      <trkpt lat="45.30427" lon="5.7477">
        <ele>1614.23</ele>
        <time>2000-03-06T10:11:19.000+01:00</time>
      </trkpt>
      <trkpt lat="45.30427" lon="5.7477">
        <ele>1614.23</ele>
        <time>2000-03-06T10:11:25.000+01:00</time>
      </trkpt>
      <trkpt lat="45.30427" lon="5.7477">
        <ele>1614.23</ele>
        <time>2000-03-06T10:11:31.000+01:00</time>
      </trkpt>
      <trkpt lat="45.30427" lon="5.7477">
        <ele>1614.23</ele>
        <time>2000-03-06T10:11:37.000+01:00</time>
      </trkpt>
      <trkpt lat="45.30427" lon="5.7477">
        <ele>1614.23</ele>
        <time>2000-03-06T10:11:43.001+01:00</time>
      </trkpt>
      <trkpt lat="45.30427" lon="5.7477">
        <ele>1614.23</ele>
        <time>2000-03-06T10:11:49.001+01:00</time>
      </trkpt>
      <trkpt lat="45.30427" lon="5.7477">
        <ele>1614.23</ele>
        <time>2000-03-06T10:11:55.001+01:00</time>
      </trkpt>
      <trkpt lat="45.30427" lon="5.7477">
        <ele>1614.23</ele>
        <time>2000-03-06T10:12:01.000+01:00</time>
      </trkpt>
      <trkpt lat="45.30427" lon="5.7477">
        <ele>1614.23</ele>
        <time>2000-03-06T10:12:07.001+01:00</time>
      </trkpt>
      <trkpt lat="45.3044" lon="5.74713">
        <ele>1639.62</ele>
        <time>2000-03-06T10:12:13.001+01:00</time>
      </trkpt>
      <trkpt lat="45.30439" lon="5.74712">
        <ele>1639.79</ele>
        <time>2000-03-06T10:12:19.001+01:00</time>
      </trkpt>
      <trkpt lat="45.30439" lon="5.74712">
        <ele>1639.79</ele>
        <time>2000-03-06T10:12:25.001+01:00</time>
      </trkpt>
      <trkpt lat="45.30441" lon="5.74714">
        <ele>1642.52</ele>
        <time>2000-03-06T10:12:31.001+01:00</time>
      </trkpt>
      <trkpt lat="45.30444" lon="5.74712">
        <ele>1645.17</ele>
        <time>2000-03-06T10:12:37.001+01:00</time>
      </trkpt>
      <trkpt lat="45.30444" lon="5.74712">
        <ele>1645.17</ele>
        <time>2000-03-06T10:12:43.001+01:00</time>
      </trkpt>
      <trkpt lat="45.30448" lon="5.74709">
        <ele>1645.56</ele>
        <time>2000-03-06T10:12:49.001+01:00</time>
      </trkpt>
      <trkpt lat="45.30448" lon="5.74709">
        <ele>1645.56</ele>
        <time>2000-03-06T10:12:55.001+01:00</time>
      </trkpt>
      <trkpt lat="45.30448" lon="5.74709">
        <ele>1645.56</ele>
        <time>2000-03-06T10:13:01.000+01:00</time>
      </trkpt>
      <trkpt lat="45.30448" lon="5.74709">
        <ele>1645.56</ele>
        <time>2000-03-06T10:13:07.001+01:00</time>
      </trkpt>
      <trkpt lat="45.30448" lon="5.74709">
        <ele>1645.56</ele>
        <time>2000-03-06T10:13:13.001+01:00</time>
      </trkpt>
      <trkpt lat="45.30448" lon="5.74709">
        <ele>1645.56</ele>
        <time>2000-03-06T10:13:19.001+01:00</time>
      </trkpt>
      <trkpt lat="45.30448" lon="5.74709">
        <ele>1645.56</ele>
        <time>2000-03-06T10:13:25.001+01:00</time>
      </trkpt>
      <trkpt lat="45.30448" lon="5.74709">
        <ele>1645.56</ele>
        <time>2000-03-06T10:13:31.002+01:00</time>
      </trkpt>
      <trkpt lat="45.30443" lon="5.74686">
        <ele>1644.63</ele>
        <time>2000-03-06T10:13:37.001+01:00</time>
      </trkpt>
      <trkpt lat="45.30443" lon="5.74686">
        <ele>1646.17</ele>
        <time>2000-03-06T10:13:43.001+01:00</time>
      </trkpt>
      <trkpt lat="45.30443" lon="5.74686">
        <ele>1646.17</ele>
        <time>2000-03-06T10:13:49.001+01:00</time>
      </trkpt>
      <trkpt lat="45.30443" lon="5.74686">
        <ele>1646.17</ele>
        <time>2000-03-06T10:13:55.001+01:00</time>
      </trkpt>
      <trkpt lat="45.30443" lon="5.74686">
        <ele>1646.17</ele>
        <time>2000-03-06T10:14:01.000+01:00</time>
      </trkpt>
      <trkpt lat="45.30441" lon="5.74676">
        <ele>1651.19</ele>
        <time>2000-03-06T10:14:07.001+01:00</time>
      </trkpt>
      <trkpt lat="45.30444" lon="5.74673">
        <ele>1653.79</ele>
        <time>2000-03-06T10:14:13.001+01:00</time>
      </trkpt>
      <trkpt lat="45.30447" lon="5.74672">
        <ele>1653.37</ele>
        <time>2000-03-06T10:14:19.001+01:00</time>
      </trkpt>
      <trkpt lat="45.30447" lon="5.74672">
        <ele>1653.37</ele>
        <time>2000-03-06T10:14:25.001+01:00</time>
      </trkpt>
      <trkpt lat="45.30447" lon="5.74672">
        <ele>1653.37</ele>
        <time>2000-03-06T10:14:31.001+01:00</time>
      </trkpt>
      <trkpt lat="45.30447" lon="5.74672">
        <ele>1653.37</ele>
        <time>2000-03-06T10:14:37.001+01:00</time>
      </trkpt>
      <trkpt lat="45.30447" lon="5.74672">
        <ele>1653.37</ele>
        <time>2000-03-06T10:14:43.000+01:00</time>
      </trkpt>
      <trkpt lat="45.30447" lon="5.74672">
        <ele>1653.37</ele>
        <time>2000-03-06T10:14:49.001+01:00</time>
      </trkpt>
      <trkpt lat="45.30447" lon="5.74672">
        <ele>1653.37</ele>
        <time>2000-03-06T10:14:55.001+01:00</time>
      </trkpt>
      <trkpt lat="45.30447" lon="5.74672">
        <ele>1653.37</ele>
        <time>2000-03-06T10:15:01.000+01:00</time>
      </trkpt>
      <trkpt lat="45.30447" lon="5.74672">
        <ele>1653.37</ele>
        <time>2000-03-06T10:15:07.001+01:00</time>
      </trkpt>
      <trkpt lat="45.30447" lon="5.74672">
        <ele>1653.37</ele>
        <time>2000-03-06T10:15:13.000+01:00</time>
      </trkpt>
      <trkpt lat="45.30447" lon="5.74672">
        <ele>1653.37</ele>
        <time>2000-03-06T10:15:19.000+01:00</time>
      </trkpt>
      <trkpt lat="45.30447" lon="5.74672">
        <ele>1653.37</ele>
        <time>2000-03-06T10:15:25.000+01:00</time>
      </trkpt>
      <trkpt lat="45.30447" lon="5.74672">
        <ele>1653.37</ele>
        <time>2000-03-06T10:15:31.000+01:00</time>
      </trkpt>
      <trkpt lat="45.30447" lon="5.74672">
        <ele>1653.37</ele>
        <time>2000-03-06T10:15:37.000+01:00</time>
      </trkpt>
      <trkpt lat="45.30447" lon="5.74672">
        <ele>1653.37</ele>
        <time>2000-03-06T10:15:43.000+01:00</time>
      </trkpt>
      <trkpt lat="45.30447" lon="5.74672">
        <ele>1653.37</ele>
        <time>2000-03-06T10:15:49.000+01:00</time>
      </trkpt>
      <trkpt lat="45.30447" lon="5.74672">
        <ele>1653.37</ele>
        <time>2000-03-06T10:15:55.001+01:00</time>
      </trkpt>
      <trkpt lat="45.30447" lon="5.74672">
        <ele>1653.37</ele>
        <time>2000-03-06T10:16:01.000+01:00</time>
      </trkpt>
      <trkpt lat="45.30447" lon="5.74672">
        <ele>1653.37</ele>
        <time>2000-03-06T10:16:07.001+01:00</time>
      </trkpt>
      <trkpt lat="45.30447" lon="5.74672">
        <ele>1653.37</ele>
        <time>2000-03-06T10:16:13.001+01:00</time>
      </trkpt>
      <trkpt lat="45.30447" lon="5.74672">
        <ele>1653.37</ele>
        <time>2000-03-06T10:16:19.000+01:00</time>
      </trkpt>
      <trkpt lat="45.30447" lon="5.74672">
        <ele>1653.37</ele>
        <time>2000-03-06T10:16:25.000+01:00</time>
      </trkpt>
      <trkpt lat="45.30447" lon="5.74672">
        <ele>1653.37</ele>
        <time>2000-03-06T10:16:31.000+01:00</time>
      </trkpt>
      <trkpt lat="45.30447" lon="5.74672">
        <ele>1653.37</ele>
        <time>2000-03-06T10:16:37.000+01:00</time>
      </trkpt>
      <trkpt lat="45.30447" lon="5.74672">
        <ele>1653.37</ele>
        <time>2000-03-06T10:16:43.000+01:00</time>
      </trkpt>
      <trkpt lat="45.30447" lon="5.74672">
        <ele>1653.37</ele>
        <time>2000-03-06T10:16:49.000+01:00</time>
      </trkpt>
      <trkpt lat="45.30447" lon="5.74672">
        <ele>1653.37</ele>
        <time>2000-03-06T10:16:55.000+01:00</time>
      </trkpt>
      <trkpt lat="45.30447" lon="5.74672">
        <ele>1653.37</ele>
        <time>2000-03-06T10:17:01.000+01:00</time>
      </trkpt>
      <trkpt lat="45.30447" lon="5.74672">
        <ele>1653.37</ele>
        <time>2000-03-06T10:17:07.000+01:00</time>
      </trkpt>
      <trkpt lat="45.30447" lon="5.74672">
        <ele>1653.37</ele>
        <time>2000-03-06T10:17:13.000+01:00</time>
      </trkpt>
      <trkpt lat="45.30447" lon="5.74672">
        <ele>1653.37</ele>
        <time>2000-03-06T10:17:19.000+01:00</time>
      </trkpt>
      <trkpt lat="45.30454" lon="5.74659">
        <ele>1663.02</ele>
        <time>2000-03-06T10:17:25.000+01:00</time>
      </trkpt>
      <trkpt lat="45.30454" lon="5.74657">
        <ele>1663.84</ele>
        <time>2000-03-06T10:17:31.000+01:00</time>
      </trkpt>
      <trkpt lat="45.30454" lon="5.74657">
        <ele>1663.84</ele>
        <time>2000-03-06T10:17:37.000+01:00</time>
      </trkpt>
      <trkpt lat="45.30454" lon="5.74657">
        <ele>1663.84</ele>
        <time>2000-03-06T10:17:43.000+01:00</time>
      </trkpt>
      <trkpt lat="45.30454" lon="5.74657">
        <ele>1663.84</ele>
        <time>2000-03-06T10:17:49.000+01:00</time>
      </trkpt>
      <trkpt lat="45.30454" lon="5.74657">
        <ele>1663.84</ele>
        <time>2000-03-06T10:17:55.000+01:00</time>
      </trkpt>
      <trkpt lat="45.30454" lon="5.74657">
        <ele>1663.84</ele>
        <time>2000-03-06T10:18:01.000+01:00</time>
      </trkpt>
      <trkpt lat="45.30454" lon="5.74657">
        <ele>1663.84</ele>
        <time>2000-03-06T10:18:07.000+01:00</time>
      </trkpt>
      <trkpt lat="45.30454" lon="5.74657">
        <ele>1663.84</ele>
        <time>2000-03-06T10:18:13.000+01:00</time>
      </trkpt>
      <trkpt lat="45.30454" lon="5.74657">
        <ele>1663.84</ele>
        <time>2000-03-06T10:18:19.000+01:00</time>
      </trkpt>
      <trkpt lat="45.30454" lon="5.74657">
        <ele>1663.84</ele>
        <time>2000-03-06T10:18:25.000+01:00</time>
      </trkpt>
      <trkpt lat="45.30454" lon="5.74657">
        <ele>1663.84</ele>
        <time>2000-03-06T10:18:31.000+01:00</time>
      </trkpt>
      <trkpt lat="45.30454" lon="5.74657">
        <ele>1663.84</ele>
        <time>2000-03-06T10:18:37.000+01:00</time>
      </trkpt>
      <trkpt lat="45.30454" lon="5.74657">
        <ele>1663.84</ele>
        <time>2000-03-06T10:18:43.000+01:00</time>
      </trkpt>
      <trkpt lat="45.30454" lon="5.74657">
        <ele>1663.84</ele>
        <time>2000-03-06T10:18:49.000+01:00</time>
      </trkpt>
      <trkpt lat="45.30454" lon="5.74657">
        <ele>1663.84</ele>
        <time>2000-03-06T10:18:55.000+01:00</time>
      </trkpt>
      <trkpt lat="45.30454" lon="5.74657">
        <ele>1663.84</ele>
        <time>2000-03-06T10:19:01.000+01:00</time>
      </trkpt>
      <trkpt lat="45.30454" lon="5.74657">
        <ele>1663.84</ele>
        <time>2000-03-06T10:19:07.000+01:00</time>
      </trkpt>
      <trkpt lat="45.30454" lon="5.74657">
        <ele>1663.84</ele>
        <time>2000-03-06T10:19:13.000+01:00</time>
      </trkpt>
      <trkpt lat="45.30454" lon="5.74657">
        <ele>1663.84</ele>
        <time>2000-03-06T10:19:19.000+01:00</time>
      </trkpt>
      <trkpt lat="45.30454" lon="5.74657">
        <ele>1663.84</ele>
        <time>2000-03-06T10:19:25.000+01:00</time>
      </trkpt>
      <trkpt lat="45.30454" lon="5.74657">
        <ele>1663.84</ele>
        <time>2000-03-06T10:19:31.000+01:00</time>
      </trkpt>
      <trkpt lat="45.30454" lon="5.74657">
        <ele>1663.84</ele>
        <time>2000-03-06T10:19:37.000+01:00</time>
      </trkpt>
      <trkpt lat="45.30454" lon="5.74657">
        <ele>1663.84</ele>
        <time>2000-03-06T10:19:43.000+01:00</time>
      </trkpt>
      <trkpt lat="45.30454" lon="5.74657">
        <ele>1663.84</ele>
        <time>2000-03-06T10:19:49.000+01:00</time>
      </trkpt>
      <trkpt lat="45.30454" lon="5.74657">
        <ele>1663.84</ele>
        <time>2000-03-06T10:19:55.000+01:00</time>
      </trkpt>
      <trkpt lat="45.30454" lon="5.74657">
        <ele>1663.84</ele>
        <time>2000-03-06T10:20:01.000+01:00</time>
      </trkpt>
      <trkpt lat="45.30454" lon="5.74657">
        <ele>1663.84</ele>
        <time>2000-03-06T10:20:07.000+01:00</time>
      </trkpt>
      <trkpt lat="45.30457" lon="5.74657">
        <ele>1660.39</ele>
        <time>2000-03-06T10:20:13.000+01:00</time>
      </trkpt>
      <trkpt lat="45.30463" lon="5.74658">
        <ele>1662.33</ele>
        <time>2000-03-06T10:20:19.000+01:00</time>
      </trkpt>
      <trkpt lat="45.30464" lon="5.74659">
        <ele>1663.6</ele>
        <time>2000-03-06T10:20:25.000+01:00</time>
      </trkpt>
      <trkpt lat="45.30467" lon="5.74671">
        <ele>1667.5</ele>
        <time>2000-03-06T10:20:31.000+01:00</time>
      </trkpt>
      <trkpt lat="45.30469" lon="5.74672">
        <ele>1669.75</ele>
        <time>2000-03-06T10:20:37.000+01:00</time>
      </trkpt>
      <trkpt lat="45.30477" lon="5.74671">
        <ele>1676.35</ele>
        <time>2000-03-06T10:20:43.000+01:00</time>
      </trkpt>
      <trkpt lat="45.30484" lon="5.74671">
        <ele>1679.94</ele>
        <time>2000-03-06T10:20:49.000+01:00</time>
      </trkpt>
      <trkpt lat="45.30491" lon="5.74672">
        <ele>1682.22</ele>
        <time>2000-03-06T10:20:55.000+01:00</time>
      </trkpt>
      <trkpt lat="45.30499" lon="5.74676">
        <ele>1679.12</ele>
        <time>2000-03-06T10:21:01.000+01:00</time>
      </trkpt>
      <trkpt lat="45.30503" lon="5.74681">
        <ele>1676.4</ele>
        <time>2000-03-06T10:21:07.002+01:00</time>
      </trkpt>
      <trkpt lat="45.30522" lon="5.74669">
        <ele>1676.13</ele>
        <time>2000-03-06T10:21:13.000+01:00</time>
      </trkpt>
      <trkpt lat="45.30525" lon="5.74667">
        <ele>1681.64</ele>
        <time>2000-03-06T10:21:19.000+01:00</time>
      </trkpt>
      <trkpt lat="45.30525" lon="5.74667">
        <ele>1681.64</ele>
        <time>2000-03-06T10:21:25.000+01:00</time>
      </trkpt>
      <trkpt lat="45.30525" lon="5.74667">
        <ele>1681.64</ele>
        <time>2000-03-06T10:21:31.000+01:00</time>
      </trkpt>
      <trkpt lat="45.30525" lon="5.74667">
        <ele>1681.64</ele>
        <time>2000-03-06T10:21:37.000+01:00</time>
      </trkpt>
      <trkpt lat="45.30525" lon="5.74667">
        <ele>1681.64</ele>
        <time>2000-03-06T10:21:43.000+01:00</time>
      </trkpt>
      <trkpt lat="45.30525" lon="5.74667">
        <ele>1681.64</ele>
        <time>2000-03-06T10:21:49.000+01:00</time>
      </trkpt>
      <trkpt lat="45.30525" lon="5.74667">
        <ele>1681.64</ele>
        <time>2000-03-06T10:21:55.000+01:00</time>
      </trkpt>
      <trkpt lat="45.30525" lon="5.74667">
        <ele>1681.64</ele>
        <time>2000-03-06T10:22:01.000+01:00</time>
      </trkpt>
      <trkpt lat="45.30525" lon="5.74667">
        <ele>1681.64</ele>
        <time>2000-03-06T10:22:07.000+01:00</time>
      </trkpt>
      <trkpt lat="45.30525" lon="5.74667">
        <ele>1681.64</ele>
        <time>2000-03-06T10:22:13.000+01:00</time>
      </trkpt>
      <trkpt lat="45.30525" lon="5.74667">
        <ele>1681.64</ele>
        <time>2000-03-06T10:22:19.000+01:00</time>
      </trkpt>
      <trkpt lat="45.30525" lon="5.74667">
        <ele>1681.64</ele>
        <time>2000-03-06T10:22:25.000+01:00</time>
      </trkpt>
      <trkpt lat="45.30575" lon="5.74689">
        <ele>1690.27</ele>
        <time>2000-03-06T10:22:31.000+01:00</time>
      </trkpt>
      <trkpt lat="45.30581" lon="5.74694">
        <ele>1695.61</ele>
        <time>2000-03-06T10:22:37.000+01:00</time>
      </trkpt>
      <trkpt lat="45.30581" lon="5.74696">
        <ele>1695.9</ele>
        <time>2000-03-06T10:22:43.000+01:00</time>
      </trkpt>
      <trkpt lat="45.30587" lon="5.74701">
        <ele>1696.49</ele>
        <time>2000-03-06T10:22:49.001+01:00</time>
      </trkpt>
      <trkpt lat="45.30591" lon="5.74702">
        <ele>1695.75</ele>
        <time>2000-03-06T10:22:55.000+01:00</time>
      </trkpt>
      <trkpt lat="45.30591" lon="5.74702">
        <ele>1695.75</ele>
        <time>2000-03-06T10:23:01.000+01:00</time>
      </trkpt>
      <trkpt lat="45.30591" lon="5.74702">
        <ele>1695.75</ele>
        <time>2000-03-06T10:23:07.001+01:00</time>
      </trkpt>
      <trkpt lat="45.30591" lon="5.74702">
        <ele>1695.75</ele>
        <time>2000-03-06T10:23:13.001+01:00</time>
      </trkpt>
      <trkpt lat="45.30591" lon="5.74702">
        <ele>1695.75</ele>
        <time>2000-03-06T10:23:19.000+01:00</time>
      </trkpt>
      <trkpt lat="45.30607" lon="5.74722">
        <ele>1704.42</ele>
        <time>2000-03-06T10:23:25.000+01:00</time>
      </trkpt>
      <trkpt lat="45.30613" lon="5.74724">
        <ele>1708.4</ele>
        <time>2000-03-06T10:23:31.000+01:00</time>
      </trkpt>
      <trkpt lat="45.30613" lon="5.74726">
        <ele>1710.39</ele>
        <time>2000-03-06T10:23:36.802+01:00</time>
      </trkpt>
      <trkpt lat="45.30623" lon="5.74728">
        <ele>1700.71</ele>
        <time>2000-03-06T10:23:42.000+01:00</time>
      </trkpt>
      <trkpt lat="45.30623" lon="5.74728">
        <ele>1700.71</ele>
        <time>2000-03-06T10:23:48.000+01:00</time>
      </trkpt>
      <trkpt lat="45.30623" lon="5.74728">
        <ele>1700.71</ele>
        <time>2000-03-06T10:23:54.000+01:00</time>
      </trkpt>
      <trkpt lat="45.30623" lon="5.74728">
        <ele>1700.71</ele>
        <time>2000-03-06T10:24:00.000+01:00</time>
      </trkpt>
      <trkpt lat="45.3064" lon="5.74744">
        <ele>1698.51</ele>
        <time>2000-03-06T10:24:06.000+01:00</time>
      </trkpt>
      <trkpt lat="45.30645" lon="5.74748">
        <ele>1700.14</ele>
        <time>2000-03-06T10:24:12.000+01:00</time>
      </trkpt>
      <trkpt lat="45.30647" lon="5.74749">
        <ele>1700.83</ele>
        <time>2000-03-06T10:24:18.000+01:00</time>
      </trkpt>
      <trkpt lat="45.30657" lon="5.7475">
        <ele>1702.18</ele>
        <time>2000-03-06T10:24:24.000+01:00</time>
      </trkpt>
      <trkpt lat="45.30659" lon="5.74751">
        <ele>1702.23</ele>
        <time>2000-03-06T10:24:30.001+01:00</time>
      </trkpt>
      <trkpt lat="45.30667" lon="5.74753">
        <ele>1701.29</ele>
        <time>2000-03-06T10:24:36.001+01:00</time>
      </trkpt>
      <trkpt lat="45.30672" lon="5.74754">
        <ele>1700.49</ele>
        <time>2000-03-06T10:24:42.001+01:00</time>
      </trkpt>
      <trkpt lat="45.30677" lon="5.74756">
        <ele>1700.62</ele>
        <time>2000-03-06T10:24:48.000+01:00</time>
      </trkpt>
      <trkpt lat="45.30682" lon="5.74758">
        <ele>1699.25</ele>
        <time>2000-03-06T10:24:54.000+01:00</time>
      </trkpt>
      <trkpt lat="45.30687" lon="5.74761">
        <ele>1700.96</ele>
        <time>2000-03-06T10:25:00.000+01:00</time>
      </trkpt>
      <trkpt lat="45.3069" lon="5.74762">
        <ele>1700.44</ele>
        <time>2000-03-06T10:25:06.000+01:00</time>
      </trkpt>
      <trkpt lat="45.30694" lon="5.74775">
        <ele>1698.88</ele>
        <time>2000-03-06T10:25:12.000+01:00</time>
      </trkpt>
      <trkpt lat="45.30698" lon="5.74785">
        <ele>1697.07</ele>
        <time>2000-03-06T10:25:18.000+01:00</time>
      </trkpt>
      <trkpt lat="45.30704" lon="5.74792">
        <ele>1695.1</ele>
        <time>2000-03-06T10:25:24.000+01:00</time>
      </trkpt>
      <trkpt lat="45.30706" lon="5.74795">
        <ele>1693.31</ele>
        <time>2000-03-06T10:25:30.000+01:00</time>
      </trkpt>
      <trkpt lat="45.3071" lon="5.74807">
        <ele>1690.32</ele>
        <time>2000-03-06T10:25:36.000+01:00</time>
      </trkpt>
      <trkpt lat="45.3071" lon="5.74816">
        <ele>1689.7</ele>
        <time>2000-03-06T10:25:42.000+01:00</time>
      </trkpt>
      <trkpt lat="45.30715" lon="5.74822">
        <ele>1690.75</ele>
        <time>2000-03-06T10:25:48.000+01:00</time>
      </trkpt>
      <trkpt lat="45.30719" lon="5.74827">
        <ele>1690.35</ele>
        <time>2000-03-06T10:25:54.000+01:00</time>
      </trkpt>
      <trkpt lat="45.30723" lon="5.74831">
        <ele>1692.42</ele>
        <time>2000-03-06T10:26:00.000+01:00</time>
      </trkpt>
      <trkpt lat="45.30725" lon="5.74836">
        <ele>1695.49</ele>
        <time>2000-03-06T10:26:06.000+01:00</time>
      </trkpt>
      <trkpt lat="45.3073" lon="5.7484">
        <ele>1694.65</ele>
        <time>2000-03-06T10:26:12.000+01:00</time>
      </trkpt>
      <trkpt lat="45.30735" lon="5.74845">
        <ele>1697.35</ele>
        <time>2000-03-06T10:26:18.000+01:00</time>
      </trkpt>
      <trkpt lat="45.30736" lon="5.74848">
        <ele>1697.53</ele>
        <time>2000-03-06T10:26:24.000+01:00</time>
      </trkpt>
      <trkpt lat="45.30744" lon="5.74853">
        <ele>1697.58</ele>
        <time>2000-03-06T10:26:30.000+01:00</time>
      </trkpt>
      <trkpt lat="45.30746" lon="5.74857">
        <ele>1695.27</ele>
        <time>2000-03-06T10:26:35.998+01:00</time>
      </trkpt>
      <trkpt lat="45.30754" lon="5.74863">
        <ele>1696.59</ele>
        <time>2000-03-06T10:26:42.000+01:00</time>
      </trkpt>
      <trkpt lat="45.30757" lon="5.7487">
        <ele>1700</ele>
        <time>2000-03-06T10:26:48.000+01:00</time>
      </trkpt>
      <trkpt lat="45.30758" lon="5.74875">
        <ele>1704.91</ele>
        <time>2000-03-06T10:26:54.000+01:00</time>
      </trkpt>
      <trkpt lat="45.30758" lon="5.74888">
        <ele>1708.69</ele>
        <time>2000-03-06T10:27:00.000+01:00</time>
      </trkpt>
      <trkpt lat="45.30758" lon="5.74888">
        <ele>1708.86</ele>
        <time>2000-03-06T10:27:06.000+01:00</time>
      </trkpt>
      <trkpt lat="45.30765" lon="5.749">
        <ele>1713.39</ele>
        <time>2000-03-06T10:27:12.000+01:00</time>
      </trkpt>
      <trkpt lat="45.30772" lon="5.74914">
        <ele>1709.52</ele>
        <time>2000-03-06T10:27:18.000+01:00</time>
      </trkpt>
      <trkpt lat="45.30774" lon="5.74919">
        <ele>1704.6</ele>
        <time>2000-03-06T10:27:24.000+01:00</time>
      </trkpt>
      <trkpt lat="45.30774" lon="5.74919">
        <ele>1704.6</ele>
        <time>2000-03-06T10:27:30.000+01:00</time>
      </trkpt>
      <trkpt lat="45.30774" lon="5.74919">
        <ele>1704.6</ele>
        <time>2000-03-06T10:27:36.000+01:00</time>
      </trkpt>
      <trkpt lat="45.30781" lon="5.74934">
        <ele>1701.86</ele>
        <time>2000-03-06T10:27:42.000+01:00</time>
      </trkpt>
      <trkpt lat="45.30791" lon="5.74953">
        <ele>1704.23</ele>
        <time>2000-03-06T10:27:48.000+01:00</time>
      </trkpt>
      <trkpt lat="45.30793" lon="5.74959">
        <ele>1705.92</ele>
        <time>2000-03-06T10:27:54.000+01:00</time>
      </trkpt>
      <trkpt lat="45.30798" lon="5.74961">
        <ele>1706.56</ele>
        <time>2000-03-06T10:28:00.000+01:00</time>
      </trkpt>
      <trkpt lat="45.30799" lon="5.74967">
        <ele>1706.94</ele>
        <time>2000-03-06T10:28:06.000+01:00</time>
      </trkpt>
      <trkpt lat="45.30806" lon="5.7499">
        <ele>1706.43</ele>
        <time>2000-03-06T10:28:12.000+01:00</time>
      </trkpt>
      <trkpt lat="45.30818" lon="5.75009">
        <ele>1700.66</ele>
        <time>2000-03-06T10:28:18.000+01:00</time>
      </trkpt>
      <trkpt lat="45.30826" lon="5.75018">
        <ele>1695.43</ele>
        <time>2000-03-06T10:28:24.000+01:00</time>
      </trkpt>
      <trkpt lat="45.30844" lon="5.75037">
        <ele>1687.89</ele>
        <time>2000-03-06T10:28:30.000+01:00</time>
      </trkpt>
      <trkpt lat="45.30843" lon="5.75039">
        <ele>1687.28</ele>
        <time>2000-03-06T10:28:36.000+01:00</time>
      </trkpt>
      <trkpt lat="45.30843" lon="5.75039">
        <ele>1687.28</ele>
        <time>2000-03-06T10:28:42.000+01:00</time>
      </trkpt>
      <trkpt lat="45.30832" lon="5.7505">
        <ele>1683.93</ele>
        <time>2000-03-06T10:28:48.000+01:00</time>
      </trkpt>
      <trkpt lat="45.30831" lon="5.75061">
        <ele>1684.61</ele>
        <time>2000-03-06T10:28:54.000+01:00</time>
      </trkpt>
      <trkpt lat="45.30828" lon="5.75073">
        <ele>1684.07</ele>
        <time>2000-03-06T10:29:00.001+01:00</time>
      </trkpt>
      <trkpt lat="45.30827" lon="5.75076">
        <ele>1684.31</ele>
        <time>2000-03-06T10:29:06.001+01:00</time>
      </trkpt>
      <trkpt lat="45.30835" lon="5.75095">
        <ele>1680.06</ele>
        <time>2000-03-06T10:29:12.001+01:00</time>
      </trkpt>
      <trkpt lat="45.30846" lon="5.75116">
        <ele>1673.13</ele>
        <time>2000-03-06T10:29:18.001+01:00</time>
      </trkpt>
      <trkpt lat="45.30858" lon="5.75146">
        <ele>1664.94</ele>
        <time>2000-03-06T10:29:24.000+01:00</time>
      </trkpt>
      <trkpt lat="45.30861" lon="5.75165">
        <ele>1662.62</ele>
        <time>2000-03-06T10:29:30.000+01:00</time>
      </trkpt>
      <trkpt lat="45.30858" lon="5.75177">
        <ele>1660.58</ele>
        <time>2000-03-06T10:29:35.999+01:00</time>
      </trkpt>
      <trkpt lat="45.30858" lon="5.75189">
        <ele>1655.2</ele>
        <time>2000-03-06T10:29:42.000+01:00</time>
      </trkpt>
      <trkpt lat="45.30859" lon="5.75197">
        <ele>1650.84</ele>
        <time>2000-03-06T10:29:48.000+01:00</time>
      </trkpt>
      <trkpt lat="45.3086" lon="5.75197">
        <ele>1652.43</ele>
        <time>2000-03-06T10:29:54.001+01:00</time>
      </trkpt>
      <trkpt lat="45.30865" lon="5.75206">
        <ele>1657.12</ele>
        <time>2000-03-06T10:30:00.001+01:00</time>
      </trkpt>
      <trkpt lat="45.30869" lon="5.75215">
        <ele>1658.51</ele>
        <time>2000-03-06T10:30:06.001+01:00</time>
      </trkpt>
      <trkpt lat="45.30871" lon="5.75222">
        <ele>1661.42</ele>
        <time>2000-03-06T10:30:12.001+01:00</time>
      </trkpt>
      <trkpt lat="45.30876" lon="5.7523">
        <ele>1659.88</ele>
        <time>2000-03-06T10:30:18.001+01:00</time>
      </trkpt>
      <trkpt lat="45.30881" lon="5.75237">
        <ele>1662.18</ele>
        <time>2000-03-06T10:30:24.001+01:00</time>
      </trkpt>
      <trkpt lat="45.30882" lon="5.75247">
        <ele>1664.02</ele>
        <time>2000-03-06T10:30:30.001+01:00</time>
      </trkpt>
      <trkpt lat="45.30884" lon="5.75258">
        <ele>1663.96</ele>
        <time>2000-03-06T10:30:36.001+01:00</time>
      </trkpt>
      <trkpt lat="45.30886" lon="5.7527">
        <ele>1665.13</ele>
        <time>2000-03-06T10:30:42.001+01:00</time>
      </trkpt>
      <trkpt lat="45.30895" lon="5.75274">
        <ele>1650.66</ele>
        <time>2000-03-06T10:30:48.000+01:00</time>
      </trkpt>
      <trkpt lat="45.30895" lon="5.75274">
        <ele>1650.66</ele>
        <time>2000-03-06T10:30:54.000+01:00</time>
      </trkpt>
      <trkpt lat="45.30914" lon="5.75272">
        <ele>1649.41</ele>
        <time>2000-03-06T10:31:00.001+01:00</time>
      </trkpt>
      <trkpt lat="45.30922" lon="5.75276">
        <ele>1649.87</ele>
        <time>2000-03-06T10:31:06.001+01:00</time>
      </trkpt>
      <trkpt lat="45.3093" lon="5.75285">
        <ele>1645.22</ele>
        <time>2000-03-06T10:31:12.000+01:00</time>
      </trkpt>
      <trkpt lat="45.30936" lon="5.75293">
        <ele>1644.8</ele>
        <time>2000-03-06T10:31:18.000+01:00</time>
      </trkpt>
      <trkpt lat="45.30942" lon="5.75301">
        <ele>1644.07</ele>
        <time>2000-03-06T10:31:24.000+01:00</time>
      </trkpt>
      <trkpt lat="45.30945" lon="5.75306">
        <ele>1644.05</ele>
        <time>2000-03-06T10:31:30.000+01:00</time>
      </trkpt>
      <trkpt lat="45.30945" lon="5.75306">
        <ele>1644.05</ele>
        <time>2000-03-06T10:31:36.000+01:00</time>
      </trkpt>
      <trkpt lat="45.30945" lon="5.75306">
        <ele>1644.05</ele>
        <time>2000-03-06T10:31:42.000+01:00</time>
      </trkpt>
      <trkpt lat="45.30959" lon="5.75326">
        <ele>1646.77</ele>
        <time>2000-03-06T10:31:48.000+01:00</time>
      </trkpt>
      <trkpt lat="45.30961" lon="5.75329">
        <ele>1646.68</ele>
        <time>2000-03-06T10:31:54.000+01:00</time>
      </trkpt>
      <trkpt lat="45.30961" lon="5.75329">
        <ele>1646.68</ele>
        <time>2000-03-06T10:32:00.000+01:00</time>
      </trkpt>
      <trkpt lat="45.30961" lon="5.75329">
        <ele>1646.68</ele>
        <time>2000-03-06T10:32:06.000+01:00</time>
      </trkpt>
      <trkpt lat="45.30977" lon="5.75347">
        <ele>1646.14</ele>
        <time>2000-03-06T10:32:12.000+01:00</time>
      </trkpt>
      <trkpt lat="45.30981" lon="5.75353">
        <ele>1646.15</ele>
        <time>2000-03-06T10:32:18.000+01:00</time>
      </trkpt>
      <trkpt lat="45.30987" lon="5.75359">
        <ele>1644.37</ele>
        <time>2000-03-06T10:32:24.000+01:00</time>
      </trkpt>
      <trkpt lat="45.3099" lon="5.75363">
        <ele>1643.48</ele>
        <time>2000-03-06T10:32:30.000+01:00</time>
      </trkpt>
      <trkpt lat="45.30997" lon="5.75367">
        <ele>1642.8</ele>
        <time>2000-03-06T10:32:36.000+01:00</time>
      </trkpt>
      <trkpt lat="45.31001" lon="5.75375">
        <ele>1642.68</ele>
        <time>2000-03-06T10:32:42.001+01:00</time>
      </trkpt>
      <trkpt lat="45.31007" lon="5.75381">
        <ele>1641.55</ele>
        <time>2000-03-06T10:32:48.001+01:00</time>
      </trkpt>
      <trkpt lat="45.31014" lon="5.75382">
        <ele>1642.76</ele>
        <time>2000-03-06T10:32:54.001+01:00</time>
      </trkpt>
      <trkpt lat="45.31018" lon="5.75384">
        <ele>1644.63</ele>
        <time>2000-03-06T10:33:00.001+01:00</time>
      </trkpt>
      <trkpt lat="45.31025" lon="5.75384">
        <ele>1642.08</ele>
        <time>2000-03-06T10:33:06.001+01:00</time>
      </trkpt>
      <trkpt lat="45.31032" lon="5.75387">
        <ele>1641.75</ele>
        <time>2000-03-06T10:33:12.001+01:00</time>
      </trkpt>
      <trkpt lat="45.31038" lon="5.75389">
        <ele>1638.76</ele>
        <time>2000-03-06T10:33:18.001+01:00</time>
      </trkpt>
      <trkpt lat="45.31045" lon="5.75391">
        <ele>1637.99</ele>
        <time>2000-03-06T10:33:24.001+01:00</time>
      </trkpt>
      <trkpt lat="45.31049" lon="5.75398">
        <ele>1638.93</ele>
        <time>2000-03-06T10:33:30.001+01:00</time>
      </trkpt>
      <trkpt lat="45.31055" lon="5.75401">
        <ele>1641.07</ele>
        <time>2000-03-06T10:33:36.000+01:00</time>
      </trkpt>
      <trkpt lat="45.31059" lon="5.75411">
        <ele>1643.14</ele>
        <time>2000-03-06T10:33:42.000+01:00</time>
      </trkpt>
      <trkpt lat="45.31064" lon="5.7542">
        <ele>1646.16</ele>
        <time>2000-03-06T10:33:48.000+01:00</time>
      </trkpt>
      <trkpt lat="45.31069" lon="5.75428">
        <ele>1646.72</ele>
        <time>2000-03-06T10:33:54.000+01:00</time>
      </trkpt>
      <trkpt lat="45.31076" lon="5.75432">
        <ele>1648.49</ele>
        <time>2000-03-06T10:34:00.000+01:00</time>
      </trkpt>
      <trkpt lat="45.31081" lon="5.75435">
        <ele>1650.3</ele>
        <time>2000-03-06T10:34:06.000+01:00</time>
      </trkpt>
      <trkpt lat="45.31086" lon="5.75438">
        <ele>1652.17</ele>
        <time>2000-03-06T10:34:11.999+01:00</time>
      </trkpt>
      <trkpt lat="45.31087" lon="5.75449">
        <ele>1651.06</ele>
        <time>2000-03-06T10:34:18.000+01:00</time>
      </trkpt>
      <trkpt lat="45.31088" lon="5.75455">
        <ele>1650.62</ele>
        <time>2000-03-06T10:34:24.000+01:00</time>
      </trkpt>
      <trkpt lat="45.31092" lon="5.75466">
        <ele>1647.53</ele>
        <time>2000-03-06T10:34:30.000+01:00</time>
      </trkpt>
      <trkpt lat="45.31095" lon="5.75474">
        <ele>1648.54</ele>
        <time>2000-03-06T10:34:35.999+01:00</time>
      </trkpt>
      <trkpt lat="45.31096" lon="5.75478">
        <ele>1649.15</ele>
        <time>2000-03-06T10:34:42.000+01:00</time>
      </trkpt>
      <trkpt lat="45.31096" lon="5.75478">
        <ele>1649.15</ele>
        <time>2000-03-06T10:34:47.999+01:00</time>
      </trkpt>
      <trkpt lat="45.31104" lon="5.75497">
        <ele>1655.62</ele>
        <time>2000-03-06T10:34:53.999+01:00</time>
      </trkpt>
      <trkpt lat="45.31108" lon="5.75501">
        <ele>1660.07</ele>
        <time>2000-03-06T10:35:00.000+01:00</time>
      </trkpt>
      <trkpt lat="45.3111" lon="5.75502">
        <ele>1660.16</ele>
        <time>2000-03-06T10:35:06.000+01:00</time>
      </trkpt>
      <trkpt lat="45.3111" lon="5.75502">
        <ele>1660.16</ele>
        <time>2000-03-06T10:35:12.000+01:00</time>
      </trkpt>
      <trkpt lat="45.31111" lon="5.75499">
        <ele>1664.54</ele>
        <time>2000-03-06T10:35:18.001+01:00</time>
      </trkpt>
      <trkpt lat="45.31111" lon="5.75499">
        <ele>1664.17</ele>
        <time>2000-03-06T10:35:24.000+01:00</time>
      </trkpt>
      <trkpt lat="45.31111" lon="5.75499">
        <ele>1664.17</ele>
        <time>2000-03-06T10:35:30.000+01:00</time>
      </trkpt>
      <trkpt lat="45.31111" lon="5.75499">
        <ele>1664.17</ele>
        <time>2000-03-06T10:35:36.001+01:00</time>
      </trkpt>
      <trkpt lat="45.31111" lon="5.75499">
        <ele>1664.17</ele>
        <time>2000-03-06T10:35:42.001+01:00</time>
      </trkpt>
      <trkpt lat="45.31111" lon="5.75499">
        <ele>1664.17</ele>
        <time>2000-03-06T10:35:48.001+01:00</time>
      </trkpt>
      <trkpt lat="45.31111" lon="5.75499">
        <ele>1664.17</ele>
        <time>2000-03-06T10:35:54.000+01:00</time>
      </trkpt>
      <trkpt lat="45.31111" lon="5.75499">
        <ele>1664.17</ele>
        <time>2000-03-06T10:36:00.001+01:00</time>
      </trkpt>
      <trkpt lat="45.31111" lon="5.75499">
        <ele>1664.17</ele>
        <time>2000-03-06T10:36:06.000+01:00</time>
      </trkpt>
      <trkpt lat="45.31111" lon="5.75499">
        <ele>1664.17</ele>
        <time>2000-03-06T10:36:12.000+01:00</time>
      </trkpt>
      <trkpt lat="45.31111" lon="5.75499">
        <ele>1664.17</ele>
        <time>2000-03-06T10:36:18.001+01:00</time>
      </trkpt>
      <trkpt lat="45.31111" lon="5.75499">
        <ele>1664.17</ele>
        <time>2000-03-06T10:36:24.000+01:00</time>
      </trkpt>
      <trkpt lat="45.31111" lon="5.75499">
        <ele>1664.17</ele>
        <time>2000-03-06T10:36:30.000+01:00</time>
      </trkpt>
      <trkpt lat="45.31111" lon="5.75499">
        <ele>1664.17</ele>
        <time>2000-03-06T10:36:36.000+01:00</time>
      </trkpt>
      <trkpt lat="45.31111" lon="5.75499">
        <ele>1664.17</ele>
        <time>2000-03-06T10:36:42.000+01:00</time>
      </trkpt>
      <trkpt lat="45.31109" lon="5.75511">
        <ele>1640.53</ele>
        <time>2000-03-06T10:36:48.000+01:00</time>
      </trkpt>
      <trkpt lat="45.3111" lon="5.7551">
        <ele>1640.86</ele>
        <time>2000-03-06T10:36:54.000+01:00</time>
      </trkpt>
      <trkpt lat="45.3111" lon="5.7551">
        <ele>1640.86</ele>
        <time>2000-03-06T10:37:00.000+01:00</time>
      </trkpt>
      <trkpt lat="45.3111" lon="5.7551">
        <ele>1640.86</ele>
        <time>2000-03-06T10:37:06.000+01:00</time>
      </trkpt>
      <trkpt lat="45.31114" lon="5.75501">
        <ele>1651.37</ele>
        <time>2000-03-06T10:37:12.000+01:00</time>
      </trkpt>
      <trkpt lat="45.31117" lon="5.75498">
        <ele>1651.01</ele>
        <time>2000-03-06T10:37:18.000+01:00</time>
      </trkpt>
      <trkpt lat="45.31117" lon="5.75498">
        <ele>1650.1</ele>
        <time>2000-03-06T10:37:24.000+01:00</time>
      </trkpt>
      <trkpt lat="45.31117" lon="5.75498">
        <ele>1650.1</ele>
        <time>2000-03-06T10:37:29.999+01:00</time>
      </trkpt>
      <trkpt lat="45.31117" lon="5.75498">
        <ele>1650.1</ele>
        <time>2000-03-06T10:37:35.999+01:00</time>
      </trkpt>
      <trkpt lat="45.31117" lon="5.75498">
        <ele>1650.1</ele>
        <time>2000-03-06T10:37:41.999+01:00</time>
      </trkpt>
      <trkpt lat="45.31117" lon="5.75498">
        <ele>1650.1</ele>
        <time>2000-03-06T10:37:48.000+01:00</time>
      </trkpt>
      <trkpt lat="45.31117" lon="5.75498">
        <ele>1650.1</ele>
        <time>2000-03-06T10:37:54.001+01:00</time>
      </trkpt>
      <trkpt lat="45.31117" lon="5.75498">
        <ele>1650.1</ele>
        <time>2000-03-06T10:38:00.000+01:00</time>
      </trkpt>
      <trkpt lat="45.31117" lon="5.75498">
        <ele>1650.1</ele>
        <time>2000-03-06T10:38:06.000+01:00</time>
      </trkpt>
      <trkpt lat="45.31117" lon="5.75498">
        <ele>1650.1</ele>
        <time>2000-03-06T10:38:12.000+01:00</time>
      </trkpt>
      <trkpt lat="45.31117" lon="5.75498">
        <ele>1650.1</ele>
        <time>2000-03-06T10:38:18.000+01:00</time>
      </trkpt>
      <trkpt lat="45.31117" lon="5.75498">
        <ele>1650.1</ele>
        <time>2000-03-06T10:38:24.000+01:00</time>
      </trkpt>
      <trkpt lat="45.31117" lon="5.75498">
        <ele>1650.1</ele>
        <time>2000-03-06T10:38:30.000+01:00</time>
      </trkpt>
      <trkpt lat="45.31117" lon="5.75498">
        <ele>1650.1</ele>
        <time>2000-03-06T10:38:36.000+01:00</time>
      </trkpt>
      <trkpt lat="45.31117" lon="5.75498">
        <ele>1650.1</ele>
        <time>2000-03-06T10:38:42.000+01:00</time>
      </trkpt>
      <trkpt lat="45.31118" lon="5.75497">
        <ele>1641.76</ele>
        <time>2000-03-06T10:38:48.000+01:00</time>
      </trkpt>
      <trkpt lat="45.31118" lon="5.75497">
        <ele>1641.76</ele>
        <time>2000-03-06T10:38:54.001+01:00</time>
      </trkpt>
      <trkpt lat="45.31122" lon="5.75494">
        <ele>1643.34</ele>
        <time>2000-03-06T10:39:00.001+01:00</time>
      </trkpt>
      <trkpt lat="45.31122" lon="5.75494">
        <ele>1643.34</ele>
        <time>2000-03-06T10:39:06.001+01:00</time>
      </trkpt>
      <trkpt lat="45.31122" lon="5.75494">
        <ele>1643.34</ele>
        <time>2000-03-06T10:39:12.001+01:00</time>
      </trkpt>
      <trkpt lat="45.31122" lon="5.75494">
        <ele>1643.34</ele>
        <time>2000-03-06T10:39:18.001+01:00</time>
      </trkpt>
      <trkpt lat="45.31122" lon="5.75494">
        <ele>1643.34</ele>
        <time>2000-03-06T10:39:24.001+01:00</time>
      </trkpt>
      <trkpt lat="45.31122" lon="5.75494">
        <ele>1643.34</ele>
        <time>2000-03-06T10:39:30.001+01:00</time>
      </trkpt>
      <trkpt lat="45.31122" lon="5.75494">
        <ele>1643.34</ele>
        <time>2000-03-06T10:39:36.000+01:00</time>
      </trkpt>
      <trkpt lat="45.31122" lon="5.75494">
        <ele>1643.34</ele>
        <time>2000-03-06T10:39:42.001+01:00</time>
      </trkpt>
      <trkpt lat="45.31121" lon="5.75502">
        <ele>1639.77</ele>
        <time>2000-03-06T10:39:48.000+01:00</time>
      </trkpt>
      <trkpt lat="45.31121" lon="5.75502">
        <ele>1639.77</ele>
        <time>2000-03-06T10:39:54.000+01:00</time>
      </trkpt>
      <trkpt lat="45.31121" lon="5.75502">
        <ele>1639.77</ele>
        <time>2000-03-06T10:40:00.000+01:00</time>
      </trkpt>
      <trkpt lat="45.3111" lon="5.75517">
        <ele>1638.96</ele>
        <time>2000-03-06T10:40:06.000+01:00</time>
      </trkpt>
      <trkpt lat="45.31108" lon="5.75519">
        <ele>1638.05</ele>
        <time>2000-03-06T10:40:12.000+01:00</time>
      </trkpt>
      <trkpt lat="45.31108" lon="5.75519">
        <ele>1638.05</ele>
        <time>2000-03-06T10:40:18.000+01:00</time>
      </trkpt>
      <trkpt lat="45.31108" lon="5.75519">
        <ele>1638.05</ele>
        <time>2000-03-06T10:40:24.000+01:00</time>
      </trkpt>
      <trkpt lat="45.31114" lon="5.75512">
        <ele>1635.44</ele>
        <time>2000-03-06T10:40:30.000+01:00</time>
      </trkpt>
      <trkpt lat="45.31122" lon="5.75509">
        <ele>1634.01</ele>
        <time>2000-03-06T10:40:36.000+01:00</time>
      </trkpt>
      <trkpt lat="45.31129" lon="5.75507">
        <ele>1631.71</ele>
        <time>2000-03-06T10:40:42.000+01:00</time>
      </trkpt>
      <trkpt lat="45.31137" lon="5.755">
        <ele>1630.95</ele>
        <time>2000-03-06T10:40:48.000+01:00</time>
      </trkpt>
      <trkpt lat="45.31141" lon="5.755">
        <ele>1631.19</ele>
        <time>2000-03-06T10:40:54.000+01:00</time>
      </trkpt>
      <trkpt lat="45.31145" lon="5.75505">
        <ele>1632.94</ele>
        <time>2000-03-06T10:41:00.000+01:00</time>
      </trkpt>
      <trkpt lat="45.31152" lon="5.75503">
        <ele>1634.08</ele>
        <time>2000-03-06T10:41:05.999+01:00</time>
      </trkpt>
      <trkpt lat="45.31166" lon="5.75487">
        <ele>1639.58</ele>
        <time>2000-03-06T10:41:12.000+01:00</time>
      </trkpt>
      <trkpt lat="45.31176" lon="5.75482">
        <ele>1642.55</ele>
        <time>2000-03-06T10:41:18.000+01:00</time>
      </trkpt>
      <trkpt lat="45.31185" lon="5.75478">
        <ele>1642.81</ele>
        <time>2000-03-06T10:41:24.000+01:00</time>
      </trkpt>
      <trkpt lat="45.31192" lon="5.75478">
        <ele>1641.55</ele>
        <time>2000-03-06T10:41:30.000+01:00</time>
      </trkpt>
      <trkpt lat="45.31202" lon="5.75474">
        <ele>1641.97</ele>
        <time>2000-03-06T10:41:36.000+01:00</time>
      </trkpt>
      <trkpt lat="45.31208" lon="5.75472">
        <ele>1641.74</ele>
        <time>2000-03-06T10:41:42.000+01:00</time>
      </trkpt>
      <trkpt lat="45.31213" lon="5.75467">
        <ele>1641.28</ele>
        <time>2000-03-06T10:41:48.000+01:00</time>
      </trkpt>
      <trkpt lat="45.31219" lon="5.75461">
        <ele>1640.83</ele>
        <time>2000-03-06T10:41:54.000+01:00</time>
      </trkpt>
      <trkpt lat="45.31225" lon="5.75454">
        <ele>1640.07</ele>
        <time>2000-03-06T10:42:00.000+01:00</time>
      </trkpt>
      <trkpt lat="45.31229" lon="5.7545">
        <ele>1639.4</ele>
        <time>2000-03-06T10:42:06.000+01:00</time>
      </trkpt>
      <trkpt lat="45.31235" lon="5.75445">
        <ele>1638.15</ele>
        <time>2000-03-06T10:42:12.001+01:00</time>
      </trkpt>
      <trkpt lat="45.31242" lon="5.75437">
        <ele>1637.06</ele>
        <time>2000-03-06T10:42:18.001+01:00</time>
      </trkpt>
      <trkpt lat="45.31247" lon="5.75433">
        <ele>1636.35</ele>
        <time>2000-03-06T10:42:24.001+01:00</time>
      </trkpt>
      <trkpt lat="45.31253" lon="5.75428">
        <ele>1635.95</ele>
        <time>2000-03-06T10:42:30.001+01:00</time>
      </trkpt>
      <trkpt lat="45.3126" lon="5.7542">
        <ele>1633.7</ele>
        <time>2000-03-06T10:42:36.001+01:00</time>
      </trkpt>
      <trkpt lat="45.31268" lon="5.75413">
        <ele>1632.74</ele>
        <time>2000-03-06T10:42:42.001+01:00</time>
      </trkpt>
      <trkpt lat="45.31275" lon="5.75411">
        <ele>1633.25</ele>
        <time>2000-03-06T10:42:48.001+01:00</time>
      </trkpt>
      <trkpt lat="45.31281" lon="5.75407">
        <ele>1633.78</ele>
        <time>2000-03-06T10:42:54.001+01:00</time>
      </trkpt>
      <trkpt lat="45.31288" lon="5.75403">
        <ele>1632.26</ele>
        <time>2000-03-06T10:43:00.000+01:00</time>
      </trkpt>
      <trkpt lat="45.31293" lon="5.75403">
        <ele>1632.31</ele>
        <time>2000-03-06T10:43:06.000+01:00</time>
      </trkpt>
      <trkpt lat="45.31296" lon="5.75407">
        <ele>1630.67</ele>
        <time>2000-03-06T10:43:12.000+01:00</time>
      </trkpt>
      <trkpt lat="45.313" lon="5.75409">
        <ele>1630.43</ele>
        <time>2000-03-06T10:43:18.000+01:00</time>
      </trkpt>
      <trkpt lat="45.31306" lon="5.75406">
        <ele>1629.68</ele>
        <time>2000-03-06T10:43:24.000+01:00</time>
      </trkpt>
      <trkpt lat="45.31313" lon="5.75401">
        <ele>1629.23</ele>
        <time>2000-03-06T10:43:30.000+01:00</time>
      </trkpt>
      <trkpt lat="45.3132" lon="5.75396">
        <ele>1629.09</ele>
        <time>2000-03-06T10:43:36.000+01:00</time>
      </trkpt>
      <trkpt lat="45.31326" lon="5.75391">
        <ele>1630.23</ele>
        <time>2000-03-06T10:43:42.000+01:00</time>
      </trkpt>
      <trkpt lat="45.31331" lon="5.75389">
        <ele>1629.96</ele>
        <time>2000-03-06T10:43:47.999+01:00</time>
      </trkpt>
      <trkpt lat="45.31339" lon="5.75386">
        <ele>1630.34</ele>
        <time>2000-03-06T10:43:53.999+01:00</time>
      </trkpt>
      <trkpt lat="45.31348" lon="5.75381">
        <ele>1632.38</ele>
        <time>2000-03-06T10:44:00.000+01:00</time>
      </trkpt>
      <trkpt lat="45.31354" lon="5.75382">
        <ele>1633.33</ele>
        <time>2000-03-06T10:44:06.000+01:00</time>
      </trkpt>
      <trkpt lat="45.31362" lon="5.75381">
        <ele>1633.3</ele>
        <time>2000-03-06T10:44:12.000+01:00</time>
      </trkpt>
      <trkpt lat="45.31367" lon="5.75378">
        <ele>1632.18</ele>
        <time>2000-03-06T10:44:18.000+01:00</time>
      </trkpt>
      <trkpt lat="45.31374" lon="5.75379">
        <ele>1631.7</ele>
        <time>2000-03-06T10:44:24.000+01:00</time>
      </trkpt>
      <trkpt lat="45.31383" lon="5.75377">
        <ele>1633.92</ele>
        <time>2000-03-06T10:44:30.000+01:00</time>
      </trkpt>
      <trkpt lat="45.3139" lon="5.75374">
        <ele>1633.74</ele>
        <time>2000-03-06T10:44:36.000+01:00</time>
      </trkpt>
      <trkpt lat="45.31397" lon="5.75375">
        <ele>1633.61</ele>
        <time>2000-03-06T10:44:42.000+01:00</time>
      </trkpt>
      <trkpt lat="45.31397" lon="5.75375">
        <ele>1633.61</ele>
        <time>2000-03-06T10:44:48.000+01:00</time>
      </trkpt>
      <trkpt lat="45.31409" lon="5.75378">
        <ele>1635.19</ele>
        <time>2000-03-06T10:44:54.000+01:00</time>
      </trkpt>
      <trkpt lat="45.31411" lon="5.75379">
        <ele>1636.73</ele>
        <time>2000-03-06T10:45:00.000+01:00</time>
      </trkpt>
      <trkpt lat="45.31411" lon="5.75379">
        <ele>1636.73</ele>
        <time>2000-03-06T10:45:06.000+01:00</time>
      </trkpt>
      <trkpt lat="45.31425" lon="5.75379">
        <ele>1642.3</ele>
        <time>2000-03-06T10:45:12.000+01:00</time>
      </trkpt>
      <trkpt lat="45.31432" lon="5.75378">
        <ele>1641.98</ele>
        <time>2000-03-06T10:45:18.000+01:00</time>
      </trkpt>
      <trkpt lat="45.3144" lon="5.75379">
        <ele>1643.69</ele>
        <time>2000-03-06T10:45:24.000+01:00</time>
      </trkpt>
      <trkpt lat="45.31445" lon="5.7538">
        <ele>1642.36</ele>
        <time>2000-03-06T10:45:30.000+01:00</time>
      </trkpt>
      <trkpt lat="45.31451" lon="5.75384">
        <ele>1642.52</ele>
        <time>2000-03-06T10:45:36.000+01:00</time>
      </trkpt>
      <trkpt lat="45.31457" lon="5.75384">
        <ele>1642.51</ele>
        <time>2000-03-06T10:45:42.000+01:00</time>
      </trkpt>
      <trkpt lat="45.31463" lon="5.75385">
        <ele>1641.92</ele>
        <time>2000-03-06T10:45:48.001+01:00</time>
      </trkpt>
      <trkpt lat="45.31469" lon="5.75386">
        <ele>1642.92</ele>
        <time>2000-03-06T10:45:54.000+01:00</time>
      </trkpt>
      <trkpt lat="45.31477" lon="5.75382">
        <ele>1645.8</ele>
        <time>2000-03-06T10:46:00.000+01:00</time>
      </trkpt>
      <trkpt lat="45.31485" lon="5.75384">
        <ele>1649.78</ele>
        <time>2000-03-06T10:46:06.000+01:00</time>
      </trkpt>
      <trkpt lat="45.31493" lon="5.75385">
        <ele>1650.49</ele>
        <time>2000-03-06T10:46:12.000+01:00</time>
      </trkpt>
      <trkpt lat="45.315" lon="5.75386">
        <ele>1649.74</ele>
        <time>2000-03-06T10:46:18.000+01:00</time>
      </trkpt>
      <trkpt lat="45.31506" lon="5.75388">
        <ele>1652.35</ele>
        <time>2000-03-06T10:46:24.000+01:00</time>
      </trkpt>
      <trkpt lat="45.31509" lon="5.75394">
        <ele>1653.22</ele>
        <time>2000-03-06T10:46:30.000+01:00</time>
      </trkpt>
      <trkpt lat="45.31516" lon="5.75394">
        <ele>1654.36</ele>
        <time>2000-03-06T10:46:36.000+01:00</time>
      </trkpt>
      <trkpt lat="45.31519" lon="5.75398">
        <ele>1656.87</ele>
        <time>2000-03-06T10:46:42.001+01:00</time>
      </trkpt>
      <trkpt lat="45.31524" lon="5.75406">
        <ele>1658.23</ele>
        <time>2000-03-06T10:46:48.000+01:00</time>
      </trkpt>
      <trkpt lat="45.31529" lon="5.75409">
        <ele>1659.73</ele>
        <time>2000-03-06T10:46:54.001+01:00</time>
      </trkpt>
      <trkpt lat="45.31535" lon="5.7541">
        <ele>1663.03</ele>
        <time>2000-03-06T10:47:00.000+01:00</time>
      </trkpt>
      <trkpt lat="45.31541" lon="5.75414">
        <ele>1666.29</ele>
        <time>2000-03-06T10:47:06.000+01:00</time>
      </trkpt>
      <trkpt lat="45.31542" lon="5.75415">
        <ele>1666.74</ele>
        <time>2000-03-06T10:47:12.001+01:00</time>
      </trkpt>
      <trkpt lat="45.31552" lon="5.75421">
        <ele>1665.55</ele>
        <time>2000-03-06T10:47:18.001+01:00</time>
      </trkpt>
      <trkpt lat="45.31557" lon="5.75423">
        <ele>1665.57</ele>
        <time>2000-03-06T10:47:24.000+01:00</time>
      </trkpt>
      <trkpt lat="45.31558" lon="5.75423">
        <ele>1665.09</ele>
        <time>2000-03-06T10:47:30.000+01:00</time>
      </trkpt>
      <trkpt lat="45.31566" lon="5.75425">
        <ele>1664.97</ele>
        <time>2000-03-06T10:47:36.000+01:00</time>
      </trkpt>
      <trkpt lat="45.31566" lon="5.75425">
        <ele>1664.97</ele>
        <time>2000-03-06T10:47:42.000+01:00</time>
      </trkpt>
      <trkpt lat="45.31573" lon="5.75431">
        <ele>1667.92</ele>
        <time>2000-03-06T10:47:48.000+01:00</time>
      </trkpt>
      <trkpt lat="45.3158" lon="5.75433">
        <ele>1667.19</ele>
        <time>2000-03-06T10:47:53.999+01:00</time>
      </trkpt>
      <trkpt lat="45.31585" lon="5.75436">
        <ele>1667.06</ele>
        <time>2000-03-06T10:47:59.999+01:00</time>
      </trkpt>
      <trkpt lat="45.31592" lon="5.75436">
        <ele>1668.27</ele>
        <time>2000-03-06T10:48:06.001+01:00</time>
      </trkpt>
      <trkpt lat="45.31599" lon="5.75439">
        <ele>1666.91</ele>
        <time>2000-03-06T10:48:12.001+01:00</time>
      </trkpt>
      <trkpt lat="45.31605" lon="5.75442">
        <ele>1665.42</ele>
        <time>2000-03-06T10:48:18.000+01:00</time>
      </trkpt>
      <trkpt lat="45.31611" lon="5.75445">
        <ele>1662.53</ele>
        <time>2000-03-06T10:48:24.000+01:00</time>
      </trkpt>
      <trkpt lat="45.31617" lon="5.7545">
        <ele>1659.45</ele>
        <time>2000-03-06T10:48:30.002+01:00</time>
      </trkpt>
      <trkpt lat="45.31622" lon="5.75455">
        <ele>1659.32</ele>
        <time>2000-03-06T10:48:36.000+01:00</time>
      </trkpt>
      <trkpt lat="45.31626" lon="5.75459">
        <ele>1662.27</ele>
        <time>2000-03-06T10:48:42.001+01:00</time>
      </trkpt>
      <trkpt lat="45.31632" lon="5.75462">
        <ele>1663.73</ele>
        <time>2000-03-06T10:48:48.001+01:00</time>
      </trkpt>
      <trkpt lat="45.31637" lon="5.75467">
        <ele>1663.35</ele>
        <time>2000-03-06T10:48:54.000+01:00</time>
      </trkpt>
      <trkpt lat="45.31641" lon="5.75472">
        <ele>1667.05</ele>
        <time>2000-03-06T10:49:00.000+01:00</time>
      </trkpt>
      <trkpt lat="45.31641" lon="5.75472">
        <ele>1667.05</ele>
        <time>2000-03-06T10:49:06.000+01:00</time>
      </trkpt>
      <trkpt lat="45.31649" lon="5.7548">
        <ele>1666.62</ele>
        <time>2000-03-06T10:49:12.000+01:00</time>
      </trkpt>
      <trkpt lat="45.31653" lon="5.75487">
        <ele>1664.53</ele>
        <time>2000-03-06T10:49:18.000+01:00</time>
      </trkpt>
      <trkpt lat="45.31654" lon="5.75488">
        <ele>1664.28</ele>
        <time>2000-03-06T10:49:24.000+01:00</time>
      </trkpt>
      <trkpt lat="45.31654" lon="5.75488">
        <ele>1664.28</ele>
        <time>2000-03-06T10:49:30.001+01:00</time>
      </trkpt>
      <trkpt lat="45.31668" lon="5.75503">
        <ele>1659.49</ele>
        <time>2000-03-06T10:49:36.001+01:00</time>
      </trkpt>
      <trkpt lat="45.31673" lon="5.75509">
        <ele>1659.5</ele>
        <time>2000-03-06T10:49:42.000+01:00</time>
      </trkpt>
      <trkpt lat="45.31678" lon="5.75513">
        <ele>1658.99</ele>
        <time>2000-03-06T10:49:48.001+01:00</time>
      </trkpt>
      <trkpt lat="45.31679" lon="5.75513">
        <ele>1659.16</ele>
        <time>2000-03-06T10:49:54.001+01:00</time>
      </trkpt>
      <trkpt lat="45.31679" lon="5.75513">
        <ele>1659.16</ele>
        <time>2000-03-06T10:50:00.001+01:00</time>
      </trkpt>
      <trkpt lat="45.31692" lon="5.75524">
        <ele>1653.62</ele>
        <time>2000-03-06T10:50:06.001+01:00</time>
      </trkpt>
      <trkpt lat="45.31693" lon="5.75525">
        <ele>1654.75</ele>
        <time>2000-03-06T10:50:12.001+01:00</time>
      </trkpt>
      <trkpt lat="45.31693" lon="5.75525">
        <ele>1654.75</ele>
        <time>2000-03-06T10:50:18.000+01:00</time>
      </trkpt>
      <trkpt lat="45.31707" lon="5.75532">
        <ele>1649.19</ele>
        <time>2000-03-06T10:50:24.000+01:00</time>
      </trkpt>
      <trkpt lat="45.31709" lon="5.75533">
        <ele>1649.33</ele>
        <time>2000-03-06T10:50:30.000+01:00</time>
      </trkpt>
      <trkpt lat="45.31719" lon="5.75539">
        <ele>1648.71</ele>
        <time>2000-03-06T10:50:36.000+01:00</time>
      </trkpt>
      <trkpt lat="45.31726" lon="5.75543">
        <ele>1649.04</ele>
        <time>2000-03-06T10:50:42.000+01:00</time>
      </trkpt>
      <trkpt lat="45.31729" lon="5.75543">
        <ele>1648.48</ele>
        <time>2000-03-06T10:50:48.001+01:00</time>
      </trkpt>
      <trkpt lat="45.31736" lon="5.75552">
        <ele>1647.47</ele>
        <time>2000-03-06T10:50:54.000+01:00</time>
      </trkpt>
      <trkpt lat="45.31739" lon="5.75557">
        <ele>1647.06</ele>
        <time>2000-03-06T10:51:00.001+01:00</time>
      </trkpt>
      <trkpt lat="45.31743" lon="5.75561">
        <ele>1647.5</ele>
        <time>2000-03-06T10:51:06.001+01:00</time>
      </trkpt>
      <trkpt lat="45.31744" lon="5.75575">
        <ele>1655.34</ele>
        <time>2000-03-06T10:51:12.000+01:00</time>
      </trkpt>
      <trkpt lat="45.31744" lon="5.75575">
        <ele>1655.34</ele>
        <time>2000-03-06T10:51:18.000+01:00</time>
      </trkpt>
      <trkpt lat="45.31744" lon="5.75575">
        <ele>1655.34</ele>
        <time>2000-03-06T10:51:24.000+01:00</time>
      </trkpt>
      <trkpt lat="45.31744" lon="5.75575">
        <ele>1655.34</ele>
        <time>2000-03-06T10:51:30.000+01:00</time>
      </trkpt>
      <trkpt lat="45.31744" lon="5.75575">
        <ele>1655.34</ele>
        <time>2000-03-06T10:51:36.000+01:00</time>
      </trkpt>
      <trkpt lat="45.31767" lon="5.75596">
        <ele>1665.78</ele>
        <time>2000-03-06T10:51:42.000+01:00</time>
      </trkpt>
      <trkpt lat="45.31767" lon="5.75597">
        <ele>1665.81</ele>
        <time>2000-03-06T10:51:48.000+01:00</time>
      </trkpt>
      <trkpt lat="45.31767" lon="5.75597">
        <ele>1665.81</ele>
        <time>2000-03-06T10:51:54.000+01:00</time>
      </trkpt>
      <trkpt lat="45.31767" lon="5.75597">
        <ele>1665.81</ele>
        <time>2000-03-06T10:52:00.000+01:00</time>
      </trkpt>
      <trkpt lat="45.31767" lon="5.75597">
        <ele>1665.81</ele>
        <time>2000-03-06T10:52:06.000+01:00</time>
      </trkpt>
      <trkpt lat="45.31767" lon="5.75597">
        <ele>1665.81</ele>
        <time>2000-03-06T10:52:11.999+01:00</time>
      </trkpt>
      <trkpt lat="45.31767" lon="5.75597">
        <ele>1665.81</ele>
        <time>2000-03-06T10:52:18.000+01:00</time>
      </trkpt>
      <trkpt lat="45.31767" lon="5.75597">
        <ele>1665.81</ele>
        <time>2000-03-06T10:52:23.999+01:00</time>
      </trkpt>
      <trkpt lat="45.31767" lon="5.75597">
        <ele>1665.81</ele>
        <time>2000-03-06T10:52:29.999+01:00</time>
      </trkpt>
      <trkpt lat="45.31802" lon="5.75571">
        <ele>1660.5</ele>
        <time>2000-03-06T10:52:36.000+01:00</time>
      </trkpt>
      <trkpt lat="45.31808" lon="5.75566">
        <ele>1660.69</ele>
        <time>2000-03-06T10:52:41.999+01:00</time>
      </trkpt>
      <trkpt lat="45.31815" lon="5.75565">
        <ele>1660.22</ele>
        <time>2000-03-06T10:52:47.999+01:00</time>
      </trkpt>
      <trkpt lat="45.31818" lon="5.75565">
        <ele>1660.34</ele>
        <time>2000-03-06T10:52:53.999+01:00</time>
      </trkpt>
      <trkpt lat="45.31825" lon="5.7557">
        <ele>1662.05</ele>
        <time>2000-03-06T10:53:00.000+01:00</time>
      </trkpt>
      <trkpt lat="45.31832" lon="5.75573">
        <ele>1661.54</ele>
        <time>2000-03-06T10:53:06.000+01:00</time>
      </trkpt>
      <trkpt lat="45.31837" lon="5.75576">
        <ele>1659.71</ele>
        <time>2000-03-06T10:53:12.000+01:00</time>
      </trkpt>
      <trkpt lat="45.31844" lon="5.75581">
        <ele>1659.98</ele>
        <time>2000-03-06T10:53:18.000+01:00</time>
      </trkpt>
      <trkpt lat="45.3185" lon="5.75586">
        <ele>1659.38</ele>
        <time>2000-03-06T10:53:24.000+01:00</time>
      </trkpt>
      <trkpt lat="45.31856" lon="5.75594">
        <ele>1658.49</ele>
        <time>2000-03-06T10:53:30.001+01:00</time>
      </trkpt>
      <trkpt lat="45.3186" lon="5.75604">
        <ele>1656.62</ele>
        <time>2000-03-06T10:53:36.000+01:00</time>
      </trkpt>
      <trkpt lat="45.31861" lon="5.75613">
        <ele>1657.44</ele>
        <time>2000-03-06T10:53:42.000+01:00</time>
      </trkpt>
      <trkpt lat="45.31861" lon="5.75622">
        <ele>1655.07</ele>
        <time>2000-03-06T10:53:48.000+01:00</time>
      </trkpt>
      <trkpt lat="45.3186" lon="5.75631">
        <ele>1654.42</ele>
        <time>2000-03-06T10:53:54.000+01:00</time>
      </trkpt>
      <trkpt lat="45.31861" lon="5.75639">
        <ele>1653.12</ele>
        <time>2000-03-06T10:54:00.000+01:00</time>
      </trkpt>
      <trkpt lat="45.31861" lon="5.75647">
        <ele>1654.57</ele>
        <time>2000-03-06T10:54:06.000+01:00</time>
      </trkpt>
      <trkpt lat="45.31861" lon="5.75649">
        <ele>1654.8</ele>
        <time>2000-03-06T10:54:12.000+01:00</time>
      </trkpt>
      <trkpt lat="45.31861" lon="5.75649">
        <ele>1654.8</ele>
        <time>2000-03-06T10:54:18.000+01:00</time>
      </trkpt>
      <trkpt lat="45.31861" lon="5.75649">
        <ele>1654.8</ele>
        <time>2000-03-06T10:54:24.000+01:00</time>
      </trkpt>
      <trkpt lat="45.31861" lon="5.75649">
        <ele>1654.8</ele>
        <time>2000-03-06T10:54:30.000+01:00</time>
      </trkpt>
      <trkpt lat="45.31861" lon="5.75649">
        <ele>1654.8</ele>
        <time>2000-03-06T10:54:36.000+01:00</time>
      </trkpt>
      <trkpt lat="45.31861" lon="5.75649">
        <ele>1654.8</ele>
        <time>2000-03-06T10:54:42.000+01:00</time>
      </trkpt>
      <trkpt lat="45.31861" lon="5.75649">
        <ele>1654.8</ele>
        <time>2000-03-06T10:54:48.000+01:00</time>
      </trkpt>
      <trkpt lat="45.31861" lon="5.75649">
        <ele>1654.8</ele>
        <time>2000-03-06T10:54:54.000+01:00</time>
      </trkpt>
      <trkpt lat="45.31861" lon="5.75649">
        <ele>1654.8</ele>
        <time>2000-03-06T10:55:00.000+01:00</time>
      </trkpt>
      <trkpt lat="45.31861" lon="5.75649">
        <ele>1654.8</ele>
        <time>2000-03-06T10:55:06.000+01:00</time>
      </trkpt>
      <trkpt lat="45.31861" lon="5.75649">
        <ele>1654.8</ele>
        <time>2000-03-06T10:55:12.000+01:00</time>
      </trkpt>
      <trkpt lat="45.31861" lon="5.75649">
        <ele>1654.8</ele>
        <time>2000-03-06T10:55:18.000+01:00</time>
      </trkpt>
      <trkpt lat="45.31861" lon="5.75649">
        <ele>1654.8</ele>
        <time>2000-03-06T10:55:24.000+01:00</time>
      </trkpt>
      <trkpt lat="45.31861" lon="5.75649">
        <ele>1654.8</ele>
        <time>2000-03-06T10:55:30.000+01:00</time>
      </trkpt>
      <trkpt lat="45.31861" lon="5.75649">
        <ele>1654.8</ele>
        <time>2000-03-06T10:55:36.000+01:00</time>
      </trkpt>
      <trkpt lat="45.31861" lon="5.75649">
        <ele>1654.8</ele>
        <time>2000-03-06T10:55:42.000+01:00</time>
      </trkpt>
      <trkpt lat="45.31861" lon="5.75649">
        <ele>1654.8</ele>
        <time>2000-03-06T10:55:48.000+01:00</time>
      </trkpt>
      <trkpt lat="45.31861" lon="5.75649">
        <ele>1654.8</ele>
        <time>2000-03-06T10:55:54.000+01:00</time>
      </trkpt>
      <trkpt lat="45.31861" lon="5.75649">
        <ele>1654.8</ele>
        <time>2000-03-06T10:56:00.000+01:00</time>
      </trkpt>
      <trkpt lat="45.31861" lon="5.75649">
        <ele>1654.8</ele>
        <time>2000-03-06T10:56:06.000+01:00</time>
      </trkpt>
      <trkpt lat="45.31861" lon="5.75649">
        <ele>1654.8</ele>
        <time>2000-03-06T10:56:12.000+01:00</time>
      </trkpt>
      <trkpt lat="45.31861" lon="5.75649">
        <ele>1654.8</ele>
        <time>2000-03-06T10:56:18.000+01:00</time>
      </trkpt>
      <trkpt lat="45.31861" lon="5.75649">
        <ele>1654.8</ele>
        <time>2000-03-06T10:56:24.000+01:00</time>
      </trkpt>
      <trkpt lat="45.31861" lon="5.75649">
        <ele>1654.8</ele>
        <time>2000-03-06T10:56:30.000+01:00</time>
      </trkpt>
      <trkpt lat="45.31861" lon="5.75649">
        <ele>1654.8</ele>
        <time>2000-03-06T10:56:36.001+01:00</time>
      </trkpt>
      <trkpt lat="45.31861" lon="5.75649">
        <ele>1654.8</ele>
        <time>2000-03-06T10:56:42.000+01:00</time>
      </trkpt>
      <trkpt lat="45.31861" lon="5.75649">
        <ele>1654.8</ele>
        <time>2000-03-06T10:56:48.000+01:00</time>
      </trkpt>
      <trkpt lat="45.31861" lon="5.75649">
        <ele>1654.8</ele>
        <time>2000-03-06T10:56:54.000+01:00</time>
      </trkpt>
      <trkpt lat="45.31861" lon="5.75649">
        <ele>1654.8</ele>
        <time>2000-03-06T10:57:00.000+01:00</time>
      </trkpt>
      <trkpt lat="45.31861" lon="5.75649">
        <ele>1654.8</ele>
        <time>2000-03-06T10:57:06.000+01:00</time>
      </trkpt>
      <trkpt lat="45.31861" lon="5.75649">
        <ele>1654.8</ele>
        <time>2000-03-06T10:57:12.000+01:00</time>
      </trkpt>
      <trkpt lat="45.31861" lon="5.75649">
        <ele>1654.8</ele>
        <time>2000-03-06T10:57:18.000+01:00</time>
      </trkpt>
      <trkpt lat="45.31861" lon="5.75649">
        <ele>1654.8</ele>
        <time>2000-03-06T10:57:24.000+01:00</time>
      </trkpt>
      <trkpt lat="45.31861" lon="5.75649">
        <ele>1654.8</ele>
        <time>2000-03-06T10:57:30.001+01:00</time>
      </trkpt>
      <trkpt lat="45.31861" lon="5.75649">
        <ele>1654.8</ele>
        <time>2000-03-06T10:57:36.000+01:00</time>
      </trkpt>
      <trkpt lat="45.31861" lon="5.75649">
        <ele>1654.8</ele>
        <time>2000-03-06T10:57:42.000+01:00</time>
      </trkpt>
      <trkpt lat="45.31855" lon="5.75648">
        <ele>1664.97</ele>
        <time>2000-03-06T10:57:48.000+01:00</time>
      </trkpt>
      <trkpt lat="45.31857" lon="5.75659">
        <ele>1664.09</ele>
        <time>2000-03-06T10:57:54.000+01:00</time>
      </trkpt>
      <trkpt lat="45.31858" lon="5.75669">
        <ele>1663.85</ele>
        <time>2000-03-06T10:58:00.000+01:00</time>
      </trkpt>
      <trkpt lat="45.31858" lon="5.7567">
        <ele>1663.4</ele>
        <time>2000-03-06T10:58:06.000+01:00</time>
      </trkpt>
      <trkpt lat="45.31861" lon="5.75682">
        <ele>1667.67</ele>
        <time>2000-03-06T10:58:12.000+01:00</time>
      </trkpt>
      <trkpt lat="45.31861" lon="5.75682">
        <ele>1667.67</ele>
        <time>2000-03-06T10:58:18.000+01:00</time>
      </trkpt>
      <trkpt lat="45.31866" lon="5.75694">
        <ele>1674.88</ele>
        <time>2000-03-06T10:58:24.000+01:00</time>
      </trkpt>
      <trkpt lat="45.31869" lon="5.757">
        <ele>1677.31</ele>
        <time>2000-03-06T10:58:30.000+01:00</time>
      </trkpt>
      <trkpt lat="45.31873" lon="5.7571">
        <ele>1676.1</ele>
        <time>2000-03-06T10:58:36.000+01:00</time>
      </trkpt>
      <trkpt lat="45.31878" lon="5.75721">
        <ele>1673.54</ele>
        <time>2000-03-06T10:58:42.000+01:00</time>
      </trkpt>
      <trkpt lat="45.3188" lon="5.75726">
        <ele>1672.7</ele>
        <time>2000-03-06T10:58:48.000+01:00</time>
      </trkpt>
      <trkpt lat="45.31885" lon="5.75735">
        <ele>1673.49</ele>
        <time>2000-03-06T10:58:54.000+01:00</time>
      </trkpt>
      <trkpt lat="45.3189" lon="5.75742">
        <ele>1676.86</ele>
        <time>2000-03-06T10:59:00.000+01:00</time>
      </trkpt>
      <trkpt lat="45.31896" lon="5.75749">
        <ele>1675.62</ele>
        <time>2000-03-06T10:59:06.000+01:00</time>
      </trkpt>
      <trkpt lat="45.319" lon="5.75755">
        <ele>1678.16</ele>
        <time>2000-03-06T10:59:12.000+01:00</time>
      </trkpt>
      <trkpt lat="45.31904" lon="5.75763">
        <ele>1677.96</ele>
        <time>2000-03-06T10:59:18.000+01:00</time>
      </trkpt>
      <trkpt lat="45.31907" lon="5.7577">
        <ele>1676.96</ele>
        <time>2000-03-06T10:59:24.001+01:00</time>
      </trkpt>
      <trkpt lat="45.31911" lon="5.75775">
        <ele>1678.68</ele>
        <time>2000-03-06T10:59:30.000+01:00</time>
      </trkpt>
      <trkpt lat="45.31913" lon="5.75784">
        <ele>1676.69</ele>
        <time>2000-03-06T10:59:36.000+01:00</time>
      </trkpt>
      <trkpt lat="45.31913" lon="5.75784">
        <ele>1676.69</ele>
        <time>2000-03-06T10:59:42.000+01:00</time>
      </trkpt>
      <trkpt lat="45.31913" lon="5.75784">
        <ele>1676.69</ele>
        <time>2000-03-06T10:59:48.000+01:00</time>
      </trkpt>
      <trkpt lat="45.31913" lon="5.75784">
        <ele>1676.69</ele>
        <time>2000-03-06T10:59:54.000+01:00</time>
      </trkpt>
      <trkpt lat="45.31913" lon="5.75784">
        <ele>1676.69</ele>
        <time>2000-03-06T11:00:00.000+01:00</time>
      </trkpt>
      <trkpt lat="45.31909" lon="5.75819">
        <ele>1677.92</ele>
        <time>2000-03-06T11:00:06.000+01:00</time>
      </trkpt>
      <trkpt lat="45.31904" lon="5.75823">
        <ele>1682.26</ele>
        <time>2000-03-06T11:00:12.000+01:00</time>
      </trkpt>
      <trkpt lat="45.31902" lon="5.75825">
        <ele>1682.65</ele>
        <time>2000-03-06T11:00:18.001+01:00</time>
      </trkpt>
      <trkpt lat="45.31896" lon="5.75833">
        <ele>1684.19</ele>
        <time>2000-03-06T11:00:24.001+01:00</time>
      </trkpt>
      <trkpt lat="45.31894" lon="5.75837">
        <ele>1686.55</ele>
        <time>2000-03-06T11:00:30.001+01:00</time>
      </trkpt>
      <trkpt lat="45.31894" lon="5.75837">
        <ele>1686.55</ele>
        <time>2000-03-06T11:00:36.001+01:00</time>
      </trkpt>
      <trkpt lat="45.31894" lon="5.75837">
        <ele>1686.55</ele>
        <time>2000-03-06T11:00:42.000+01:00</time>
      </trkpt>
      <trkpt lat="45.31894" lon="5.75837">
        <ele>1686.55</ele>
        <time>2000-03-06T11:00:48.000+01:00</time>
      </trkpt>
      <trkpt lat="45.31887" lon="5.75871">
        <ele>1683.75</ele>
        <time>2000-03-06T11:00:54.000+01:00</time>
      </trkpt>
      <trkpt lat="45.31891" lon="5.75879">
        <ele>1681.9</ele>
        <time>2000-03-06T11:01:00.000+01:00</time>
      </trkpt>
      <trkpt lat="45.31895" lon="5.75885">
        <ele>1682.29</ele>
        <time>2000-03-06T11:01:06.000+01:00</time>
      </trkpt>
      <trkpt lat="45.319" lon="5.759">
        <ele>1682.69</ele>
        <time>2000-03-06T11:01:12.000+01:00</time>
      </trkpt>
      <trkpt lat="45.31906" lon="5.75911">
        <ele>1680.73</ele>
        <time>2000-03-06T11:01:18.000+01:00</time>
      </trkpt>
      <trkpt lat="45.31906" lon="5.7592">
        <ele>1680.49</ele>
        <time>2000-03-06T11:01:24.000+01:00</time>
      </trkpt>
      <trkpt lat="45.31906" lon="5.75926">
        <ele>1680.56</ele>
        <time>2000-03-06T11:01:30.000+01:00</time>
      </trkpt>
      <trkpt lat="45.31905" lon="5.75935">
        <ele>1681.74</ele>
        <time>2000-03-06T11:01:36.000+01:00</time>
      </trkpt>
      <trkpt lat="45.31905" lon="5.75935">
        <ele>1681.74</ele>
        <time>2000-03-06T11:01:42.000+01:00</time>
      </trkpt>
      <trkpt lat="45.31905" lon="5.75935">
        <ele>1681.74</ele>
        <time>2000-03-06T11:01:48.000+01:00</time>
      </trkpt>
      <trkpt lat="45.31905" lon="5.75935">
        <ele>1681.74</ele>
        <time>2000-03-06T11:01:54.000+01:00</time>
      </trkpt>
      <trkpt lat="45.31905" lon="5.75935">
        <ele>1681.74</ele>
        <time>2000-03-06T11:02:00.000+01:00</time>
      </trkpt>
      <trkpt lat="45.31905" lon="5.75935">
        <ele>1681.74</ele>
        <time>2000-03-06T11:02:05.999+01:00</time>
      </trkpt>
      <trkpt lat="45.31905" lon="5.75935">
        <ele>1681.74</ele>
        <time>2000-03-06T11:02:12.001+01:00</time>
      </trkpt>
      <trkpt lat="45.31905" lon="5.75935">
        <ele>1681.74</ele>
        <time>2000-03-06T11:02:18.001+01:00</time>
      </trkpt>
      <trkpt lat="45.31905" lon="5.75935">
        <ele>1681.74</ele>
        <time>2000-03-06T11:02:24.000+01:00</time>
      </trkpt>
      <trkpt lat="45.31905" lon="5.75935">
        <ele>1681.74</ele>
        <time>2000-03-06T11:02:30.001+01:00</time>
      </trkpt>
      <trkpt lat="45.31905" lon="5.75935">
        <ele>1681.74</ele>
        <time>2000-03-06T11:02:35.999+01:00</time>
      </trkpt>
      <trkpt lat="45.31905" lon="5.75935">
        <ele>1681.74</ele>
        <time>2000-03-06T11:02:42.001+01:00</time>
      </trkpt>
      <trkpt lat="45.31905" lon="5.75935">
        <ele>1681.74</ele>
        <time>2000-03-06T11:02:48.001+01:00</time>
      </trkpt>
      <trkpt lat="45.31868" lon="5.75992">
        <ele>1695.07</ele>
        <time>2000-03-06T11:02:54.000+01:00</time>
      </trkpt>
      <trkpt lat="45.31868" lon="5.75992">
        <ele>1695.07</ele>
        <time>2000-03-06T11:03:00.001+01:00</time>
      </trkpt>
      <trkpt lat="45.31868" lon="5.75992">
        <ele>1695.07</ele>
        <time>2000-03-06T11:03:06.001+01:00</time>
      </trkpt>
      <trkpt lat="45.31868" lon="5.75992">
        <ele>1695.07</ele>
        <time>2000-03-06T11:03:12.001+01:00</time>
      </trkpt>
      <trkpt lat="45.31868" lon="5.75992">
        <ele>1695.07</ele>
        <time>2000-03-06T11:03:18.001+01:00</time>
      </trkpt>
      <trkpt lat="45.31872" lon="5.75998">
        <ele>1700.3</ele>
        <time>2000-03-06T11:03:24.001+01:00</time>
      </trkpt>
      <trkpt lat="45.31875" lon="5.75997">
        <ele>1701.99</ele>
        <time>2000-03-06T11:03:30.002+01:00</time>
      </trkpt>
      <trkpt lat="45.31875" lon="5.75997">
        <ele>1701.99</ele>
        <time>2000-03-06T11:03:36.000+01:00</time>
      </trkpt>
      <trkpt lat="45.31885" lon="5.76003">
        <ele>1707.57</ele>
        <time>2000-03-06T11:03:42.000+01:00</time>
      </trkpt>
      <trkpt lat="45.31885" lon="5.76003">
        <ele>1707.57</ele>
        <time>2000-03-06T11:03:48.000+01:00</time>
      </trkpt>
      <trkpt lat="45.31892" lon="5.76011">
        <ele>1710.36</ele>
        <time>2000-03-06T11:03:53.999+01:00</time>
      </trkpt>
      <trkpt lat="45.31894" lon="5.7602">
        <ele>1712.02</ele>
        <time>2000-03-06T11:04:00.000+01:00</time>
      </trkpt>
      <trkpt lat="45.31893" lon="5.76025">
        <ele>1714.6</ele>
        <time>2000-03-06T11:04:06.000+01:00</time>
      </trkpt>
      <trkpt lat="45.31893" lon="5.76025">
        <ele>1714.6</ele>
        <time>2000-03-06T11:04:12.000+01:00</time>
      </trkpt>
      <trkpt lat="45.31893" lon="5.76025">
        <ele>1714.6</ele>
        <time>2000-03-06T11:04:18.000+01:00</time>
      </trkpt>
      <trkpt lat="45.31893" lon="5.76025">
        <ele>1714.6</ele>
        <time>2000-03-06T11:04:24.000+01:00</time>
      </trkpt>
      <trkpt lat="45.31893" lon="5.76025">
        <ele>1714.6</ele>
        <time>2000-03-06T11:04:30.001+01:00</time>
      </trkpt>
      <trkpt lat="45.31893" lon="5.76025">
        <ele>1714.6</ele>
        <time>2000-03-06T11:04:36.000+01:00</time>
      </trkpt>
      <trkpt lat="45.31912" lon="5.76046">
        <ele>1719.76</ele>
        <time>2000-03-06T11:04:42.001+01:00</time>
      </trkpt>
      <trkpt lat="45.31913" lon="5.76046">
        <ele>1720.51</ele>
        <time>2000-03-06T11:04:48.001+01:00</time>
      </trkpt>
      <trkpt lat="45.31913" lon="5.76046">
        <ele>1720.51</ele>
        <time>2000-03-06T11:04:54.000+01:00</time>
      </trkpt>
      <trkpt lat="45.31913" lon="5.76046">
        <ele>1720.51</ele>
        <time>2000-03-06T11:05:00.000+01:00</time>
      </trkpt>
      <trkpt lat="45.31913" lon="5.76046">
        <ele>1720.51</ele>
        <time>2000-03-06T11:05:06.000+01:00</time>
      </trkpt>
      <trkpt lat="45.3193" lon="5.76048">
        <ele>1720.88</ele>
        <time>2000-03-06T11:05:12.000+01:00</time>
      </trkpt>
      <trkpt lat="45.31932" lon="5.76049">
        <ele>1720.67</ele>
        <time>2000-03-06T11:05:17.999+01:00</time>
      </trkpt>
      <trkpt lat="45.31936" lon="5.76057">
        <ele>1719.79</ele>
        <time>2000-03-06T11:05:23.999+01:00</time>
      </trkpt>
      <trkpt lat="45.31937" lon="5.76064">
        <ele>1720.16</ele>
        <time>2000-03-06T11:05:29.999+01:00</time>
      </trkpt>
      <trkpt lat="45.31941" lon="5.76069">
        <ele>1719.49</ele>
        <time>2000-03-06T11:05:36.000+01:00</time>
      </trkpt>
      <trkpt lat="45.31943" lon="5.7607">
        <ele>1720.48</ele>
        <time>2000-03-06T11:05:42.000+01:00</time>
      </trkpt>
      <trkpt lat="45.31943" lon="5.7607">
        <ele>1720.48</ele>
        <time>2000-03-06T11:05:48.000+01:00</time>
      </trkpt>
      <trkpt lat="45.31951" lon="5.76079">
        <ele>1724.02</ele>
        <time>2000-03-06T11:05:54.000+01:00</time>
      </trkpt>
      <trkpt lat="45.31951" lon="5.7608">
        <ele>1725.42</ele>
        <time>2000-03-06T11:06:00.000+01:00</time>
      </trkpt>
      <trkpt lat="45.31951" lon="5.7608">
        <ele>1725.42</ele>
        <time>2000-03-06T11:06:06.000+01:00</time>
      </trkpt>
      <trkpt lat="45.31951" lon="5.7608">
        <ele>1725.42</ele>
        <time>2000-03-06T11:06:12.000+01:00</time>
      </trkpt>
      <trkpt lat="45.31951" lon="5.7608">
        <ele>1725.42</ele>
        <time>2000-03-06T11:06:18.000+01:00</time>
      </trkpt>
      <trkpt lat="45.31951" lon="5.7608">
        <ele>1725.42</ele>
        <time>2000-03-06T11:06:24.000+01:00</time>
      </trkpt>
      <trkpt lat="45.31951" lon="5.7608">
        <ele>1725.42</ele>
        <time>2000-03-06T11:06:30.000+01:00</time>
      </trkpt>
      <trkpt lat="45.31951" lon="5.7608">
        <ele>1725.42</ele>
        <time>2000-03-06T11:06:36.000+01:00</time>
      </trkpt>
      <trkpt lat="45.31951" lon="5.7608">
        <ele>1725.42</ele>
        <time>2000-03-06T11:06:42.001+01:00</time>
      </trkpt>
      <trkpt lat="45.31951" lon="5.7608">
        <ele>1725.42</ele>
        <time>2000-03-06T11:06:48.000+01:00</time>
      </trkpt>
      <trkpt lat="45.31951" lon="5.7608">
        <ele>1725.42</ele>
        <time>2000-03-06T11:06:54.000+01:00</time>
      </trkpt>
      <trkpt lat="45.31951" lon="5.7608">
        <ele>1725.42</ele>
        <time>2000-03-06T11:07:00.000+01:00</time>
      </trkpt>
      <trkpt lat="45.31984" lon="5.76091">
        <ele>1720.57</ele>
        <time>2000-03-06T11:07:06.000+01:00</time>
      </trkpt>
      <trkpt lat="45.31984" lon="5.76091">
        <ele>1720.57</ele>
        <time>2000-03-06T11:07:12.000+01:00</time>
      </trkpt>
      <trkpt lat="45.31992" lon="5.76083">
        <ele>1718.32</ele>
        <time>2000-03-06T11:07:18.000+01:00</time>
      </trkpt>
      <trkpt lat="45.31994" lon="5.76082">
        <ele>1718.72</ele>
        <time>2000-03-06T11:07:24.000+01:00</time>
      </trkpt>
      <trkpt lat="45.31994" lon="5.76082">
        <ele>1718.72</ele>
        <time>2000-03-06T11:07:30.000+01:00</time>
      </trkpt>
      <trkpt lat="45.32004" lon="5.76077">
        <ele>1718.38</ele>
        <time>2000-03-06T11:07:36.000+01:00</time>
      </trkpt>
      <trkpt lat="45.32005" lon="5.76079">
        <ele>1719.62</ele>
        <time>2000-03-06T11:07:42.000+01:00</time>
      </trkpt>
      <trkpt lat="45.32005" lon="5.76079">
        <ele>1719.62</ele>
        <time>2000-03-06T11:07:48.000+01:00</time>
      </trkpt>
      <trkpt lat="45.32005" lon="5.76079">
        <ele>1719.62</ele>
        <time>2000-03-06T11:07:54.000+01:00</time>
      </trkpt>
      <trkpt lat="45.32005" lon="5.76079">
        <ele>1719.62</ele>
        <time>2000-03-06T11:08:00.000+01:00</time>
      </trkpt>
      <trkpt lat="45.32005" lon="5.76079">
        <ele>1719.62</ele>
        <time>2000-03-06T11:08:06.000+01:00</time>
      </trkpt>
      <trkpt lat="45.32005" lon="5.76079">
        <ele>1719.62</ele>
        <time>2000-03-06T11:08:12.000+01:00</time>
      </trkpt>
      <trkpt lat="45.32005" lon="5.76079">
        <ele>1719.62</ele>
        <time>2000-03-06T11:08:18.000+01:00</time>
      </trkpt>
      <trkpt lat="45.32005" lon="5.76079">
        <ele>1719.62</ele>
        <time>2000-03-06T11:08:24.000+01:00</time>
      </trkpt>
      <trkpt lat="45.32005" lon="5.76079">
        <ele>1719.62</ele>
        <time>2000-03-06T11:08:30.000+01:00</time>
      </trkpt>
      <trkpt lat="45.32005" lon="5.76079">
        <ele>1719.62</ele>
        <time>2000-03-06T11:08:36.000+01:00</time>
      </trkpt>
      <trkpt lat="45.32028" lon="5.76098">
        <ele>1738.21</ele>
        <time>2000-03-06T11:08:42.000+01:00</time>
      </trkpt>
      <trkpt lat="45.32028" lon="5.76098">
        <ele>1738.21</ele>
        <time>2000-03-06T11:08:48.000+01:00</time>
      </trkpt>
      <trkpt lat="45.32028" lon="5.76098">
        <ele>1738.21</ele>
        <time>2000-03-06T11:08:54.000+01:00</time>
      </trkpt>
      <trkpt lat="45.32028" lon="5.76098">
        <ele>1738.21</ele>
        <time>2000-03-06T11:09:00.000+01:00</time>
      </trkpt>
      <trkpt lat="45.32028" lon="5.76098">
        <ele>1738.21</ele>
        <time>2000-03-06T11:09:06.000+01:00</time>
      </trkpt>
      <trkpt lat="45.32048" lon="5.76101">
        <ele>1743.29</ele>
        <time>2000-03-06T11:09:12.000+01:00</time>
      </trkpt>
      <trkpt lat="45.32053" lon="5.76101">
        <ele>1744.76</ele>
        <time>2000-03-06T11:09:18.000+01:00</time>
      </trkpt>
      <trkpt lat="45.32054" lon="5.76101">
        <ele>1744.4</ele>
        <time>2000-03-06T11:09:24.000+01:00</time>
      </trkpt>
      <trkpt lat="45.32054" lon="5.76101">
        <ele>1744.4</ele>
        <time>2000-03-06T11:09:30.000+01:00</time>
      </trkpt>
      <trkpt lat="45.32054" lon="5.76101">
        <ele>1744.4</ele>
        <time>2000-03-06T11:09:36.000+01:00</time>
      </trkpt>
      <trkpt lat="45.32054" lon="5.76101">
        <ele>1744.4</ele>
        <time>2000-03-06T11:09:42.000+01:00</time>
      </trkpt>
      <trkpt lat="45.32054" lon="5.76101">
        <ele>1744.4</ele>
        <time>2000-03-06T11:09:48.000+01:00</time>
      </trkpt>
      <trkpt lat="45.32075" lon="5.76096">
        <ele>1748.56</ele>
        <time>2000-03-06T11:09:54.000+01:00</time>
      </trkpt>
      <trkpt lat="45.32075" lon="5.76096">
        <ele>1748.56</ele>
        <time>2000-03-06T11:10:00.000+01:00</time>
      </trkpt>
      <trkpt lat="45.32081" lon="5.76094">
        <ele>1751.61</ele>
        <time>2000-03-06T11:10:06.000+01:00</time>
      </trkpt>
      <trkpt lat="45.32081" lon="5.76094">
        <ele>1751.61</ele>
        <time>2000-03-06T11:10:12.000+01:00</time>
      </trkpt>
      <trkpt lat="45.32081" lon="5.76094">
        <ele>1751.61</ele>
        <time>2000-03-06T11:10:18.000+01:00</time>
      </trkpt>
      <trkpt lat="45.32081" lon="5.76094">
        <ele>1751.61</ele>
        <time>2000-03-06T11:10:24.000+01:00</time>
      </trkpt>
      <trkpt lat="45.3209" lon="5.76103">
        <ele>1754.87</ele>
        <time>2000-03-06T11:10:30.000+01:00</time>
      </trkpt>
      <trkpt lat="45.3209" lon="5.76104">
        <ele>1755.32</ele>
        <time>2000-03-06T11:10:36.000+01:00</time>
      </trkpt>
      <trkpt lat="45.3209" lon="5.76104">
        <ele>1755.32</ele>
        <time>2000-03-06T11:10:42.000+01:00</time>
      </trkpt>
      <trkpt lat="45.3209" lon="5.76104">
        <ele>1755.32</ele>
        <time>2000-03-06T11:10:48.000+01:00</time>
      </trkpt>
      <trkpt lat="45.32093" lon="5.7612">
        <ele>1755.85</ele>
        <time>2000-03-06T11:10:54.001+01:00</time>
      </trkpt>
      <trkpt lat="45.32094" lon="5.76126">
        <ele>1759.16</ele>
        <time>2000-03-06T11:11:00.000+01:00</time>
      </trkpt>
      <trkpt lat="45.32096" lon="5.7613">
        <ele>1760.62</ele>
        <time>2000-03-06T11:11:06.000+01:00</time>
      </trkpt>
      <trkpt lat="45.32099" lon="5.76137">
        <ele>1763.62</ele>
        <time>2000-03-06T11:11:11.999+01:00</time>
      </trkpt>
      <trkpt lat="45.321" lon="5.76138">
        <ele>1765</ele>
        <time>2000-03-06T11:11:17.999+01:00</time>
      </trkpt>
      <trkpt lat="45.321" lon="5.76138">
        <ele>1765</ele>
        <time>2000-03-06T11:11:23.999+01:00</time>
      </trkpt>
      <trkpt lat="45.32102" lon="5.76142">
        <ele>1770.56</ele>
        <time>2000-03-06T11:11:29.999+01:00</time>
      </trkpt>
      <trkpt lat="45.32105" lon="5.76149">
        <ele>1771.39</ele>
        <time>2000-03-06T11:11:36.000+01:00</time>
      </trkpt>
      <trkpt lat="45.32105" lon="5.7615">
        <ele>1771.86</ele>
        <time>2000-03-06T11:11:42.000+01:00</time>
      </trkpt>
      <trkpt lat="45.32105" lon="5.7615">
        <ele>1771.86</ele>
        <time>2000-03-06T11:11:47.999+01:00</time>
      </trkpt>
      <trkpt lat="45.32112" lon="5.76158">
        <ele>1778.6</ele>
        <time>2000-03-06T11:11:53.999+01:00</time>
      </trkpt>
      <trkpt lat="45.32113" lon="5.76158">
        <ele>1779.3</ele>
        <time>2000-03-06T11:11:59.999+01:00</time>
      </trkpt>
      <trkpt lat="45.32113" lon="5.76158">
        <ele>1779.3</ele>
        <time>2000-03-06T11:12:06.000+01:00</time>
      </trkpt>
      <trkpt lat="45.3212" lon="5.76166">
        <ele>1782.7</ele>
        <time>2000-03-06T11:12:12.001+01:00</time>
      </trkpt>
      <trkpt lat="45.3212" lon="5.76166">
        <ele>1782.7</ele>
        <time>2000-03-06T11:12:18.000+01:00</time>
      </trkpt>
      <trkpt lat="45.3212" lon="5.76166">
        <ele>1782.7</ele>
        <time>2000-03-06T11:12:24.001+01:00</time>
      </trkpt>
      <trkpt lat="45.3212" lon="5.76166">
        <ele>1782.7</ele>
        <time>2000-03-06T11:12:30.000+01:00</time>
      </trkpt>
      <trkpt lat="45.3212" lon="5.76166">
        <ele>1782.7</ele>
        <time>2000-03-06T11:12:36.000+01:00</time>
      </trkpt>
      <trkpt lat="45.3212" lon="5.76166">
        <ele>1782.7</ele>
        <time>2000-03-06T11:12:42.001+01:00</time>
      </trkpt>
      <trkpt lat="45.3212" lon="5.76166">
        <ele>1782.7</ele>
        <time>2000-03-06T11:12:48.001+01:00</time>
      </trkpt>
      <trkpt lat="45.32132" lon="5.7615">
        <ele>1790.4</ele>
        <time>2000-03-06T11:12:54.000+01:00</time>
      </trkpt>
      <trkpt lat="45.32133" lon="5.76148">
        <ele>1791.66</ele>
        <time>2000-03-06T11:13:00.000+01:00</time>
      </trkpt>
      <trkpt lat="45.32133" lon="5.76148">
        <ele>1791.66</ele>
        <time>2000-03-06T11:13:06.000+01:00</time>
      </trkpt>
      <trkpt lat="45.32133" lon="5.76148">
        <ele>1791.66</ele>
        <time>2000-03-06T11:13:12.000+01:00</time>
      </trkpt>
      <trkpt lat="45.32133" lon="5.76148">
        <ele>1791.66</ele>
        <time>2000-03-06T11:13:18.000+01:00</time>
      </trkpt>
      <trkpt lat="45.32133" lon="5.76148">
        <ele>1791.66</ele>
        <time>2000-03-06T11:13:24.000+01:00</time>
      </trkpt>
      <trkpt lat="45.32133" lon="5.76148">
        <ele>1791.66</ele>
        <time>2000-03-06T11:13:30.001+01:00</time>
      </trkpt>
      <trkpt lat="45.32133" lon="5.76148">
        <ele>1791.66</ele>
        <time>2000-03-06T11:13:36.000+01:00</time>
      </trkpt>
      <trkpt lat="45.32155" lon="5.76126">
        <ele>1795.4</ele>
        <time>2000-03-06T11:13:42.001+01:00</time>
      </trkpt>
      <trkpt lat="45.32155" lon="5.76126">
        <ele>1795.4</ele>
        <time>2000-03-06T11:13:48.000+01:00</time>
      </trkpt>
      <trkpt lat="45.32155" lon="5.76126">
        <ele>1795.4</ele>
        <time>2000-03-06T11:13:54.000+01:00</time>
      </trkpt>
      <trkpt lat="45.32155" lon="5.76126">
        <ele>1795.4</ele>
        <time>2000-03-06T11:13:59.999+01:00</time>
      </trkpt>
      <trkpt lat="45.32155" lon="5.76126">
        <ele>1795.4</ele>
        <time>2000-03-06T11:14:06.001+01:00</time>
      </trkpt>
      <trkpt lat="45.32155" lon="5.76126">
        <ele>1795.4</ele>
        <time>2000-03-06T11:14:12.000+01:00</time>
      </trkpt>
      <trkpt lat="45.32155" lon="5.76126">
        <ele>1795.4</ele>
        <time>2000-03-06T11:14:18.001+01:00</time>
      </trkpt>
      <trkpt lat="45.32168" lon="5.76148">
        <ele>1792.16</ele>
        <time>2000-03-06T11:14:24.000+01:00</time>
      </trkpt>
      <trkpt lat="45.32171" lon="5.76155">
        <ele>1794.35</ele>
        <time>2000-03-06T11:14:30.001+01:00</time>
      </trkpt>
      <trkpt lat="45.32171" lon="5.76155">
        <ele>1794.35</ele>
        <time>2000-03-06T11:14:36.000+01:00</time>
      </trkpt>
      <trkpt lat="45.32171" lon="5.76155">
        <ele>1794.35</ele>
        <time>2000-03-06T11:14:42.000+01:00</time>
      </trkpt>
      <trkpt lat="45.32171" lon="5.76155">
        <ele>1794.35</ele>
        <time>2000-03-06T11:14:48.000+01:00</time>
      </trkpt>
      <trkpt lat="45.32171" lon="5.76155">
        <ele>1794.35</ele>
        <time>2000-03-06T11:14:54.000+01:00</time>
      </trkpt>
      <trkpt lat="45.32171" lon="5.76155">
        <ele>1794.35</ele>
        <time>2000-03-06T11:15:00.002+01:00</time>
      </trkpt>
      <trkpt lat="45.32171" lon="5.76155">
        <ele>1794.35</ele>
        <time>2000-03-06T11:15:06.000+01:00</time>
      </trkpt>
      <trkpt lat="45.32171" lon="5.76155">
        <ele>1794.35</ele>
        <time>2000-03-06T11:15:11.999+01:00</time>
      </trkpt>
      <trkpt lat="45.32171" lon="5.76155">
        <ele>1794.35</ele>
        <time>2000-03-06T11:15:17.999+01:00</time>
      </trkpt>
      <trkpt lat="45.32197" lon="5.76179">
        <ele>1801.64</ele>
        <time>2000-03-06T11:15:23.999+01:00</time>
      </trkpt>
      <trkpt lat="45.32197" lon="5.76179">
        <ele>1801.64</ele>
        <time>2000-03-06T11:15:29.999+01:00</time>
      </trkpt>
      <trkpt lat="45.32197" lon="5.76179">
        <ele>1801.64</ele>
        <time>2000-03-06T11:15:36.000+01:00</time>
      </trkpt>
      <trkpt lat="45.32197" lon="5.76179">
        <ele>1801.64</ele>
        <time>2000-03-06T11:15:41.999+01:00</time>
      </trkpt>
      <trkpt lat="45.32212" lon="5.76191">
        <ele>1800.59</ele>
        <time>2000-03-06T11:15:47.999+01:00</time>
      </trkpt>
      <trkpt lat="45.32214" lon="5.76195">
        <ele>1802.3</ele>
        <time>2000-03-06T11:15:53.999+01:00</time>
      </trkpt>
      <trkpt lat="45.32214" lon="5.76195">
        <ele>1802.3</ele>
        <time>2000-03-06T11:15:59.999+01:00</time>
      </trkpt>
      <trkpt lat="45.32214" lon="5.76195">
        <ele>1802.3</ele>
        <time>2000-03-06T11:16:06.001+01:00</time>
      </trkpt>
      <trkpt lat="45.32226" lon="5.76202">
        <ele>1807.91</ele>
        <time>2000-03-06T11:16:12.000+01:00</time>
      </trkpt>
      <trkpt lat="45.32228" lon="5.76203">
        <ele>1808.19</ele>
        <time>2000-03-06T11:16:18.000+01:00</time>
      </trkpt>
      <trkpt lat="45.32228" lon="5.76203">
        <ele>1808.19</ele>
        <time>2000-03-06T11:16:24.001+01:00</time>
      </trkpt>
      <trkpt lat="45.32228" lon="5.76203">
        <ele>1808.19</ele>
        <time>2000-03-06T11:16:30.000+01:00</time>
      </trkpt>
      <trkpt lat="45.32228" lon="5.76203">
        <ele>1808.19</ele>
        <time>2000-03-06T11:16:36.000+01:00</time>
      </trkpt>
      <trkpt lat="45.32232" lon="5.76196">
        <ele>1813.23</ele>
        <time>2000-03-06T11:16:42.000+01:00</time>
      </trkpt>
      <trkpt lat="45.32232" lon="5.76194">
        <ele>1813.74</ele>
        <time>2000-03-06T11:16:48.000+01:00</time>
      </trkpt>
      <trkpt lat="45.32232" lon="5.76194">
        <ele>1813.74</ele>
        <time>2000-03-06T11:16:54.000+01:00</time>
      </trkpt>
      <trkpt lat="45.32232" lon="5.76194">
        <ele>1813.74</ele>
        <time>2000-03-06T11:17:00.000+01:00</time>
      </trkpt>
      <trkpt lat="45.3223" lon="5.76174">
        <ele>1819.08</ele>
        <time>2000-03-06T11:17:06.000+01:00</time>
      </trkpt>
      <trkpt lat="45.3223" lon="5.76173">
        <ele>1819.63</ele>
        <time>2000-03-06T11:17:12.001+01:00</time>
      </trkpt>
      <trkpt lat="45.3223" lon="5.76173">
        <ele>1819.63</ele>
        <time>2000-03-06T11:17:18.000+01:00</time>
      </trkpt>
      <trkpt lat="45.3223" lon="5.76173">
        <ele>1819.63</ele>
        <time>2000-03-06T11:17:24.000+01:00</time>
      </trkpt>
      <trkpt lat="45.3223" lon="5.76173">
        <ele>1819.63</ele>
        <time>2000-03-06T11:17:30.000+01:00</time>
      </trkpt>
      <trkpt lat="45.3223" lon="5.76173">
        <ele>1819.63</ele>
        <time>2000-03-06T11:17:36.000+01:00</time>
      </trkpt>
      <trkpt lat="45.3223" lon="5.76173">
        <ele>1819.63</ele>
        <time>2000-03-06T11:17:42.000+01:00</time>
      </trkpt>
      <trkpt lat="45.3223" lon="5.76173">
        <ele>1819.63</ele>
        <time>2000-03-06T11:17:48.000+01:00</time>
      </trkpt>
      <trkpt lat="45.3223" lon="5.76173">
        <ele>1819.63</ele>
        <time>2000-03-06T11:17:54.000+01:00</time>
      </trkpt>
      <trkpt lat="45.3223" lon="5.76173">
        <ele>1819.63</ele>
        <time>2000-03-06T11:18:00.001+01:00</time>
      </trkpt>
      <trkpt lat="45.3223" lon="5.76173">
        <ele>1819.63</ele>
        <time>2000-03-06T11:18:06.000+01:00</time>
      </trkpt>
      <trkpt lat="45.3223" lon="5.76173">
        <ele>1819.63</ele>
        <time>2000-03-06T11:18:12.001+01:00</time>
      </trkpt>
      <trkpt lat="45.3223" lon="5.76173">
        <ele>1819.63</ele>
        <time>2000-03-06T11:18:18.000+01:00</time>
      </trkpt>
      <trkpt lat="45.3223" lon="5.76173">
        <ele>1819.63</ele>
        <time>2000-03-06T11:18:24.001+01:00</time>
      </trkpt>
      <trkpt lat="45.3223" lon="5.76173">
        <ele>1819.63</ele>
        <time>2000-03-06T11:18:30.001+01:00</time>
      </trkpt>
      <trkpt lat="45.32244" lon="5.76164">
        <ele>1826.34</ele>
        <time>2000-03-06T11:18:36.000+01:00</time>
      </trkpt>
      <trkpt lat="45.32244" lon="5.76164">
        <ele>1826.34</ele>
        <time>2000-03-06T11:18:42.001+01:00</time>
      </trkpt>
      <trkpt lat="45.32244" lon="5.76164">
        <ele>1826.34</ele>
        <time>2000-03-06T11:18:48.001+01:00</time>
      </trkpt>
      <trkpt lat="45.32244" lon="5.76164">
        <ele>1826.34</ele>
        <time>2000-03-06T11:18:54.001+01:00</time>
      </trkpt>
      <trkpt lat="45.32244" lon="5.76164">
        <ele>1826.34</ele>
        <time>2000-03-06T11:19:00.001+01:00</time>
      </trkpt>
      <trkpt lat="45.32244" lon="5.76164">
        <ele>1826.34</ele>
        <time>2000-03-06T11:19:06.001+01:00</time>
      </trkpt>
      <trkpt lat="45.32244" lon="5.76164">
        <ele>1826.34</ele>
        <time>2000-03-06T11:19:12.001+01:00</time>
      </trkpt>
      <trkpt lat="45.32244" lon="5.76164">
        <ele>1826.34</ele>
        <time>2000-03-06T11:19:18.001+01:00</time>
      </trkpt>
      <trkpt lat="45.32244" lon="5.76164">
        <ele>1826.34</ele>
        <time>2000-03-06T11:19:24.001+01:00</time>
      </trkpt>
      <trkpt lat="45.32244" lon="5.76164">
        <ele>1826.34</ele>
        <time>2000-03-06T11:19:30.001+01:00</time>
      </trkpt>
      <trkpt lat="45.32244" lon="5.76164">
        <ele>1826.34</ele>
        <time>2000-03-06T11:19:36.001+01:00</time>
      </trkpt>
      <trkpt lat="45.32244" lon="5.76164">
        <ele>1826.34</ele>
        <time>2000-03-06T11:19:42.001+01:00</time>
      </trkpt>
      <trkpt lat="45.3226" lon="5.76173">
        <ele>1829.26</ele>
        <time>2000-03-06T11:19:48.001+01:00</time>
      </trkpt>
      <trkpt lat="45.32267" lon="5.76175">
        <ele>1829.28</ele>
        <time>2000-03-06T11:19:54.001+01:00</time>
      </trkpt>
      <trkpt lat="45.32273" lon="5.76178">
        <ele>1829.52</ele>
        <time>2000-03-06T11:20:00.001+01:00</time>
      </trkpt>
      <trkpt lat="45.32278" lon="5.7618">
        <ele>1830.92</ele>
        <time>2000-03-06T11:20:06.000+01:00</time>
      </trkpt>
      <trkpt lat="45.32278" lon="5.7618">
        <ele>1830.92</ele>
        <time>2000-03-06T11:20:12.000+01:00</time>
      </trkpt>
      <trkpt lat="45.32278" lon="5.7618">
        <ele>1830.92</ele>
        <time>2000-03-06T11:20:18.000+01:00</time>
      </trkpt>
      <trkpt lat="45.32278" lon="5.7618">
        <ele>1830.92</ele>
        <time>2000-03-06T11:20:24.000+01:00</time>
      </trkpt>
      <trkpt lat="45.32278" lon="5.7618">
        <ele>1830.92</ele>
        <time>2000-03-06T11:20:30.000+01:00</time>
      </trkpt>
      <trkpt lat="45.32278" lon="5.7618">
        <ele>1830.92</ele>
        <time>2000-03-06T11:20:36.001+01:00</time>
      </trkpt>
      <trkpt lat="45.32278" lon="5.7618">
        <ele>1830.92</ele>
        <time>2000-03-06T11:20:42.001+01:00</time>
      </trkpt>
      <trkpt lat="45.32278" lon="5.7618">
        <ele>1830.92</ele>
        <time>2000-03-06T11:20:48.001+01:00</time>
      </trkpt>
      <trkpt lat="45.32278" lon="5.7618">
        <ele>1830.92</ele>
        <time>2000-03-06T11:20:54.001+01:00</time>
      </trkpt>
      <trkpt lat="45.32278" lon="5.7618">
        <ele>1830.92</ele>
        <time>2000-03-06T11:21:00.001+01:00</time>
      </trkpt>
      <trkpt lat="45.32301" lon="5.76201">
        <ele>1843.64</ele>
        <time>2000-03-06T11:21:06.001+01:00</time>
      </trkpt>
      <trkpt lat="45.32303" lon="5.76206">
        <ele>1842.81</ele>
        <time>2000-03-06T11:21:12.001+01:00</time>
      </trkpt>
      <trkpt lat="45.32309" lon="5.76217">
        <ele>1841.09</ele>
        <time>2000-03-06T11:21:18.001+01:00</time>
      </trkpt>
      <trkpt lat="45.32315" lon="5.76218">
        <ele>1840.66</ele>
        <time>2000-03-06T11:21:24.001+01:00</time>
      </trkpt>
      <trkpt lat="45.32328" lon="5.76221">
        <ele>1838.7</ele>
        <time>2000-03-06T11:21:30.000+01:00</time>
      </trkpt>
      <trkpt lat="45.32335" lon="5.76224">
        <ele>1838.64</ele>
        <time>2000-03-06T11:21:36.000+01:00</time>
      </trkpt>
      <trkpt lat="45.32338" lon="5.76229">
        <ele>1838.7</ele>
        <time>2000-03-06T11:21:42.000+01:00</time>
      </trkpt>
      <trkpt lat="45.32345" lon="5.76237">
        <ele>1838.22</ele>
        <time>2000-03-06T11:21:48.000+01:00</time>
      </trkpt>
      <trkpt lat="45.32355" lon="5.76245">
        <ele>1837.25</ele>
        <time>2000-03-06T11:21:54.000+01:00</time>
      </trkpt>
      <trkpt lat="45.32358" lon="5.76249">
        <ele>1837.34</ele>
        <time>2000-03-06T11:22:00.000+01:00</time>
      </trkpt>
      <trkpt lat="45.32358" lon="5.76249">
        <ele>1837.34</ele>
        <time>2000-03-06T11:22:06.000+01:00</time>
      </trkpt>
      <trkpt lat="45.32367" lon="5.76259">
        <ele>1837.17</ele>
        <time>2000-03-06T11:22:12.000+01:00</time>
      </trkpt>
      <trkpt lat="45.32373" lon="5.76266">
        <ele>1837.53</ele>
        <time>2000-03-06T11:22:18.000+01:00</time>
      </trkpt>
      <trkpt lat="45.32378" lon="5.76269">
        <ele>1837.62</ele>
        <time>2000-03-06T11:22:24.000+01:00</time>
      </trkpt>
      <trkpt lat="45.32378" lon="5.76269">
        <ele>1837.59</ele>
        <time>2000-03-06T11:22:30.000+01:00</time>
      </trkpt>
      <trkpt lat="45.32378" lon="5.76269">
        <ele>1837.59</ele>
        <time>2000-03-06T11:22:36.000+01:00</time>
      </trkpt>
      <trkpt lat="45.32378" lon="5.76269">
        <ele>1837.59</ele>
        <time>2000-03-06T11:22:41.999+01:00</time>
      </trkpt>
      <trkpt lat="45.32383" lon="5.7627">
        <ele>1835.33</ele>
        <time>2000-03-06T11:22:48.000+01:00</time>
      </trkpt>
      <trkpt lat="45.32388" lon="5.76275">
        <ele>1835.83</ele>
        <time>2000-03-06T11:22:53.999+01:00</time>
      </trkpt>
      <trkpt lat="45.32393" lon="5.7628">
        <ele>1835.5</ele>
        <time>2000-03-06T11:23:00.000+01:00</time>
      </trkpt>
      <trkpt lat="45.32397" lon="5.76286">
        <ele>1836.64</ele>
        <time>2000-03-06T11:23:06.000+01:00</time>
      </trkpt>
      <trkpt lat="45.32397" lon="5.76287">
        <ele>1837.13</ele>
        <time>2000-03-06T11:23:12.000+01:00</time>
      </trkpt>
      <trkpt lat="45.32397" lon="5.76287">
        <ele>1837.13</ele>
        <time>2000-03-06T11:23:18.000+01:00</time>
      </trkpt>
      <trkpt lat="45.32397" lon="5.76287">
        <ele>1837.13</ele>
        <time>2000-03-06T11:23:24.001+01:00</time>
      </trkpt>
      <trkpt lat="45.32397" lon="5.76287">
        <ele>1837.13</ele>
        <time>2000-03-06T11:23:30.000+01:00</time>
      </trkpt>
      <trkpt lat="45.32397" lon="5.76287">
        <ele>1837.13</ele>
        <time>2000-03-06T11:23:36.000+01:00</time>
      </trkpt>
      <trkpt lat="45.32397" lon="5.76287">
        <ele>1837.13</ele>
        <time>2000-03-06T11:23:42.000+01:00</time>
      </trkpt>
      <trkpt lat="45.32397" lon="5.76287">
        <ele>1837.13</ele>
        <time>2000-03-06T11:23:48.000+01:00</time>
      </trkpt>
      <trkpt lat="45.32397" lon="5.76287">
        <ele>1837.13</ele>
        <time>2000-03-06T11:23:54.000+01:00</time>
      </trkpt>
      <trkpt lat="45.32397" lon="5.76287">
        <ele>1837.13</ele>
        <time>2000-03-06T11:24:00.000+01:00</time>
      </trkpt>
      <trkpt lat="45.32397" lon="5.76287">
        <ele>1837.13</ele>
        <time>2000-03-06T11:24:06.000+01:00</time>
      </trkpt>
      <trkpt lat="45.32397" lon="5.76287">
        <ele>1837.13</ele>
        <time>2000-03-06T11:24:12.000+01:00</time>
      </trkpt>
      <trkpt lat="45.32397" lon="5.76287">
        <ele>1837.13</ele>
        <time>2000-03-06T11:24:18.000+01:00</time>
      </trkpt>
      <trkpt lat="45.32397" lon="5.76287">
        <ele>1837.13</ele>
        <time>2000-03-06T11:24:24.000+01:00</time>
      </trkpt>
      <trkpt lat="45.32397" lon="5.76287">
        <ele>1837.13</ele>
        <time>2000-03-06T11:24:30.001+01:00</time>
      </trkpt>
      <trkpt lat="45.32397" lon="5.76287">
        <ele>1837.13</ele>
        <time>2000-03-06T11:24:36.000+01:00</time>
      </trkpt>
      <trkpt lat="45.32397" lon="5.76287">
        <ele>1837.13</ele>
        <time>2000-03-06T11:24:42.000+01:00</time>
      </trkpt>
      <trkpt lat="45.32397" lon="5.76287">
        <ele>1837.13</ele>
        <time>2000-03-06T11:24:48.000+01:00</time>
      </trkpt>
      <trkpt lat="45.32397" lon="5.76287">
        <ele>1837.13</ele>
        <time>2000-03-06T11:24:54.000+01:00</time>
      </trkpt>
      <trkpt lat="45.32397" lon="5.76287">
        <ele>1837.13</ele>
        <time>2000-03-06T11:25:00.000+01:00</time>
      </trkpt>
      <trkpt lat="45.32397" lon="5.76287">
        <ele>1837.13</ele>
        <time>2000-03-06T11:25:06.000+01:00</time>
      </trkpt>
      <trkpt lat="45.32397" lon="5.76287">
        <ele>1837.13</ele>
        <time>2000-03-06T11:25:12.000+01:00</time>
      </trkpt>
      <trkpt lat="45.32447" lon="5.76374">
        <ele>1857.84</ele>
        <time>2000-03-06T11:25:18.000+01:00</time>
      </trkpt>
      <trkpt lat="45.32447" lon="5.76374">
        <ele>1857.89</ele>
        <time>2000-03-06T11:25:24.000+01:00</time>
      </trkpt>
      <trkpt lat="45.32447" lon="5.76374">
        <ele>1857.89</ele>
        <time>2000-03-06T11:25:30.000+01:00</time>
      </trkpt>
      <trkpt lat="45.32447" lon="5.76374">
        <ele>1857.89</ele>
        <time>2000-03-06T11:25:36.000+01:00</time>
      </trkpt>
      <trkpt lat="45.32447" lon="5.76374">
        <ele>1857.89</ele>
        <time>2000-03-06T11:25:42.000+01:00</time>
      </trkpt>
      <trkpt lat="45.32447" lon="5.76374">
        <ele>1857.89</ele>
        <time>2000-03-06T11:25:48.000+01:00</time>
      </trkpt>
      <trkpt lat="45.32447" lon="5.76374">
        <ele>1857.89</ele>
        <time>2000-03-06T11:25:54.001+01:00</time>
      </trkpt>
      <trkpt lat="45.32447" lon="5.76374">
        <ele>1857.89</ele>
        <time>2000-03-06T11:26:00.000+01:00</time>
      </trkpt>
      <trkpt lat="45.32447" lon="5.76374">
        <ele>1857.89</ele>
        <time>2000-03-06T11:26:06.000+01:00</time>
      </trkpt>
      <trkpt lat="45.32447" lon="5.76374">
        <ele>1857.89</ele>
        <time>2000-03-06T11:26:12.000+01:00</time>
      </trkpt>
      <trkpt lat="45.32447" lon="5.76374">
        <ele>1857.89</ele>
        <time>2000-03-06T11:26:18.000+01:00</time>
      </trkpt>
      <trkpt lat="45.32447" lon="5.76374">
        <ele>1857.89</ele>
        <time>2000-03-06T11:26:24.001+01:00</time>
      </trkpt>
      <trkpt lat="45.32447" lon="5.76374">
        <ele>1857.89</ele>
        <time>2000-03-06T11:26:30.000+01:00</time>
      </trkpt>
      <trkpt lat="45.32447" lon="5.76374">
        <ele>1857.89</ele>
        <time>2000-03-06T11:26:36.001+01:00</time>
      </trkpt>
      <trkpt lat="45.32489" lon="5.76411">
        <ele>1870.87</ele>
        <time>2000-03-06T11:26:42.000+01:00</time>
      </trkpt>
      <trkpt lat="45.32489" lon="5.76411">
        <ele>1870.87</ele>
        <time>2000-03-06T11:26:48.000+01:00</time>
      </trkpt>
      <trkpt lat="45.32489" lon="5.76411">
        <ele>1870.87</ele>
        <time>2000-03-06T11:26:54.000+01:00</time>
      </trkpt>
      <trkpt lat="45.32489" lon="5.76411">
        <ele>1870.87</ele>
        <time>2000-03-06T11:27:00.000+01:00</time>
      </trkpt>
      <trkpt lat="45.32489" lon="5.76411">
        <ele>1870.87</ele>
        <time>2000-03-06T11:27:06.001+01:00</time>
      </trkpt>
      <trkpt lat="45.32489" lon="5.76411">
        <ele>1870.87</ele>
        <time>2000-03-06T11:27:12.000+01:00</time>
      </trkpt>
      <trkpt lat="45.32489" lon="5.76411">
        <ele>1870.87</ele>
        <time>2000-03-06T11:27:18.000+01:00</time>
      </trkpt>
      <trkpt lat="45.32489" lon="5.76411">
        <ele>1870.87</ele>
        <time>2000-03-06T11:27:24.000+01:00</time>
      </trkpt>
      <trkpt lat="45.32489" lon="5.76411">
        <ele>1870.87</ele>
        <time>2000-03-06T11:27:30.000+01:00</time>
      </trkpt>
      <trkpt lat="45.32489" lon="5.76411">
        <ele>1870.87</ele>
        <time>2000-03-06T11:27:36.000+01:00</time>
      </trkpt>
      <trkpt lat="45.32489" lon="5.76411">
        <ele>1870.87</ele>
        <time>2000-03-06T11:27:42.000+01:00</time>
      </trkpt>
      <trkpt lat="45.32489" lon="5.76411">
        <ele>1870.87</ele>
        <time>2000-03-06T11:27:48.000+01:00</time>
      </trkpt>
      <trkpt lat="45.32489" lon="5.76411">
        <ele>1870.87</ele>
        <time>2000-03-06T11:27:54.000+01:00</time>
      </trkpt>
      <trkpt lat="45.32489" lon="5.76411">
        <ele>1870.87</ele>
        <time>2000-03-06T11:28:00.000+01:00</time>
      </trkpt>
      <trkpt lat="45.32489" lon="5.76411">
        <ele>1870.87</ele>
        <time>2000-03-06T11:28:06.000+01:00</time>
      </trkpt>
      <trkpt lat="45.32489" lon="5.76411">
        <ele>1870.87</ele>
        <time>2000-03-06T11:28:12.000+01:00</time>
      </trkpt>
      <trkpt lat="45.32489" lon="5.76411">
        <ele>1870.87</ele>
        <time>2000-03-06T11:28:18.000+01:00</time>
      </trkpt>
      <trkpt lat="45.32489" lon="5.76411">
        <ele>1870.87</ele>
        <time>2000-03-06T11:28:24.000+01:00</time>
      </trkpt>
      <trkpt lat="45.32489" lon="5.76411">
        <ele>1870.87</ele>
        <time>2000-03-06T11:28:30.000+01:00</time>
      </trkpt>
      <trkpt lat="45.32489" lon="5.76411">
        <ele>1870.87</ele>
        <time>2000-03-06T11:28:36.000+01:00</time>
      </trkpt>
      <trkpt lat="45.32489" lon="5.76411">
        <ele>1870.87</ele>
        <time>2000-03-06T11:28:42.000+01:00</time>
      </trkpt>
      <trkpt lat="45.32489" lon="5.76411">
        <ele>1870.87</ele>
        <time>2000-03-06T11:28:48.000+01:00</time>
      </trkpt>
      <trkpt lat="45.32489" lon="5.76411">
        <ele>1870.87</ele>
        <time>2000-03-06T11:28:54.000+01:00</time>
      </trkpt>
      <trkpt lat="45.32489" lon="5.76411">
        <ele>1870.87</ele>
        <time>2000-03-06T11:29:00.000+01:00</time>
      </trkpt>
      <trkpt lat="45.32489" lon="5.76411">
        <ele>1870.87</ele>
        <time>2000-03-06T11:29:06.000+01:00</time>
      </trkpt>
      <trkpt lat="45.32489" lon="5.76411">
        <ele>1870.87</ele>
        <time>2000-03-06T11:29:12.000+01:00</time>
      </trkpt>
      <trkpt lat="45.32489" lon="5.76411">
        <ele>1870.87</ele>
        <time>2000-03-06T11:29:18.000+01:00</time>
      </trkpt>
      <trkpt lat="45.32489" lon="5.76411">
        <ele>1870.87</ele>
        <time>2000-03-06T11:29:24.000+01:00</time>
      </trkpt>
      <trkpt lat="45.32489" lon="5.76411">
        <ele>1870.87</ele>
        <time>2000-03-06T11:29:30.000+01:00</time>
      </trkpt>
      <trkpt lat="45.32489" lon="5.76411">
        <ele>1870.87</ele>
        <time>2000-03-06T11:29:36.000+01:00</time>
      </trkpt>
      <trkpt lat="45.32489" lon="5.76411">
        <ele>1870.87</ele>
        <time>2000-03-06T11:29:42.000+01:00</time>
      </trkpt>
      <trkpt lat="45.32489" lon="5.76411">
        <ele>1870.87</ele>
        <time>2000-03-06T11:29:48.000+01:00</time>
      </trkpt>
      <trkpt lat="45.32489" lon="5.76411">
        <ele>1870.87</ele>
        <time>2000-03-06T11:29:54.000+01:00</time>
      </trkpt>
      <trkpt lat="45.32489" lon="5.76411">
        <ele>1870.87</ele>
        <time>2000-03-06T11:30:00.000+01:00</time>
      </trkpt>
      <trkpt lat="45.32489" lon="5.76411">
        <ele>1870.87</ele>
        <time>2000-03-06T11:30:06.000+01:00</time>
      </trkpt>
      <trkpt lat="45.32489" lon="5.76411">
        <ele>1870.87</ele>
        <time>2000-03-06T11:30:11.999+01:00</time>
      </trkpt>
      <trkpt lat="45.32489" lon="5.76411">
        <ele>1870.87</ele>
        <time>2000-03-06T11:30:17.999+01:00</time>
      </trkpt>
      <trkpt lat="45.32489" lon="5.76411">
        <ele>1870.87</ele>
        <time>2000-03-06T11:30:23.999+01:00</time>
      </trkpt>
      <trkpt lat="45.32489" lon="5.76411">
        <ele>1870.87</ele>
        <time>2000-03-06T11:30:29.999+01:00</time>
      </trkpt>
      <trkpt lat="45.32489" lon="5.76411">
        <ele>1870.87</ele>
        <time>2000-03-06T11:30:35.999+01:00</time>
      </trkpt>
      <trkpt lat="45.32489" lon="5.76411">
        <ele>1870.87</ele>
        <time>2000-03-06T11:30:41.999+01:00</time>
      </trkpt>
      <trkpt lat="45.32489" lon="5.76411">
        <ele>1870.87</ele>
        <time>2000-03-06T11:30:48.000+01:00</time>
      </trkpt>
      <trkpt lat="45.32489" lon="5.76411">
        <ele>1870.87</ele>
        <time>2000-03-06T11:30:54.001+01:00</time>
      </trkpt>
      <trkpt lat="45.32489" lon="5.76411">
        <ele>1870.87</ele>
        <time>2000-03-06T11:31:00.000+01:00</time>
      </trkpt>
      <trkpt lat="45.32489" lon="5.76411">
        <ele>1870.87</ele>
        <time>2000-03-06T11:31:06.000+01:00</time>
      </trkpt>
      <trkpt lat="45.32489" lon="5.76411">
        <ele>1870.87</ele>
        <time>2000-03-06T11:31:12.000+01:00</time>
      </trkpt>
      <trkpt lat="45.32489" lon="5.76411">
        <ele>1870.87</ele>
        <time>2000-03-06T11:31:18.000+01:00</time>
      </trkpt>
      <trkpt lat="45.32489" lon="5.76411">
        <ele>1870.87</ele>
        <time>2000-03-06T11:31:24.000+01:00</time>
      </trkpt>
      <trkpt lat="45.32489" lon="5.76411">
        <ele>1870.87</ele>
        <time>2000-03-06T11:31:30.000+01:00</time>
      </trkpt>
      <trkpt lat="45.32489" lon="5.76411">
        <ele>1870.87</ele>
        <time>2000-03-06T11:31:36.000+01:00</time>
      </trkpt>
      <trkpt lat="45.32489" lon="5.76411">
        <ele>1870.87</ele>
        <time>2000-03-06T11:31:42.000+01:00</time>
      </trkpt>
      <trkpt lat="45.32489" lon="5.76411">
        <ele>1870.87</ele>
        <time>2000-03-06T11:31:48.000+01:00</time>
      </trkpt>
      <trkpt lat="45.32489" lon="5.76411">
        <ele>1870.87</ele>
        <time>2000-03-06T11:31:54.000+01:00</time>
      </trkpt>
      <trkpt lat="45.32489" lon="5.76411">
        <ele>1870.87</ele>
        <time>2000-03-06T11:32:00.000+01:00</time>
      </trkpt>
      <trkpt lat="45.32489" lon="5.76411">
        <ele>1870.87</ele>
        <time>2000-03-06T11:32:06.000+01:00</time>
      </trkpt>
      <trkpt lat="45.32489" lon="5.76411">
        <ele>1870.87</ele>
        <time>2000-03-06T11:32:12.000+01:00</time>
      </trkpt>
      <trkpt lat="45.32489" lon="5.76411">
        <ele>1870.87</ele>
        <time>2000-03-06T11:32:18.000+01:00</time>
      </trkpt>
      <trkpt lat="45.32489" lon="5.76411">
        <ele>1870.87</ele>
        <time>2000-03-06T11:32:24.000+01:00</time>
      </trkpt>
      <trkpt lat="45.32514" lon="5.76405">
        <ele>1862.4</ele>
        <time>2000-03-06T11:32:30.000+01:00</time>
      </trkpt>
      <trkpt lat="45.32514" lon="5.76405">
        <ele>1862.4</ele>
        <time>2000-03-06T11:32:36.000+01:00</time>
      </trkpt>
      <trkpt lat="45.32514" lon="5.76405">
        <ele>1862.4</ele>
        <time>2000-03-06T11:32:42.000+01:00</time>
      </trkpt>
      <trkpt lat="45.32514" lon="5.76405">
        <ele>1862.4</ele>
        <time>2000-03-06T11:32:48.000+01:00</time>
      </trkpt>
      <trkpt lat="45.32514" lon="5.76405">
        <ele>1862.4</ele>
        <time>2000-03-06T11:32:54.000+01:00</time>
      </trkpt>
      <trkpt lat="45.32514" lon="5.76405">
        <ele>1862.4</ele>
        <time>2000-03-06T11:33:00.000+01:00</time>
      </trkpt>
      <trkpt lat="45.32514" lon="5.76405">
        <ele>1862.4</ele>
        <time>2000-03-06T11:33:06.000+01:00</time>
      </trkpt>
      <trkpt lat="45.32514" lon="5.76405">
        <ele>1862.4</ele>
        <time>2000-03-06T11:33:12.000+01:00</time>
      </trkpt>
      <trkpt lat="45.32514" lon="5.76405">
        <ele>1862.4</ele>
        <time>2000-03-06T11:33:18.000+01:00</time>
      </trkpt>
      <trkpt lat="45.32514" lon="5.76405">
        <ele>1862.4</ele>
        <time>2000-03-06T11:33:24.000+01:00</time>
      </trkpt>
      <trkpt lat="45.32514" lon="5.76405">
        <ele>1862.4</ele>
        <time>2000-03-06T11:33:30.001+01:00</time>
      </trkpt>
      <trkpt lat="45.32514" lon="5.76405">
        <ele>1862.4</ele>
        <time>2000-03-06T11:33:36.001+01:00</time>
      </trkpt>
      <trkpt lat="45.32514" lon="5.76405">
        <ele>1862.4</ele>
        <time>2000-03-06T11:33:42.001+01:00</time>
      </trkpt>
      <trkpt lat="45.32514" lon="5.76405">
        <ele>1862.4</ele>
        <time>2000-03-06T11:33:48.001+01:00</time>
      </trkpt>
      <trkpt lat="45.32514" lon="5.76405">
        <ele>1862.4</ele>
        <time>2000-03-06T11:33:54.001+01:00</time>
      </trkpt>
      <trkpt lat="45.32514" lon="5.76405">
        <ele>1862.4</ele>
        <time>2000-03-06T11:34:00.001+01:00</time>
      </trkpt>
      <trkpt lat="45.32514" lon="5.76405">
        <ele>1862.4</ele>
        <time>2000-03-06T11:34:06.001+01:00</time>
      </trkpt>
      <trkpt lat="45.32514" lon="5.76405">
        <ele>1862.4</ele>
        <time>2000-03-06T11:34:12.001+01:00</time>
      </trkpt>
      <trkpt lat="45.32514" lon="5.76405">
        <ele>1862.4</ele>
        <time>2000-03-06T11:34:18.001+01:00</time>
      </trkpt>
      <trkpt lat="45.32514" lon="5.76405">
        <ele>1862.4</ele>
        <time>2000-03-06T11:34:24.001+01:00</time>
      </trkpt>
      <trkpt lat="45.32514" lon="5.76405">
        <ele>1862.4</ele>
        <time>2000-03-06T11:34:30.001+01:00</time>
      </trkpt>
      <trkpt lat="45.32514" lon="5.76405">
        <ele>1862.4</ele>
        <time>2000-03-06T11:34:36.001+01:00</time>
      </trkpt>
      <trkpt lat="45.32514" lon="5.76405">
        <ele>1862.4</ele>
        <time>2000-03-06T11:34:42.001+01:00</time>
      </trkpt>
      <trkpt lat="45.32514" lon="5.76403">
        <ele>1874.47</ele>
        <time>2000-03-06T11:34:48.001+01:00</time>
      </trkpt>
      <trkpt lat="45.32514" lon="5.76403">
        <ele>1874.89</ele>
        <time>2000-03-06T11:34:54.001+01:00</time>
      </trkpt>
      <trkpt lat="45.32514" lon="5.76403">
        <ele>1874.89</ele>
        <time>2000-03-06T11:35:00.001+01:00</time>
      </trkpt>
      <trkpt lat="45.32514" lon="5.76403">
        <ele>1874.89</ele>
        <time>2000-03-06T11:35:06.001+01:00</time>
      </trkpt>
      <trkpt lat="45.32514" lon="5.76403">
        <ele>1874.89</ele>
        <time>2000-03-06T11:35:12.001+01:00</time>
      </trkpt>
      <trkpt lat="45.32514" lon="5.76403">
        <ele>1874.89</ele>
        <time>2000-03-06T11:35:18.000+01:00</time>
      </trkpt>
      <trkpt lat="45.32514" lon="5.76403">
        <ele>1874.89</ele>
        <time>2000-03-06T11:35:24.000+01:00</time>
      </trkpt>
      <trkpt lat="45.32514" lon="5.76403">
        <ele>1874.89</ele>
        <time>2000-03-06T11:35:30.000+01:00</time>
      </trkpt>
      <trkpt lat="45.32514" lon="5.76403">
        <ele>1874.89</ele>
        <time>2000-03-06T11:35:36.000+01:00</time>
      </trkpt>
      <trkpt lat="45.32514" lon="5.76403">
        <ele>1874.89</ele>
        <time>2000-03-06T11:35:42.000+01:00</time>
      </trkpt>
      <trkpt lat="45.32514" lon="5.76403">
        <ele>1874.89</ele>
        <time>2000-03-06T11:35:48.000+01:00</time>
      </trkpt>
      <trkpt lat="45.32514" lon="5.76403">
        <ele>1874.89</ele>
        <time>2000-03-06T11:35:54.000+01:00</time>
      </trkpt>
      <trkpt lat="45.32514" lon="5.76403">
        <ele>1874.89</ele>
        <time>2000-03-06T11:36:00.000+01:00</time>
      </trkpt>
      <trkpt lat="45.32514" lon="5.76403">
        <ele>1874.89</ele>
        <time>2000-03-06T11:36:06.000+01:00</time>
      </trkpt>
      <trkpt lat="45.32514" lon="5.76403">
        <ele>1874.89</ele>
        <time>2000-03-06T11:36:12.000+01:00</time>
      </trkpt>
      <trkpt lat="45.32514" lon="5.76403">
        <ele>1874.89</ele>
        <time>2000-03-06T11:36:18.000+01:00</time>
      </trkpt>
      <trkpt lat="45.32514" lon="5.76403">
        <ele>1874.89</ele>
        <time>2000-03-06T11:36:24.000+01:00</time>
      </trkpt>
      <trkpt lat="45.32514" lon="5.76403">
        <ele>1874.89</ele>
        <time>2000-03-06T11:36:30.000+01:00</time>
      </trkpt>
      <trkpt lat="45.32514" lon="5.76403">
        <ele>1874.89</ele>
        <time>2000-03-06T11:36:36.000+01:00</time>
      </trkpt>
      <trkpt lat="45.32514" lon="5.76403">
        <ele>1874.89</ele>
        <time>2000-03-06T11:36:42.000+01:00</time>
      </trkpt>
      <trkpt lat="45.32514" lon="5.76403">
        <ele>1874.89</ele>
        <time>2000-03-06T11:36:48.000+01:00</time>
      </trkpt>
      <trkpt lat="45.32514" lon="5.76403">
        <ele>1874.89</ele>
        <time>2000-03-06T11:36:54.000+01:00</time>
      </trkpt>
      <trkpt lat="45.32514" lon="5.76403">
        <ele>1874.89</ele>
        <time>2000-03-06T11:37:00.000+01:00</time>
      </trkpt>
      <trkpt lat="45.32514" lon="5.76403">
        <ele>1874.89</ele>
        <time>2000-03-06T11:37:06.000+01:00</time>
      </trkpt>
      <trkpt lat="45.32514" lon="5.76403">
        <ele>1874.89</ele>
        <time>2000-03-06T11:37:11.999+01:00</time>
      </trkpt>
      <trkpt lat="45.32514" lon="5.76403">
        <ele>1874.89</ele>
        <time>2000-03-06T11:37:18.000+01:00</time>
      </trkpt>
      <trkpt lat="45.32514" lon="5.76403">
        <ele>1874.89</ele>
        <time>2000-03-06T11:37:24.000+01:00</time>
      </trkpt>
      <trkpt lat="45.32514" lon="5.76403">
        <ele>1874.89</ele>
        <time>2000-03-06T11:37:30.000+01:00</time>
      </trkpt>
      <trkpt lat="45.32514" lon="5.76403">
        <ele>1874.89</ele>
        <time>2000-03-06T11:37:36.000+01:00</time>
      </trkpt>
      <trkpt lat="45.32514" lon="5.76403">
        <ele>1874.89</ele>
        <time>2000-03-06T11:37:42.000+01:00</time>
      </trkpt>
      <trkpt lat="45.32514" lon="5.76403">
        <ele>1874.89</ele>
        <time>2000-03-06T11:37:48.000+01:00</time>
      </trkpt>
      <trkpt lat="45.32514" lon="5.76403">
        <ele>1874.89</ele>
        <time>2000-03-06T11:37:54.000+01:00</time>
      </trkpt>
      <trkpt lat="45.32514" lon="5.76403">
        <ele>1874.89</ele>
        <time>2000-03-06T11:38:00.000+01:00</time>
      </trkpt>
      <trkpt lat="45.32514" lon="5.76403">
        <ele>1874.89</ele>
        <time>2000-03-06T11:38:06.000+01:00</time>
      </trkpt>
      <trkpt lat="45.32514" lon="5.76403">
        <ele>1874.89</ele>
        <time>2000-03-06T11:38:12.000+01:00</time>
      </trkpt>
      <trkpt lat="45.32514" lon="5.76403">
        <ele>1874.89</ele>
        <time>2000-03-06T11:38:18.000+01:00</time>
      </trkpt>
      <trkpt lat="45.32514" lon="5.76403">
        <ele>1874.89</ele>
        <time>2000-03-06T11:38:24.000+01:00</time>
      </trkpt>
      <trkpt lat="45.32514" lon="5.76403">
        <ele>1874.89</ele>
        <time>2000-03-06T11:38:30.000+01:00</time>
      </trkpt>
      <trkpt lat="45.32514" lon="5.76403">
        <ele>1874.89</ele>
        <time>2000-03-06T11:38:36.000+01:00</time>
      </trkpt>
      <trkpt lat="45.32514" lon="5.76403">
        <ele>1874.89</ele>
        <time>2000-03-06T11:38:41.999+01:00</time>
      </trkpt>
      <trkpt lat="45.32514" lon="5.76403">
        <ele>1874.89</ele>
        <time>2000-03-06T11:38:48.000+01:00</time>
      </trkpt>
      <trkpt lat="45.32514" lon="5.76403">
        <ele>1874.89</ele>
        <time>2000-03-06T11:38:54.000+01:00</time>
      </trkpt>
      <trkpt lat="45.32514" lon="5.76403">
        <ele>1874.89</ele>
        <time>2000-03-06T11:39:00.000+01:00</time>
      </trkpt>
      <trkpt lat="45.32514" lon="5.76403">
        <ele>1874.89</ele>
        <time>2000-03-06T11:39:06.000+01:00</time>
      </trkpt>
      <trkpt lat="45.32514" lon="5.76403">
        <ele>1874.89</ele>
        <time>2000-03-06T11:39:11.999+01:00</time>
      </trkpt>
      <trkpt lat="45.32514" lon="5.76403">
        <ele>1874.89</ele>
        <time>2000-03-06T11:39:18.000+01:00</time>
      </trkpt>
      <trkpt lat="45.32514" lon="5.76403">
        <ele>1874.89</ele>
        <time>2000-03-06T11:39:24.000+01:00</time>
      </trkpt>
      <trkpt lat="45.32514" lon="5.76403">
        <ele>1874.89</ele>
        <time>2000-03-06T11:39:30.000+01:00</time>
      </trkpt>
      <trkpt lat="45.32514" lon="5.76403">
        <ele>1874.89</ele>
        <time>2000-03-06T11:39:36.001+01:00</time>
      </trkpt>
      <trkpt lat="45.32514" lon="5.76403">
        <ele>1874.89</ele>
        <time>2000-03-06T11:39:42.001+01:00</time>
      </trkpt>
      <trkpt lat="45.32514" lon="5.76403">
        <ele>1874.89</ele>
        <time>2000-03-06T11:39:48.001+01:00</time>
      </trkpt>
      <trkpt lat="45.32514" lon="5.76403">
        <ele>1874.89</ele>
        <time>2000-03-06T11:39:54.001+01:00</time>
      </trkpt>
      <trkpt lat="45.32514" lon="5.76403">
        <ele>1874.89</ele>
        <time>2000-03-06T11:40:00.001+01:00</time>
      </trkpt>
      <trkpt lat="45.32514" lon="5.76403">
        <ele>1874.89</ele>
        <time>2000-03-06T11:40:06.001+01:00</time>
      </trkpt>
      <trkpt lat="45.32514" lon="5.76403">
        <ele>1874.89</ele>
        <time>2000-03-06T11:40:12.000+01:00</time>
      </trkpt>
      <trkpt lat="45.32514" lon="5.76403">
        <ele>1874.89</ele>
        <time>2000-03-06T11:40:17.999+01:00</time>
      </trkpt>
      <trkpt lat="45.32514" lon="5.76403">
        <ele>1874.89</ele>
        <time>2000-03-06T11:40:24.000+01:00</time>
      </trkpt>
      <trkpt lat="45.32514" lon="5.76403">
        <ele>1874.89</ele>
        <time>2000-03-06T11:40:29.999+01:00</time>
      </trkpt>
      <trkpt lat="45.32514" lon="5.76403">
        <ele>1874.89</ele>
        <time>2000-03-06T11:40:35.999+01:00</time>
      </trkpt>
      <trkpt lat="45.32514" lon="5.76403">
        <ele>1874.89</ele>
        <time>2000-03-06T11:40:41.999+01:00</time>
      </trkpt>
      <trkpt lat="45.32514" lon="5.76403">
        <ele>1874.89</ele>
        <time>2000-03-06T11:40:47.999+01:00</time>
      </trkpt>
      <trkpt lat="45.32514" lon="5.76403">
        <ele>1874.89</ele>
        <time>2000-03-06T11:40:53.999+01:00</time>
      </trkpt>
      <trkpt lat="45.32514" lon="5.76403">
        <ele>1874.89</ele>
        <time>2000-03-06T11:40:59.999+01:00</time>
      </trkpt>
      <trkpt lat="45.32514" lon="5.76403">
        <ele>1874.89</ele>
        <time>2000-03-06T11:41:06.000+01:00</time>
      </trkpt>
      <trkpt lat="45.32514" lon="5.76403">
        <ele>1874.89</ele>
        <time>2000-03-06T11:41:12.000+01:00</time>
      </trkpt>
      <trkpt lat="45.32514" lon="5.76403">
        <ele>1874.89</ele>
        <time>2000-03-06T11:41:18.000+01:00</time>
      </trkpt>
      <trkpt lat="45.32514" lon="5.76403">
        <ele>1874.89</ele>
        <time>2000-03-06T11:41:24.001+01:00</time>
      </trkpt>
      <trkpt lat="45.32514" lon="5.76403">
        <ele>1874.89</ele>
        <time>2000-03-06T11:41:30.002+01:00</time>
      </trkpt>
      <trkpt lat="45.32514" lon="5.76403">
        <ele>1874.89</ele>
        <time>2000-03-06T11:41:36.000+01:00</time>
      </trkpt>
      <trkpt lat="45.32514" lon="5.76403">
        <ele>1874.89</ele>
        <time>2000-03-06T11:41:42.001+01:00</time>
      </trkpt>
      <trkpt lat="45.32514" lon="5.76403">
        <ele>1874.89</ele>
        <time>2000-03-06T11:41:48.001+01:00</time>
      </trkpt>
      <trkpt lat="45.32514" lon="5.76403">
        <ele>1874.89</ele>
        <time>2000-03-06T11:41:54.001+01:00</time>
      </trkpt>
      <trkpt lat="45.32514" lon="5.76403">
        <ele>1874.89</ele>
        <time>2000-03-06T11:42:00.001+01:00</time>
      </trkpt>
      <trkpt lat="45.32514" lon="5.76403">
        <ele>1874.89</ele>
        <time>2000-03-06T11:42:06.001+01:00</time>
      </trkpt>
      <trkpt lat="45.32514" lon="5.76403">
        <ele>1874.89</ele>
        <time>2000-03-06T11:42:12.000+01:00</time>
      </trkpt>
      <trkpt lat="45.32514" lon="5.76403">
        <ele>1874.89</ele>
        <time>2000-03-06T11:42:18.001+01:00</time>
      </trkpt>
      <trkpt lat="45.32514" lon="5.76403">
        <ele>1874.89</ele>
        <time>2000-03-06T11:42:24.000+01:00</time>
      </trkpt>
      <trkpt lat="45.32514" lon="5.76403">
        <ele>1874.89</ele>
        <time>2000-03-06T11:42:30.000+01:00</time>
      </trkpt>
      <trkpt lat="45.32514" lon="5.76403">
        <ele>1874.89</ele>
        <time>2000-03-06T11:42:36.000+01:00</time>
      </trkpt>
      <trkpt lat="45.32514" lon="5.76403">
        <ele>1874.89</ele>
        <time>2000-03-06T11:42:42.000+01:00</time>
      </trkpt>
      <trkpt lat="45.32514" lon="5.76403">
        <ele>1874.89</ele>
        <time>2000-03-06T11:42:48.000+01:00</time>
      </trkpt>
      <trkpt lat="45.32514" lon="5.76403">
        <ele>1874.89</ele>
        <time>2000-03-06T11:42:54.001+01:00</time>
      </trkpt>
      <trkpt lat="45.32514" lon="5.76403">
        <ele>1874.89</ele>
        <time>2000-03-06T11:43:00.001+01:00</time>
      </trkpt>
      <trkpt lat="45.32514" lon="5.76403">
        <ele>1874.89</ele>
        <time>2000-03-06T11:43:06.000+01:00</time>
      </trkpt>
      <trkpt lat="45.32514" lon="5.76403">
        <ele>1874.89</ele>
        <time>2000-03-06T11:43:12.001+01:00</time>
      </trkpt>
      <trkpt lat="45.32514" lon="5.76403">
        <ele>1874.89</ele>
        <time>2000-03-06T11:43:18.000+01:00</time>
      </trkpt>
      <trkpt lat="45.32514" lon="5.76403">
        <ele>1874.89</ele>
        <time>2000-03-06T11:43:24.000+01:00</time>
      </trkpt>
      <trkpt lat="45.32514" lon="5.76403">
        <ele>1874.89</ele>
        <time>2000-03-06T11:43:30.001+01:00</time>
      </trkpt>
      <trkpt lat="45.32514" lon="5.76403">
        <ele>1874.89</ele>
        <time>2000-03-06T11:43:36.001+01:00</time>
      </trkpt>
      <trkpt lat="45.32514" lon="5.76403">
        <ele>1874.89</ele>
        <time>2000-03-06T11:43:42.001+01:00</time>
      </trkpt>
      <trkpt lat="45.32514" lon="5.76403">
        <ele>1874.89</ele>
        <time>2000-03-06T11:43:48.001+01:00</time>
      </trkpt>
      <trkpt lat="45.32514" lon="5.76403">
        <ele>1874.89</ele>
        <time>2000-03-06T11:43:54.001+01:00</time>
      </trkpt>
      <trkpt lat="45.32514" lon="5.76403">
        <ele>1874.89</ele>
        <time>2000-03-06T11:44:00.000+01:00</time>
      </trkpt>
      <trkpt lat="45.32514" lon="5.76403">
        <ele>1874.89</ele>
        <time>2000-03-06T11:44:06.001+01:00</time>
      </trkpt>
      <trkpt lat="45.32514" lon="5.76403">
        <ele>1874.89</ele>
        <time>2000-03-06T11:44:12.000+01:00</time>
      </trkpt>
      <trkpt lat="45.32514" lon="5.76403">
        <ele>1874.89</ele>
        <time>2000-03-06T11:44:18.000+01:00</time>
      </trkpt>
      <trkpt lat="45.32495" lon="5.76413">
        <ele>1879.91</ele>
        <time>2000-03-06T11:44:24.001+01:00</time>
      </trkpt>
      <trkpt lat="45.3248" lon="5.76402">
        <ele>1879.1</ele>
        <time>2000-03-06T11:44:30.002+01:00</time>
      </trkpt>
      <trkpt lat="45.32462" lon="5.76392">
        <ele>1875.64</ele>
        <time>2000-03-06T11:44:36.000+01:00</time>
      </trkpt>
      <trkpt lat="45.32445" lon="5.76376">
        <ele>1871.83</ele>
        <time>2000-03-06T11:44:42.000+01:00</time>
      </trkpt>
      <trkpt lat="45.32431" lon="5.76369">
        <ele>1868.93</ele>
        <time>2000-03-06T11:44:48.000+01:00</time>
      </trkpt>
      <trkpt lat="45.32421" lon="5.76367">
        <ele>1865.91</ele>
        <time>2000-03-06T11:44:54.000+01:00</time>
      </trkpt>
      <trkpt lat="45.32414" lon="5.76359">
        <ele>1861.68</ele>
        <time>2000-03-06T11:45:00.000+01:00</time>
      </trkpt>
      <trkpt lat="45.32398" lon="5.76343">
        <ele>1855.97</ele>
        <time>2000-03-06T11:45:06.000+01:00</time>
      </trkpt>
      <trkpt lat="45.32378" lon="5.76318">
        <ele>1848.63</ele>
        <time>2000-03-06T11:45:12.000+01:00</time>
      </trkpt>
      <trkpt lat="45.32357" lon="5.76288">
        <ele>1844.67</ele>
        <time>2000-03-06T11:45:18.000+01:00</time>
      </trkpt>
      <trkpt lat="45.3235" lon="5.7628">
        <ele>1842.11</ele>
        <time>2000-03-06T11:45:24.000+01:00</time>
      </trkpt>
      <trkpt lat="45.3235" lon="5.7628">
        <ele>1842.11</ele>
        <time>2000-03-06T11:45:30.000+01:00</time>
      </trkpt>
      <trkpt lat="45.3235" lon="5.7628">
        <ele>1842.11</ele>
        <time>2000-03-06T11:45:36.000+01:00</time>
      </trkpt>
      <trkpt lat="45.3235" lon="5.7628">
        <ele>1842.11</ele>
        <time>2000-03-06T11:45:42.000+01:00</time>
      </trkpt>
      <trkpt lat="45.3235" lon="5.7628">
        <ele>1842.11</ele>
        <time>2000-03-06T11:45:48.000+01:00</time>
      </trkpt>
      <trkpt lat="45.3235" lon="5.7628">
        <ele>1842.11</ele>
        <time>2000-03-06T11:45:54.000+01:00</time>
      </trkpt>
      <trkpt lat="45.3235" lon="5.7628">
        <ele>1842.11</ele>
        <time>2000-03-06T11:46:00.000+01:00</time>
      </trkpt>
      <trkpt lat="45.3235" lon="5.7628">
        <ele>1842.11</ele>
        <time>2000-03-06T11:46:06.000+01:00</time>
      </trkpt>
      <trkpt lat="45.3235" lon="5.7628">
        <ele>1842.11</ele>
        <time>2000-03-06T11:46:12.000+01:00</time>
      </trkpt>
      <trkpt lat="45.3235" lon="5.7628">
        <ele>1842.11</ele>
        <time>2000-03-06T11:46:18.000+01:00</time>
      </trkpt>
      <trkpt lat="45.3235" lon="5.7628">
        <ele>1842.11</ele>
        <time>2000-03-06T11:46:24.000+01:00</time>
      </trkpt>
      <trkpt lat="45.3235" lon="5.7628">
        <ele>1842.11</ele>
        <time>2000-03-06T11:46:30.000+01:00</time>
      </trkpt>
      <trkpt lat="45.3235" lon="5.7628">
        <ele>1842.11</ele>
        <time>2000-03-06T11:46:36.001+01:00</time>
      </trkpt>
      <trkpt lat="45.32329" lon="5.76238">
        <ele>1839.84</ele>
        <time>2000-03-06T11:46:42.000+01:00</time>
      </trkpt>
      <trkpt lat="45.32329" lon="5.76238">
        <ele>1840.81</ele>
        <time>2000-03-06T11:46:48.001+01:00</time>
      </trkpt>
      <trkpt lat="45.32329" lon="5.76238">
        <ele>1840.81</ele>
        <time>2000-03-06T11:46:54.001+01:00</time>
      </trkpt>
      <trkpt lat="45.32329" lon="5.76238">
        <ele>1840.81</ele>
        <time>2000-03-06T11:47:00.000+01:00</time>
      </trkpt>
      <trkpt lat="45.32326" lon="5.7623">
        <ele>1836.31</ele>
        <time>2000-03-06T11:47:06.000+01:00</time>
      </trkpt>
      <trkpt lat="45.32325" lon="5.76227">
        <ele>1837.1</ele>
        <time>2000-03-06T11:47:12.000+01:00</time>
      </trkpt>
      <trkpt lat="45.32325" lon="5.76227">
        <ele>1837.1</ele>
        <time>2000-03-06T11:47:18.000+01:00</time>
      </trkpt>
      <trkpt lat="45.32315" lon="5.76226">
        <ele>1842.28</ele>
        <time>2000-03-06T11:47:24.000+01:00</time>
      </trkpt>
      <trkpt lat="45.3231" lon="5.76223">
        <ele>1842.86</ele>
        <time>2000-03-06T11:47:29.998+01:00</time>
      </trkpt>
      <trkpt lat="45.32305" lon="5.76221">
        <ele>1846.62</ele>
        <time>2000-03-06T11:47:36.000+01:00</time>
      </trkpt>
      <trkpt lat="45.32303" lon="5.76219">
        <ele>1847.95</ele>
        <time>2000-03-06T11:47:42.000+01:00</time>
      </trkpt>
      <trkpt lat="45.32301" lon="5.76212">
        <ele>1850.26</ele>
        <time>2000-03-06T11:47:48.000+01:00</time>
      </trkpt>
      <trkpt lat="45.323" lon="5.76211">
        <ele>1850.25</ele>
        <time>2000-03-06T11:47:53.999+01:00</time>
      </trkpt>
      <trkpt lat="45.323" lon="5.76211">
        <ele>1850.25</ele>
        <time>2000-03-06T11:48:00.000+01:00</time>
      </trkpt>
      <trkpt lat="45.323" lon="5.76211">
        <ele>1850.25</ele>
        <time>2000-03-06T11:48:06.000+01:00</time>
      </trkpt>
      <trkpt lat="45.323" lon="5.76211">
        <ele>1850.25</ele>
        <time>2000-03-06T11:48:12.001+01:00</time>
      </trkpt>
      <trkpt lat="45.323" lon="5.76211">
        <ele>1850.25</ele>
        <time>2000-03-06T11:48:18.001+01:00</time>
      </trkpt>
      <trkpt lat="45.323" lon="5.76211">
        <ele>1850.25</ele>
        <time>2000-03-06T11:48:24.001+01:00</time>
      </trkpt>
      <trkpt lat="45.323" lon="5.76211">
        <ele>1850.25</ele>
        <time>2000-03-06T11:48:30.001+01:00</time>
      </trkpt>
      <trkpt lat="45.323" lon="5.76211">
        <ele>1850.25</ele>
        <time>2000-03-06T11:48:36.001+01:00</time>
      </trkpt>
      <trkpt lat="45.323" lon="5.76211">
        <ele>1850.25</ele>
        <time>2000-03-06T11:48:42.001+01:00</time>
      </trkpt>
      <trkpt lat="45.323" lon="5.76211">
        <ele>1850.25</ele>
        <time>2000-03-06T11:48:48.001+01:00</time>
      </trkpt>
      <trkpt lat="45.323" lon="5.76211">
        <ele>1850.25</ele>
        <time>2000-03-06T11:48:54.000+01:00</time>
      </trkpt>
      <trkpt lat="45.323" lon="5.76211">
        <ele>1850.25</ele>
        <time>2000-03-06T11:49:00.000+01:00</time>
      </trkpt>
      <trkpt lat="45.323" lon="5.76211">
        <ele>1850.25</ele>
        <time>2000-03-06T11:49:06.001+01:00</time>
      </trkpt>
      <trkpt lat="45.323" lon="5.76211">
        <ele>1850.25</ele>
        <time>2000-03-06T11:49:12.001+01:00</time>
      </trkpt>
      <trkpt lat="45.323" lon="5.76211">
        <ele>1850.25</ele>
        <time>2000-03-06T11:49:18.000+01:00</time>
      </trkpt>
      <trkpt lat="45.323" lon="5.76211">
        <ele>1850.25</ele>
        <time>2000-03-06T11:49:24.001+01:00</time>
      </trkpt>
      <trkpt lat="45.323" lon="5.76197">
        <ele>1837.85</ele>
        <time>2000-03-06T11:49:30.001+01:00</time>
      </trkpt>
      <trkpt lat="45.32284" lon="5.76182">
        <ele>1836.55</ele>
        <time>2000-03-06T11:49:36.001+01:00</time>
      </trkpt>
      <trkpt lat="45.32282" lon="5.76179">
        <ele>1833.14</ele>
        <time>2000-03-06T11:49:42.000+01:00</time>
      </trkpt>
      <trkpt lat="45.32282" lon="5.76179">
        <ele>1833.14</ele>
        <time>2000-03-06T11:49:48.000+01:00</time>
      </trkpt>
      <trkpt lat="45.32282" lon="5.76179">
        <ele>1833.14</ele>
        <time>2000-03-06T11:49:54.001+01:00</time>
      </trkpt>
      <trkpt lat="45.32282" lon="5.76179">
        <ele>1833.14</ele>
        <time>2000-03-06T11:50:00.000+01:00</time>
      </trkpt>
      <trkpt lat="45.32282" lon="5.76179">
        <ele>1833.14</ele>
        <time>2000-03-06T11:50:06.000+01:00</time>
      </trkpt>
      <trkpt lat="45.32282" lon="5.76179">
        <ele>1833.14</ele>
        <time>2000-03-06T11:50:12.000+01:00</time>
      </trkpt>
      <trkpt lat="45.32282" lon="5.76179">
        <ele>1833.14</ele>
        <time>2000-03-06T11:50:18.000+01:00</time>
      </trkpt>
      <trkpt lat="45.32282" lon="5.76179">
        <ele>1833.14</ele>
        <time>2000-03-06T11:50:24.000+01:00</time>
      </trkpt>
      <trkpt lat="45.32282" lon="5.76179">
        <ele>1833.14</ele>
        <time>2000-03-06T11:50:30.000+01:00</time>
      </trkpt>
      <trkpt lat="45.32282" lon="5.76179">
        <ele>1833.14</ele>
        <time>2000-03-06T11:50:36.000+01:00</time>
      </trkpt>
      <trkpt lat="45.32282" lon="5.76179">
        <ele>1833.14</ele>
        <time>2000-03-06T11:50:42.000+01:00</time>
      </trkpt>
      <trkpt lat="45.32282" lon="5.76179">
        <ele>1833.14</ele>
        <time>2000-03-06T11:50:48.000+01:00</time>
      </trkpt>
      <trkpt lat="45.32282" lon="5.76179">
        <ele>1833.14</ele>
        <time>2000-03-06T11:50:54.001+01:00</time>
      </trkpt>
      <trkpt lat="45.32282" lon="5.76179">
        <ele>1833.14</ele>
        <time>2000-03-06T11:51:00.000+01:00</time>
      </trkpt>
      <trkpt lat="45.32282" lon="5.76179">
        <ele>1833.14</ele>
        <time>2000-03-06T11:51:06.000+01:00</time>
      </trkpt>
      <trkpt lat="45.32282" lon="5.76179">
        <ele>1833.14</ele>
        <time>2000-03-06T11:51:12.001+01:00</time>
      </trkpt>
      <trkpt lat="45.32282" lon="5.76179">
        <ele>1833.14</ele>
        <time>2000-03-06T11:51:18.000+01:00</time>
      </trkpt>
      <trkpt lat="45.32282" lon="5.76179">
        <ele>1833.14</ele>
        <time>2000-03-06T11:51:24.000+01:00</time>
      </trkpt>
      <trkpt lat="45.32282" lon="5.76179">
        <ele>1833.14</ele>
        <time>2000-03-06T11:51:30.000+01:00</time>
      </trkpt>
      <trkpt lat="45.32282" lon="5.76179">
        <ele>1833.14</ele>
        <time>2000-03-06T11:51:36.000+01:00</time>
      </trkpt>
      <trkpt lat="45.32282" lon="5.76179">
        <ele>1833.14</ele>
        <time>2000-03-06T11:51:42.001+01:00</time>
      </trkpt>
      <trkpt lat="45.32282" lon="5.76179">
        <ele>1833.14</ele>
        <time>2000-03-06T11:51:48.001+01:00</time>
      </trkpt>
      <trkpt lat="45.32282" lon="5.76179">
        <ele>1833.14</ele>
        <time>2000-03-06T11:51:54.000+01:00</time>
      </trkpt>
      <trkpt lat="45.32282" lon="5.76179">
        <ele>1833.14</ele>
        <time>2000-03-06T11:52:00.000+01:00</time>
      </trkpt>
      <trkpt lat="45.32282" lon="5.76179">
        <ele>1833.14</ele>
        <time>2000-03-06T11:52:06.001+01:00</time>
      </trkpt>
      <trkpt lat="45.32268" lon="5.76176">
        <ele>1842.71</ele>
        <time>2000-03-06T11:52:12.001+01:00</time>
      </trkpt>
      <trkpt lat="45.32261" lon="5.7618">
        <ele>1842.99</ele>
        <time>2000-03-06T11:52:18.001+01:00</time>
      </trkpt>
      <trkpt lat="45.32252" lon="5.76179">
        <ele>1843.34</ele>
        <time>2000-03-06T11:52:24.001+01:00</time>
      </trkpt>
      <trkpt lat="45.32245" lon="5.76175">
        <ele>1844.02</ele>
        <time>2000-03-06T11:52:30.001+01:00</time>
      </trkpt>
      <trkpt lat="45.32235" lon="5.76176">
        <ele>1844.43</ele>
        <time>2000-03-06T11:52:36.001+01:00</time>
      </trkpt>
      <trkpt lat="45.32226" lon="5.76167">
        <ele>1840.62</ele>
        <time>2000-03-06T11:52:42.001+01:00</time>
      </trkpt>
      <trkpt lat="45.32212" lon="5.7615">
        <ele>1838.65</ele>
        <time>2000-03-06T11:52:48.001+01:00</time>
      </trkpt>
      <trkpt lat="45.32193" lon="5.76156">
        <ele>1833.42</ele>
        <time>2000-03-06T11:52:54.001+01:00</time>
      </trkpt>
      <trkpt lat="45.32189" lon="5.76155">
        <ele>1832.31</ele>
        <time>2000-03-06T11:53:00.001+01:00</time>
      </trkpt>
      <trkpt lat="45.32183" lon="5.76158">
        <ele>1832.55</ele>
        <time>2000-03-06T11:53:06.001+01:00</time>
      </trkpt>
      <trkpt lat="45.32169" lon="5.76143">
        <ele>1829.94</ele>
        <time>2000-03-06T11:53:12.001+01:00</time>
      </trkpt>
      <trkpt lat="45.32157" lon="5.76147">
        <ele>1829.94</ele>
        <time>2000-03-06T11:53:18.000+01:00</time>
      </trkpt>
      <trkpt lat="45.32139" lon="5.76149">
        <ele>1827.51</ele>
        <time>2000-03-06T11:53:24.001+01:00</time>
      </trkpt>
      <trkpt lat="45.32132" lon="5.76154">
        <ele>1825.98</ele>
        <time>2000-03-06T11:53:30.000+01:00</time>
      </trkpt>
      <trkpt lat="45.32132" lon="5.76154">
        <ele>1825.98</ele>
        <time>2000-03-06T11:53:36.000+01:00</time>
      </trkpt>
      <trkpt lat="45.32132" lon="5.76154">
        <ele>1825.98</ele>
        <time>2000-03-06T11:53:42.001+01:00</time>
      </trkpt>
      <trkpt lat="45.32132" lon="5.76154">
        <ele>1825.98</ele>
        <time>2000-03-06T11:53:48.000+01:00</time>
      </trkpt>
      <trkpt lat="45.32132" lon="5.76154">
        <ele>1825.98</ele>
        <time>2000-03-06T11:53:54.001+01:00</time>
      </trkpt>
      <trkpt lat="45.32132" lon="5.76154">
        <ele>1825.98</ele>
        <time>2000-03-06T11:54:00.001+01:00</time>
      </trkpt>
      <trkpt lat="45.3213" lon="5.76155">
        <ele>1816.03</ele>
        <time>2000-03-06T11:54:06.001+01:00</time>
      </trkpt>
      <trkpt lat="45.32119" lon="5.76157">
        <ele>1799.1</ele>
        <time>2000-03-06T11:54:12.000+01:00</time>
      </trkpt>
      <trkpt lat="45.32097" lon="5.76152">
        <ele>1780.56</ele>
        <time>2000-03-06T11:54:18.000+01:00</time>
      </trkpt>
      <trkpt lat="45.32088" lon="5.7615">
        <ele>1775.94</ele>
        <time>2000-03-06T11:54:24.001+01:00</time>
      </trkpt>
      <trkpt lat="45.32088" lon="5.7615">
        <ele>1775.94</ele>
        <time>2000-03-06T11:54:30.000+01:00</time>
      </trkpt>
      <trkpt lat="45.32088" lon="5.7615">
        <ele>1775.94</ele>
        <time>2000-03-06T11:54:36.001+01:00</time>
      </trkpt>
      <trkpt lat="45.32081" lon="5.76142">
        <ele>1774.81</ele>
        <time>2000-03-06T11:54:42.001+01:00</time>
      </trkpt>
      <trkpt lat="45.32066" lon="5.76147">
        <ele>1773.53</ele>
        <time>2000-03-06T11:54:48.000+01:00</time>
      </trkpt>
      <trkpt lat="45.32066" lon="5.76144">
        <ele>1772.26</ele>
        <time>2000-03-06T11:54:54.002+01:00</time>
      </trkpt>
      <trkpt lat="45.32066" lon="5.76144">
        <ele>1772.26</ele>
        <time>2000-03-06T11:55:00.001+01:00</time>
      </trkpt>
      <trkpt lat="45.32066" lon="5.76144">
        <ele>1772.26</ele>
        <time>2000-03-06T11:55:06.000+01:00</time>
      </trkpt>
      <trkpt lat="45.32066" lon="5.76144">
        <ele>1772.26</ele>
        <time>2000-03-06T11:55:12.000+01:00</time>
      </trkpt>
      <trkpt lat="45.32062" lon="5.76123">
        <ele>1768.31</ele>
        <time>2000-03-06T11:55:18.000+01:00</time>
      </trkpt>
      <trkpt lat="45.32059" lon="5.76111">
        <ele>1766.64</ele>
        <time>2000-03-06T11:55:24.000+01:00</time>
      </trkpt>
      <trkpt lat="45.32062" lon="5.76096">
        <ele>1764.75</ele>
        <time>2000-03-06T11:55:30.000+01:00</time>
      </trkpt>
      <trkpt lat="45.32063" lon="5.76094">
        <ele>1763.6</ele>
        <time>2000-03-06T11:55:36.000+01:00</time>
      </trkpt>
      <trkpt lat="45.32065" lon="5.76086">
        <ele>1763.07</ele>
        <time>2000-03-06T11:55:42.000+01:00</time>
      </trkpt>
      <trkpt lat="45.32067" lon="5.76084">
        <ele>1763.1</ele>
        <time>2000-03-06T11:55:48.000+01:00</time>
      </trkpt>
      <trkpt lat="45.32065" lon="5.76084">
        <ele>1763.61</ele>
        <time>2000-03-06T11:55:54.001+01:00</time>
      </trkpt>
      <trkpt lat="45.32054" lon="5.7609">
        <ele>1764.49</ele>
        <time>2000-03-06T11:56:00.001+01:00</time>
      </trkpt>
      <trkpt lat="45.32039" lon="5.76081">
        <ele>1764.96</ele>
        <time>2000-03-06T11:56:06.001+01:00</time>
      </trkpt>
      <trkpt lat="45.32038" lon="5.76079">
        <ele>1764.64</ele>
        <time>2000-03-06T11:56:12.000+01:00</time>
      </trkpt>
      <trkpt lat="45.32038" lon="5.76079">
        <ele>1764.64</ele>
        <time>2000-03-06T11:56:18.000+01:00</time>
      </trkpt>
      <trkpt lat="45.3205" lon="5.76062">
        <ele>1765.99</ele>
        <time>2000-03-06T11:56:24.000+01:00</time>
      </trkpt>
      <trkpt lat="45.3206" lon="5.76051">
        <ele>1763.36</ele>
        <time>2000-03-06T11:56:30.000+01:00</time>
      </trkpt>
      <trkpt lat="45.32067" lon="5.76045">
        <ele>1762.83</ele>
        <time>2000-03-06T11:56:36.000+01:00</time>
      </trkpt>
      <trkpt lat="45.32072" lon="5.76042">
        <ele>1759.97</ele>
        <time>2000-03-06T11:56:42.000+01:00</time>
      </trkpt>
      <trkpt lat="45.32078" lon="5.76033">
        <ele>1756.9</ele>
        <time>2000-03-06T11:56:48.000+01:00</time>
      </trkpt>
      <trkpt lat="45.32084" lon="5.76008">
        <ele>1755.68</ele>
        <time>2000-03-06T11:56:54.000+01:00</time>
      </trkpt>
      <trkpt lat="45.32077" lon="5.75999">
        <ele>1752.93</ele>
        <time>2000-03-06T11:57:00.001+01:00</time>
      </trkpt>
      <trkpt lat="45.32065" lon="5.75986">
        <ele>1752.03</ele>
        <time>2000-03-06T11:57:06.001+01:00</time>
      </trkpt>
      <trkpt lat="45.32041" lon="5.75981">
        <ele>1748.03</ele>
        <time>2000-03-06T11:57:12.000+01:00</time>
      </trkpt>
      <trkpt lat="45.32038" lon="5.75978">
        <ele>1747.88</ele>
        <time>2000-03-06T11:57:18.000+01:00</time>
      </trkpt>
      <trkpt lat="45.32038" lon="5.75978">
        <ele>1746.25</ele>
        <time>2000-03-06T11:57:24.000+01:00</time>
      </trkpt>
      <trkpt lat="45.32047" lon="5.75972">
        <ele>1712.65</ele>
        <time>2000-03-06T11:57:30.000+01:00</time>
      </trkpt>
      <trkpt lat="45.32047" lon="5.75972">
        <ele>1712.65</ele>
        <time>2000-03-06T11:57:36.000+01:00</time>
      </trkpt>
      <trkpt lat="45.32047" lon="5.75972">
        <ele>1712.65</ele>
        <time>2000-03-06T11:57:42.002+01:00</time>
      </trkpt>
      <trkpt lat="45.32047" lon="5.75972">
        <ele>1712.65</ele>
        <time>2000-03-06T11:57:48.000+01:00</time>
      </trkpt>
      <trkpt lat="45.32047" lon="5.75972">
        <ele>1712.65</ele>
        <time>2000-03-06T11:57:54.000+01:00</time>
      </trkpt>
      <trkpt lat="45.32047" lon="5.75972">
        <ele>1712.65</ele>
        <time>2000-03-06T11:58:00.000+01:00</time>
      </trkpt>
      <trkpt lat="45.32047" lon="5.75972">
        <ele>1712.65</ele>
        <time>2000-03-06T11:58:06.000+01:00</time>
      </trkpt>
      <trkpt lat="45.32047" lon="5.75972">
        <ele>1712.65</ele>
        <time>2000-03-06T11:58:12.000+01:00</time>
      </trkpt>
      <trkpt lat="45.32047" lon="5.75972">
        <ele>1712.65</ele>
        <time>2000-03-06T11:58:18.000+01:00</time>
      </trkpt>
      <trkpt lat="45.32047" lon="5.75972">
        <ele>1712.65</ele>
        <time>2000-03-06T11:58:24.000+01:00</time>
      </trkpt>
      <trkpt lat="45.32047" lon="5.75972">
        <ele>1712.65</ele>
        <time>2000-03-06T11:58:30.000+01:00</time>
      </trkpt>
      <trkpt lat="45.32047" lon="5.75972">
        <ele>1712.65</ele>
        <time>2000-03-06T11:58:36.000+01:00</time>
      </trkpt>
      <trkpt lat="45.32047" lon="5.75972">
        <ele>1712.65</ele>
        <time>2000-03-06T11:58:42.000+01:00</time>
      </trkpt>
      <trkpt lat="45.32034" lon="5.75963">
        <ele>1708.59</ele>
        <time>2000-03-06T11:58:48.000+01:00</time>
      </trkpt>
      <trkpt lat="45.32018" lon="5.75949">
        <ele>1708.69</ele>
        <time>2000-03-06T11:58:54.000+01:00</time>
      </trkpt>
      <trkpt lat="45.32002" lon="5.75927">
        <ele>1702.02</ele>
        <time>2000-03-06T11:59:00.000+01:00</time>
      </trkpt>
      <trkpt lat="45.31967" lon="5.75894">
        <ele>1691.2</ele>
        <time>2000-03-06T11:59:06.000+01:00</time>
      </trkpt>
      <trkpt lat="45.31942" lon="5.75871">
        <ele>1686.74</ele>
        <time>2000-03-06T11:59:12.000+01:00</time>
      </trkpt>
      <trkpt lat="45.31915" lon="5.75832">
        <ele>1681.67</ele>
        <time>2000-03-06T11:59:18.000+01:00</time>
      </trkpt>
      <trkpt lat="45.31898" lon="5.75789">
        <ele>1679.19</ele>
        <time>2000-03-06T11:59:24.000+01:00</time>
      </trkpt>
      <trkpt lat="45.31885" lon="5.75762">
        <ele>1677.71</ele>
        <time>2000-03-06T11:59:30.000+01:00</time>
      </trkpt>
      <trkpt lat="45.31877" lon="5.75748">
        <ele>1677.46</ele>
        <time>2000-03-06T11:59:36.000+01:00</time>
      </trkpt>
      <trkpt lat="45.31874" lon="5.75743">
        <ele>1677.93</ele>
        <time>2000-03-06T11:59:42.000+01:00</time>
      </trkpt>
      <trkpt lat="45.31872" lon="5.75736">
        <ele>1677.79</ele>
        <time>2000-03-06T11:59:48.000+01:00</time>
      </trkpt>
      <trkpt lat="45.31871" lon="5.75728">
        <ele>1677.11</ele>
        <time>2000-03-06T11:59:54.000+01:00</time>
      </trkpt>
      <trkpt lat="45.31871" lon="5.75727">
        <ele>1676.95</ele>
        <time>2000-03-06T11:59:59.800+01:00</time>
      </trkpt>
      <trkpt lat="45.31871" lon="5.75727">
        <ele>1676.95</ele>
        <time>2000-03-06T12:00:05.000+01:00</time>
      </trkpt>
      <trkpt lat="45.31871" lon="5.75727">
        <ele>1676.95</ele>
        <time>2000-03-06T12:00:11.000+01:00</time>
      </trkpt>
      <trkpt lat="45.31871" lon="5.75727">
        <ele>1676.95</ele>
        <time>2000-03-06T12:00:17.000+01:00</time>
      </trkpt>
      <trkpt lat="45.31873" lon="5.75722">
        <ele>1681.3</ele>
        <time>2000-03-06T12:00:23.000+01:00</time>
      </trkpt>
      <trkpt lat="45.31867" lon="5.75713">
        <ele>1683.14</ele>
        <time>2000-03-06T12:00:29.000+01:00</time>
      </trkpt>
      <trkpt lat="45.31862" lon="5.75696">
        <ele>1684.2</ele>
        <time>2000-03-06T12:00:35.000+01:00</time>
      </trkpt>
      <trkpt lat="45.31858" lon="5.75678">
        <ele>1685.93</ele>
        <time>2000-03-06T12:00:41.000+01:00</time>
      </trkpt>
      <trkpt lat="45.31854" lon="5.75666">
        <ele>1690.25</ele>
        <time>2000-03-06T12:00:47.000+01:00</time>
      </trkpt>
      <trkpt lat="45.31854" lon="5.75658">
        <ele>1687.49</ele>
        <time>2000-03-06T12:00:53.000+01:00</time>
      </trkpt>
      <trkpt lat="45.31853" lon="5.75652">
        <ele>1688.02</ele>
        <time>2000-03-06T12:00:59.000+01:00</time>
      </trkpt>
      <trkpt lat="45.31853" lon="5.75652">
        <ele>1688.02</ele>
        <time>2000-03-06T12:01:05.001+01:00</time>
      </trkpt>
      <trkpt lat="45.31853" lon="5.75652">
        <ele>1688.02</ele>
        <time>2000-03-06T12:01:11.001+01:00</time>
      </trkpt>
      <trkpt lat="45.31853" lon="5.75652">
        <ele>1688.02</ele>
        <time>2000-03-06T12:01:17.000+01:00</time>
      </trkpt>
      <trkpt lat="45.31853" lon="5.75652">
        <ele>1688.02</ele>
        <time>2000-03-06T12:01:23.000+01:00</time>
      </trkpt>
      <trkpt lat="45.31853" lon="5.75652">
        <ele>1688.02</ele>
        <time>2000-03-06T12:01:29.000+01:00</time>
      </trkpt>
      <trkpt lat="45.31852" lon="5.75629">
        <ele>1682.23</ele>
        <time>2000-03-06T12:01:35.001+01:00</time>
      </trkpt>
      <trkpt lat="45.3185" lon="5.75614">
        <ele>1683.03</ele>
        <time>2000-03-06T12:01:40.999+01:00</time>
      </trkpt>
      <trkpt lat="45.31849" lon="5.75613">
        <ele>1682.54</ele>
        <time>2000-03-06T12:01:46.999+01:00</time>
      </trkpt>
      <trkpt lat="45.31849" lon="5.75613">
        <ele>1682.54</ele>
        <time>2000-03-06T12:01:52.999+01:00</time>
      </trkpt>
      <trkpt lat="45.31849" lon="5.75613">
        <ele>1682.54</ele>
        <time>2000-03-06T12:01:58.999+01:00</time>
      </trkpt>
      <trkpt lat="45.31849" lon="5.75613">
        <ele>1682.54</ele>
        <time>2000-03-06T12:02:04.999+01:00</time>
      </trkpt>
      <trkpt lat="45.31849" lon="5.75613">
        <ele>1682.54</ele>
        <time>2000-03-06T12:02:11.000+01:00</time>
      </trkpt>
      <trkpt lat="45.31839" lon="5.7559">
        <ele>1677.74</ele>
        <time>2000-03-06T12:02:17.000+01:00</time>
      </trkpt>
      <trkpt lat="45.31828" lon="5.75581">
        <ele>1677.03</ele>
        <time>2000-03-06T12:02:23.000+01:00</time>
      </trkpt>
      <trkpt lat="45.31821" lon="5.75572">
        <ele>1676.23</ele>
        <time>2000-03-06T12:02:29.000+01:00</time>
      </trkpt>
      <trkpt lat="45.31813" lon="5.75566">
        <ele>1676.7</ele>
        <time>2000-03-06T12:02:35.000+01:00</time>
      </trkpt>
      <trkpt lat="45.31803" lon="5.75569">
        <ele>1676.64</ele>
        <time>2000-03-06T12:02:40.800+01:00</time>
      </trkpt>
      <trkpt lat="45.31802" lon="5.75586">
        <ele>1671.12</ele>
        <time>2000-03-06T12:02:47.000+01:00</time>
      </trkpt>
      <trkpt lat="45.31792" lon="5.75595">
        <ele>1671.88</ele>
        <time>2000-03-06T12:02:53.000+01:00</time>
      </trkpt>
      <trkpt lat="45.31781" lon="5.75601">
        <ele>1670</ele>
        <time>2000-03-06T12:02:59.000+01:00</time>
      </trkpt>
      <trkpt lat="45.3177" lon="5.75602">
        <ele>1668.96</ele>
        <time>2000-03-06T12:03:05.000+01:00</time>
      </trkpt>
      <trkpt lat="45.31768" lon="5.75602">
        <ele>1668.08</ele>
        <time>2000-03-06T12:03:11.000+01:00</time>
      </trkpt>
      <trkpt lat="45.31755" lon="5.75596">
        <ele>1664.37</ele>
        <time>2000-03-06T12:03:16.800+01:00</time>
      </trkpt>
      <trkpt lat="45.31746" lon="5.75585">
        <ele>1664.62</ele>
        <time>2000-03-06T12:03:22.000+01:00</time>
      </trkpt>
      <trkpt lat="45.31737" lon="5.75579">
        <ele>1666.48</ele>
        <time>2000-03-06T12:03:28.000+01:00</time>
      </trkpt>
      <trkpt lat="45.31733" lon="5.75567">
        <ele>1665.93</ele>
        <time>2000-03-06T12:03:34.000+01:00</time>
      </trkpt>
      <trkpt lat="45.31722" lon="5.75558">
        <ele>1664.91</ele>
        <time>2000-03-06T12:03:40.000+01:00</time>
      </trkpt>
      <trkpt lat="45.3172" lon="5.75556">
        <ele>1664.42</ele>
        <time>2000-03-06T12:03:46.000+01:00</time>
      </trkpt>
      <trkpt lat="45.3172" lon="5.75556">
        <ele>1664.42</ele>
        <time>2000-03-06T12:03:52.000+01:00</time>
      </trkpt>
      <trkpt lat="45.31713" lon="5.75547">
        <ele>1663.24</ele>
        <time>2000-03-06T12:03:58.000+01:00</time>
      </trkpt>
      <trkpt lat="45.31708" lon="5.75545">
        <ele>1663.53</ele>
        <time>2000-03-06T12:04:04.001+01:00</time>
      </trkpt>
      <trkpt lat="45.317" lon="5.75539">
        <ele>1661.75</ele>
        <time>2000-03-06T12:04:10.000+01:00</time>
      </trkpt>
      <trkpt lat="45.31699" lon="5.75539">
        <ele>1661.85</ele>
        <time>2000-03-06T12:04:16.000+01:00</time>
      </trkpt>
      <trkpt lat="45.31692" lon="5.75535">
        <ele>1662.64</ele>
        <time>2000-03-06T12:04:22.000+01:00</time>
      </trkpt>
      <trkpt lat="45.3168" lon="5.75525">
        <ele>1662.83</ele>
        <time>2000-03-06T12:04:28.000+01:00</time>
      </trkpt>
      <trkpt lat="45.31667" lon="5.7551">
        <ele>1660.64</ele>
        <time>2000-03-06T12:04:34.000+01:00</time>
      </trkpt>
      <trkpt lat="45.31656" lon="5.75499">
        <ele>1658.38</ele>
        <time>2000-03-06T12:04:40.000+01:00</time>
      </trkpt>
      <trkpt lat="45.31642" lon="5.75481">
        <ele>1656.98</ele>
        <time>2000-03-06T12:04:46.000+01:00</time>
      </trkpt>
      <trkpt lat="45.31627" lon="5.75466">
        <ele>1656.82</ele>
        <time>2000-03-06T12:04:52.000+01:00</time>
      </trkpt>
      <trkpt lat="45.31609" lon="5.75448">
        <ele>1655</ele>
        <time>2000-03-06T12:04:58.000+01:00</time>
      </trkpt>
      <trkpt lat="45.31588" lon="5.75439">
        <ele>1653.31</ele>
        <time>2000-03-06T12:05:04.000+01:00</time>
      </trkpt>
      <trkpt lat="45.31566" lon="5.75433">
        <ele>1653.67</ele>
        <time>2000-03-06T12:05:10.000+01:00</time>
      </trkpt>
      <trkpt lat="45.31547" lon="5.75427">
        <ele>1650.69</ele>
        <time>2000-03-06T12:05:16.000+01:00</time>
      </trkpt>
      <trkpt lat="45.31532" lon="5.75415">
        <ele>1649.99</ele>
        <time>2000-03-06T12:05:22.000+01:00</time>
      </trkpt>
      <trkpt lat="45.31516" lon="5.75399">
        <ele>1646.53</ele>
        <time>2000-03-06T12:05:28.000+01:00</time>
      </trkpt>
      <trkpt lat="45.31501" lon="5.7539">
        <ele>1643.66</ele>
        <time>2000-03-06T12:05:33.800+01:00</time>
      </trkpt>
      <trkpt lat="45.31479" lon="5.75394">
        <ele>1644.13</ele>
        <time>2000-03-06T12:05:39.000+01:00</time>
      </trkpt>
      <trkpt lat="45.31461" lon="5.75394">
        <ele>1639.99</ele>
        <time>2000-03-06T12:05:45.000+01:00</time>
      </trkpt>
      <trkpt lat="45.3145" lon="5.75389">
        <ele>1639.81</ele>
        <time>2000-03-06T12:05:51.000+01:00</time>
      </trkpt>
      <trkpt lat="45.3143" lon="5.75387">
        <ele>1637.62</ele>
        <time>2000-03-06T12:05:57.000+01:00</time>
      </trkpt>
      <trkpt lat="45.31418" lon="5.75385">
        <ele>1636.11</ele>
        <time>2000-03-06T12:06:03.000+01:00</time>
      </trkpt>
      <trkpt lat="45.31405" lon="5.75382">
        <ele>1634.59</ele>
        <time>2000-03-06T12:06:08.999+01:00</time>
      </trkpt>
      <trkpt lat="45.31393" lon="5.75378">
        <ele>1633.08</ele>
        <time>2000-03-06T12:06:15.000+01:00</time>
      </trkpt>
      <trkpt lat="45.31387" lon="5.75376">
        <ele>1631.87</ele>
        <time>2000-03-06T12:06:21.000+01:00</time>
      </trkpt>
      <trkpt lat="45.31387" lon="5.75376">
        <ele>1631.87</ele>
        <time>2000-03-06T12:06:27.000+01:00</time>
      </trkpt>
      <trkpt lat="45.31387" lon="5.75376">
        <ele>1631.87</ele>
        <time>2000-03-06T12:06:33.001+01:00</time>
      </trkpt>
      <trkpt lat="45.31387" lon="5.75376">
        <ele>1631.87</ele>
        <time>2000-03-06T12:06:39.000+01:00</time>
      </trkpt>
      <trkpt lat="45.31387" lon="5.75376">
        <ele>1631.87</ele>
        <time>2000-03-06T12:06:45.001+01:00</time>
      </trkpt>
      <trkpt lat="45.31387" lon="5.75376">
        <ele>1631.87</ele>
        <time>2000-03-06T12:06:51.000+01:00</time>
      </trkpt>
      <trkpt lat="45.31387" lon="5.75376">
        <ele>1631.87</ele>
        <time>2000-03-06T12:06:57.000+01:00</time>
      </trkpt>
      <trkpt lat="45.31387" lon="5.75376">
        <ele>1631.87</ele>
        <time>2000-03-06T12:07:03.000+01:00</time>
      </trkpt>
      <trkpt lat="45.31387" lon="5.75376">
        <ele>1631.87</ele>
        <time>2000-03-06T12:07:09.000+01:00</time>
      </trkpt>
      <trkpt lat="45.31387" lon="5.75376">
        <ele>1631.87</ele>
        <time>2000-03-06T12:07:15.000+01:00</time>
      </trkpt>
      <trkpt lat="45.31387" lon="5.75376">
        <ele>1631.87</ele>
        <time>2000-03-06T12:07:21.000+01:00</time>
      </trkpt>
      <trkpt lat="45.31387" lon="5.75376">
        <ele>1631.87</ele>
        <time>2000-03-06T12:07:27.000+01:00</time>
      </trkpt>
      <trkpt lat="45.31387" lon="5.75376">
        <ele>1631.87</ele>
        <time>2000-03-06T12:07:33.000+01:00</time>
      </trkpt>
      <trkpt lat="45.31387" lon="5.75376">
        <ele>1631.87</ele>
        <time>2000-03-06T12:07:39.000+01:00</time>
      </trkpt>
      <trkpt lat="45.31387" lon="5.75376">
        <ele>1631.87</ele>
        <time>2000-03-06T12:07:45.000+01:00</time>
      </trkpt>
      <trkpt lat="45.31387" lon="5.75376">
        <ele>1631.87</ele>
        <time>2000-03-06T12:07:50.800+01:00</time>
      </trkpt>
      <trkpt lat="45.31387" lon="5.75376">
        <ele>1631.87</ele>
        <time>2000-03-06T12:07:57.000+01:00</time>
      </trkpt>
      <trkpt lat="45.31387" lon="5.75376">
        <ele>1631.87</ele>
        <time>2000-03-06T12:08:03.001+01:00</time>
      </trkpt>
      <trkpt lat="45.31387" lon="5.75376">
        <ele>1631.87</ele>
        <time>2000-03-06T12:08:09.000+01:00</time>
      </trkpt>
      <trkpt lat="45.31387" lon="5.75376">
        <ele>1631.87</ele>
        <time>2000-03-06T12:08:15.000+01:00</time>
      </trkpt>
      <trkpt lat="45.31387" lon="5.75376">
        <ele>1631.87</ele>
        <time>2000-03-06T12:08:21.000+01:00</time>
      </trkpt>
      <trkpt lat="45.31387" lon="5.75376">
        <ele>1631.87</ele>
        <time>2000-03-06T12:08:27.000+01:00</time>
      </trkpt>
      <trkpt lat="45.31387" lon="5.75376">
        <ele>1631.87</ele>
        <time>2000-03-06T12:08:33.000+01:00</time>
      </trkpt>
      <trkpt lat="45.31387" lon="5.75376">
        <ele>1631.87</ele>
        <time>2000-03-06T12:08:39.001+01:00</time>
      </trkpt>
      <trkpt lat="45.31387" lon="5.75376">
        <ele>1631.87</ele>
        <time>2000-03-06T12:08:45.000+01:00</time>
      </trkpt>
      <trkpt lat="45.31387" lon="5.75376">
        <ele>1631.87</ele>
        <time>2000-03-06T12:08:51.001+01:00</time>
      </trkpt>
      <trkpt lat="45.31387" lon="5.75376">
        <ele>1631.87</ele>
        <time>2000-03-06T12:08:57.002+01:00</time>
      </trkpt>
      <trkpt lat="45.31387" lon="5.75376">
        <ele>1631.87</ele>
        <time>2000-03-06T12:09:03.001+01:00</time>
      </trkpt>
      <trkpt lat="45.31387" lon="5.75376">
        <ele>1631.87</ele>
        <time>2000-03-06T12:09:09.001+01:00</time>
      </trkpt>
      <trkpt lat="45.31387" lon="5.75376">
        <ele>1631.87</ele>
        <time>2000-03-06T12:09:15.001+01:00</time>
      </trkpt>
      <trkpt lat="45.31387" lon="5.75376">
        <ele>1631.87</ele>
        <time>2000-03-06T12:09:21.001+01:00</time>
      </trkpt>
      <trkpt lat="45.31387" lon="5.75376">
        <ele>1631.87</ele>
        <time>2000-03-06T12:09:27.001+01:00</time>
      </trkpt>
      <trkpt lat="45.31387" lon="5.75376">
        <ele>1631.87</ele>
        <time>2000-03-06T12:09:33.000+01:00</time>
      </trkpt>
      <trkpt lat="45.31387" lon="5.75376">
        <ele>1631.87</ele>
        <time>2000-03-06T12:09:39.000+01:00</time>
      </trkpt>
      <trkpt lat="45.31387" lon="5.75376">
        <ele>1631.87</ele>
        <time>2000-03-06T12:09:45.000+01:00</time>
      </trkpt>
      <trkpt lat="45.31387" lon="5.75376">
        <ele>1631.87</ele>
        <time>2000-03-06T12:09:51.000+01:00</time>
      </trkpt>
      <trkpt lat="45.31387" lon="5.75376">
        <ele>1631.87</ele>
        <time>2000-03-06T12:09:57.000+01:00</time>
      </trkpt>
      <trkpt lat="45.31387" lon="5.75376">
        <ele>1631.87</ele>
        <time>2000-03-06T12:10:03.000+01:00</time>
      </trkpt>
      <trkpt lat="45.31387" lon="5.75376">
        <ele>1631.87</ele>
        <time>2000-03-06T12:10:09.000+01:00</time>
      </trkpt>
      <trkpt lat="45.31387" lon="5.75376">
        <ele>1631.87</ele>
        <time>2000-03-06T12:10:15.000+01:00</time>
      </trkpt>
      <trkpt lat="45.31387" lon="5.75376">
        <ele>1631.87</ele>
        <time>2000-03-06T12:10:21.000+01:00</time>
      </trkpt>
      <trkpt lat="45.31387" lon="5.75376">
        <ele>1631.87</ele>
        <time>2000-03-06T12:10:27.000+01:00</time>
      </trkpt>
      <trkpt lat="45.31387" lon="5.75376">
        <ele>1631.87</ele>
        <time>2000-03-06T12:10:33.000+01:00</time>
      </trkpt>
      <trkpt lat="45.31387" lon="5.75376">
        <ele>1631.87</ele>
        <time>2000-03-06T12:10:39.000+01:00</time>
      </trkpt>
      <trkpt lat="45.31387" lon="5.75376">
        <ele>1631.87</ele>
        <time>2000-03-06T12:10:45.001+01:00</time>
      </trkpt>
      <trkpt lat="45.31387" lon="5.75376">
        <ele>1631.87</ele>
        <time>2000-03-06T12:10:51.001+01:00</time>
      </trkpt>
      <trkpt lat="45.31387" lon="5.75376">
        <ele>1631.87</ele>
        <time>2000-03-06T12:10:57.000+01:00</time>
      </trkpt>
      <trkpt lat="45.31387" lon="5.75376">
        <ele>1631.87</ele>
        <time>2000-03-06T12:11:03.000+01:00</time>
      </trkpt>
      <trkpt lat="45.31387" lon="5.75376">
        <ele>1631.87</ele>
        <time>2000-03-06T12:11:09.001+01:00</time>
      </trkpt>
      <trkpt lat="45.31387" lon="5.75376">
        <ele>1631.87</ele>
        <time>2000-03-06T12:11:14.998+01:00</time>
      </trkpt>
      <trkpt lat="45.31387" lon="5.75376">
        <ele>1631.87</ele>
        <time>2000-03-06T12:11:21.000+01:00</time>
      </trkpt>
      <trkpt lat="45.31387" lon="5.75376">
        <ele>1631.87</ele>
        <time>2000-03-06T12:11:27.000+01:00</time>
      </trkpt>
      <trkpt lat="45.31387" lon="5.75376">
        <ele>1631.87</ele>
        <time>2000-03-06T12:11:33.001+01:00</time>
      </trkpt>
      <trkpt lat="45.31387" lon="5.75376">
        <ele>1631.87</ele>
        <time>2000-03-06T12:11:39.001+01:00</time>
      </trkpt>
      <trkpt lat="45.31387" lon="5.75376">
        <ele>1631.87</ele>
        <time>2000-03-06T12:11:45.001+01:00</time>
      </trkpt>
      <trkpt lat="45.31387" lon="5.75376">
        <ele>1631.87</ele>
        <time>2000-03-06T12:11:51.001+01:00</time>
      </trkpt>
      <trkpt lat="45.31387" lon="5.75376">
        <ele>1631.87</ele>
        <time>2000-03-06T12:11:57.001+01:00</time>
      </trkpt>
      <trkpt lat="45.31387" lon="5.75376">
        <ele>1631.87</ele>
        <time>2000-03-06T12:12:03.001+01:00</time>
      </trkpt>
      <trkpt lat="45.31387" lon="5.75376">
        <ele>1631.87</ele>
        <time>2000-03-06T12:12:09.000+01:00</time>
      </trkpt>
      <trkpt lat="45.31387" lon="5.75376">
        <ele>1631.87</ele>
        <time>2000-03-06T12:12:15.000+01:00</time>
      </trkpt>
      <trkpt lat="45.31387" lon="5.75376">
        <ele>1631.87</ele>
        <time>2000-03-06T12:12:21.000+01:00</time>
      </trkpt>
      <trkpt lat="45.31387" lon="5.75376">
        <ele>1631.87</ele>
        <time>2000-03-06T12:12:27.000+01:00</time>
      </trkpt>
      <trkpt lat="45.31387" lon="5.75376">
        <ele>1631.87</ele>
        <time>2000-03-06T12:12:33.000+01:00</time>
      </trkpt>
      <trkpt lat="45.31387" lon="5.75376">
        <ele>1631.87</ele>
        <time>2000-03-06T12:12:39.000+01:00</time>
      </trkpt>
      <trkpt lat="45.31387" lon="5.75376">
        <ele>1631.87</ele>
        <time>2000-03-06T12:12:45.000+01:00</time>
      </trkpt>
      <trkpt lat="45.31387" lon="5.75376">
        <ele>1631.87</ele>
        <time>2000-03-06T12:12:51.000+01:00</time>
      </trkpt>
      <trkpt lat="45.31387" lon="5.75376">
        <ele>1631.87</ele>
        <time>2000-03-06T12:12:57.001+01:00</time>
      </trkpt>
      <trkpt lat="45.31387" lon="5.75376">
        <ele>1631.87</ele>
        <time>2000-03-06T12:13:03.001+01:00</time>
      </trkpt>
      <trkpt lat="45.31387" lon="5.75376">
        <ele>1631.87</ele>
        <time>2000-03-06T12:13:09.000+01:00</time>
      </trkpt>
      <trkpt lat="45.31387" lon="5.75376">
        <ele>1631.87</ele>
        <time>2000-03-06T12:13:15.000+01:00</time>
      </trkpt>
      <trkpt lat="45.31387" lon="5.75376">
        <ele>1631.87</ele>
        <time>2000-03-06T12:13:21.001+01:00</time>
      </trkpt>
      <trkpt lat="45.31387" lon="5.75376">
        <ele>1631.87</ele>
        <time>2000-03-06T12:13:27.001+01:00</time>
      </trkpt>
      <trkpt lat="45.31387" lon="5.75376">
        <ele>1631.87</ele>
        <time>2000-03-06T12:13:33.001+01:00</time>
      </trkpt>
      <trkpt lat="45.31387" lon="5.75376">
        <ele>1631.87</ele>
        <time>2000-03-06T12:13:39.000+01:00</time>
      </trkpt>
      <trkpt lat="45.31387" lon="5.75376">
        <ele>1631.87</ele>
        <time>2000-03-06T12:13:45.001+01:00</time>
      </trkpt>
      <trkpt lat="45.31387" lon="5.75376">
        <ele>1631.87</ele>
        <time>2000-03-06T12:13:51.001+01:00</time>
      </trkpt>
      <trkpt lat="45.31387" lon="5.75376">
        <ele>1631.87</ele>
        <time>2000-03-06T12:13:57.001+01:00</time>
      </trkpt>
      <trkpt lat="45.31387" lon="5.75376">
        <ele>1631.87</ele>
        <time>2000-03-06T12:14:03.000+01:00</time>
      </trkpt>
      <trkpt lat="45.31387" lon="5.75376">
        <ele>1631.87</ele>
        <time>2000-03-06T12:14:09.000+01:00</time>
      </trkpt>
      <trkpt lat="45.31387" lon="5.75376">
        <ele>1631.87</ele>
        <time>2000-03-06T12:14:14.999+01:00</time>
      </trkpt>
      <trkpt lat="45.31387" lon="5.75376">
        <ele>1631.87</ele>
        <time>2000-03-06T12:14:21.001+01:00</time>
      </trkpt>
      <trkpt lat="45.31387" lon="5.75376">
        <ele>1631.87</ele>
        <time>2000-03-06T12:14:27.001+01:00</time>
      </trkpt>
      <trkpt lat="45.31387" lon="5.75376">
        <ele>1631.87</ele>
        <time>2000-03-06T12:14:33.001+01:00</time>
      </trkpt>
      <trkpt lat="45.31387" lon="5.75376">
        <ele>1631.87</ele>
        <time>2000-03-06T12:14:39.001+01:00</time>
      </trkpt>
      <trkpt lat="45.31387" lon="5.75376">
        <ele>1631.87</ele>
        <time>2000-03-06T12:14:45.001+01:00</time>
      </trkpt>
      <trkpt lat="45.31387" lon="5.75376">
        <ele>1631.87</ele>
        <time>2000-03-06T12:14:51.001+01:00</time>
      </trkpt>
      <trkpt lat="45.31387" lon="5.75376">
        <ele>1631.87</ele>
        <time>2000-03-06T12:14:57.001+01:00</time>
      </trkpt>
      <trkpt lat="45.31387" lon="5.75376">
        <ele>1631.87</ele>
        <time>2000-03-06T12:15:03.001+01:00</time>
      </trkpt>
      <trkpt lat="45.31387" lon="5.75376">
        <ele>1631.87</ele>
        <time>2000-03-06T12:15:09.001+01:00</time>
      </trkpt>
      <trkpt lat="45.31387" lon="5.75376">
        <ele>1631.87</ele>
        <time>2000-03-06T12:15:15.001+01:00</time>
      </trkpt>
      <trkpt lat="45.31387" lon="5.75376">
        <ele>1631.87</ele>
        <time>2000-03-06T12:15:21.001+01:00</time>
      </trkpt>
      <trkpt lat="45.31387" lon="5.75376">
        <ele>1631.87</ele>
        <time>2000-03-06T12:15:27.001+01:00</time>
      </trkpt>
      <trkpt lat="45.31387" lon="5.75376">
        <ele>1631.87</ele>
        <time>2000-03-06T12:15:33.001+01:00</time>
      </trkpt>
      <trkpt lat="45.31387" lon="5.75376">
        <ele>1631.87</ele>
        <time>2000-03-06T12:15:38.801+01:00</time>
      </trkpt>
      <trkpt lat="45.31387" lon="5.75376">
        <ele>1631.87</ele>
        <time>2000-03-06T12:15:44.000+01:00</time>
      </trkpt>
      <trkpt lat="45.31387" lon="5.75376">
        <ele>1631.87</ele>
        <time>2000-03-06T12:15:50.000+01:00</time>
      </trkpt>
      <trkpt lat="45.31387" lon="5.75376">
        <ele>1631.87</ele>
        <time>2000-03-06T12:15:56.001+01:00</time>
      </trkpt>
      <trkpt lat="45.31387" lon="5.75376">
        <ele>1631.87</ele>
        <time>2000-03-06T12:16:02.001+01:00</time>
      </trkpt>
      <trkpt lat="45.31387" lon="5.75376">
        <ele>1631.87</ele>
        <time>2000-03-06T12:16:08.000+01:00</time>
      </trkpt>
      <trkpt lat="45.31387" lon="5.75376">
        <ele>1631.87</ele>
        <time>2000-03-06T12:16:14.001+01:00</time>
      </trkpt>
      <trkpt lat="45.31387" lon="5.75376">
        <ele>1631.87</ele>
        <time>2000-03-06T12:16:20.001+01:00</time>
      </trkpt>
      <trkpt lat="45.31387" lon="5.75376">
        <ele>1631.87</ele>
        <time>2000-03-06T12:16:26.001+01:00</time>
      </trkpt>
      <trkpt lat="45.31387" lon="5.75376">
        <ele>1631.87</ele>
        <time>2000-03-06T12:16:32.000+01:00</time>
      </trkpt>
      <trkpt lat="45.31387" lon="5.75376">
        <ele>1631.87</ele>
        <time>2000-03-06T12:16:38.001+01:00</time>
      </trkpt>
      <trkpt lat="45.31387" lon="5.75376">
        <ele>1631.87</ele>
        <time>2000-03-06T12:16:44.001+01:00</time>
      </trkpt>
      <trkpt lat="45.31387" lon="5.75376">
        <ele>1631.87</ele>
        <time>2000-03-06T12:16:50.001+01:00</time>
      </trkpt>
      <trkpt lat="45.31387" lon="5.75376">
        <ele>1631.87</ele>
        <time>2000-03-06T12:16:56.001+01:00</time>
      </trkpt>
      <trkpt lat="45.31387" lon="5.75376">
        <ele>1631.87</ele>
        <time>2000-03-06T12:17:02.001+01:00</time>
      </trkpt>
      <trkpt lat="45.31387" lon="5.75376">
        <ele>1631.87</ele>
        <time>2000-03-06T12:17:08.000+01:00</time>
      </trkpt>
      <trkpt lat="45.31387" lon="5.75376">
        <ele>1631.87</ele>
        <time>2000-03-06T12:17:13.998+01:00</time>
      </trkpt>
      <trkpt lat="45.31387" lon="5.75376">
        <ele>1631.87</ele>
        <time>2000-03-06T12:17:19.801+01:00</time>
      </trkpt>
      <trkpt lat="45.31387" lon="5.75376">
        <ele>1631.87</ele>
        <time>2000-03-06T12:17:25.000+01:00</time>
      </trkpt>
      <trkpt lat="45.31387" lon="5.75376">
        <ele>1631.87</ele>
        <time>2000-03-06T12:17:31.000+01:00</time>
      </trkpt>
      <trkpt lat="45.31387" lon="5.75376">
        <ele>1631.87</ele>
        <time>2000-03-06T12:17:37.001+01:00</time>
      </trkpt>
      <trkpt lat="45.31387" lon="5.75376">
        <ele>1631.87</ele>
        <time>2000-03-06T12:17:43.001+01:00</time>
      </trkpt>
      <trkpt lat="45.31387" lon="5.75376">
        <ele>1631.87</ele>
        <time>2000-03-06T12:17:49.001+01:00</time>
      </trkpt>
      <trkpt lat="45.31387" lon="5.75376">
        <ele>1631.87</ele>
        <time>2000-03-06T12:17:55.001+01:00</time>
      </trkpt>
      <trkpt lat="45.31387" lon="5.75376">
        <ele>1631.87</ele>
        <time>2000-03-06T12:18:01.000+01:00</time>
      </trkpt>
      <trkpt lat="45.31387" lon="5.75376">
        <ele>1631.87</ele>
        <time>2000-03-06T12:18:07.001+01:00</time>
      </trkpt>
      <trkpt lat="45.31387" lon="5.75376">
        <ele>1631.87</ele>
        <time>2000-03-06T12:18:13.001+01:00</time>
      </trkpt>
      <trkpt lat="45.31387" lon="5.75376">
        <ele>1631.87</ele>
        <time>2000-03-06T12:18:19.001+01:00</time>
      </trkpt>
      <trkpt lat="45.31368" lon="5.75383">
        <ele>1644.6</ele>
        <time>2000-03-06T12:18:25.001+01:00</time>
      </trkpt>
      <trkpt lat="45.31364" lon="5.75382">
        <ele>1643.45</ele>
        <time>2000-03-06T12:18:31.001+01:00</time>
      </trkpt>
      <trkpt lat="45.3136" lon="5.7538">
        <ele>1641.95</ele>
        <time>2000-03-06T12:18:37.001+01:00</time>
      </trkpt>
      <trkpt lat="45.31354" lon="5.7538">
        <ele>1640.53</ele>
        <time>2000-03-06T12:18:43.001+01:00</time>
      </trkpt>
      <trkpt lat="45.31347" lon="5.7538">
        <ele>1638.11</ele>
        <time>2000-03-06T12:18:49.000+01:00</time>
      </trkpt>
      <trkpt lat="45.31334" lon="5.75383">
        <ele>1638.77</ele>
        <time>2000-03-06T12:18:55.000+01:00</time>
      </trkpt>
      <trkpt lat="45.31328" lon="5.75388">
        <ele>1635.71</ele>
        <time>2000-03-06T12:19:01.000+01:00</time>
      </trkpt>
      <trkpt lat="45.31321" lon="5.75392">
        <ele>1633.11</ele>
        <time>2000-03-06T12:19:07.000+01:00</time>
      </trkpt>
      <trkpt lat="45.31314" lon="5.75395">
        <ele>1633.03</ele>
        <time>2000-03-06T12:19:13.000+01:00</time>
      </trkpt>
      <trkpt lat="45.31309" lon="5.75396">
        <ele>1633.74</ele>
        <time>2000-03-06T12:19:19.000+01:00</time>
      </trkpt>
      <trkpt lat="45.31301" lon="5.75399">
        <ele>1634.92</ele>
        <time>2000-03-06T12:19:25.000+01:00</time>
      </trkpt>
      <trkpt lat="45.31293" lon="5.75402">
        <ele>1635.62</ele>
        <time>2000-03-06T12:19:31.000+01:00</time>
      </trkpt>
      <trkpt lat="45.31285" lon="5.75406">
        <ele>1635.42</ele>
        <time>2000-03-06T12:19:37.000+01:00</time>
      </trkpt>
      <trkpt lat="45.31275" lon="5.7541">
        <ele>1636.44</ele>
        <time>2000-03-06T12:19:43.000+01:00</time>
      </trkpt>
      <trkpt lat="45.31271" lon="5.75411">
        <ele>1636.97</ele>
        <time>2000-03-06T12:19:49.000+01:00</time>
      </trkpt>
      <trkpt lat="45.31262" lon="5.75414">
        <ele>1637.35</ele>
        <time>2000-03-06T12:19:55.000+01:00</time>
      </trkpt>
      <trkpt lat="45.31256" lon="5.75414">
        <ele>1636.04</ele>
        <time>2000-03-06T12:20:01.000+01:00</time>
      </trkpt>
      <trkpt lat="45.31249" lon="5.75419">
        <ele>1636.55</ele>
        <time>2000-03-06T12:20:07.000+01:00</time>
      </trkpt>
      <trkpt lat="45.31243" lon="5.75427">
        <ele>1634.06</ele>
        <time>2000-03-06T12:20:12.998+01:00</time>
      </trkpt>
      <trkpt lat="45.31233" lon="5.75436">
        <ele>1634.78</ele>
        <time>2000-03-06T12:20:19.000+01:00</time>
      </trkpt>
      <trkpt lat="45.31229" lon="5.75444">
        <ele>1631.3</ele>
        <time>2000-03-06T12:20:25.000+01:00</time>
      </trkpt>
      <trkpt lat="45.31227" lon="5.75451">
        <ele>1629.24</ele>
        <time>2000-03-06T12:20:31.000+01:00</time>
      </trkpt>
      <trkpt lat="45.31225" lon="5.75453">
        <ele>1627.7</ele>
        <time>2000-03-06T12:20:37.000+01:00</time>
      </trkpt>
      <trkpt lat="45.31222" lon="5.7546">
        <ele>1622.17</ele>
        <time>2000-03-06T12:20:43.000+01:00</time>
      </trkpt>
      <trkpt lat="45.31214" lon="5.75466">
        <ele>1619.95</ele>
        <time>2000-03-06T12:20:49.000+01:00</time>
      </trkpt>
      <trkpt lat="45.31212" lon="5.75468">
        <ele>1620.28</ele>
        <time>2000-03-06T12:20:55.000+01:00</time>
      </trkpt>
      <trkpt lat="45.31205" lon="5.75472">
        <ele>1619.48</ele>
        <time>2000-03-06T12:21:01.000+01:00</time>
      </trkpt>
      <trkpt lat="45.31197" lon="5.75473">
        <ele>1619.13</ele>
        <time>2000-03-06T12:21:07.000+01:00</time>
      </trkpt>
      <trkpt lat="45.3119" lon="5.75473">
        <ele>1618.89</ele>
        <time>2000-03-06T12:21:13.000+01:00</time>
      </trkpt>
      <trkpt lat="45.31183" lon="5.75472">
        <ele>1619.62</ele>
        <time>2000-03-06T12:21:19.000+01:00</time>
      </trkpt>
      <trkpt lat="45.31176" lon="5.75473">
        <ele>1620.14</ele>
        <time>2000-03-06T12:21:25.000+01:00</time>
      </trkpt>
      <trkpt lat="45.31166" lon="5.75472">
        <ele>1621.89</ele>
        <time>2000-03-06T12:21:31.001+01:00</time>
      </trkpt>
      <trkpt lat="45.31159" lon="5.75472">
        <ele>1621.33</ele>
        <time>2000-03-06T12:21:37.001+01:00</time>
      </trkpt>
      <trkpt lat="45.31145" lon="5.75471">
        <ele>1623.93</ele>
        <time>2000-03-06T12:21:43.001+01:00</time>
      </trkpt>
      <trkpt lat="45.31136" lon="5.7547">
        <ele>1623.53</ele>
        <time>2000-03-06T12:21:49.001+01:00</time>
      </trkpt>
      <trkpt lat="45.31128" lon="5.75467">
        <ele>1623.71</ele>
        <time>2000-03-06T12:21:55.001+01:00</time>
      </trkpt>
      <trkpt lat="45.31124" lon="5.75465">
        <ele>1622.75</ele>
        <time>2000-03-06T12:22:01.000+01:00</time>
      </trkpt>
      <trkpt lat="45.31114" lon="5.75464">
        <ele>1623.22</ele>
        <time>2000-03-06T12:22:07.001+01:00</time>
      </trkpt>
      <trkpt lat="45.31107" lon="5.75462">
        <ele>1623.73</ele>
        <time>2000-03-06T12:22:13.001+01:00</time>
      </trkpt>
      <trkpt lat="45.31106" lon="5.75462">
        <ele>1622.61</ele>
        <time>2000-03-06T12:22:19.001+01:00</time>
      </trkpt>
      <trkpt lat="45.31106" lon="5.75462">
        <ele>1622.61</ele>
        <time>2000-03-06T12:22:25.000+01:00</time>
      </trkpt>
      <trkpt lat="45.31106" lon="5.75462">
        <ele>1622.61</ele>
        <time>2000-03-06T12:22:31.000+01:00</time>
      </trkpt>
      <trkpt lat="45.31106" lon="5.75462">
        <ele>1622.61</ele>
        <time>2000-03-06T12:22:37.000+01:00</time>
      </trkpt>
      <trkpt lat="45.31106" lon="5.75462">
        <ele>1622.61</ele>
        <time>2000-03-06T12:22:43.000+01:00</time>
      </trkpt>
      <trkpt lat="45.31106" lon="5.75462">
        <ele>1622.61</ele>
        <time>2000-03-06T12:22:49.000+01:00</time>
      </trkpt>
      <trkpt lat="45.31095" lon="5.75444">
        <ele>1628.98</ele>
        <time>2000-03-06T12:22:55.000+01:00</time>
      </trkpt>
      <trkpt lat="45.31089" lon="5.75437">
        <ele>1630.08</ele>
        <time>2000-03-06T12:23:01.000+01:00</time>
      </trkpt>
      <trkpt lat="45.31088" lon="5.7543">
        <ele>1628.62</ele>
        <time>2000-03-06T12:23:07.000+01:00</time>
      </trkpt>
      <trkpt lat="45.31085" lon="5.75423">
        <ele>1627.8</ele>
        <time>2000-03-06T12:23:12.998+01:00</time>
      </trkpt>
      <trkpt lat="45.31083" lon="5.75414">
        <ele>1624.58</ele>
        <time>2000-03-06T12:23:19.000+01:00</time>
      </trkpt>
      <trkpt lat="45.31077" lon="5.75406">
        <ele>1622.8</ele>
        <time>2000-03-06T12:23:25.000+01:00</time>
      </trkpt>
      <trkpt lat="45.31072" lon="5.75398">
        <ele>1620.62</ele>
        <time>2000-03-06T12:23:31.000+01:00</time>
      </trkpt>
      <trkpt lat="45.31069" lon="5.75395">
        <ele>1618.67</ele>
        <time>2000-03-06T12:23:37.000+01:00</time>
      </trkpt>
      <trkpt lat="45.31061" lon="5.75389">
        <ele>1619.69</ele>
        <time>2000-03-06T12:23:43.000+01:00</time>
      </trkpt>
      <trkpt lat="45.31052" lon="5.75385">
        <ele>1618.68</ele>
        <time>2000-03-06T12:23:49.000+01:00</time>
      </trkpt>
      <trkpt lat="45.31044" lon="5.7538">
        <ele>1617.34</ele>
        <time>2000-03-06T12:23:55.000+01:00</time>
      </trkpt>
      <trkpt lat="45.31037" lon="5.75378">
        <ele>1617.27</ele>
        <time>2000-03-06T12:24:01.000+01:00</time>
      </trkpt>
      <trkpt lat="45.3103" lon="5.75377">
        <ele>1619.66</ele>
        <time>2000-03-06T12:24:07.001+01:00</time>
      </trkpt>
      <trkpt lat="45.31017" lon="5.75374">
        <ele>1621.78</ele>
        <time>2000-03-06T12:24:13.001+01:00</time>
      </trkpt>
      <trkpt lat="45.31012" lon="5.75368">
        <ele>1624.13</ele>
        <time>2000-03-06T12:24:19.001+01:00</time>
      </trkpt>
      <trkpt lat="45.31007" lon="5.75364">
        <ele>1626.16</ele>
        <time>2000-03-06T12:24:25.001+01:00</time>
      </trkpt>
      <trkpt lat="45.31" lon="5.75359">
        <ele>1625.4</ele>
        <time>2000-03-06T12:24:31.001+01:00</time>
      </trkpt>
      <trkpt lat="45.30995" lon="5.75353">
        <ele>1625.96</ele>
        <time>2000-03-06T12:24:37.001+01:00</time>
      </trkpt>
      <trkpt lat="45.30987" lon="5.75344">
        <ele>1625.9</ele>
        <time>2000-03-06T12:24:43.001+01:00</time>
      </trkpt>
      <trkpt lat="45.30978" lon="5.75334">
        <ele>1625.57</ele>
        <time>2000-03-06T12:24:49.001+01:00</time>
      </trkpt>
      <trkpt lat="45.30968" lon="5.75325">
        <ele>1623.66</ele>
        <time>2000-03-06T12:24:55.000+01:00</time>
      </trkpt>
      <trkpt lat="45.30959" lon="5.75317">
        <ele>1621.69</ele>
        <time>2000-03-06T12:25:01.000+01:00</time>
      </trkpt>
      <trkpt lat="45.30949" lon="5.75308">
        <ele>1619.69</ele>
        <time>2000-03-06T12:25:07.001+01:00</time>
      </trkpt>
      <trkpt lat="45.30942" lon="5.75298">
        <ele>1616.34</ele>
        <time>2000-03-06T12:25:13.001+01:00</time>
      </trkpt>
      <trkpt lat="45.30935" lon="5.75292">
        <ele>1614.84</ele>
        <time>2000-03-06T12:25:19.001+01:00</time>
      </trkpt>
      <trkpt lat="45.30932" lon="5.75289">
        <ele>1615.39</ele>
        <time>2000-03-06T12:25:25.000+01:00</time>
      </trkpt>
      <trkpt lat="45.30924" lon="5.75283">
        <ele>1617.2</ele>
        <time>2000-03-06T12:25:31.000+01:00</time>
      </trkpt>
      <trkpt lat="45.30922" lon="5.75279">
        <ele>1618.03</ele>
        <time>2000-03-06T12:25:37.000+01:00</time>
      </trkpt>
      <trkpt lat="45.30918" lon="5.75274">
        <ele>1633.57</ele>
        <time>2000-03-06T12:25:43.000+01:00</time>
      </trkpt>
      <trkpt lat="45.30918" lon="5.75274">
        <ele>1633.57</ele>
        <time>2000-03-06T12:25:49.000+01:00</time>
      </trkpt>
      <trkpt lat="45.30918" lon="5.75274">
        <ele>1633.57</ele>
        <time>2000-03-06T12:25:55.000+01:00</time>
      </trkpt>
      <trkpt lat="45.30918" lon="5.75274">
        <ele>1633.57</ele>
        <time>2000-03-06T12:26:01.000+01:00</time>
      </trkpt>
      <trkpt lat="45.30918" lon="5.75274">
        <ele>1633.57</ele>
        <time>2000-03-06T12:26:07.000+01:00</time>
      </trkpt>
      <trkpt lat="45.30918" lon="5.75274">
        <ele>1633.57</ele>
        <time>2000-03-06T12:26:13.000+01:00</time>
      </trkpt>
      <trkpt lat="45.30918" lon="5.75274">
        <ele>1633.57</ele>
        <time>2000-03-06T12:26:19.003+01:00</time>
      </trkpt>
      <trkpt lat="45.30893" lon="5.75239">
        <ele>1651.93</ele>
        <time>2000-03-06T12:26:25.000+01:00</time>
      </trkpt>
      <trkpt lat="45.30892" lon="5.75233">
        <ele>1652.26</ele>
        <time>2000-03-06T12:26:31.000+01:00</time>
      </trkpt>
      <trkpt lat="45.3089" lon="5.75221">
        <ele>1650.46</ele>
        <time>2000-03-06T12:26:37.000+01:00</time>
      </trkpt>
      <trkpt lat="45.30889" lon="5.75211">
        <ele>1649.87</ele>
        <time>2000-03-06T12:26:43.000+01:00</time>
      </trkpt>
      <trkpt lat="45.30888" lon="5.75199">
        <ele>1646.63</ele>
        <time>2000-03-06T12:26:49.000+01:00</time>
      </trkpt>
      <trkpt lat="45.30883" lon="5.75188">
        <ele>1643.63</ele>
        <time>2000-03-06T12:26:55.000+01:00</time>
      </trkpt>
      <trkpt lat="45.30879" lon="5.75174">
        <ele>1640.44</ele>
        <time>2000-03-06T12:27:01.000+01:00</time>
      </trkpt>
      <trkpt lat="45.30877" lon="5.75165">
        <ele>1638.6</ele>
        <time>2000-03-06T12:27:07.001+01:00</time>
      </trkpt>
      <trkpt lat="45.30877" lon="5.75165">
        <ele>1638.6</ele>
        <time>2000-03-06T12:27:13.001+01:00</time>
      </trkpt>
      <trkpt lat="45.30877" lon="5.75165">
        <ele>1638.6</ele>
        <time>2000-03-06T12:27:19.001+01:00</time>
      </trkpt>
      <trkpt lat="45.30877" lon="5.75165">
        <ele>1638.6</ele>
        <time>2000-03-06T12:27:25.001+01:00</time>
      </trkpt>
      <trkpt lat="45.30877" lon="5.75165">
        <ele>1638.6</ele>
        <time>2000-03-06T12:27:31.001+01:00</time>
      </trkpt>
      <trkpt lat="45.30871" lon="5.75142">
        <ele>1633.06</ele>
        <time>2000-03-06T12:27:37.001+01:00</time>
      </trkpt>
      <trkpt lat="45.3087" lon="5.75139">
        <ele>1634.2</ele>
        <time>2000-03-06T12:27:43.001+01:00</time>
      </trkpt>
      <trkpt lat="45.3087" lon="5.75139">
        <ele>1634.2</ele>
        <time>2000-03-06T12:27:49.001+01:00</time>
      </trkpt>
      <trkpt lat="45.3087" lon="5.75139">
        <ele>1634.2</ele>
        <time>2000-03-06T12:27:55.001+01:00</time>
      </trkpt>
      <trkpt lat="45.3087" lon="5.75139">
        <ele>1634.2</ele>
        <time>2000-03-06T12:28:01.000+01:00</time>
      </trkpt>
      <trkpt lat="45.3087" lon="5.75139">
        <ele>1634.2</ele>
        <time>2000-03-06T12:28:07.001+01:00</time>
      </trkpt>
      <trkpt lat="45.30862" lon="5.75114">
        <ele>1637.33</ele>
        <time>2000-03-06T12:28:13.001+01:00</time>
      </trkpt>
      <trkpt lat="45.30862" lon="5.75114">
        <ele>1637.33</ele>
        <time>2000-03-06T12:28:19.001+01:00</time>
      </trkpt>
      <trkpt lat="45.30862" lon="5.75114">
        <ele>1637.33</ele>
        <time>2000-03-06T12:28:25.001+01:00</time>
      </trkpt>
      <trkpt lat="45.30862" lon="5.75114">
        <ele>1637.33</ele>
        <time>2000-03-06T12:28:31.001+01:00</time>
      </trkpt>
      <trkpt lat="45.30862" lon="5.75114">
        <ele>1637.33</ele>
        <time>2000-03-06T12:28:37.001+01:00</time>
      </trkpt>
      <trkpt lat="45.30849" lon="5.75089">
        <ele>1638.87</ele>
        <time>2000-03-06T12:28:43.001+01:00</time>
      </trkpt>
      <trkpt lat="45.30848" lon="5.75088">
        <ele>1639.68</ele>
        <time>2000-03-06T12:28:49.001+01:00</time>
      </trkpt>
      <trkpt lat="45.30848" lon="5.75088">
        <ele>1639.68</ele>
        <time>2000-03-06T12:28:55.001+01:00</time>
      </trkpt>
      <trkpt lat="45.30848" lon="5.75088">
        <ele>1639.68</ele>
        <time>2000-03-06T12:29:01.000+01:00</time>
      </trkpt>
      <trkpt lat="45.30848" lon="5.75088">
        <ele>1639.68</ele>
        <time>2000-03-06T12:29:07.001+01:00</time>
      </trkpt>
      <trkpt lat="45.30848" lon="5.75088">
        <ele>1639.68</ele>
        <time>2000-03-06T12:29:13.000+01:00</time>
      </trkpt>
      <trkpt lat="45.30848" lon="5.75088">
        <ele>1639.68</ele>
        <time>2000-03-06T12:29:19.000+01:00</time>
      </trkpt>
      <trkpt lat="45.3083" lon="5.75073">
        <ele>1668.84</ele>
        <time>2000-03-06T12:29:25.001+01:00</time>
      </trkpt>
      <trkpt lat="45.30829" lon="5.75065">
        <ele>1669.36</ele>
        <time>2000-03-06T12:29:31.001+01:00</time>
      </trkpt>
      <trkpt lat="45.30829" lon="5.75065">
        <ele>1669.36</ele>
        <time>2000-03-06T12:29:37.001+01:00</time>
      </trkpt>
      <trkpt lat="45.30829" lon="5.75065">
        <ele>1669.36</ele>
        <time>2000-03-06T12:29:43.001+01:00</time>
      </trkpt>
      <trkpt lat="45.30829" lon="5.75065">
        <ele>1669.36</ele>
        <time>2000-03-06T12:29:49.001+01:00</time>
      </trkpt>
      <trkpt lat="45.30829" lon="5.75065">
        <ele>1669.36</ele>
        <time>2000-03-06T12:29:55.002+01:00</time>
      </trkpt>
      <trkpt lat="45.30829" lon="5.75065">
        <ele>1669.36</ele>
        <time>2000-03-06T12:30:01.000+01:00</time>
      </trkpt>
      <trkpt lat="45.30829" lon="5.75065">
        <ele>1669.36</ele>
        <time>2000-03-06T12:30:07.001+01:00</time>
      </trkpt>
      <trkpt lat="45.30829" lon="5.75065">
        <ele>1669.36</ele>
        <time>2000-03-06T12:30:13.001+01:00</time>
      </trkpt>
      <trkpt lat="45.30829" lon="5.75065">
        <ele>1669.36</ele>
        <time>2000-03-06T12:30:19.001+01:00</time>
      </trkpt>
      <trkpt lat="45.30814" lon="5.75034">
        <ele>1671.64</ele>
        <time>2000-03-06T12:30:25.000+01:00</time>
      </trkpt>
      <trkpt lat="45.30814" lon="5.75034">
        <ele>1671.64</ele>
        <time>2000-03-06T12:30:31.000+01:00</time>
      </trkpt>
      <trkpt lat="45.30814" lon="5.75034">
        <ele>1671.64</ele>
        <time>2000-03-06T12:30:37.001+01:00</time>
      </trkpt>
      <trkpt lat="45.30814" lon="5.75034">
        <ele>1671.64</ele>
        <time>2000-03-06T12:30:43.000+01:00</time>
      </trkpt>
      <trkpt lat="45.30814" lon="5.75034">
        <ele>1671.64</ele>
        <time>2000-03-06T12:30:49.000+01:00</time>
      </trkpt>
      <trkpt lat="45.30814" lon="5.75034">
        <ele>1671.64</ele>
        <time>2000-03-06T12:30:55.001+01:00</time>
      </trkpt>
      <trkpt lat="45.30814" lon="5.75034">
        <ele>1671.64</ele>
        <time>2000-03-06T12:31:01.000+01:00</time>
      </trkpt>
      <trkpt lat="45.30814" lon="5.75034">
        <ele>1671.64</ele>
        <time>2000-03-06T12:31:07.001+01:00</time>
      </trkpt>
      <trkpt lat="45.30814" lon="5.75034">
        <ele>1671.64</ele>
        <time>2000-03-06T12:31:13.000+01:00</time>
      </trkpt>
      <trkpt lat="45.30814" lon="5.75034">
        <ele>1671.64</ele>
        <time>2000-03-06T12:31:19.000+01:00</time>
      </trkpt>
      <trkpt lat="45.30814" lon="5.75034">
        <ele>1671.64</ele>
        <time>2000-03-06T12:31:25.000+01:00</time>
      </trkpt>
      <trkpt lat="45.30798" lon="5.75007">
        <ele>1679.91</ele>
        <time>2000-03-06T12:31:31.001+01:00</time>
      </trkpt>
      <trkpt lat="45.30798" lon="5.75007">
        <ele>1679.91</ele>
        <time>2000-03-06T12:31:37.000+01:00</time>
      </trkpt>
      <trkpt lat="45.308" lon="5.74993">
        <ele>1681.64</ele>
        <time>2000-03-06T12:31:43.000+01:00</time>
      </trkpt>
      <trkpt lat="45.308" lon="5.74994">
        <ele>1682.7</ele>
        <time>2000-03-06T12:31:49.000+01:00</time>
      </trkpt>
      <trkpt lat="45.308" lon="5.74994">
        <ele>1682.7</ele>
        <time>2000-03-06T12:31:55.000+01:00</time>
      </trkpt>
      <trkpt lat="45.30803" lon="5.74978">
        <ele>1687.07</ele>
        <time>2000-03-06T12:32:01.000+01:00</time>
      </trkpt>
      <trkpt lat="45.30802" lon="5.74976">
        <ele>1685.57</ele>
        <time>2000-03-06T12:32:07.000+01:00</time>
      </trkpt>
      <trkpt lat="45.30802" lon="5.74976">
        <ele>1685.57</ele>
        <time>2000-03-06T12:32:13.000+01:00</time>
      </trkpt>
      <trkpt lat="45.30802" lon="5.74976">
        <ele>1685.57</ele>
        <time>2000-03-06T12:32:19.000+01:00</time>
      </trkpt>
      <trkpt lat="45.30802" lon="5.74976">
        <ele>1685.57</ele>
        <time>2000-03-06T12:32:25.000+01:00</time>
      </trkpt>
      <trkpt lat="45.30798" lon="5.7496">
        <ele>1689.53</ele>
        <time>2000-03-06T12:32:31.000+01:00</time>
      </trkpt>
      <trkpt lat="45.30797" lon="5.74957">
        <ele>1688.47</ele>
        <time>2000-03-06T12:32:37.000+01:00</time>
      </trkpt>
      <trkpt lat="45.30797" lon="5.74957">
        <ele>1688.47</ele>
        <time>2000-03-06T12:32:43.000+01:00</time>
      </trkpt>
      <trkpt lat="45.30797" lon="5.74957">
        <ele>1688.47</ele>
        <time>2000-03-06T12:32:49.000+01:00</time>
      </trkpt>
      <trkpt lat="45.3079" lon="5.7494">
        <ele>1687.66</ele>
        <time>2000-03-06T12:32:55.000+01:00</time>
      </trkpt>
      <trkpt lat="45.3079" lon="5.74939">
        <ele>1688.28</ele>
        <time>2000-03-06T12:33:01.000+01:00</time>
      </trkpt>
      <trkpt lat="45.3079" lon="5.74939">
        <ele>1688.28</ele>
        <time>2000-03-06T12:33:07.000+01:00</time>
      </trkpt>
      <trkpt lat="45.3079" lon="5.74939">
        <ele>1688.28</ele>
        <time>2000-03-06T12:33:13.000+01:00</time>
      </trkpt>
      <trkpt lat="45.3079" lon="5.74939">
        <ele>1688.28</ele>
        <time>2000-03-06T12:33:19.000+01:00</time>
      </trkpt>
      <trkpt lat="45.3079" lon="5.74939">
        <ele>1688.28</ele>
        <time>2000-03-06T12:33:25.000+01:00</time>
      </trkpt>
      <trkpt lat="45.30784" lon="5.74922">
        <ele>1697.9</ele>
        <time>2000-03-06T12:33:31.000+01:00</time>
      </trkpt>
      <trkpt lat="45.30776" lon="5.74914">
        <ele>1701.01</ele>
        <time>2000-03-06T12:33:37.000+01:00</time>
      </trkpt>
      <trkpt lat="45.30769" lon="5.74908">
        <ele>1700.69</ele>
        <time>2000-03-06T12:33:43.000+01:00</time>
      </trkpt>
      <trkpt lat="45.30769" lon="5.74908">
        <ele>1700.69</ele>
        <time>2000-03-06T12:33:49.000+01:00</time>
      </trkpt>
      <trkpt lat="45.30769" lon="5.74908">
        <ele>1700.69</ele>
        <time>2000-03-06T12:33:55.000+01:00</time>
      </trkpt>
      <trkpt lat="45.30769" lon="5.74908">
        <ele>1700.69</ele>
        <time>2000-03-06T12:34:01.000+01:00</time>
      </trkpt>
      <trkpt lat="45.30769" lon="5.74908">
        <ele>1700.69</ele>
        <time>2000-03-06T12:34:07.000+01:00</time>
      </trkpt>
      <trkpt lat="45.30769" lon="5.74908">
        <ele>1700.69</ele>
        <time>2000-03-06T12:34:13.000+01:00</time>
      </trkpt>
      <trkpt lat="45.30769" lon="5.74908">
        <ele>1700.69</ele>
        <time>2000-03-06T12:34:19.000+01:00</time>
      </trkpt>
      <trkpt lat="45.30766" lon="5.74878">
        <ele>1710.5</ele>
        <time>2000-03-06T12:34:25.000+01:00</time>
      </trkpt>
      <trkpt lat="45.30763" lon="5.7487">
        <ele>1709.64</ele>
        <time>2000-03-06T12:34:31.000+01:00</time>
      </trkpt>
      <trkpt lat="45.30761" lon="5.74863">
        <ele>1708.01</ele>
        <time>2000-03-06T12:34:37.000+01:00</time>
      </trkpt>
      <trkpt lat="45.30757" lon="5.74857">
        <ele>1707.84</ele>
        <time>2000-03-06T12:34:43.000+01:00</time>
      </trkpt>
      <trkpt lat="45.30754" lon="5.74851">
        <ele>1705.68</ele>
        <time>2000-03-06T12:34:49.000+01:00</time>
      </trkpt>
      <trkpt lat="45.3075" lon="5.74847">
        <ele>1704.96</ele>
        <time>2000-03-06T12:34:55.000+01:00</time>
      </trkpt>
      <trkpt lat="45.30739" lon="5.74837">
        <ele>1705.18</ele>
        <time>2000-03-06T12:35:01.000+01:00</time>
      </trkpt>
      <trkpt lat="45.30729" lon="5.74829">
        <ele>1706.22</ele>
        <time>2000-03-06T12:35:07.000+01:00</time>
      </trkpt>
      <trkpt lat="45.30723" lon="5.7482">
        <ele>1704.81</ele>
        <time>2000-03-06T12:35:13.000+01:00</time>
      </trkpt>
      <trkpt lat="45.30718" lon="5.74814">
        <ele>1703.51</ele>
        <time>2000-03-06T12:35:19.000+01:00</time>
      </trkpt>
      <trkpt lat="45.30712" lon="5.74809">
        <ele>1702.57</ele>
        <time>2000-03-06T12:35:25.000+01:00</time>
      </trkpt>
      <trkpt lat="45.30707" lon="5.74803">
        <ele>1703.19</ele>
        <time>2000-03-06T12:35:31.000+01:00</time>
      </trkpt>
      <trkpt lat="45.30708" lon="5.74804">
        <ele>1703.63</ele>
        <time>2000-03-06T12:35:37.000+01:00</time>
      </trkpt>
      <trkpt lat="45.30708" lon="5.74804">
        <ele>1703.63</ele>
        <time>2000-03-06T12:35:43.000+01:00</time>
      </trkpt>
      <trkpt lat="45.30708" lon="5.74804">
        <ele>1703.63</ele>
        <time>2000-03-06T12:35:49.000+01:00</time>
      </trkpt>
      <trkpt lat="45.30708" lon="5.74804">
        <ele>1703.63</ele>
        <time>2000-03-06T12:35:55.000+01:00</time>
      </trkpt>
      <trkpt lat="45.30708" lon="5.74804">
        <ele>1703.63</ele>
        <time>2000-03-06T12:36:01.000+01:00</time>
      </trkpt>
      <trkpt lat="45.30708" lon="5.74804">
        <ele>1703.63</ele>
        <time>2000-03-06T12:36:07.000+01:00</time>
      </trkpt>
      <trkpt lat="45.30708" lon="5.74804">
        <ele>1703.63</ele>
        <time>2000-03-06T12:36:13.000+01:00</time>
      </trkpt>
      <trkpt lat="45.30708" lon="5.74804">
        <ele>1703.63</ele>
        <time>2000-03-06T12:36:19.000+01:00</time>
      </trkpt>
      <trkpt lat="45.30708" lon="5.74804">
        <ele>1703.63</ele>
        <time>2000-03-06T12:36:25.000+01:00</time>
      </trkpt>
      <trkpt lat="45.30708" lon="5.74786">
        <ele>1697.33</ele>
        <time>2000-03-06T12:36:31.000+01:00</time>
      </trkpt>
      <trkpt lat="45.30708" lon="5.74786">
        <ele>1697.33</ele>
        <time>2000-03-06T12:36:37.000+01:00</time>
      </trkpt>
      <trkpt lat="45.30708" lon="5.74786">
        <ele>1697.33</ele>
        <time>2000-03-06T12:36:43.000+01:00</time>
      </trkpt>
      <trkpt lat="45.30706" lon="5.7478">
        <ele>1701.91</ele>
        <time>2000-03-06T12:36:49.000+01:00</time>
      </trkpt>
      <trkpt lat="45.30706" lon="5.7478">
        <ele>1701.91</ele>
        <time>2000-03-06T12:36:55.000+01:00</time>
      </trkpt>
      <trkpt lat="45.30706" lon="5.7478">
        <ele>1701.91</ele>
        <time>2000-03-06T12:37:01.000+01:00</time>
      </trkpt>
      <trkpt lat="45.30706" lon="5.7478">
        <ele>1701.91</ele>
        <time>2000-03-06T12:37:07.000+01:00</time>
      </trkpt>
      <trkpt lat="45.30706" lon="5.7478">
        <ele>1701.91</ele>
        <time>2000-03-06T12:37:13.000+01:00</time>
      </trkpt>
      <trkpt lat="45.30706" lon="5.7478">
        <ele>1701.91</ele>
        <time>2000-03-06T12:37:19.001+01:00</time>
      </trkpt>
      <trkpt lat="45.30706" lon="5.7478">
        <ele>1701.91</ele>
        <time>2000-03-06T12:37:25.000+01:00</time>
      </trkpt>
      <trkpt lat="45.30706" lon="5.7478">
        <ele>1701.91</ele>
        <time>2000-03-06T12:37:31.000+01:00</time>
      </trkpt>
      <trkpt lat="45.30706" lon="5.7478">
        <ele>1701.91</ele>
        <time>2000-03-06T12:37:37.000+01:00</time>
      </trkpt>
      <trkpt lat="45.30706" lon="5.7478">
        <ele>1701.91</ele>
        <time>2000-03-06T12:37:43.000+01:00</time>
      </trkpt>
      <trkpt lat="45.30706" lon="5.7478">
        <ele>1701.91</ele>
        <time>2000-03-06T12:37:49.000+01:00</time>
      </trkpt>
      <trkpt lat="45.30706" lon="5.7478">
        <ele>1701.91</ele>
        <time>2000-03-06T12:37:55.000+01:00</time>
      </trkpt>
      <trkpt lat="45.30706" lon="5.7478">
        <ele>1701.91</ele>
        <time>2000-03-06T12:38:01.000+01:00</time>
      </trkpt>
      <trkpt lat="45.30706" lon="5.7478">
        <ele>1701.91</ele>
        <time>2000-03-06T12:38:07.000+01:00</time>
      </trkpt>
      <trkpt lat="45.30706" lon="5.7478">
        <ele>1701.91</ele>
        <time>2000-03-06T12:38:13.000+01:00</time>
      </trkpt>
      <trkpt lat="45.30706" lon="5.7478">
        <ele>1701.91</ele>
        <time>2000-03-06T12:38:19.000+01:00</time>
      </trkpt>
      <trkpt lat="45.30706" lon="5.7478">
        <ele>1701.91</ele>
        <time>2000-03-06T12:38:25.001+01:00</time>
      </trkpt>
      <trkpt lat="45.30706" lon="5.7478">
        <ele>1701.91</ele>
        <time>2000-03-06T12:38:31.000+01:00</time>
      </trkpt>
      <trkpt lat="45.30706" lon="5.7478">
        <ele>1701.91</ele>
        <time>2000-03-06T12:38:37.001+01:00</time>
      </trkpt>
      <trkpt lat="45.30706" lon="5.7478">
        <ele>1701.91</ele>
        <time>2000-03-06T12:38:43.000+01:00</time>
      </trkpt>
      <trkpt lat="45.30706" lon="5.7478">
        <ele>1701.91</ele>
        <time>2000-03-06T12:38:49.001+01:00</time>
      </trkpt>
      <trkpt lat="45.30706" lon="5.7478">
        <ele>1701.91</ele>
        <time>2000-03-06T12:38:55.000+01:00</time>
      </trkpt>
      <trkpt lat="45.30706" lon="5.7478">
        <ele>1701.91</ele>
        <time>2000-03-06T12:39:01.000+01:00</time>
      </trkpt>
      <trkpt lat="45.30706" lon="5.7478">
        <ele>1701.91</ele>
        <time>2000-03-06T12:39:06.999+01:00</time>
      </trkpt>
      <trkpt lat="45.30706" lon="5.7478">
        <ele>1701.91</ele>
        <time>2000-03-06T12:39:13.000+01:00</time>
      </trkpt>
      <trkpt lat="45.30706" lon="5.7478">
        <ele>1701.91</ele>
        <time>2000-03-06T12:39:18.999+01:00</time>
      </trkpt>
      <trkpt lat="45.30706" lon="5.7478">
        <ele>1701.91</ele>
        <time>2000-03-06T12:39:24.999+01:00</time>
      </trkpt>
      <trkpt lat="45.30697" lon="5.74766">
        <ele>1697.82</ele>
        <time>2000-03-06T12:39:31.000+01:00</time>
      </trkpt>
      <trkpt lat="45.30697" lon="5.74766">
        <ele>1698.03</ele>
        <time>2000-03-06T12:39:37.000+01:00</time>
      </trkpt>
      <trkpt lat="45.30697" lon="5.74766">
        <ele>1698.03</ele>
        <time>2000-03-06T12:39:43.000+01:00</time>
      </trkpt>
      <trkpt lat="45.30697" lon="5.74766">
        <ele>1698.03</ele>
        <time>2000-03-06T12:39:49.000+01:00</time>
      </trkpt>
      <trkpt lat="45.30697" lon="5.74766">
        <ele>1698.03</ele>
        <time>2000-03-06T12:39:55.000+01:00</time>
      </trkpt>
      <trkpt lat="45.30697" lon="5.74766">
        <ele>1698.03</ele>
        <time>2000-03-06T12:40:01.000+01:00</time>
      </trkpt>
      <trkpt lat="45.30697" lon="5.74766">
        <ele>1698.03</ele>
        <time>2000-03-06T12:40:07.000+01:00</time>
      </trkpt>
      <trkpt lat="45.30697" lon="5.74766">
        <ele>1698.03</ele>
        <time>2000-03-06T12:40:13.000+01:00</time>
      </trkpt>
      <trkpt lat="45.30697" lon="5.74766">
        <ele>1698.03</ele>
        <time>2000-03-06T12:40:19.001+01:00</time>
      </trkpt>
      <trkpt lat="45.30697" lon="5.74766">
        <ele>1698.03</ele>
        <time>2000-03-06T12:40:25.001+01:00</time>
      </trkpt>
      <trkpt lat="45.30697" lon="5.74766">
        <ele>1698.03</ele>
        <time>2000-03-06T12:40:31.001+01:00</time>
      </trkpt>
      <trkpt lat="45.30697" lon="5.74766">
        <ele>1698.03</ele>
        <time>2000-03-06T12:40:37.001+01:00</time>
      </trkpt>
      <trkpt lat="45.30697" lon="5.74766">
        <ele>1698.03</ele>
        <time>2000-03-06T12:40:43.001+01:00</time>
      </trkpt>
      <trkpt lat="45.30697" lon="5.74766">
        <ele>1698.03</ele>
        <time>2000-03-06T12:40:49.001+01:00</time>
      </trkpt>
      <trkpt lat="45.30697" lon="5.74766">
        <ele>1698.03</ele>
        <time>2000-03-06T12:40:55.001+01:00</time>
      </trkpt>
      <trkpt lat="45.30697" lon="5.74766">
        <ele>1698.03</ele>
        <time>2000-03-06T12:41:01.000+01:00</time>
      </trkpt>
      <trkpt lat="45.30697" lon="5.74766">
        <ele>1698.03</ele>
        <time>2000-03-06T12:41:07.001+01:00</time>
      </trkpt>
      <trkpt lat="45.30697" lon="5.74766">
        <ele>1698.03</ele>
        <time>2000-03-06T12:41:13.001+01:00</time>
      </trkpt>
      <trkpt lat="45.30697" lon="5.74766">
        <ele>1698.03</ele>
        <time>2000-03-06T12:41:19.001+01:00</time>
      </trkpt>
      <trkpt lat="45.30697" lon="5.74766">
        <ele>1698.03</ele>
        <time>2000-03-06T12:41:25.001+01:00</time>
      </trkpt>
      <trkpt lat="45.30697" lon="5.74766">
        <ele>1698.03</ele>
        <time>2000-03-06T12:41:31.001+01:00</time>
      </trkpt>
      <trkpt lat="45.30697" lon="5.74766">
        <ele>1698.03</ele>
        <time>2000-03-06T12:41:37.001+01:00</time>
      </trkpt>
      <trkpt lat="45.30697" lon="5.74766">
        <ele>1698.03</ele>
        <time>2000-03-06T12:41:43.002+01:00</time>
      </trkpt>
      <trkpt lat="45.30697" lon="5.74766">
        <ele>1698.03</ele>
        <time>2000-03-06T12:41:49.001+01:00</time>
      </trkpt>
      <trkpt lat="45.30697" lon="5.74766">
        <ele>1698.03</ele>
        <time>2000-03-06T12:41:55.000+01:00</time>
      </trkpt>
      <trkpt lat="45.30697" lon="5.74766">
        <ele>1698.03</ele>
        <time>2000-03-06T12:42:01.000+01:00</time>
      </trkpt>
      <trkpt lat="45.30697" lon="5.74766">
        <ele>1698.03</ele>
        <time>2000-03-06T12:42:07.001+01:00</time>
      </trkpt>
      <trkpt lat="45.30697" lon="5.74766">
        <ele>1698.03</ele>
        <time>2000-03-06T12:42:13.001+01:00</time>
      </trkpt>
      <trkpt lat="45.30697" lon="5.74766">
        <ele>1698.03</ele>
        <time>2000-03-06T12:42:19.001+01:00</time>
      </trkpt>
      <trkpt lat="45.30697" lon="5.74766">
        <ele>1698.03</ele>
        <time>2000-03-06T12:42:25.001+01:00</time>
      </trkpt>
      <trkpt lat="45.30697" lon="5.74766">
        <ele>1698.03</ele>
        <time>2000-03-06T12:42:31.001+01:00</time>
      </trkpt>
      <trkpt lat="45.30697" lon="5.74766">
        <ele>1698.03</ele>
        <time>2000-03-06T12:42:37.000+01:00</time>
      </trkpt>
      <trkpt lat="45.30697" lon="5.74766">
        <ele>1698.03</ele>
        <time>2000-03-06T12:42:43.000+01:00</time>
      </trkpt>
      <trkpt lat="45.30697" lon="5.74766">
        <ele>1698.03</ele>
        <time>2000-03-06T12:42:49.000+01:00</time>
      </trkpt>
      <trkpt lat="45.30697" lon="5.74766">
        <ele>1698.03</ele>
        <time>2000-03-06T12:42:55.000+01:00</time>
      </trkpt>
      <trkpt lat="45.30697" lon="5.74766">
        <ele>1698.03</ele>
        <time>2000-03-06T12:43:01.000+01:00</time>
      </trkpt>
      <trkpt lat="45.30697" lon="5.74766">
        <ele>1698.03</ele>
        <time>2000-03-06T12:43:07.000+01:00</time>
      </trkpt>
      <trkpt lat="45.30697" lon="5.74766">
        <ele>1698.03</ele>
        <time>2000-03-06T12:43:13.000+01:00</time>
      </trkpt>
      <trkpt lat="45.30697" lon="5.74766">
        <ele>1698.03</ele>
        <time>2000-03-06T12:43:19.000+01:00</time>
      </trkpt>
      <trkpt lat="45.30697" lon="5.74766">
        <ele>1698.03</ele>
        <time>2000-03-06T12:43:25.000+01:00</time>
      </trkpt>
      <trkpt lat="45.30697" lon="5.74766">
        <ele>1698.03</ele>
        <time>2000-03-06T12:43:31.000+01:00</time>
      </trkpt>
      <trkpt lat="45.30697" lon="5.74766">
        <ele>1698.03</ele>
        <time>2000-03-06T12:43:37.000+01:00</time>
      </trkpt>
      <trkpt lat="45.30697" lon="5.74766">
        <ele>1698.03</ele>
        <time>2000-03-06T12:43:43.000+01:00</time>
      </trkpt>
      <trkpt lat="45.30697" lon="5.74766">
        <ele>1698.03</ele>
        <time>2000-03-06T12:43:49.000+01:00</time>
      </trkpt>
      <trkpt lat="45.30697" lon="5.74766">
        <ele>1698.03</ele>
        <time>2000-03-06T12:43:55.001+01:00</time>
      </trkpt>
      <trkpt lat="45.30697" lon="5.74766">
        <ele>1698.03</ele>
        <time>2000-03-06T12:44:01.000+01:00</time>
      </trkpt>
      <trkpt lat="45.30697" lon="5.74766">
        <ele>1698.03</ele>
        <time>2000-03-06T12:44:07.001+01:00</time>
      </trkpt>
      <trkpt lat="45.30697" lon="5.74766">
        <ele>1698.03</ele>
        <time>2000-03-06T12:44:13.001+01:00</time>
      </trkpt>
      <trkpt lat="45.30697" lon="5.74766">
        <ele>1698.03</ele>
        <time>2000-03-06T12:44:19.001+01:00</time>
      </trkpt>
      <trkpt lat="45.30697" lon="5.74766">
        <ele>1698.03</ele>
        <time>2000-03-06T12:44:25.000+01:00</time>
      </trkpt>
      <trkpt lat="45.30697" lon="5.74766">
        <ele>1698.03</ele>
        <time>2000-03-06T12:44:31.001+01:00</time>
      </trkpt>
      <trkpt lat="45.30697" lon="5.74766">
        <ele>1698.03</ele>
        <time>2000-03-06T12:44:37.001+01:00</time>
      </trkpt>
      <trkpt lat="45.30697" lon="5.74766">
        <ele>1698.03</ele>
        <time>2000-03-06T12:44:43.001+01:00</time>
      </trkpt>
      <trkpt lat="45.30697" lon="5.74766">
        <ele>1698.03</ele>
        <time>2000-03-06T12:44:49.001+01:00</time>
      </trkpt>
      <trkpt lat="45.30697" lon="5.74766">
        <ele>1698.03</ele>
        <time>2000-03-06T12:44:55.000+01:00</time>
      </trkpt>
      <trkpt lat="45.30697" lon="5.74766">
        <ele>1698.03</ele>
        <time>2000-03-06T12:45:01.000+01:00</time>
      </trkpt>
      <trkpt lat="45.30697" lon="5.74766">
        <ele>1698.03</ele>
        <time>2000-03-06T12:45:07.000+01:00</time>
      </trkpt>
      <trkpt lat="45.30697" lon="5.74766">
        <ele>1698.03</ele>
        <time>2000-03-06T12:45:13.000+01:00</time>
      </trkpt>
      <trkpt lat="45.30697" lon="5.74766">
        <ele>1698.03</ele>
        <time>2000-03-06T12:45:19.000+01:00</time>
      </trkpt>
      <trkpt lat="45.30697" lon="5.74766">
        <ele>1698.03</ele>
        <time>2000-03-06T12:45:25.001+01:00</time>
      </trkpt>
      <trkpt lat="45.30697" lon="5.74766">
        <ele>1698.03</ele>
        <time>2000-03-06T12:45:31.001+01:00</time>
      </trkpt>
      <trkpt lat="45.30697" lon="5.74766">
        <ele>1698.03</ele>
        <time>2000-03-06T12:45:37.001+01:00</time>
      </trkpt>
      <trkpt lat="45.30697" lon="5.74766">
        <ele>1698.03</ele>
        <time>2000-03-06T12:45:43.001+01:00</time>
      </trkpt>
      <trkpt lat="45.30697" lon="5.74766">
        <ele>1698.03</ele>
        <time>2000-03-06T12:45:49.001+01:00</time>
      </trkpt>
      <trkpt lat="45.30697" lon="5.74766">
        <ele>1698.03</ele>
        <time>2000-03-06T12:45:55.001+01:00</time>
      </trkpt>
      <trkpt lat="45.30697" lon="5.74766">
        <ele>1698.03</ele>
        <time>2000-03-06T12:46:01.000+01:00</time>
      </trkpt>
      <trkpt lat="45.30697" lon="5.74766">
        <ele>1698.03</ele>
        <time>2000-03-06T12:46:07.001+01:00</time>
      </trkpt>
      <trkpt lat="45.30697" lon="5.74766">
        <ele>1698.03</ele>
        <time>2000-03-06T12:46:13.000+01:00</time>
      </trkpt>
      <trkpt lat="45.30697" lon="5.74766">
        <ele>1698.03</ele>
        <time>2000-03-06T12:46:19.000+01:00</time>
      </trkpt>
      <trkpt lat="45.30697" lon="5.74766">
        <ele>1698.03</ele>
        <time>2000-03-06T12:46:25.000+01:00</time>
      </trkpt>
      <trkpt lat="45.30697" lon="5.74766">
        <ele>1698.03</ele>
        <time>2000-03-06T12:46:31.000+01:00</time>
      </trkpt>
      <trkpt lat="45.30697" lon="5.74766">
        <ele>1698.03</ele>
        <time>2000-03-06T12:46:37.001+01:00</time>
      </trkpt>
      <trkpt lat="45.30697" lon="5.74766">
        <ele>1698.03</ele>
        <time>2000-03-06T12:46:43.001+01:00</time>
      </trkpt>
      <trkpt lat="45.30697" lon="5.74766">
        <ele>1698.03</ele>
        <time>2000-03-06T12:46:49.001+01:00</time>
      </trkpt>
      <trkpt lat="45.30697" lon="5.74766">
        <ele>1698.03</ele>
        <time>2000-03-06T12:46:55.001+01:00</time>
      </trkpt>
      <trkpt lat="45.30697" lon="5.74766">
        <ele>1698.03</ele>
        <time>2000-03-06T12:47:01.000+01:00</time>
      </trkpt>
      <trkpt lat="45.30697" lon="5.74766">
        <ele>1698.03</ele>
        <time>2000-03-06T12:47:07.001+01:00</time>
      </trkpt>
      <trkpt lat="45.30697" lon="5.74766">
        <ele>1698.03</ele>
        <time>2000-03-06T12:47:13.000+01:00</time>
      </trkpt>
      <trkpt lat="45.30697" lon="5.74766">
        <ele>1698.03</ele>
        <time>2000-03-06T12:47:19.001+01:00</time>
      </trkpt>
      <trkpt lat="45.30697" lon="5.74766">
        <ele>1698.03</ele>
        <time>2000-03-06T12:47:25.001+01:00</time>
      </trkpt>
      <trkpt lat="45.30697" lon="5.74766">
        <ele>1698.03</ele>
        <time>2000-03-06T12:47:31.001+01:00</time>
      </trkpt>
      <trkpt lat="45.30697" lon="5.74766">
        <ele>1698.03</ele>
        <time>2000-03-06T12:47:37.001+01:00</time>
      </trkpt>
      <trkpt lat="45.30697" lon="5.74766">
        <ele>1698.03</ele>
        <time>2000-03-06T12:47:43.001+01:00</time>
      </trkpt>
      <trkpt lat="45.30697" lon="5.74766">
        <ele>1698.03</ele>
        <time>2000-03-06T12:47:49.001+01:00</time>
      </trkpt>
      <trkpt lat="45.30697" lon="5.74766">
        <ele>1698.03</ele>
        <time>2000-03-06T12:47:55.001+01:00</time>
      </trkpt>
      <trkpt lat="45.30697" lon="5.74766">
        <ele>1698.03</ele>
        <time>2000-03-06T12:48:01.000+01:00</time>
      </trkpt>
      <trkpt lat="45.30697" lon="5.74766">
        <ele>1698.03</ele>
        <time>2000-03-06T12:48:07.001+01:00</time>
      </trkpt>
      <trkpt lat="45.30697" lon="5.74766">
        <ele>1698.03</ele>
        <time>2000-03-06T12:48:13.001+01:00</time>
      </trkpt>
      <trkpt lat="45.30697" lon="5.74766">
        <ele>1698.03</ele>
        <time>2000-03-06T12:48:19.001+01:00</time>
      </trkpt>
      <trkpt lat="45.30697" lon="5.74766">
        <ele>1698.03</ele>
        <time>2000-03-06T12:48:25.001+01:00</time>
      </trkpt>
      <trkpt lat="45.30697" lon="5.74766">
        <ele>1698.03</ele>
        <time>2000-03-06T12:48:31.001+01:00</time>
      </trkpt>
      <trkpt lat="45.30697" lon="5.74766">
        <ele>1698.03</ele>
        <time>2000-03-06T12:48:37.001+01:00</time>
      </trkpt>
      <trkpt lat="45.30697" lon="5.74766">
        <ele>1698.03</ele>
        <time>2000-03-06T12:48:43.000+01:00</time>
      </trkpt>
      <trkpt lat="45.30697" lon="5.74766">
        <ele>1698.03</ele>
        <time>2000-03-06T12:48:49.001+01:00</time>
      </trkpt>
      <trkpt lat="45.30697" lon="5.74766">
        <ele>1698.03</ele>
        <time>2000-03-06T12:48:55.001+01:00</time>
      </trkpt>
      <trkpt lat="45.30697" lon="5.74766">
        <ele>1698.03</ele>
        <time>2000-03-06T12:49:01.000+01:00</time>
      </trkpt>
      <trkpt lat="45.30697" lon="5.74766">
        <ele>1698.03</ele>
        <time>2000-03-06T12:49:07.001+01:00</time>
      </trkpt>
      <trkpt lat="45.30697" lon="5.74766">
        <ele>1698.03</ele>
        <time>2000-03-06T12:49:13.001+01:00</time>
      </trkpt>
      <trkpt lat="45.30697" lon="5.74766">
        <ele>1698.03</ele>
        <time>2000-03-06T12:49:19.001+01:00</time>
      </trkpt>
      <trkpt lat="45.30697" lon="5.74766">
        <ele>1698.03</ele>
        <time>2000-03-06T12:49:25.001+01:00</time>
      </trkpt>
      <trkpt lat="45.30697" lon="5.74766">
        <ele>1698.03</ele>
        <time>2000-03-06T12:49:31.001+01:00</time>
      </trkpt>
      <trkpt lat="45.30697" lon="5.74766">
        <ele>1698.03</ele>
        <time>2000-03-06T12:49:37.000+01:00</time>
      </trkpt>
      <trkpt lat="45.30697" lon="5.74766">
        <ele>1698.03</ele>
        <time>2000-03-06T12:49:43.000+01:00</time>
      </trkpt>
      <trkpt lat="45.30697" lon="5.74766">
        <ele>1698.03</ele>
        <time>2000-03-06T12:49:49.000+01:00</time>
      </trkpt>
      <trkpt lat="45.30697" lon="5.74766">
        <ele>1698.03</ele>
        <time>2000-03-06T12:49:55.000+01:00</time>
      </trkpt>
      <trkpt lat="45.30697" lon="5.74766">
        <ele>1698.03</ele>
        <time>2000-03-06T12:50:01.000+01:00</time>
      </trkpt>
      <trkpt lat="45.30697" lon="5.74766">
        <ele>1698.03</ele>
        <time>2000-03-06T12:50:07.000+01:00</time>
      </trkpt>
      <trkpt lat="45.30697" lon="5.74766">
        <ele>1698.03</ele>
        <time>2000-03-06T12:50:13.000+01:00</time>
      </trkpt>
      <trkpt lat="45.30697" lon="5.74766">
        <ele>1698.03</ele>
        <time>2000-03-06T12:50:19.001+01:00</time>
      </trkpt>
      <trkpt lat="45.30697" lon="5.74766">
        <ele>1698.03</ele>
        <time>2000-03-06T12:50:25.001+01:00</time>
      </trkpt>
      <trkpt lat="45.30697" lon="5.74766">
        <ele>1698.03</ele>
        <time>2000-03-06T12:50:31.001+01:00</time>
      </trkpt>
      <trkpt lat="45.30697" lon="5.74766">
        <ele>1698.03</ele>
        <time>2000-03-06T12:50:37.001+01:00</time>
      </trkpt>
      <trkpt lat="45.30697" lon="5.74766">
        <ele>1698.03</ele>
        <time>2000-03-06T12:50:43.001+01:00</time>
      </trkpt>
      <trkpt lat="45.30697" lon="5.74766">
        <ele>1698.03</ele>
        <time>2000-03-06T12:50:49.001+01:00</time>
      </trkpt>
      <trkpt lat="45.30697" lon="5.74766">
        <ele>1698.03</ele>
        <time>2000-03-06T12:50:55.001+01:00</time>
      </trkpt>
      <trkpt lat="45.30697" lon="5.74766">
        <ele>1698.03</ele>
        <time>2000-03-06T12:51:01.000+01:00</time>
      </trkpt>
      <trkpt lat="45.30697" lon="5.74766">
        <ele>1698.03</ele>
        <time>2000-03-06T12:51:07.001+01:00</time>
      </trkpt>
      <trkpt lat="45.30697" lon="5.74766">
        <ele>1698.03</ele>
        <time>2000-03-06T12:51:13.001+01:00</time>
      </trkpt>
      <trkpt lat="45.30697" lon="5.74766">
        <ele>1698.03</ele>
        <time>2000-03-06T12:51:19.001+01:00</time>
      </trkpt>
      <trkpt lat="45.30697" lon="5.74766">
        <ele>1698.03</ele>
        <time>2000-03-06T12:51:25.001+01:00</time>
      </trkpt>
      <trkpt lat="45.30697" lon="5.74766">
        <ele>1698.03</ele>
        <time>2000-03-06T12:51:31.001+01:00</time>
      </trkpt>
      <trkpt lat="45.30697" lon="5.74766">
        <ele>1698.03</ele>
        <time>2000-03-06T12:51:37.001+01:00</time>
      </trkpt>
      <trkpt lat="45.30697" lon="5.74766">
        <ele>1698.03</ele>
        <time>2000-03-06T12:51:43.001+01:00</time>
      </trkpt>
      <trkpt lat="45.30697" lon="5.74766">
        <ele>1698.03</ele>
        <time>2000-03-06T12:51:49.000+01:00</time>
      </trkpt>
      <trkpt lat="45.30697" lon="5.74766">
        <ele>1698.03</ele>
        <time>2000-03-06T12:51:55.001+01:00</time>
      </trkpt>
      <trkpt lat="45.30697" lon="5.74766">
        <ele>1698.03</ele>
        <time>2000-03-06T12:52:01.000+01:00</time>
      </trkpt>
      <trkpt lat="45.30697" lon="5.74766">
        <ele>1698.03</ele>
        <time>2000-03-06T12:52:07.001+01:00</time>
      </trkpt>
      <trkpt lat="45.30697" lon="5.74766">
        <ele>1698.03</ele>
        <time>2000-03-06T12:52:13.001+01:00</time>
      </trkpt>
      <trkpt lat="45.30697" lon="5.74766">
        <ele>1698.03</ele>
        <time>2000-03-06T12:52:19.001+01:00</time>
      </trkpt>
      <trkpt lat="45.30697" lon="5.74766">
        <ele>1698.03</ele>
        <time>2000-03-06T12:52:25.001+01:00</time>
      </trkpt>
      <trkpt lat="45.30697" lon="5.74766">
        <ele>1698.03</ele>
        <time>2000-03-06T12:52:31.001+01:00</time>
      </trkpt>
      <trkpt lat="45.30697" lon="5.74766">
        <ele>1698.03</ele>
        <time>2000-03-06T12:52:37.000+01:00</time>
      </trkpt>
      <trkpt lat="45.30697" lon="5.74766">
        <ele>1698.03</ele>
        <time>2000-03-06T12:52:43.000+01:00</time>
      </trkpt>
      <trkpt lat="45.30697" lon="5.74766">
        <ele>1698.03</ele>
        <time>2000-03-06T12:52:49.000+01:00</time>
      </trkpt>
      <trkpt lat="45.30697" lon="5.74766">
        <ele>1698.03</ele>
        <time>2000-03-06T12:52:55.000+01:00</time>
      </trkpt>
      <trkpt lat="45.30697" lon="5.74766">
        <ele>1698.03</ele>
        <time>2000-03-06T12:53:01.000+01:00</time>
      </trkpt>
      <trkpt lat="45.30697" lon="5.74766">
        <ele>1698.03</ele>
        <time>2000-03-06T12:53:07.000+01:00</time>
      </trkpt>
      <trkpt lat="45.30697" lon="5.74766">
        <ele>1698.03</ele>
        <time>2000-03-06T12:53:13.000+01:00</time>
      </trkpt>
      <trkpt lat="45.30697" lon="5.74766">
        <ele>1698.03</ele>
        <time>2000-03-06T12:53:19.000+01:00</time>
      </trkpt>
      <trkpt lat="45.30697" lon="5.74766">
        <ele>1698.03</ele>
        <time>2000-03-06T12:53:25.001+01:00</time>
      </trkpt>
      <trkpt lat="45.30697" lon="5.74766">
        <ele>1698.03</ele>
        <time>2000-03-06T12:53:31.000+01:00</time>
      </trkpt>
      <trkpt lat="45.30697" lon="5.74766">
        <ele>1698.03</ele>
        <time>2000-03-06T12:53:37.000+01:00</time>
      </trkpt>
      <trkpt lat="45.30697" lon="5.74766">
        <ele>1698.03</ele>
        <time>2000-03-06T12:53:43.000+01:00</time>
      </trkpt>
      <trkpt lat="45.30697" lon="5.74766">
        <ele>1698.03</ele>
        <time>2000-03-06T12:53:49.000+01:00</time>
      </trkpt>
      <trkpt lat="45.30697" lon="5.74766">
        <ele>1698.03</ele>
        <time>2000-03-06T12:53:55.000+01:00</time>
      </trkpt>
      <trkpt lat="45.30697" lon="5.74766">
        <ele>1698.03</ele>
        <time>2000-03-06T12:54:01.000+01:00</time>
      </trkpt>
      <trkpt lat="45.30697" lon="5.74766">
        <ele>1698.03</ele>
        <time>2000-03-06T12:54:07.000+01:00</time>
      </trkpt>
      <trkpt lat="45.30697" lon="5.74766">
        <ele>1698.03</ele>
        <time>2000-03-06T12:54:13.000+01:00</time>
      </trkpt>
      <trkpt lat="45.30697" lon="5.74766">
        <ele>1698.03</ele>
        <time>2000-03-06T12:54:19.000+01:00</time>
      </trkpt>
      <trkpt lat="45.30697" lon="5.74766">
        <ele>1698.03</ele>
        <time>2000-03-06T12:54:25.000+01:00</time>
      </trkpt>
      <trkpt lat="45.30697" lon="5.74766">
        <ele>1698.03</ele>
        <time>2000-03-06T12:54:31.000+01:00</time>
      </trkpt>
      <trkpt lat="45.30697" lon="5.74766">
        <ele>1698.03</ele>
        <time>2000-03-06T12:54:37.000+01:00</time>
      </trkpt>
      <trkpt lat="45.30697" lon="5.74766">
        <ele>1698.03</ele>
        <time>2000-03-06T12:54:43.000+01:00</time>
      </trkpt>
      <trkpt lat="45.30697" lon="5.74766">
        <ele>1698.03</ele>
        <time>2000-03-06T12:54:49.000+01:00</time>
      </trkpt>
      <trkpt lat="45.30697" lon="5.74766">
        <ele>1698.03</ele>
        <time>2000-03-06T12:54:55.000+01:00</time>
      </trkpt>
      <trkpt lat="45.30697" lon="5.74766">
        <ele>1698.03</ele>
        <time>2000-03-06T12:55:01.000+01:00</time>
      </trkpt>
      <trkpt lat="45.30697" lon="5.74766">
        <ele>1698.03</ele>
        <time>2000-03-06T12:55:07.000+01:00</time>
      </trkpt>
      <trkpt lat="45.30697" lon="5.74766">
        <ele>1698.03</ele>
        <time>2000-03-06T12:55:13.000+01:00</time>
      </trkpt>
      <trkpt lat="45.30697" lon="5.74766">
        <ele>1698.03</ele>
        <time>2000-03-06T12:55:19.000+01:00</time>
      </trkpt>
      <trkpt lat="45.30697" lon="5.74766">
        <ele>1698.03</ele>
        <time>2000-03-06T12:55:25.000+01:00</time>
      </trkpt>
      <trkpt lat="45.30697" lon="5.74766">
        <ele>1698.03</ele>
        <time>2000-03-06T12:55:31.000+01:00</time>
      </trkpt>
      <trkpt lat="45.30697" lon="5.74766">
        <ele>1698.03</ele>
        <time>2000-03-06T12:55:37.000+01:00</time>
      </trkpt>
      <trkpt lat="45.30697" lon="5.74766">
        <ele>1698.03</ele>
        <time>2000-03-06T12:55:43.000+01:00</time>
      </trkpt>
      <trkpt lat="45.30697" lon="5.74766">
        <ele>1698.03</ele>
        <time>2000-03-06T12:55:49.000+01:00</time>
      </trkpt>
      <trkpt lat="45.30697" lon="5.74766">
        <ele>1698.03</ele>
        <time>2000-03-06T12:55:55.000+01:00</time>
      </trkpt>
      <trkpt lat="45.30697" lon="5.74766">
        <ele>1698.03</ele>
        <time>2000-03-06T12:56:01.000+01:00</time>
      </trkpt>
      <trkpt lat="45.30697" lon="5.74766">
        <ele>1698.03</ele>
        <time>2000-03-06T12:56:07.000+01:00</time>
      </trkpt>
      <trkpt lat="45.30697" lon="5.74766">
        <ele>1698.03</ele>
        <time>2000-03-06T12:56:13.000+01:00</time>
      </trkpt>
      <trkpt lat="45.30697" lon="5.74766">
        <ele>1698.03</ele>
        <time>2000-03-06T12:56:19.000+01:00</time>
      </trkpt>
      <trkpt lat="45.30697" lon="5.74766">
        <ele>1698.03</ele>
        <time>2000-03-06T12:56:25.000+01:00</time>
      </trkpt>
      <trkpt lat="45.30697" lon="5.74766">
        <ele>1698.03</ele>
        <time>2000-03-06T12:56:31.000+01:00</time>
      </trkpt>
      <trkpt lat="45.30697" lon="5.74766">
        <ele>1698.03</ele>
        <time>2000-03-06T12:56:37.000+01:00</time>
      </trkpt>
      <trkpt lat="45.30697" lon="5.74766">
        <ele>1698.03</ele>
        <time>2000-03-06T12:56:43.000+01:00</time>
      </trkpt>
      <trkpt lat="45.30697" lon="5.74766">
        <ele>1698.03</ele>
        <time>2000-03-06T12:56:49.000+01:00</time>
      </trkpt>
      <trkpt lat="45.30697" lon="5.74766">
        <ele>1698.03</ele>
        <time>2000-03-06T12:56:55.000+01:00</time>
      </trkpt>
      <trkpt lat="45.30697" lon="5.74766">
        <ele>1698.03</ele>
        <time>2000-03-06T12:57:01.000+01:00</time>
      </trkpt>
      <trkpt lat="45.30697" lon="5.74766">
        <ele>1698.03</ele>
        <time>2000-03-06T12:57:07.000+01:00</time>
      </trkpt>
      <trkpt lat="45.30697" lon="5.74766">
        <ele>1698.03</ele>
        <time>2000-03-06T12:57:13.000+01:00</time>
      </trkpt>
      <trkpt lat="45.30697" lon="5.74766">
        <ele>1698.03</ele>
        <time>2000-03-06T12:57:19.000+01:00</time>
      </trkpt>
      <trkpt lat="45.30697" lon="5.74766">
        <ele>1698.03</ele>
        <time>2000-03-06T12:57:25.001+01:00</time>
      </trkpt>
      <trkpt lat="45.30697" lon="5.74766">
        <ele>1698.03</ele>
        <time>2000-03-06T12:57:31.000+01:00</time>
      </trkpt>
      <trkpt lat="45.30697" lon="5.74766">
        <ele>1698.03</ele>
        <time>2000-03-06T12:57:37.000+01:00</time>
      </trkpt>
      <trkpt lat="45.30697" lon="5.74766">
        <ele>1698.03</ele>
        <time>2000-03-06T12:57:43.000+01:00</time>
      </trkpt>
      <trkpt lat="45.30697" lon="5.74766">
        <ele>1698.03</ele>
        <time>2000-03-06T12:57:49.000+01:00</time>
      </trkpt>
      <trkpt lat="45.30697" lon="5.74766">
        <ele>1698.03</ele>
        <time>2000-03-06T12:57:55.000+01:00</time>
      </trkpt>
      <trkpt lat="45.30697" lon="5.74766">
        <ele>1698.03</ele>
        <time>2000-03-06T12:58:01.000+01:00</time>
      </trkpt>
      <trkpt lat="45.30697" lon="5.74766">
        <ele>1698.03</ele>
        <time>2000-03-06T12:58:07.000+01:00</time>
      </trkpt>
      <trkpt lat="45.30697" lon="5.74766">
        <ele>1698.03</ele>
        <time>2000-03-06T12:58:13.000+01:00</time>
      </trkpt>
      <trkpt lat="45.30697" lon="5.74766">
        <ele>1698.03</ele>
        <time>2000-03-06T12:58:19.000+01:00</time>
      </trkpt>
      <trkpt lat="45.30697" lon="5.74766">
        <ele>1698.03</ele>
        <time>2000-03-06T12:58:25.000+01:00</time>
      </trkpt>
      <trkpt lat="45.30697" lon="5.74766">
        <ele>1698.03</ele>
        <time>2000-03-06T12:58:31.000+01:00</time>
      </trkpt>
      <trkpt lat="45.30697" lon="5.74766">
        <ele>1698.03</ele>
        <time>2000-03-06T12:58:37.000+01:00</time>
      </trkpt>
      <trkpt lat="45.30697" lon="5.74766">
        <ele>1698.03</ele>
        <time>2000-03-06T12:58:43.001+01:00</time>
      </trkpt>
      <trkpt lat="45.30697" lon="5.74766">
        <ele>1698.03</ele>
        <time>2000-03-06T12:58:49.000+01:00</time>
      </trkpt>
      <trkpt lat="45.30697" lon="5.74766">
        <ele>1698.03</ele>
        <time>2000-03-06T12:58:55.000+01:00</time>
      </trkpt>
      <trkpt lat="45.30697" lon="5.74766">
        <ele>1698.03</ele>
        <time>2000-03-06T12:59:01.000+01:00</time>
      </trkpt>
      <trkpt lat="45.30697" lon="5.74766">
        <ele>1698.03</ele>
        <time>2000-03-06T12:59:07.000+01:00</time>
      </trkpt>
      <trkpt lat="45.30697" lon="5.74766">
        <ele>1698.03</ele>
        <time>2000-03-06T12:59:13.000+01:00</time>
      </trkpt>
      <trkpt lat="45.30697" lon="5.74766">
        <ele>1698.03</ele>
        <time>2000-03-06T12:59:19.000+01:00</time>
      </trkpt>
      <trkpt lat="45.30697" lon="5.74766">
        <ele>1698.03</ele>
        <time>2000-03-06T12:59:25.000+01:00</time>
      </trkpt>
      <trkpt lat="45.30697" lon="5.74766">
        <ele>1698.03</ele>
        <time>2000-03-06T12:59:31.000+01:00</time>
      </trkpt>
      <trkpt lat="45.30697" lon="5.74766">
        <ele>1698.03</ele>
        <time>2000-03-06T12:59:37.000+01:00</time>
      </trkpt>
      <trkpt lat="45.30697" lon="5.74766">
        <ele>1698.03</ele>
        <time>2000-03-06T12:59:43.000+01:00</time>
      </trkpt>
      <trkpt lat="45.30697" lon="5.74766">
        <ele>1698.03</ele>
        <time>2000-03-06T12:59:49.000+01:00</time>
      </trkpt>
      <trkpt lat="45.30697" lon="5.74766">
        <ele>1698.03</ele>
        <time>2000-03-06T12:59:55.000+01:00</time>
      </trkpt>
      <trkpt lat="45.30697" lon="5.74766">
        <ele>1698.03</ele>
        <time>2000-03-06T13:00:01.000+01:00</time>
      </trkpt>
      <trkpt lat="45.30697" lon="5.74766">
        <ele>1698.03</ele>
        <time>2000-03-06T13:00:07.000+01:00</time>
      </trkpt>
      <trkpt lat="45.30697" lon="5.74766">
        <ele>1698.03</ele>
        <time>2000-03-06T13:00:13.000+01:00</time>
      </trkpt>
      <trkpt lat="45.30697" lon="5.74766">
        <ele>1698.03</ele>
        <time>2000-03-06T13:00:19.000+01:00</time>
      </trkpt>
      <trkpt lat="45.30697" lon="5.74766">
        <ele>1698.03</ele>
        <time>2000-03-06T13:00:25.000+01:00</time>
      </trkpt>
      <trkpt lat="45.30697" lon="5.74766">
        <ele>1698.03</ele>
        <time>2000-03-06T13:00:31.000+01:00</time>
      </trkpt>
      <trkpt lat="45.30697" lon="5.74766">
        <ele>1698.03</ele>
        <time>2000-03-06T13:00:37.000+01:00</time>
      </trkpt>
      <trkpt lat="45.30697" lon="5.74766">
        <ele>1698.03</ele>
        <time>2000-03-06T13:00:43.000+01:00</time>
      </trkpt>
      <trkpt lat="45.30697" lon="5.74766">
        <ele>1698.03</ele>
        <time>2000-03-06T13:00:49.000+01:00</time>
      </trkpt>
      <trkpt lat="45.30697" lon="5.74766">
        <ele>1698.03</ele>
        <time>2000-03-06T13:00:55.001+01:00</time>
      </trkpt>
      <trkpt lat="45.30697" lon="5.74766">
        <ele>1698.03</ele>
        <time>2000-03-06T13:01:01.000+01:00</time>
      </trkpt>
      <trkpt lat="45.30697" lon="5.74766">
        <ele>1698.03</ele>
        <time>2000-03-06T13:01:07.000+01:00</time>
      </trkpt>
      <trkpt lat="45.30697" lon="5.74766">
        <ele>1698.03</ele>
        <time>2000-03-06T13:01:13.000+01:00</time>
      </trkpt>
      <trkpt lat="45.30697" lon="5.74766">
        <ele>1698.03</ele>
        <time>2000-03-06T13:01:19.000+01:00</time>
      </trkpt>
      <trkpt lat="45.30697" lon="5.74766">
        <ele>1698.03</ele>
        <time>2000-03-06T13:01:25.000+01:00</time>
      </trkpt>
      <trkpt lat="45.30697" lon="5.74766">
        <ele>1698.03</ele>
        <time>2000-03-06T13:01:31.000+01:00</time>
      </trkpt>
      <trkpt lat="45.30697" lon="5.74766">
        <ele>1698.03</ele>
        <time>2000-03-06T13:01:37.000+01:00</time>
      </trkpt>
      <trkpt lat="45.30697" lon="5.74766">
        <ele>1698.03</ele>
        <time>2000-03-06T13:01:43.001+01:00</time>
      </trkpt>
      <trkpt lat="45.30697" lon="5.74766">
        <ele>1698.03</ele>
        <time>2000-03-06T13:01:49.000+01:00</time>
      </trkpt>
      <trkpt lat="45.30697" lon="5.74766">
        <ele>1698.03</ele>
        <time>2000-03-06T13:01:55.000+01:00</time>
      </trkpt>
      <trkpt lat="45.30697" lon="5.74766">
        <ele>1698.03</ele>
        <time>2000-03-06T13:02:01.000+01:00</time>
      </trkpt>
      <trkpt lat="45.30695" lon="5.74773">
        <ele>1681.62</ele>
        <time>2000-03-06T13:02:07.001+01:00</time>
      </trkpt>
      <trkpt lat="45.30696" lon="5.74776">
        <ele>1683.29</ele>
        <time>2000-03-06T13:02:13.001+01:00</time>
      </trkpt>
      <trkpt lat="45.30696" lon="5.74776">
        <ele>1683.29</ele>
        <time>2000-03-06T13:02:19.000+01:00</time>
      </trkpt>
      <trkpt lat="45.30696" lon="5.74776">
        <ele>1683.29</ele>
        <time>2000-03-06T13:02:25.000+01:00</time>
      </trkpt>
      <trkpt lat="45.30696" lon="5.74776">
        <ele>1683.29</ele>
        <time>2000-03-06T13:02:31.000+01:00</time>
      </trkpt>
      <trkpt lat="45.30696" lon="5.74776">
        <ele>1683.29</ele>
        <time>2000-03-06T13:02:37.000+01:00</time>
      </trkpt>
      <trkpt lat="45.30696" lon="5.74776">
        <ele>1683.29</ele>
        <time>2000-03-06T13:02:43.000+01:00</time>
      </trkpt>
      <trkpt lat="45.30696" lon="5.74776">
        <ele>1683.29</ele>
        <time>2000-03-06T13:02:49.000+01:00</time>
      </trkpt>
      <trkpt lat="45.30696" lon="5.74776">
        <ele>1683.29</ele>
        <time>2000-03-06T13:02:55.000+01:00</time>
      </trkpt>
      <trkpt lat="45.30696" lon="5.74776">
        <ele>1683.29</ele>
        <time>2000-03-06T13:03:01.000+01:00</time>
      </trkpt>
      <trkpt lat="45.30696" lon="5.74776">
        <ele>1683.29</ele>
        <time>2000-03-06T13:03:07.000+01:00</time>
      </trkpt>
      <trkpt lat="45.30696" lon="5.74776">
        <ele>1683.29</ele>
        <time>2000-03-06T13:03:13.001+01:00</time>
      </trkpt>
      <trkpt lat="45.30696" lon="5.74776">
        <ele>1683.29</ele>
        <time>2000-03-06T13:03:19.001+01:00</time>
      </trkpt>
      <trkpt lat="45.30696" lon="5.74776">
        <ele>1683.29</ele>
        <time>2000-03-06T13:03:25.001+01:00</time>
      </trkpt>
      <trkpt lat="45.30696" lon="5.74776">
        <ele>1683.29</ele>
        <time>2000-03-06T13:03:31.001+01:00</time>
      </trkpt>
      <trkpt lat="45.30696" lon="5.74776">
        <ele>1683.29</ele>
        <time>2000-03-06T13:03:37.000+01:00</time>
      </trkpt>
      <trkpt lat="45.30696" lon="5.74776">
        <ele>1683.29</ele>
        <time>2000-03-06T13:03:43.000+01:00</time>
      </trkpt>
      <trkpt lat="45.30696" lon="5.74776">
        <ele>1683.29</ele>
        <time>2000-03-06T13:03:49.000+01:00</time>
      </trkpt>
      <trkpt lat="45.30696" lon="5.74776">
        <ele>1683.29</ele>
        <time>2000-03-06T13:03:55.000+01:00</time>
      </trkpt>
      <trkpt lat="45.30696" lon="5.74776">
        <ele>1683.29</ele>
        <time>2000-03-06T13:04:01.000+01:00</time>
      </trkpt>
      <trkpt lat="45.30696" lon="5.74776">
        <ele>1683.29</ele>
        <time>2000-03-06T13:04:07.000+01:00</time>
      </trkpt>
      <trkpt lat="45.30696" lon="5.74776">
        <ele>1683.29</ele>
        <time>2000-03-06T13:04:13.000+01:00</time>
      </trkpt>
      <trkpt lat="45.30696" lon="5.74776">
        <ele>1683.29</ele>
        <time>2000-03-06T13:04:19.000+01:00</time>
      </trkpt>
      <trkpt lat="45.30696" lon="5.74776">
        <ele>1683.29</ele>
        <time>2000-03-06T13:04:25.000+01:00</time>
      </trkpt>
      <trkpt lat="45.30696" lon="5.74776">
        <ele>1683.29</ele>
        <time>2000-03-06T13:04:31.000+01:00</time>
      </trkpt>
      <trkpt lat="45.30696" lon="5.74776">
        <ele>1683.29</ele>
        <time>2000-03-06T13:04:37.000+01:00</time>
      </trkpt>
      <trkpt lat="45.30696" lon="5.74776">
        <ele>1683.29</ele>
        <time>2000-03-06T13:04:43.000+01:00</time>
      </trkpt>
      <trkpt lat="45.30696" lon="5.74776">
        <ele>1683.29</ele>
        <time>2000-03-06T13:04:49.001+01:00</time>
      </trkpt>
      <trkpt lat="45.30696" lon="5.74776">
        <ele>1683.29</ele>
        <time>2000-03-06T13:04:55.001+01:00</time>
      </trkpt>
      <trkpt lat="45.30696" lon="5.74776">
        <ele>1683.29</ele>
        <time>2000-03-06T13:05:01.000+01:00</time>
      </trkpt>
      <trkpt lat="45.30696" lon="5.74776">
        <ele>1683.29</ele>
        <time>2000-03-06T13:05:07.001+01:00</time>
      </trkpt>
      <trkpt lat="45.30696" lon="5.74776">
        <ele>1683.29</ele>
        <time>2000-03-06T13:05:13.001+01:00</time>
      </trkpt>
      <trkpt lat="45.30696" lon="5.74776">
        <ele>1683.29</ele>
        <time>2000-03-06T13:05:19.002+01:00</time>
      </trkpt>
      <trkpt lat="45.30696" lon="5.74776">
        <ele>1683.29</ele>
        <time>2000-03-06T13:05:25.000+01:00</time>
      </trkpt>
      <trkpt lat="45.30696" lon="5.74776">
        <ele>1683.29</ele>
        <time>2000-03-06T13:05:30.999+01:00</time>
      </trkpt>
      <trkpt lat="45.30696" lon="5.74776">
        <ele>1683.29</ele>
        <time>2000-03-06T13:05:37.000+01:00</time>
      </trkpt>
      <trkpt lat="45.30696" lon="5.74776">
        <ele>1683.29</ele>
        <time>2000-03-06T13:05:43.000+01:00</time>
      </trkpt>
      <trkpt lat="45.30696" lon="5.74776">
        <ele>1683.29</ele>
        <time>2000-03-06T13:05:49.000+01:00</time>
      </trkpt>
      <trkpt lat="45.30696" lon="5.74776">
        <ele>1683.29</ele>
        <time>2000-03-06T13:05:55.001+01:00</time>
      </trkpt>
      <trkpt lat="45.30696" lon="5.74776">
        <ele>1683.29</ele>
        <time>2000-03-06T13:06:01.000+01:00</time>
      </trkpt>
      <trkpt lat="45.30696" lon="5.74776">
        <ele>1683.29</ele>
        <time>2000-03-06T13:06:07.001+01:00</time>
      </trkpt>
      <trkpt lat="45.30696" lon="5.74776">
        <ele>1683.29</ele>
        <time>2000-03-06T13:06:13.000+01:00</time>
      </trkpt>
      <trkpt lat="45.30701" lon="5.74776">
        <ele>1698.61</ele>
        <time>2000-03-06T13:06:19.000+01:00</time>
      </trkpt>
      <trkpt lat="45.307" lon="5.74776">
        <ele>1696.08</ele>
        <time>2000-03-06T13:06:25.000+01:00</time>
      </trkpt>
      <trkpt lat="45.307" lon="5.74776">
        <ele>1696.08</ele>
        <time>2000-03-06T13:06:31.000+01:00</time>
      </trkpt>
      <trkpt lat="45.307" lon="5.74776">
        <ele>1696.08</ele>
        <time>2000-03-06T13:06:37.000+01:00</time>
      </trkpt>
      <trkpt lat="45.307" lon="5.74776">
        <ele>1696.08</ele>
        <time>2000-03-06T13:06:43.000+01:00</time>
      </trkpt>
      <trkpt lat="45.307" lon="5.74776">
        <ele>1696.08</ele>
        <time>2000-03-06T13:06:49.000+01:00</time>
      </trkpt>
      <trkpt lat="45.30687" lon="5.74774">
        <ele>1706.24</ele>
        <time>2000-03-06T13:06:55.000+01:00</time>
      </trkpt>
      <trkpt lat="45.30673" lon="5.7477">
        <ele>1705.89</ele>
        <time>2000-03-06T13:07:01.000+01:00</time>
      </trkpt>
      <trkpt lat="45.30649" lon="5.74759">
        <ele>1702.53</ele>
        <time>2000-03-06T13:07:07.000+01:00</time>
      </trkpt>
      <trkpt lat="45.30632" lon="5.74742">
        <ele>1699.41</ele>
        <time>2000-03-06T13:07:13.000+01:00</time>
      </trkpt>
      <trkpt lat="45.30631" lon="5.74737">
        <ele>1697.84</ele>
        <time>2000-03-06T13:07:19.000+01:00</time>
      </trkpt>
      <trkpt lat="45.30631" lon="5.74737">
        <ele>1697.84</ele>
        <time>2000-03-06T13:07:25.000+01:00</time>
      </trkpt>
      <trkpt lat="45.30623" lon="5.74731">
        <ele>1686.84</ele>
        <time>2000-03-06T13:07:31.000+01:00</time>
      </trkpt>
      <trkpt lat="45.30603" lon="5.7472">
        <ele>1682.14</ele>
        <time>2000-03-06T13:07:37.000+01:00</time>
      </trkpt>
      <trkpt lat="45.30587" lon="5.74702">
        <ele>1674.87</ele>
        <time>2000-03-06T13:07:43.000+01:00</time>
      </trkpt>
      <trkpt lat="45.3058" lon="5.74694">
        <ele>1665.79</ele>
        <time>2000-03-06T13:07:49.000+01:00</time>
      </trkpt>
      <trkpt lat="45.30549" lon="5.74675">
        <ele>1658.98</ele>
        <time>2000-03-06T13:07:55.000+01:00</time>
      </trkpt>
      <trkpt lat="45.3052" lon="5.74663">
        <ele>1661.82</ele>
        <time>2000-03-06T13:08:01.000+01:00</time>
      </trkpt>
      <trkpt lat="45.30501" lon="5.74658">
        <ele>1664.35</ele>
        <time>2000-03-06T13:08:07.001+01:00</time>
      </trkpt>
      <trkpt lat="45.30492" lon="5.74657">
        <ele>1662.79</ele>
        <time>2000-03-06T13:08:13.001+01:00</time>
      </trkpt>
      <trkpt lat="45.30476" lon="5.74651">
        <ele>1658.85</ele>
        <time>2000-03-06T13:08:19.001+01:00</time>
      </trkpt>
      <trkpt lat="45.30467" lon="5.74649">
        <ele>1658.23</ele>
        <time>2000-03-06T13:08:25.001+01:00</time>
      </trkpt>
      <trkpt lat="45.30467" lon="5.74649">
        <ele>1659.15</ele>
        <time>2000-03-06T13:08:31.001+01:00</time>
      </trkpt>
      <trkpt lat="45.30467" lon="5.74649">
        <ele>1659.15</ele>
        <time>2000-03-06T13:08:37.001+01:00</time>
      </trkpt>
      <trkpt lat="45.30467" lon="5.74649">
        <ele>1659.15</ele>
        <time>2000-03-06T13:08:43.001+01:00</time>
      </trkpt>
      <trkpt lat="45.30467" lon="5.74649">
        <ele>1659.15</ele>
        <time>2000-03-06T13:08:49.001+01:00</time>
      </trkpt>
      <trkpt lat="45.30467" lon="5.74649">
        <ele>1659.15</ele>
        <time>2000-03-06T13:08:55.001+01:00</time>
      </trkpt>
      <trkpt lat="45.30467" lon="5.74649">
        <ele>1659.15</ele>
        <time>2000-03-06T13:09:01.000+01:00</time>
      </trkpt>
      <trkpt lat="45.30467" lon="5.74649">
        <ele>1659.15</ele>
        <time>2000-03-06T13:09:07.001+01:00</time>
      </trkpt>
      <trkpt lat="45.30467" lon="5.74649">
        <ele>1659.15</ele>
        <time>2000-03-06T13:09:13.001+01:00</time>
      </trkpt>
      <trkpt lat="45.30467" lon="5.74649">
        <ele>1659.15</ele>
        <time>2000-03-06T13:09:19.001+01:00</time>
      </trkpt>
      <trkpt lat="45.30467" lon="5.74649">
        <ele>1659.15</ele>
        <time>2000-03-06T13:09:25.001+01:00</time>
      </trkpt>
      <trkpt lat="45.30459" lon="5.74647">
        <ele>1649.13</ele>
        <time>2000-03-06T13:09:31.001+01:00</time>
      </trkpt>
      <trkpt lat="45.30448" lon="5.74665">
        <ele>1643.87</ele>
        <time>2000-03-06T13:09:37.001+01:00</time>
      </trkpt>
      <trkpt lat="45.30444" lon="5.74693">
        <ele>1639.84</ele>
        <time>2000-03-06T13:09:43.001+01:00</time>
      </trkpt>
      <trkpt lat="45.30435" lon="5.74708">
        <ele>1637.5</ele>
        <time>2000-03-06T13:09:49.003+01:00</time>
      </trkpt>
      <trkpt lat="45.30435" lon="5.74725">
        <ele>1633.85</ele>
        <time>2000-03-06T13:09:54.999+01:00</time>
      </trkpt>
      <trkpt lat="45.30447" lon="5.74755">
        <ele>1634.69</ele>
        <time>2000-03-06T13:10:01.000+01:00</time>
      </trkpt>
      <trkpt lat="45.30447" lon="5.74755">
        <ele>1634.69</ele>
        <time>2000-03-06T13:10:07.000+01:00</time>
      </trkpt>
      <trkpt lat="45.30447" lon="5.74755">
        <ele>1634.69</ele>
        <time>2000-03-06T13:10:13.000+01:00</time>
      </trkpt>
      <trkpt lat="45.30447" lon="5.74755">
        <ele>1634.69</ele>
        <time>2000-03-06T13:10:19.001+01:00</time>
      </trkpt>
      <trkpt lat="45.30427" lon="5.74749">
        <ele>1625.75</ele>
        <time>2000-03-06T13:10:25.001+01:00</time>
      </trkpt>
      <trkpt lat="45.30428" lon="5.74756">
        <ele>1625.49</ele>
        <time>2000-03-06T13:10:31.000+01:00</time>
      </trkpt>
      <trkpt lat="45.30435" lon="5.74781">
        <ele>1623.76</ele>
        <time>2000-03-06T13:10:37.001+01:00</time>
      </trkpt>
      <trkpt lat="45.30437" lon="5.74808">
        <ele>1617.63</ele>
        <time>2000-03-06T13:10:43.000+01:00</time>
      </trkpt>
      <trkpt lat="45.30442" lon="5.74833">
        <ele>1612.55</ele>
        <time>2000-03-06T13:10:49.000+01:00</time>
      </trkpt>
      <trkpt lat="45.30434" lon="5.74856">
        <ele>1605.29</ele>
        <time>2000-03-06T13:10:55.000+01:00</time>
      </trkpt>
      <trkpt lat="45.30435" lon="5.74863">
        <ele>1608.09</ele>
        <time>2000-03-06T13:11:01.000+01:00</time>
      </trkpt>
      <trkpt lat="45.30435" lon="5.74863">
        <ele>1608.09</ele>
        <time>2000-03-06T13:11:07.000+01:00</time>
      </trkpt>
      <trkpt lat="45.30435" lon="5.74863">
        <ele>1608.09</ele>
        <time>2000-03-06T13:11:12.999+01:00</time>
      </trkpt>
      <trkpt lat="45.30435" lon="5.74863">
        <ele>1608.09</ele>
        <time>2000-03-06T13:11:19.000+01:00</time>
      </trkpt>
      <trkpt lat="45.30435" lon="5.74863">
        <ele>1608.09</ele>
        <time>2000-03-06T13:11:25.000+01:00</time>
      </trkpt>
      <trkpt lat="45.30435" lon="5.74863">
        <ele>1608.09</ele>
        <time>2000-03-06T13:11:31.001+01:00</time>
      </trkpt>
      <trkpt lat="45.30435" lon="5.74872">
        <ele>1593.11</ele>
        <time>2000-03-06T13:11:37.000+01:00</time>
      </trkpt>
      <trkpt lat="45.30436" lon="5.74897">
        <ele>1586.21</ele>
        <time>2000-03-06T13:11:43.000+01:00</time>
      </trkpt>
      <trkpt lat="45.30436" lon="5.74919">
        <ele>1579.27</ele>
        <time>2000-03-06T13:11:49.000+01:00</time>
      </trkpt>
      <trkpt lat="45.30428" lon="5.7495">
        <ele>1573.79</ele>
        <time>2000-03-06T13:11:55.000+01:00</time>
      </trkpt>
      <trkpt lat="45.30423" lon="5.74981">
        <ele>1564.03</ele>
        <time>2000-03-06T13:12:01.000+01:00</time>
      </trkpt>
      <trkpt lat="45.30411" lon="5.74992">
        <ele>1558.73</ele>
        <time>2000-03-06T13:12:07.000+01:00</time>
      </trkpt>
      <trkpt lat="45.30407" lon="5.75004">
        <ele>1559.19</ele>
        <time>2000-03-06T13:12:13.000+01:00</time>
      </trkpt>
      <trkpt lat="45.30409" lon="5.75024">
        <ele>1548.79</ele>
        <time>2000-03-06T13:12:19.000+01:00</time>
      </trkpt>
      <trkpt lat="45.30412" lon="5.75041">
        <ele>1543.53</ele>
        <time>2000-03-06T13:12:25.001+01:00</time>
      </trkpt>
      <trkpt lat="45.30423" lon="5.75059">
        <ele>1537.95</ele>
        <time>2000-03-06T13:12:31.000+01:00</time>
      </trkpt>
      <trkpt lat="45.30428" lon="5.75063">
        <ele>1535.97</ele>
        <time>2000-03-06T13:12:37.000+01:00</time>
      </trkpt>
      <trkpt lat="45.30428" lon="5.75063">
        <ele>1535.97</ele>
        <time>2000-03-06T13:12:43.000+01:00</time>
      </trkpt>
      <trkpt lat="45.30428" lon="5.75063">
        <ele>1535.97</ele>
        <time>2000-03-06T13:12:49.000+01:00</time>
      </trkpt>
      <trkpt lat="45.30428" lon="5.75063">
        <ele>1535.97</ele>
        <time>2000-03-06T13:12:55.000+01:00</time>
      </trkpt>
      <trkpt lat="45.30428" lon="5.75063">
        <ele>1535.97</ele>
        <time>2000-03-06T13:13:01.000+01:00</time>
      </trkpt>
      <trkpt lat="45.30428" lon="5.75063">
        <ele>1535.97</ele>
        <time>2000-03-06T13:13:07.000+01:00</time>
      </trkpt>
      <trkpt lat="45.30428" lon="5.75063">
        <ele>1535.97</ele>
        <time>2000-03-06T13:13:13.000+01:00</time>
      </trkpt>
      <trkpt lat="45.30428" lon="5.75063">
        <ele>1535.97</ele>
        <time>2000-03-06T13:13:19.000+01:00</time>
      </trkpt>
      <trkpt lat="45.30428" lon="5.75063">
        <ele>1535.97</ele>
        <time>2000-03-06T13:13:25.000+01:00</time>
      </trkpt>
      <trkpt lat="45.30428" lon="5.75063">
        <ele>1535.97</ele>
        <time>2000-03-06T13:13:31.000+01:00</time>
      </trkpt>
      <trkpt lat="45.30426" lon="5.75084">
        <ele>1527.63</ele>
        <time>2000-03-06T13:13:37.000+01:00</time>
      </trkpt>
      <trkpt lat="45.3042" lon="5.75098">
        <ele>1523.51</ele>
        <time>2000-03-06T13:13:43.000+01:00</time>
      </trkpt>
      <trkpt lat="45.30422" lon="5.75124">
        <ele>1521.27</ele>
        <time>2000-03-06T13:13:49.000+01:00</time>
      </trkpt>
      <trkpt lat="45.3043" lon="5.75147">
        <ele>1523</ele>
        <time>2000-03-06T13:13:55.000+01:00</time>
      </trkpt>
      <trkpt lat="45.30437" lon="5.75178">
        <ele>1520.87</ele>
        <time>2000-03-06T13:14:03.000+01:00</time>
      </trkpt>
      <trkpt lat="45.30441" lon="5.75245">
        <ele>1503.01</ele>
        <time>2000-03-06T13:14:09.000+01:00</time>
      </trkpt>
      <trkpt lat="45.30442" lon="5.75284">
        <ele>1497.76</ele>
        <time>2000-03-06T13:14:14.999+01:00</time>
      </trkpt>
      <trkpt lat="45.30449" lon="5.75315">
        <ele>1488.45</ele>
        <time>2000-03-06T13:14:21.000+01:00</time>
      </trkpt>
      <trkpt lat="45.30454" lon="5.75343">
        <ele>1481.09</ele>
        <time>2000-03-06T13:14:26.800+01:00</time>
      </trkpt>
      <trkpt lat="45.30467" lon="5.75356">
        <ele>1480.75</ele>
        <time>2000-03-06T13:14:32.000+01:00</time>
      </trkpt>
      <trkpt lat="45.30476" lon="5.75384">
        <ele>1478.06</ele>
        <time>2000-03-06T13:14:38.001+01:00</time>
      </trkpt>
      <trkpt lat="45.30465" lon="5.75381">
        <ele>1475.04</ele>
        <time>2000-03-06T13:14:44.000+01:00</time>
      </trkpt>
      <trkpt lat="45.30465" lon="5.75381">
        <ele>1475.04</ele>
        <time>2000-03-06T13:14:50.000+01:00</time>
      </trkpt>
      <trkpt lat="45.30465" lon="5.75381">
        <ele>1475.04</ele>
        <time>2000-03-06T13:14:56.000+01:00</time>
      </trkpt>
      <trkpt lat="45.30465" lon="5.75381">
        <ele>1475.04</ele>
        <time>2000-03-06T13:15:02.000+01:00</time>
      </trkpt>
      <trkpt lat="45.30465" lon="5.75381">
        <ele>1475.04</ele>
        <time>2000-03-06T13:15:08.000+01:00</time>
      </trkpt>
      <trkpt lat="45.30465" lon="5.75381">
        <ele>1475.04</ele>
        <time>2000-03-06T13:15:14.000+01:00</time>
      </trkpt>
      <trkpt lat="45.30465" lon="5.75381">
        <ele>1475.04</ele>
        <time>2000-03-06T13:15:20.000+01:00</time>
      </trkpt>
      <trkpt lat="45.30465" lon="5.75381">
        <ele>1475.04</ele>
        <time>2000-03-06T13:15:26.000+01:00</time>
      </trkpt>
      <trkpt lat="45.30465" lon="5.75381">
        <ele>1475.04</ele>
        <time>2000-03-06T13:15:32.003+01:00</time>
      </trkpt>
      <trkpt lat="45.30468" lon="5.75394">
        <ele>1479.92</ele>
        <time>2000-03-06T13:15:38.000+01:00</time>
      </trkpt>
      <trkpt lat="45.30474" lon="5.7542">
        <ele>1480.17</ele>
        <time>2000-03-06T13:15:44.000+01:00</time>
      </trkpt>
      <trkpt lat="45.30469" lon="5.75434">
        <ele>1479.86</ele>
        <time>2000-03-06T13:15:50.002+01:00</time>
      </trkpt>
      <trkpt lat="45.30469" lon="5.75454">
        <ele>1478.06</ele>
        <time>2000-03-06T13:15:56.000+01:00</time>
      </trkpt>
      <trkpt lat="45.3048" lon="5.75491">
        <ele>1475.3</ele>
        <time>2000-03-06T13:16:02.000+01:00</time>
      </trkpt>
      <trkpt lat="45.30491" lon="5.7553">
        <ele>1470.97</ele>
        <time>2000-03-06T13:16:08.000+01:00</time>
      </trkpt>
      <trkpt lat="45.30487" lon="5.75522">
        <ele>1466.07</ele>
        <time>2000-03-06T13:16:14.000+01:00</time>
      </trkpt>
      <trkpt lat="45.30487" lon="5.75522">
        <ele>1466.07</ele>
        <time>2000-03-06T13:16:20.000+01:00</time>
      </trkpt>
      <trkpt lat="45.30487" lon="5.75522">
        <ele>1466.07</ele>
        <time>2000-03-06T13:16:26.000+01:00</time>
      </trkpt>
      <trkpt lat="45.30487" lon="5.75522">
        <ele>1466.07</ele>
        <time>2000-03-06T13:16:31.801+01:00</time>
      </trkpt>
      <trkpt lat="45.30487" lon="5.75522">
        <ele>1466.07</ele>
        <time>2000-03-06T13:16:37.000+01:00</time>
      </trkpt>
      <trkpt lat="45.30487" lon="5.75522">
        <ele>1466.07</ele>
        <time>2000-03-06T13:16:43.001+01:00</time>
      </trkpt>
      <trkpt lat="45.30487" lon="5.75522">
        <ele>1466.07</ele>
        <time>2000-03-06T13:16:49.001+01:00</time>
      </trkpt>
      <trkpt lat="45.30487" lon="5.75522">
        <ele>1466.07</ele>
        <time>2000-03-06T13:16:55.001+01:00</time>
      </trkpt>
      <trkpt lat="45.30487" lon="5.75522">
        <ele>1466.07</ele>
        <time>2000-03-06T13:17:01.000+01:00</time>
      </trkpt>
      <trkpt lat="45.30466" lon="5.75518">
        <ele>1444.39</ele>
        <time>2000-03-06T13:17:07.000+01:00</time>
      </trkpt>
      <trkpt lat="45.30473" lon="5.75532">
        <ele>1442.6</ele>
        <time>2000-03-06T13:17:13.000+01:00</time>
      </trkpt>
      <trkpt lat="45.30488" lon="5.75561">
        <ele>1440.38</ele>
        <time>2000-03-06T13:17:19.002+01:00</time>
      </trkpt>
      <trkpt lat="45.30507" lon="5.75592">
        <ele>1439.91</ele>
        <time>2000-03-06T13:17:25.000+01:00</time>
      </trkpt>
      <trkpt lat="45.30514" lon="5.75614">
        <ele>1425.18</ele>
        <time>2000-03-06T13:17:31.000+01:00</time>
      </trkpt>
      <trkpt lat="45.30522" lon="5.75633">
        <ele>1420.16</ele>
        <time>2000-03-06T13:17:37.001+01:00</time>
      </trkpt>
      <trkpt lat="45.30531" lon="5.75651">
        <ele>1416.3</ele>
        <time>2000-03-06T13:17:43.000+01:00</time>
      </trkpt>
      <trkpt lat="45.30549" lon="5.75698">
        <ele>1411.28</ele>
        <time>2000-03-06T13:17:49.000+01:00</time>
      </trkpt>
      <trkpt lat="45.30561" lon="5.75738">
        <ele>1397.93</ele>
        <time>2000-03-06T13:17:55.000+01:00</time>
      </trkpt>
      <trkpt lat="45.30555" lon="5.7574">
        <ele>1389.32</ele>
        <time>2000-03-06T13:18:01.000+01:00</time>
      </trkpt>
      <trkpt lat="45.30555" lon="5.7574">
        <ele>1389.32</ele>
        <time>2000-03-06T13:18:07.000+01:00</time>
      </trkpt>
      <trkpt lat="45.30555" lon="5.7574">
        <ele>1389.32</ele>
        <time>2000-03-06T13:18:13.000+01:00</time>
      </trkpt>
      <trkpt lat="45.30555" lon="5.7574">
        <ele>1389.32</ele>
        <time>2000-03-06T13:18:19.001+01:00</time>
      </trkpt>
      <trkpt lat="45.30555" lon="5.7574">
        <ele>1389.32</ele>
        <time>2000-03-06T13:18:25.001+01:00</time>
      </trkpt>
      <trkpt lat="45.30555" lon="5.7574">
        <ele>1389.32</ele>
        <time>2000-03-06T13:18:31.000+01:00</time>
      </trkpt>
      <trkpt lat="45.30555" lon="5.7574">
        <ele>1389.32</ele>
        <time>2000-03-06T13:18:37.000+01:00</time>
      </trkpt>
      <trkpt lat="45.30555" lon="5.7574">
        <ele>1389.32</ele>
        <time>2000-03-06T13:18:43.000+01:00</time>
      </trkpt>
      <trkpt lat="45.30555" lon="5.7574">
        <ele>1389.32</ele>
        <time>2000-03-06T13:18:49.000+01:00</time>
      </trkpt>
      <trkpt lat="45.30555" lon="5.7574">
        <ele>1389.32</ele>
        <time>2000-03-06T13:18:55.000+01:00</time>
      </trkpt>
      <trkpt lat="45.30555" lon="5.7574">
        <ele>1389.32</ele>
        <time>2000-03-06T13:19:01.000+01:00</time>
      </trkpt>
      <trkpt lat="45.30547" lon="5.75748">
        <ele>1379.75</ele>
        <time>2000-03-06T13:19:07.001+01:00</time>
      </trkpt>
      <trkpt lat="45.30569" lon="5.75763">
        <ele>1380.09</ele>
        <time>2000-03-06T13:19:13.001+01:00</time>
      </trkpt>
      <trkpt lat="45.3057" lon="5.75785">
        <ele>1378.25</ele>
        <time>2000-03-06T13:19:19.001+01:00</time>
      </trkpt>
      <trkpt lat="45.30568" lon="5.75809">
        <ele>1370.91</ele>
        <time>2000-03-06T13:19:25.000+01:00</time>
      </trkpt>
      <trkpt lat="45.3058" lon="5.75836">
        <ele>1367.18</ele>
        <time>2000-03-06T13:19:31.000+01:00</time>
      </trkpt>
      <trkpt lat="45.30586" lon="5.75856">
        <ele>1362.61</ele>
        <time>2000-03-06T13:19:37.000+01:00</time>
      </trkpt>
      <trkpt lat="45.30596" lon="5.75868">
        <ele>1357.87</ele>
        <time>2000-03-06T13:19:43.000+01:00</time>
      </trkpt>
      <trkpt lat="45.30606" lon="5.75884">
        <ele>1352.71</ele>
        <time>2000-03-06T13:19:48.999+01:00</time>
      </trkpt>
      <trkpt lat="45.30604" lon="5.75893">
        <ele>1349.65</ele>
        <time>2000-03-06T13:19:55.001+01:00</time>
      </trkpt>
      <trkpt lat="45.30604" lon="5.75893">
        <ele>1349.65</ele>
        <time>2000-03-06T13:20:00.999+01:00</time>
      </trkpt>
      <trkpt lat="45.30604" lon="5.75893">
        <ele>1349.65</ele>
        <time>2000-03-06T13:20:07.000+01:00</time>
      </trkpt>
      <trkpt lat="45.30604" lon="5.75893">
        <ele>1349.65</ele>
        <time>2000-03-06T13:20:12.999+01:00</time>
      </trkpt>
      <trkpt lat="45.30604" lon="5.75893">
        <ele>1349.65</ele>
        <time>2000-03-06T13:20:18.999+01:00</time>
      </trkpt>
      <trkpt lat="45.30603" lon="5.75897">
        <ele>1335.97</ele>
        <time>2000-03-06T13:20:25.000+01:00</time>
      </trkpt>
      <trkpt lat="45.30614" lon="5.75917">
        <ele>1331.2</ele>
        <time>2000-03-06T13:20:31.000+01:00</time>
      </trkpt>
      <trkpt lat="45.30612" lon="5.75922">
        <ele>1329.81</ele>
        <time>2000-03-06T13:20:37.000+01:00</time>
      </trkpt>
      <trkpt lat="45.30611" lon="5.75936">
        <ele>1327.06</ele>
        <time>2000-03-06T13:20:43.000+01:00</time>
      </trkpt>
      <trkpt lat="45.30612" lon="5.75937">
        <ele>1327.45</ele>
        <time>2000-03-06T13:20:48.999+01:00</time>
      </trkpt>
      <trkpt lat="45.30622" lon="5.75935">
        <ele>1321.87</ele>
        <time>2000-03-06T13:20:55.000+01:00</time>
      </trkpt>
      <trkpt lat="45.30631" lon="5.7594">
        <ele>1317.09</ele>
        <time>2000-03-06T13:21:01.000+01:00</time>
      </trkpt>
      <trkpt lat="45.30637" lon="5.75952">
        <ele>1312.82</ele>
        <time>2000-03-06T13:21:07.000+01:00</time>
      </trkpt>
      <trkpt lat="45.30639" lon="5.75975">
        <ele>1310.1</ele>
        <time>2000-03-06T13:21:13.000+01:00</time>
      </trkpt>
      <trkpt lat="45.30641" lon="5.75984">
        <ele>1304.66</ele>
        <time>2000-03-06T13:21:19.000+01:00</time>
      </trkpt>
      <trkpt lat="45.30636" lon="5.75993">
        <ele>1293.92</ele>
        <time>2000-03-06T13:21:25.000+01:00</time>
      </trkpt>
      <trkpt lat="45.30636" lon="5.76017">
        <ele>1294.74</ele>
        <time>2000-03-06T13:21:31.000+01:00</time>
      </trkpt>
      <trkpt lat="45.30646" lon="5.76039">
        <ele>1281.91</ele>
        <time>2000-03-06T13:21:37.000+01:00</time>
      </trkpt>
      <trkpt lat="45.30636" lon="5.76056">
        <ele>1282.13</ele>
        <time>2000-03-06T13:21:43.001+01:00</time>
      </trkpt>
      <trkpt lat="45.30626" lon="5.76062">
        <ele>1273.52</ele>
        <time>2000-03-06T13:21:49.000+01:00</time>
      </trkpt>
      <trkpt lat="45.30626" lon="5.76062">
        <ele>1273.52</ele>
        <time>2000-03-06T13:21:55.000+01:00</time>
      </trkpt>
      <trkpt lat="45.30626" lon="5.76062">
        <ele>1273.52</ele>
        <time>2000-03-06T13:22:01.000+01:00</time>
      </trkpt>
      <trkpt lat="45.30626" lon="5.76062">
        <ele>1273.52</ele>
        <time>2000-03-06T13:22:07.000+01:00</time>
      </trkpt>
      <trkpt lat="45.30626" lon="5.76062">
        <ele>1273.52</ele>
        <time>2000-03-06T13:22:13.000+01:00</time>
      </trkpt>
      <trkpt lat="45.30626" lon="5.76062">
        <ele>1273.52</ele>
        <time>2000-03-06T13:22:19.000+01:00</time>
      </trkpt>
      <trkpt lat="45.30626" lon="5.76062">
        <ele>1273.52</ele>
        <time>2000-03-06T13:22:25.000+01:00</time>
      </trkpt>
      <trkpt lat="45.30626" lon="5.76062">
        <ele>1273.52</ele>
        <time>2000-03-06T13:22:31.000+01:00</time>
      </trkpt>
      <trkpt lat="45.30626" lon="5.76062">
        <ele>1273.52</ele>
        <time>2000-03-06T13:22:37.000+01:00</time>
      </trkpt>
      <trkpt lat="45.30626" lon="5.76062">
        <ele>1273.52</ele>
        <time>2000-03-06T13:22:43.000+01:00</time>
      </trkpt>
      <trkpt lat="45.30626" lon="5.76062">
        <ele>1273.52</ele>
        <time>2000-03-06T13:22:49.000+01:00</time>
      </trkpt>
      <trkpt lat="45.30626" lon="5.76062">
        <ele>1273.52</ele>
        <time>2000-03-06T13:22:55.000+01:00</time>
      </trkpt>
      <trkpt lat="45.30626" lon="5.76062">
        <ele>1273.52</ele>
        <time>2000-03-06T13:23:01.000+01:00</time>
      </trkpt>
      <trkpt lat="45.30626" lon="5.76062">
        <ele>1273.52</ele>
        <time>2000-03-06T13:23:07.000+01:00</time>
      </trkpt>
      <trkpt lat="45.30626" lon="5.76062">
        <ele>1273.52</ele>
        <time>2000-03-06T13:23:13.000+01:00</time>
      </trkpt>
      <trkpt lat="45.30626" lon="5.76062">
        <ele>1273.52</ele>
        <time>2000-03-06T13:23:19.000+01:00</time>
      </trkpt>
      <trkpt lat="45.30626" lon="5.76062">
        <ele>1273.52</ele>
        <time>2000-03-06T13:23:25.000+01:00</time>
      </trkpt>
      <trkpt lat="45.30626" lon="5.76062">
        <ele>1273.52</ele>
        <time>2000-03-06T13:23:31.000+01:00</time>
      </trkpt>
      <trkpt lat="45.30626" lon="5.76062">
        <ele>1273.52</ele>
        <time>2000-03-06T13:23:37.000+01:00</time>
      </trkpt>
      <trkpt lat="45.30626" lon="5.76062">
        <ele>1273.52</ele>
        <time>2000-03-06T13:23:43.000+01:00</time>
      </trkpt>
      <trkpt lat="45.30626" lon="5.76062">
        <ele>1273.52</ele>
        <time>2000-03-06T13:23:49.000+01:00</time>
      </trkpt>
      <trkpt lat="45.30626" lon="5.76062">
        <ele>1273.52</ele>
        <time>2000-03-06T13:23:55.000+01:00</time>
      </trkpt>
      <trkpt lat="45.30626" lon="5.76062">
        <ele>1273.52</ele>
        <time>2000-03-06T13:24:01.000+01:00</time>
      </trkpt>
      <trkpt lat="45.30626" lon="5.76062">
        <ele>1273.52</ele>
        <time>2000-03-06T13:24:07.000+01:00</time>
      </trkpt>
      <trkpt lat="45.30626" lon="5.76062">
        <ele>1273.52</ele>
        <time>2000-03-06T13:24:13.000+01:00</time>
      </trkpt>
      <trkpt lat="45.30626" lon="5.76062">
        <ele>1273.52</ele>
        <time>2000-03-06T13:24:19.000+01:00</time>
      </trkpt>
      <trkpt lat="45.30626" lon="5.76062">
        <ele>1273.52</ele>
        <time>2000-03-06T13:24:25.000+01:00</time>
      </trkpt>
      <trkpt lat="45.30626" lon="5.76062">
        <ele>1273.52</ele>
        <time>2000-03-06T13:24:31.000+01:00</time>
      </trkpt>
      <trkpt lat="45.30626" lon="5.76062">
        <ele>1273.52</ele>
        <time>2000-03-06T13:24:37.000+01:00</time>
      </trkpt>
      <trkpt lat="45.30626" lon="5.76062">
        <ele>1273.52</ele>
        <time>2000-03-06T13:24:43.000+01:00</time>
      </trkpt>
      <trkpt lat="45.30626" lon="5.76062">
        <ele>1273.52</ele>
        <time>2000-03-06T13:24:49.000+01:00</time>
      </trkpt>
      <trkpt lat="45.30626" lon="5.76062">
        <ele>1273.52</ele>
        <time>2000-03-06T13:24:55.000+01:00</time>
      </trkpt>
      <trkpt lat="45.30626" lon="5.76062">
        <ele>1273.52</ele>
        <time>2000-03-06T13:25:01.000+01:00</time>
      </trkpt>
      <trkpt lat="45.30626" lon="5.76062">
        <ele>1273.52</ele>
        <time>2000-03-06T13:25:07.000+01:00</time>
      </trkpt>
      <trkpt lat="45.30626" lon="5.76062">
        <ele>1273.52</ele>
        <time>2000-03-06T13:25:13.000+01:00</time>
      </trkpt>
      <trkpt lat="45.30626" lon="5.76062">
        <ele>1273.52</ele>
        <time>2000-03-06T13:25:19.002+01:00</time>
      </trkpt>
      <trkpt lat="45.30626" lon="5.76062">
        <ele>1273.52</ele>
        <time>2000-03-06T13:25:24.999+01:00</time>
      </trkpt>
      <trkpt lat="45.30626" lon="5.76062">
        <ele>1273.52</ele>
        <time>2000-03-06T13:25:31.001+01:00</time>
      </trkpt>
      <trkpt lat="45.30629" lon="5.76057">
        <ele>1272.29</ele>
        <time>2000-03-06T13:25:37.000+01:00</time>
      </trkpt>
      <trkpt lat="45.30628" lon="5.76059">
        <ele>1269.76</ele>
        <time>2000-03-06T13:25:43.000+01:00</time>
      </trkpt>
      <trkpt lat="45.30628" lon="5.76059">
        <ele>1269.76</ele>
        <time>2000-03-06T13:25:49.000+01:00</time>
      </trkpt>
      <trkpt lat="45.30628" lon="5.76059">
        <ele>1269.76</ele>
        <time>2000-03-06T13:25:55.001+01:00</time>
      </trkpt>
      <trkpt lat="45.30628" lon="5.76059">
        <ele>1269.76</ele>
        <time>2000-03-06T13:26:01.000+01:00</time>
      </trkpt>
      <trkpt lat="45.30628" lon="5.76059">
        <ele>1269.76</ele>
        <time>2000-03-06T13:26:07.000+01:00</time>
      </trkpt>
      <trkpt lat="45.30628" lon="5.76059">
        <ele>1269.76</ele>
        <time>2000-03-06T13:26:13.000+01:00</time>
      </trkpt>
      <trkpt lat="45.30628" lon="5.76059">
        <ele>1269.76</ele>
        <time>2000-03-06T13:26:19.000+01:00</time>
      </trkpt>
      <trkpt lat="45.30628" lon="5.76059">
        <ele>1269.76</ele>
        <time>2000-03-06T13:26:25.000+01:00</time>
      </trkpt>
      <trkpt lat="45.30628" lon="5.76059">
        <ele>1269.76</ele>
        <time>2000-03-06T13:26:31.000+01:00</time>
      </trkpt>
      <trkpt lat="45.30628" lon="5.76059">
        <ele>1269.76</ele>
        <time>2000-03-06T13:26:37.001+01:00</time>
      </trkpt>
      <trkpt lat="45.30628" lon="5.76059">
        <ele>1269.76</ele>
        <time>2000-03-06T13:26:43.000+01:00</time>
      </trkpt>
      <trkpt lat="45.30628" lon="5.76059">
        <ele>1269.76</ele>
        <time>2000-03-06T13:26:49.000+01:00</time>
      </trkpt>
      <trkpt lat="45.30628" lon="5.76059">
        <ele>1269.76</ele>
        <time>2000-03-06T13:26:55.000+01:00</time>
      </trkpt>
      <trkpt lat="45.30628" lon="5.76059">
        <ele>1269.76</ele>
        <time>2000-03-06T13:27:01.000+01:00</time>
      </trkpt>
      <trkpt lat="45.30628" lon="5.76059">
        <ele>1269.76</ele>
        <time>2000-03-06T13:27:07.000+01:00</time>
      </trkpt>
      <trkpt lat="45.30628" lon="5.76059">
        <ele>1269.76</ele>
        <time>2000-03-06T13:27:13.000+01:00</time>
      </trkpt>
      <trkpt lat="45.30628" lon="5.76059">
        <ele>1269.76</ele>
        <time>2000-03-06T13:27:19.002+01:00</time>
      </trkpt>
      <trkpt lat="45.30628" lon="5.76059">
        <ele>1269.76</ele>
        <time>2000-03-06T13:27:25.001+01:00</time>
      </trkpt>
      <trkpt lat="45.30628" lon="5.76059">
        <ele>1269.76</ele>
        <time>2000-03-06T13:27:31.001+01:00</time>
      </trkpt>
      <trkpt lat="45.30628" lon="5.76059">
        <ele>1269.76</ele>
        <time>2000-03-06T13:27:37.000+01:00</time>
      </trkpt>
      <trkpt lat="45.30628" lon="5.76059">
        <ele>1269.76</ele>
        <time>2000-03-06T13:27:43.000+01:00</time>
      </trkpt>
      <trkpt lat="45.30628" lon="5.76059">
        <ele>1269.76</ele>
        <time>2000-03-06T13:27:49.000+01:00</time>
      </trkpt>
      <trkpt lat="45.30628" lon="5.76059">
        <ele>1269.76</ele>
        <time>2000-03-06T13:27:55.000+01:00</time>
      </trkpt>
      <trkpt lat="45.30646" lon="5.76058">
        <ele>1269.26</ele>
        <time>2000-03-06T13:28:01.000+01:00</time>
      </trkpt>
      <trkpt lat="45.30662" lon="5.7607">
        <ele>1268.83</ele>
        <time>2000-03-06T13:28:07.000+01:00</time>
      </trkpt>
      <trkpt lat="45.30678" lon="5.76112">
        <ele>1268.94</ele>
        <time>2000-03-06T13:28:13.000+01:00</time>
      </trkpt>
      <trkpt lat="45.30677" lon="5.76113">
        <ele>1272.16</ele>
        <time>2000-03-06T13:28:19.000+01:00</time>
      </trkpt>
      <trkpt lat="45.30677" lon="5.76113">
        <ele>1272.16</ele>
        <time>2000-03-06T13:28:25.000+01:00</time>
      </trkpt>
      <trkpt lat="45.30677" lon="5.76113">
        <ele>1272.16</ele>
        <time>2000-03-06T13:28:31.000+01:00</time>
      </trkpt>
      <trkpt lat="45.30686" lon="5.76117">
        <ele>1273.24</ele>
        <time>2000-03-06T13:28:37.000+01:00</time>
      </trkpt>
      <trkpt lat="45.30689" lon="5.76122">
        <ele>1269.74</ele>
        <time>2000-03-06T13:28:43.000+01:00</time>
      </trkpt>
      <trkpt lat="45.30689" lon="5.76122">
        <ele>1269.74</ele>
        <time>2000-03-06T13:28:49.000+01:00</time>
      </trkpt>
      <trkpt lat="45.30695" lon="5.76134">
        <ele>1265.7</ele>
        <time>2000-03-06T13:28:55.000+01:00</time>
      </trkpt>
      <trkpt lat="45.30712" lon="5.76156">
        <ele>1266.96</ele>
        <time>2000-03-06T13:29:01.000+01:00</time>
      </trkpt>
      <trkpt lat="45.30734" lon="5.76185">
        <ele>1266.46</ele>
        <time>2000-03-06T13:29:07.000+01:00</time>
      </trkpt>
      <trkpt lat="45.30757" lon="5.76209">
        <ele>1259.17</ele>
        <time>2000-03-06T13:29:13.000+01:00</time>
      </trkpt>
      <trkpt lat="45.30776" lon="5.76245">
        <ele>1255.25</ele>
        <time>2000-03-06T13:29:19.000+01:00</time>
      </trkpt>
      <trkpt lat="45.30797" lon="5.76293">
        <ele>1249.23</ele>
        <time>2000-03-06T13:29:25.000+01:00</time>
      </trkpt>
      <trkpt lat="45.30818" lon="5.76344">
        <ele>1230.18</ele>
        <time>2000-03-06T13:29:31.000+01:00</time>
      </trkpt>
      <trkpt lat="45.30825" lon="5.7638">
        <ele>1225.77</ele>
        <time>2000-03-06T13:29:37.000+01:00</time>
      </trkpt>
      <trkpt lat="45.30832" lon="5.76392">
        <ele>1225.78</ele>
        <time>2000-03-06T13:29:43.000+01:00</time>
      </trkpt>
      <trkpt lat="45.30851" lon="5.76453">
        <ele>1216.12</ele>
        <time>2000-03-06T13:29:49.000+01:00</time>
      </trkpt>
      <trkpt lat="45.30832" lon="5.76507">
        <ele>1217.72</ele>
        <time>2000-03-06T13:29:55.000+01:00</time>
      </trkpt>
      <trkpt lat="45.30812" lon="5.76533">
        <ele>1224.3</ele>
        <time>2000-03-06T13:30:01.000+01:00</time>
      </trkpt>
      <trkpt lat="45.30813" lon="5.76541">
        <ele>1219.45</ele>
        <time>2000-03-06T13:30:07.000+01:00</time>
      </trkpt>
      <trkpt lat="45.30813" lon="5.76541">
        <ele>1219.45</ele>
        <time>2000-03-06T13:30:13.000+01:00</time>
      </trkpt>
      <trkpt lat="45.30813" lon="5.76541">
        <ele>1219.45</ele>
        <time>2000-03-06T13:30:19.000+01:00</time>
      </trkpt>
      <trkpt lat="45.30813" lon="5.76541">
        <ele>1219.45</ele>
        <time>2000-03-06T13:30:25.000+01:00</time>
      </trkpt>
      <trkpt lat="45.30813" lon="5.76541">
        <ele>1219.45</ele>
        <time>2000-03-06T13:30:31.000+01:00</time>
      </trkpt>
      <trkpt lat="45.30813" lon="5.76541">
        <ele>1219.45</ele>
        <time>2000-03-06T13:30:37.000+01:00</time>
      </trkpt>
      <trkpt lat="45.30808" lon="5.76569">
        <ele>1224.73</ele>
        <time>2000-03-06T13:30:43.000+01:00</time>
      </trkpt>
      <trkpt lat="45.30803" lon="5.76587">
        <ele>1209.62</ele>
        <time>2000-03-06T13:30:49.002+01:00</time>
      </trkpt>
      <trkpt lat="45.308" lon="5.76609">
        <ele>1204.94</ele>
        <time>2000-03-06T13:30:55.000+01:00</time>
      </trkpt>
      <trkpt lat="45.30776" lon="5.76644">
        <ele>1192.24</ele>
        <time>2000-03-06T13:31:01.000+01:00</time>
      </trkpt>
      <trkpt lat="45.30769" lon="5.76663">
        <ele>1183.08</ele>
        <time>2000-03-06T13:31:07.001+01:00</time>
      </trkpt>
      <trkpt lat="45.30767" lon="5.76666">
        <ele>1177.99</ele>
        <time>2000-03-06T13:31:13.000+01:00</time>
      </trkpt>
      <trkpt lat="45.30756" lon="5.76676">
        <ele>1173.57</ele>
        <time>2000-03-06T13:31:19.000+01:00</time>
      </trkpt>
      <trkpt lat="45.30779" lon="5.76704">
        <ele>1177.23</ele>
        <time>2000-03-06T13:31:25.000+01:00</time>
      </trkpt>
      <trkpt lat="45.30807" lon="5.76716">
        <ele>1176.42</ele>
        <time>2000-03-06T13:31:31.000+01:00</time>
      </trkpt>
      <trkpt lat="45.3083" lon="5.76739">
        <ele>1176.02</ele>
        <time>2000-03-06T13:31:37.000+01:00</time>
      </trkpt>
      <trkpt lat="45.30851" lon="5.76757">
        <ele>1175.45</ele>
        <time>2000-03-06T13:31:43.000+01:00</time>
      </trkpt>
      <trkpt lat="45.30873" lon="5.76771">
        <ele>1170.92</ele>
        <time>2000-03-06T13:31:49.000+01:00</time>
      </trkpt>
      <trkpt lat="45.30878" lon="5.76772">
        <ele>1170.97</ele>
        <time>2000-03-06T13:31:55.000+01:00</time>
      </trkpt>
      <trkpt lat="45.30902" lon="5.76796">
        <ele>1160</ele>
        <time>2000-03-06T13:32:01.000+01:00</time>
      </trkpt>
      <trkpt lat="45.30908" lon="5.76807">
        <ele>1156.53</ele>
        <time>2000-03-06T13:32:07.000+01:00</time>
      </trkpt>
      <trkpt lat="45.3091" lon="5.76832">
        <ele>1146.99</ele>
        <time>2000-03-06T13:32:13.000+01:00</time>
      </trkpt>
      <trkpt lat="45.30911" lon="5.76835">
        <ele>1139.81</ele>
        <time>2000-03-06T13:32:19.000+01:00</time>
      </trkpt>
      <trkpt lat="45.30911" lon="5.76835">
        <ele>1139.81</ele>
        <time>2000-03-06T13:32:25.000+01:00</time>
      </trkpt>
      <trkpt lat="45.3091" lon="5.76848">
        <ele>1134</ele>
        <time>2000-03-06T13:32:31.000+01:00</time>
      </trkpt>
      <trkpt lat="45.30915" lon="5.76872">
        <ele>1137.01</ele>
        <time>2000-03-06T13:32:37.002+01:00</time>
      </trkpt>
      <trkpt lat="45.30915" lon="5.76881">
        <ele>1136.32</ele>
        <time>2000-03-06T13:32:43.000+01:00</time>
      </trkpt>
      <trkpt lat="45.30915" lon="5.76881">
        <ele>1136.32</ele>
        <time>2000-03-06T13:32:49.000+01:00</time>
      </trkpt>
      <trkpt lat="45.30915" lon="5.76881">
        <ele>1136.32</ele>
        <time>2000-03-06T13:32:55.000+01:00</time>
      </trkpt>
      <trkpt lat="45.30915" lon="5.76881">
        <ele>1136.32</ele>
        <time>2000-03-06T13:33:01.000+01:00</time>
      </trkpt>
      <trkpt lat="45.30915" lon="5.76881">
        <ele>1136.32</ele>
        <time>2000-03-06T13:33:07.000+01:00</time>
      </trkpt>
      <trkpt lat="45.30915" lon="5.76881">
        <ele>1136.32</ele>
        <time>2000-03-06T13:33:13.000+01:00</time>
      </trkpt>
      <trkpt lat="45.30919" lon="5.76892">
        <ele>1134.8</ele>
        <time>2000-03-06T13:33:19.000+01:00</time>
      </trkpt>
      <trkpt lat="45.30919" lon="5.76894">
        <ele>1130.77</ele>
        <time>2000-03-06T13:33:25.001+01:00</time>
      </trkpt>
      <trkpt lat="45.30919" lon="5.76894">
        <ele>1130.77</ele>
        <time>2000-03-06T13:33:31.000+01:00</time>
      </trkpt>
      <trkpt lat="45.30919" lon="5.76894">
        <ele>1130.77</ele>
        <time>2000-03-06T13:33:37.000+01:00</time>
      </trkpt>
      <trkpt lat="45.30919" lon="5.76894">
        <ele>1130.77</ele>
        <time>2000-03-06T13:33:43.000+01:00</time>
      </trkpt>
      <trkpt lat="45.30919" lon="5.76894">
        <ele>1130.77</ele>
        <time>2000-03-06T13:33:49.000+01:00</time>
      </trkpt>
      <trkpt lat="45.30937" lon="5.76916">
        <ele>1128.39</ele>
        <time>2000-03-06T13:33:55.000+01:00</time>
      </trkpt>
      <trkpt lat="45.30945" lon="5.76926">
        <ele>1125.27</ele>
        <time>2000-03-06T13:34:01.000+01:00</time>
      </trkpt>
      <trkpt lat="45.30945" lon="5.76928">
        <ele>1126.18</ele>
        <time>2000-03-06T13:34:07.000+01:00</time>
      </trkpt>
      <trkpt lat="45.30945" lon="5.76928">
        <ele>1126.18</ele>
        <time>2000-03-06T13:34:13.000+01:00</time>
      </trkpt>
      <trkpt lat="45.30945" lon="5.76928">
        <ele>1126.18</ele>
        <time>2000-03-06T13:34:19.003+01:00</time>
      </trkpt>
      <trkpt lat="45.30945" lon="5.76928">
        <ele>1126.18</ele>
        <time>2000-03-06T13:34:25.000+01:00</time>
      </trkpt>
      <trkpt lat="45.30945" lon="5.76928">
        <ele>1126.18</ele>
        <time>2000-03-06T13:34:33.000+01:00</time>
      </trkpt>
      <trkpt lat="45.30945" lon="5.76928">
        <ele>1126.18</ele>
        <time>2000-03-06T13:34:39.000+01:00</time>
      </trkpt>
      <trkpt lat="45.30945" lon="5.76928">
        <ele>1126.18</ele>
        <time>2000-03-06T13:34:45.000+01:00</time>
      </trkpt>
      <trkpt lat="45.30945" lon="5.76928">
        <ele>1126.18</ele>
        <time>2000-03-06T13:34:51.000+01:00</time>
      </trkpt>
      <trkpt lat="45.30945" lon="5.76928">
        <ele>1126.18</ele>
        <time>2000-03-06T13:34:57.000+01:00</time>
      </trkpt>
    </trkseg>
  </trk>
</gpx>